<?xml version="1.0" encoding="UTF-8" standalone="no" ?>
<gpx xmlns="http://www.topografix.com/GPX/1/1" xmlns:xsi="http://www.w3.org/2001/XMLSchema-instance" xsi:schemaLocation="http://www.topografix.com/GPX/1/1 http://www.topografix.com/GPX/1/1/gpx.xsd" version="1.1" creator="VisuGPX - https://www.visugpx.com">
  <metadata>
    <name>Nordique Francilienne 2022 - 19km</name>
  </metadata>
  <trk>
    <name><![CDATA[Enregistrement du 06/03/2022]]></name>
    <trkseg>
      <trkpt lat="48.53882" lon="2.07922">
        <ele>83</ele>
        <time>2022-03-06T07:20:55Z</time>
      </trkpt>
      <trkpt lat="48.53882" lon="2.07925">
        <ele>83</ele>
        <time>2022-03-06T07:20:59Z</time>
      </trkpt>
      <trkpt lat="48.53881" lon="2.07928">
        <ele>83</ele>
        <time>2022-03-06T07:21:03Z</time>
      </trkpt>
      <trkpt lat="48.53879" lon="2.07931">
        <ele>83</ele>
        <time>2022-03-06T07:21:07Z</time>
      </trkpt>
      <trkpt lat="48.53876" lon="2.07933">
        <ele>83</ele>
        <time>2022-03-06T07:21:10Z</time>
      </trkpt>
      <trkpt lat="48.53874" lon="2.07936">
        <ele>83</ele>
        <time>2022-03-06T07:21:15Z</time>
      </trkpt>
      <trkpt lat="48.53871" lon="2.07939">
        <ele>83</ele>
        <time>2022-03-06T07:21:18Z</time>
      </trkpt>
      <trkpt lat="48.53869" lon="2.07943">
        <ele>83</ele>
        <time>2022-03-06T07:21:21Z</time>
      </trkpt>
      <trkpt lat="48.53868" lon="2.07951">
        <ele>83</ele>
        <time>2022-03-06T07:21:24Z</time>
      </trkpt>
      <trkpt lat="48.53868" lon="2.07956">
        <ele>83</ele>
        <time>2022-03-06T07:21:28Z</time>
      </trkpt>
      <trkpt lat="48.53869" lon="2.07961">
        <ele>83</ele>
        <time>2022-03-06T07:21:31Z</time>
      </trkpt>
      <trkpt lat="48.5387" lon="2.07965">
        <ele>83</ele>
        <time>2022-03-06T07:21:34Z</time>
      </trkpt>
      <trkpt lat="48.53872" lon="2.07969">
        <ele>83</ele>
        <time>2022-03-06T07:21:36Z</time>
      </trkpt>
      <trkpt lat="48.53874" lon="2.07973">
        <ele>83</ele>
        <time>2022-03-06T07:21:39Z</time>
      </trkpt>
      <trkpt lat="48.53875" lon="2.07977">
        <ele>83</ele>
        <time>2022-03-06T07:21:42Z</time>
      </trkpt>
      <trkpt lat="48.53877" lon="2.0798">
        <ele>83</ele>
        <time>2022-03-06T07:21:45Z</time>
      </trkpt>
      <trkpt lat="48.53881" lon="2.07981">
        <ele>83</ele>
        <time>2022-03-06T07:21:48Z</time>
      </trkpt>
      <trkpt lat="48.53884" lon="2.0798">
        <ele>83</ele>
        <time>2022-03-06T07:21:50Z</time>
      </trkpt>
      <trkpt lat="48.53887" lon="2.0798">
        <ele>83</ele>
        <time>2022-03-06T07:21:52Z</time>
      </trkpt>
      <trkpt lat="48.5389" lon="2.07979">
        <ele>83</ele>
        <time>2022-03-06T07:21:55Z</time>
      </trkpt>
      <trkpt lat="48.53893" lon="2.07977">
        <ele>84</ele>
        <time>2022-03-06T07:21:58Z</time>
      </trkpt>
      <trkpt lat="48.53896" lon="2.07975">
        <ele>84</ele>
        <time>2022-03-06T07:22:01Z</time>
      </trkpt>
      <trkpt lat="48.53899" lon="2.07972">
        <ele>84</ele>
        <time>2022-03-06T07:22:04Z</time>
      </trkpt>
      <trkpt lat="48.53903" lon="2.0797">
        <ele>84</ele>
        <time>2022-03-06T07:22:07Z</time>
      </trkpt>
      <trkpt lat="48.53906" lon="2.07969">
        <ele>83</ele>
        <time>2022-03-06T07:22:10Z</time>
      </trkpt>
      <trkpt lat="48.53909" lon="2.07968">
        <ele>83</ele>
        <time>2022-03-06T07:22:13Z</time>
      </trkpt>
      <trkpt lat="48.53911" lon="2.07967">
        <ele>83</ele>
        <time>2022-03-06T07:22:16Z</time>
      </trkpt>
      <trkpt lat="48.53915" lon="2.07966">
        <ele>83</ele>
        <time>2022-03-06T07:22:20Z</time>
      </trkpt>
      <trkpt lat="48.53918" lon="2.07964">
        <ele>83</ele>
        <time>2022-03-06T07:22:23Z</time>
      </trkpt>
      <trkpt lat="48.53921" lon="2.07962">
        <ele>83</ele>
        <time>2022-03-06T07:22:26Z</time>
      </trkpt>
      <trkpt lat="48.53924" lon="2.0796">
        <ele>83</ele>
        <time>2022-03-06T07:22:29Z</time>
      </trkpt>
      <trkpt lat="48.53927" lon="2.07959">
        <ele>83</ele>
        <time>2022-03-06T07:22:32Z</time>
      </trkpt>
      <trkpt lat="48.5393" lon="2.07957">
        <ele>83</ele>
        <time>2022-03-06T07:22:34Z</time>
      </trkpt>
      <trkpt lat="48.53933" lon="2.07954">
        <ele>83</ele>
        <time>2022-03-06T07:22:37Z</time>
      </trkpt>
      <trkpt lat="48.53935" lon="2.07951">
        <ele>83</ele>
        <time>2022-03-06T07:22:40Z</time>
      </trkpt>
      <trkpt lat="48.53937" lon="2.07948">
        <ele>84</ele>
        <time>2022-03-06T07:22:42Z</time>
      </trkpt>
      <trkpt lat="48.53938" lon="2.07943">
        <ele>84</ele>
        <time>2022-03-06T07:22:45Z</time>
      </trkpt>
      <trkpt lat="48.5394" lon="2.07939">
        <ele>84</ele>
        <time>2022-03-06T07:22:48Z</time>
      </trkpt>
      <trkpt lat="48.53943" lon="2.07936">
        <ele>84</ele>
        <time>2022-03-06T07:22:51Z</time>
      </trkpt>
      <trkpt lat="48.53946" lon="2.07933">
        <ele>85</ele>
        <time>2022-03-06T07:22:54Z</time>
      </trkpt>
      <trkpt lat="48.53949" lon="2.0793">
        <ele>85</ele>
        <time>2022-03-06T07:22:57Z</time>
      </trkpt>
      <trkpt lat="48.53952" lon="2.07927">
        <ele>85</ele>
        <time>2022-03-06T07:23:00Z</time>
      </trkpt>
      <trkpt lat="48.53955" lon="2.07923">
        <ele>86</ele>
        <time>2022-03-06T07:23:03Z</time>
      </trkpt>
      <trkpt lat="48.53958" lon="2.07921">
        <ele>86</ele>
        <time>2022-03-06T07:23:06Z</time>
      </trkpt>
      <trkpt lat="48.53961" lon="2.07918">
        <ele>86</ele>
        <time>2022-03-06T07:23:09Z</time>
      </trkpt>
      <trkpt lat="48.53964" lon="2.07916">
        <ele>87</ele>
        <time>2022-03-06T07:23:12Z</time>
      </trkpt>
      <trkpt lat="48.53966" lon="2.07913">
        <ele>87</ele>
        <time>2022-03-06T07:23:15Z</time>
      </trkpt>
      <trkpt lat="48.53969" lon="2.0791">
        <ele>88</ele>
        <time>2022-03-06T07:23:19Z</time>
      </trkpt>
      <trkpt lat="48.53972" lon="2.07908">
        <ele>88</ele>
        <time>2022-03-06T07:23:22Z</time>
      </trkpt>
      <trkpt lat="48.53975" lon="2.07906">
        <ele>88</ele>
        <time>2022-03-06T07:23:24Z</time>
      </trkpt>
      <trkpt lat="48.53978" lon="2.07903">
        <ele>89</ele>
        <time>2022-03-06T07:23:27Z</time>
      </trkpt>
      <trkpt lat="48.5398" lon="2.07899">
        <ele>90</ele>
        <time>2022-03-06T07:23:31Z</time>
      </trkpt>
      <trkpt lat="48.53982" lon="2.07896">
        <ele>91</ele>
        <time>2022-03-06T07:23:36Z</time>
      </trkpt>
      <trkpt lat="48.53987" lon="2.07892">
        <ele>91</ele>
        <time>2022-03-06T07:23:43Z</time>
      </trkpt>
      <trkpt lat="48.53991" lon="2.07889">
        <ele>92</ele>
        <time>2022-03-06T07:23:44Z</time>
      </trkpt>
      <trkpt lat="48.53995" lon="2.07886">
        <ele>92</ele>
        <time>2022-03-06T07:23:45Z</time>
      </trkpt>
      <trkpt lat="48.53999" lon="2.07886">
        <ele>92</ele>
        <time>2022-03-06T07:23:48Z</time>
      </trkpt>
      <trkpt lat="48.54001" lon="2.07889">
        <ele>93</ele>
        <time>2022-03-06T07:23:51Z</time>
      </trkpt>
      <trkpt lat="48.54001" lon="2.07894">
        <ele>94</ele>
        <time>2022-03-06T07:23:54Z</time>
      </trkpt>
      <trkpt lat="48.54002" lon="2.07898">
        <ele>94</ele>
        <time>2022-03-06T07:23:56Z</time>
      </trkpt>
      <trkpt lat="48.54003" lon="2.07902">
        <ele>95</ele>
        <time>2022-03-06T07:23:59Z</time>
      </trkpt>
      <trkpt lat="48.54005" lon="2.07905">
        <ele>95</ele>
        <time>2022-03-06T07:24:01Z</time>
      </trkpt>
      <trkpt lat="48.54008" lon="2.07908">
        <ele>96</ele>
        <time>2022-03-06T07:24:04Z</time>
      </trkpt>
      <trkpt lat="48.54009" lon="2.07911">
        <ele>96</ele>
        <time>2022-03-06T07:24:06Z</time>
      </trkpt>
      <trkpt lat="48.5401" lon="2.07916">
        <ele>96</ele>
        <time>2022-03-06T07:24:09Z</time>
      </trkpt>
      <trkpt lat="48.5401" lon="2.07922">
        <ele>96</ele>
        <time>2022-03-06T07:24:12Z</time>
      </trkpt>
      <trkpt lat="48.5401" lon="2.07928">
        <ele>95</ele>
        <time>2022-03-06T07:24:14Z</time>
      </trkpt>
      <trkpt lat="48.5401" lon="2.07933">
        <ele>95</ele>
        <time>2022-03-06T07:24:16Z</time>
      </trkpt>
      <trkpt lat="48.5401" lon="2.07938">
        <ele>95</ele>
        <time>2022-03-06T07:24:18Z</time>
      </trkpt>
      <trkpt lat="48.54011" lon="2.07942">
        <ele>95</ele>
        <time>2022-03-06T07:24:20Z</time>
      </trkpt>
      <trkpt lat="48.54011" lon="2.07947">
        <ele>95</ele>
        <time>2022-03-06T07:24:22Z</time>
      </trkpt>
      <trkpt lat="48.54012" lon="2.07952">
        <ele>95</ele>
        <time>2022-03-06T07:24:25Z</time>
      </trkpt>
      <trkpt lat="48.54014" lon="2.07955">
        <ele>95</ele>
        <time>2022-03-06T07:24:27Z</time>
      </trkpt>
      <trkpt lat="48.54015" lon="2.0796">
        <ele>95</ele>
        <time>2022-03-06T07:24:29Z</time>
      </trkpt>
      <trkpt lat="48.54017" lon="2.07965">
        <ele>94</ele>
        <time>2022-03-06T07:24:32Z</time>
      </trkpt>
      <trkpt lat="48.54018" lon="2.0797">
        <ele>94</ele>
        <time>2022-03-06T07:24:35Z</time>
      </trkpt>
      <trkpt lat="48.5402" lon="2.07975">
        <ele>94</ele>
        <time>2022-03-06T07:24:37Z</time>
      </trkpt>
      <trkpt lat="48.54021" lon="2.0798">
        <ele>94</ele>
        <time>2022-03-06T07:24:39Z</time>
      </trkpt>
      <trkpt lat="48.54021" lon="2.07985">
        <ele>94</ele>
        <time>2022-03-06T07:24:41Z</time>
      </trkpt>
      <trkpt lat="48.54022" lon="2.0799">
        <ele>94</ele>
        <time>2022-03-06T07:24:43Z</time>
      </trkpt>
      <trkpt lat="48.54023" lon="2.07994">
        <ele>94</ele>
        <time>2022-03-06T07:24:45Z</time>
      </trkpt>
      <trkpt lat="48.54025" lon="2.07998">
        <ele>94</ele>
        <time>2022-03-06T07:24:47Z</time>
      </trkpt>
      <trkpt lat="48.54026" lon="2.08003">
        <ele>94</ele>
        <time>2022-03-06T07:24:50Z</time>
      </trkpt>
      <trkpt lat="48.54027" lon="2.08008">
        <ele>94</ele>
        <time>2022-03-06T07:24:52Z</time>
      </trkpt>
      <trkpt lat="48.54029" lon="2.08013">
        <ele>94</ele>
        <time>2022-03-06T07:24:55Z</time>
      </trkpt>
      <trkpt lat="48.5403" lon="2.08018">
        <ele>94</ele>
        <time>2022-03-06T07:24:58Z</time>
      </trkpt>
      <trkpt lat="48.54031" lon="2.08023">
        <ele>94</ele>
        <time>2022-03-06T07:25:00Z</time>
      </trkpt>
      <trkpt lat="48.54032" lon="2.08028">
        <ele>94</ele>
        <time>2022-03-06T07:25:03Z</time>
      </trkpt>
      <trkpt lat="48.54033" lon="2.08033">
        <ele>93</ele>
        <time>2022-03-06T07:25:05Z</time>
      </trkpt>
      <trkpt lat="48.54034" lon="2.08038">
        <ele>93</ele>
        <time>2022-03-06T07:25:07Z</time>
      </trkpt>
      <trkpt lat="48.54034" lon="2.08043">
        <ele>93</ele>
        <time>2022-03-06T07:25:09Z</time>
      </trkpt>
      <trkpt lat="48.54034" lon="2.08047">
        <ele>93</ele>
        <time>2022-03-06T07:25:11Z</time>
      </trkpt>
      <trkpt lat="48.54034" lon="2.08052">
        <ele>93</ele>
        <time>2022-03-06T07:25:13Z</time>
      </trkpt>
      <trkpt lat="48.54035" lon="2.08056">
        <ele>93</ele>
        <time>2022-03-06T07:25:15Z</time>
      </trkpt>
      <trkpt lat="48.54035" lon="2.08062">
        <ele>93</ele>
        <time>2022-03-06T07:25:17Z</time>
      </trkpt>
      <trkpt lat="48.54035" lon="2.08067">
        <ele>94</ele>
        <time>2022-03-06T07:25:19Z</time>
      </trkpt>
      <trkpt lat="48.54037" lon="2.08073">
        <ele>94</ele>
        <time>2022-03-06T07:25:22Z</time>
      </trkpt>
      <trkpt lat="48.54037" lon="2.08078">
        <ele>94</ele>
        <time>2022-03-06T07:25:24Z</time>
      </trkpt>
      <trkpt lat="48.54038" lon="2.08083">
        <ele>94</ele>
        <time>2022-03-06T07:25:26Z</time>
      </trkpt>
      <trkpt lat="48.54039" lon="2.08087">
        <ele>95</ele>
        <time>2022-03-06T07:25:29Z</time>
      </trkpt>
      <trkpt lat="48.5404" lon="2.08092">
        <ele>95</ele>
        <time>2022-03-06T07:25:32Z</time>
      </trkpt>
      <trkpt lat="48.54041" lon="2.08096">
        <ele>95</ele>
        <time>2022-03-06T07:25:34Z</time>
      </trkpt>
      <trkpt lat="48.54042" lon="2.08101">
        <ele>95</ele>
        <time>2022-03-06T07:25:37Z</time>
      </trkpt>
      <trkpt lat="48.54043" lon="2.08106">
        <ele>95</ele>
        <time>2022-03-06T07:25:39Z</time>
      </trkpt>
      <trkpt lat="48.54044" lon="2.08111">
        <ele>95</ele>
        <time>2022-03-06T07:25:42Z</time>
      </trkpt>
      <trkpt lat="48.54045" lon="2.08117">
        <ele>95</ele>
        <time>2022-03-06T07:25:45Z</time>
      </trkpt>
      <trkpt lat="48.54045" lon="2.08122">
        <ele>94</ele>
        <time>2022-03-06T07:25:47Z</time>
      </trkpt>
      <trkpt lat="48.54045" lon="2.08129">
        <ele>94</ele>
        <time>2022-03-06T07:25:50Z</time>
      </trkpt>
      <trkpt lat="48.54046" lon="2.08133">
        <ele>94</ele>
        <time>2022-03-06T07:25:52Z</time>
      </trkpt>
      <trkpt lat="48.54046" lon="2.08138">
        <ele>94</ele>
        <time>2022-03-06T07:25:54Z</time>
      </trkpt>
      <trkpt lat="48.54046" lon="2.08143">
        <ele>94</ele>
        <time>2022-03-06T07:25:56Z</time>
      </trkpt>
      <trkpt lat="48.54047" lon="2.08148">
        <ele>94</ele>
        <time>2022-03-06T07:25:58Z</time>
      </trkpt>
      <trkpt lat="48.54047" lon="2.08154">
        <ele>94</ele>
        <time>2022-03-06T07:26:00Z</time>
      </trkpt>
      <trkpt lat="48.54048" lon="2.08159">
        <ele>94</ele>
        <time>2022-03-06T07:26:03Z</time>
      </trkpt>
      <trkpt lat="48.54049" lon="2.08165">
        <ele>94</ele>
        <time>2022-03-06T07:26:06Z</time>
      </trkpt>
      <trkpt lat="48.5405" lon="2.0817">
        <ele>94</ele>
        <time>2022-03-06T07:26:08Z</time>
      </trkpt>
      <trkpt lat="48.54051" lon="2.08176">
        <ele>94</ele>
        <time>2022-03-06T07:26:11Z</time>
      </trkpt>
      <trkpt lat="48.54051" lon="2.08181">
        <ele>94</ele>
        <time>2022-03-06T07:26:13Z</time>
      </trkpt>
      <trkpt lat="48.54052" lon="2.08187">
        <ele>94</ele>
        <time>2022-03-06T07:26:15Z</time>
      </trkpt>
      <trkpt lat="48.54053" lon="2.08192">
        <ele>94</ele>
        <time>2022-03-06T07:26:17Z</time>
      </trkpt>
      <trkpt lat="48.54054" lon="2.08196">
        <ele>94</ele>
        <time>2022-03-06T07:26:19Z</time>
      </trkpt>
      <trkpt lat="48.54054" lon="2.08202">
        <ele>94</ele>
        <time>2022-03-06T07:26:21Z</time>
      </trkpt>
      <trkpt lat="48.54055" lon="2.08207">
        <ele>94</ele>
        <time>2022-03-06T07:26:23Z</time>
      </trkpt>
      <trkpt lat="48.54055" lon="2.08212">
        <ele>94</ele>
        <time>2022-03-06T07:26:25Z</time>
      </trkpt>
      <trkpt lat="48.54056" lon="2.08218">
        <ele>94</ele>
        <time>2022-03-06T07:26:28Z</time>
      </trkpt>
      <trkpt lat="48.54056" lon="2.08223">
        <ele>95</ele>
        <time>2022-03-06T07:26:30Z</time>
      </trkpt>
      <trkpt lat="48.54058" lon="2.08227">
        <ele>95</ele>
        <time>2022-03-06T07:26:32Z</time>
      </trkpt>
      <trkpt lat="48.54059" lon="2.08231">
        <ele>95</ele>
        <time>2022-03-06T07:26:35Z</time>
      </trkpt>
      <trkpt lat="48.5406" lon="2.08236">
        <ele>95</ele>
        <time>2022-03-06T07:26:37Z</time>
      </trkpt>
      <trkpt lat="48.5406" lon="2.08241">
        <ele>95</ele>
        <time>2022-03-06T07:26:39Z</time>
      </trkpt>
      <trkpt lat="48.54061" lon="2.08246">
        <ele>95</ele>
        <time>2022-03-06T07:26:41Z</time>
      </trkpt>
      <trkpt lat="48.54061" lon="2.08251">
        <ele>95</ele>
        <time>2022-03-06T07:26:43Z</time>
      </trkpt>
      <trkpt lat="48.54063" lon="2.08256">
        <ele>95</ele>
        <time>2022-03-06T07:26:46Z</time>
      </trkpt>
      <trkpt lat="48.54064" lon="2.0826">
        <ele>95</ele>
        <time>2022-03-06T07:26:48Z</time>
      </trkpt>
      <trkpt lat="48.54064" lon="2.08265">
        <ele>95</ele>
        <time>2022-03-06T07:26:50Z</time>
      </trkpt>
      <trkpt lat="48.54065" lon="2.0827">
        <ele>95</ele>
        <time>2022-03-06T07:26:52Z</time>
      </trkpt>
      <trkpt lat="48.54066" lon="2.08275">
        <ele>95</ele>
        <time>2022-03-06T07:26:55Z</time>
      </trkpt>
      <trkpt lat="48.54067" lon="2.08281">
        <ele>95</ele>
        <time>2022-03-06T07:26:57Z</time>
      </trkpt>
      <trkpt lat="48.54067" lon="2.08286">
        <ele>95</ele>
        <time>2022-03-06T07:26:59Z</time>
      </trkpt>
      <trkpt lat="48.54067" lon="2.08291">
        <ele>95</ele>
        <time>2022-03-06T07:27:01Z</time>
      </trkpt>
      <trkpt lat="48.54068" lon="2.08296">
        <ele>96</ele>
        <time>2022-03-06T07:27:03Z</time>
      </trkpt>
      <trkpt lat="48.54068" lon="2.083">
        <ele>96</ele>
        <time>2022-03-06T07:27:05Z</time>
      </trkpt>
      <trkpt lat="48.54069" lon="2.08305">
        <ele>96</ele>
        <time>2022-03-06T07:27:07Z</time>
      </trkpt>
      <trkpt lat="48.54069" lon="2.08309">
        <ele>96</ele>
        <time>2022-03-06T07:27:09Z</time>
      </trkpt>
      <trkpt lat="48.5407" lon="2.08314">
        <ele>97</ele>
        <time>2022-03-06T07:27:12Z</time>
      </trkpt>
      <trkpt lat="48.54071" lon="2.08318">
        <ele>97</ele>
        <time>2022-03-06T07:27:14Z</time>
      </trkpt>
      <trkpt lat="48.54072" lon="2.08322">
        <ele>97</ele>
        <time>2022-03-06T07:27:16Z</time>
      </trkpt>
      <trkpt lat="48.54073" lon="2.08326">
        <ele>97</ele>
        <time>2022-03-06T07:27:18Z</time>
      </trkpt>
      <trkpt lat="48.54074" lon="2.08331">
        <ele>98</ele>
        <time>2022-03-06T07:27:20Z</time>
      </trkpt>
      <trkpt lat="48.54075" lon="2.08336">
        <ele>98</ele>
        <time>2022-03-06T07:27:23Z</time>
      </trkpt>
      <trkpt lat="48.54075" lon="2.08341">
        <ele>98</ele>
        <time>2022-03-06T07:27:25Z</time>
      </trkpt>
      <trkpt lat="48.54075" lon="2.08346">
        <ele>99</ele>
        <time>2022-03-06T07:27:27Z</time>
      </trkpt>
      <trkpt lat="48.54076" lon="2.0835">
        <ele>99</ele>
        <time>2022-03-06T07:27:30Z</time>
      </trkpt>
      <trkpt lat="48.54077" lon="2.08355">
        <ele>99</ele>
        <time>2022-03-06T07:27:32Z</time>
      </trkpt>
      <trkpt lat="48.54077" lon="2.08359">
        <ele>99</ele>
        <time>2022-03-06T07:27:34Z</time>
      </trkpt>
      <trkpt lat="48.54077" lon="2.08365">
        <ele>99</ele>
        <time>2022-03-06T07:27:36Z</time>
      </trkpt>
      <trkpt lat="48.54078" lon="2.08369">
        <ele>99</ele>
        <time>2022-03-06T07:27:38Z</time>
      </trkpt>
      <trkpt lat="48.54079" lon="2.08374">
        <ele>98</ele>
        <time>2022-03-06T07:27:40Z</time>
      </trkpt>
      <trkpt lat="48.54079" lon="2.0838">
        <ele>98</ele>
        <time>2022-03-06T07:27:43Z</time>
      </trkpt>
      <trkpt lat="48.5408" lon="2.08386">
        <ele>98</ele>
        <time>2022-03-06T07:27:46Z</time>
      </trkpt>
      <trkpt lat="48.5408" lon="2.08391">
        <ele>98</ele>
        <time>2022-03-06T07:27:48Z</time>
      </trkpt>
      <trkpt lat="48.54081" lon="2.08396">
        <ele>97</ele>
        <time>2022-03-06T07:27:50Z</time>
      </trkpt>
      <trkpt lat="48.54081" lon="2.08401">
        <ele>97</ele>
        <time>2022-03-06T07:27:53Z</time>
      </trkpt>
      <trkpt lat="48.54082" lon="2.08406">
        <ele>97</ele>
        <time>2022-03-06T07:27:55Z</time>
      </trkpt>
      <trkpt lat="48.54083" lon="2.08411">
        <ele>97</ele>
        <time>2022-03-06T07:27:57Z</time>
      </trkpt>
      <trkpt lat="48.54083" lon="2.08416">
        <ele>96</ele>
        <time>2022-03-06T07:27:59Z</time>
      </trkpt>
      <trkpt lat="48.54084" lon="2.08421">
        <ele>96</ele>
        <time>2022-03-06T07:28:01Z</time>
      </trkpt>
      <trkpt lat="48.54085" lon="2.08427">
        <ele>96</ele>
        <time>2022-03-06T07:28:04Z</time>
      </trkpt>
      <trkpt lat="48.54086" lon="2.08432">
        <ele>95</ele>
        <time>2022-03-06T07:28:07Z</time>
      </trkpt>
      <trkpt lat="48.54087" lon="2.08437">
        <ele>95</ele>
        <time>2022-03-06T07:28:09Z</time>
      </trkpt>
      <trkpt lat="48.54087" lon="2.08443">
        <ele>95</ele>
        <time>2022-03-06T07:28:11Z</time>
      </trkpt>
      <trkpt lat="48.54088" lon="2.08448">
        <ele>95</ele>
        <time>2022-03-06T07:28:14Z</time>
      </trkpt>
      <trkpt lat="48.54089" lon="2.08453">
        <ele>94</ele>
        <time>2022-03-06T07:28:16Z</time>
      </trkpt>
      <trkpt lat="48.54089" lon="2.0846">
        <ele>94</ele>
        <time>2022-03-06T07:28:18Z</time>
      </trkpt>
      <trkpt lat="48.54089" lon="2.08466">
        <ele>94</ele>
        <time>2022-03-06T07:28:20Z</time>
      </trkpt>
      <trkpt lat="48.54091" lon="2.08472">
        <ele>94</ele>
        <time>2022-03-06T07:28:23Z</time>
      </trkpt>
      <trkpt lat="48.54091" lon="2.08478">
        <ele>94</ele>
        <time>2022-03-06T07:28:25Z</time>
      </trkpt>
      <trkpt lat="48.54091" lon="2.08483">
        <ele>94</ele>
        <time>2022-03-06T07:28:27Z</time>
      </trkpt>
      <trkpt lat="48.54092" lon="2.08489">
        <ele>94</ele>
        <time>2022-03-06T07:28:29Z</time>
      </trkpt>
      <trkpt lat="48.54092" lon="2.08495">
        <ele>94</ele>
        <time>2022-03-06T07:28:33Z</time>
      </trkpt>
      <trkpt lat="48.54094" lon="2.085">
        <ele>94</ele>
        <time>2022-03-06T07:28:35Z</time>
      </trkpt>
      <trkpt lat="48.54094" lon="2.08505">
        <ele>94</ele>
        <time>2022-03-06T07:28:37Z</time>
      </trkpt>
      <trkpt lat="48.54095" lon="2.0851">
        <ele>95</ele>
        <time>2022-03-06T07:28:39Z</time>
      </trkpt>
      <trkpt lat="48.54096" lon="2.08515">
        <ele>95</ele>
        <time>2022-03-06T07:28:41Z</time>
      </trkpt>
      <trkpt lat="48.54096" lon="2.0852">
        <ele>95</ele>
        <time>2022-03-06T07:28:43Z</time>
      </trkpt>
      <trkpt lat="48.54097" lon="2.08527">
        <ele>95</ele>
        <time>2022-03-06T07:28:45Z</time>
      </trkpt>
      <trkpt lat="48.54097" lon="2.08532">
        <ele>95</ele>
        <time>2022-03-06T07:28:47Z</time>
      </trkpt>
      <trkpt lat="48.54098" lon="2.08537">
        <ele>95</ele>
        <time>2022-03-06T07:28:49Z</time>
      </trkpt>
      <trkpt lat="48.54099" lon="2.08541">
        <ele>95</ele>
        <time>2022-03-06T07:28:51Z</time>
      </trkpt>
      <trkpt lat="48.541" lon="2.08546">
        <ele>95</ele>
        <time>2022-03-06T07:28:53Z</time>
      </trkpt>
      <trkpt lat="48.54101" lon="2.08551">
        <ele>95</ele>
        <time>2022-03-06T07:28:55Z</time>
      </trkpt>
      <trkpt lat="48.54101" lon="2.08556">
        <ele>95</ele>
        <time>2022-03-06T07:28:57Z</time>
      </trkpt>
      <trkpt lat="48.54102" lon="2.0856">
        <ele>95</ele>
        <time>2022-03-06T07:28:59Z</time>
      </trkpt>
      <trkpt lat="48.54102" lon="2.08566">
        <ele>95</ele>
        <time>2022-03-06T07:29:02Z</time>
      </trkpt>
      <trkpt lat="48.54103" lon="2.08572">
        <ele>95</ele>
        <time>2022-03-06T07:29:05Z</time>
      </trkpt>
      <trkpt lat="48.54104" lon="2.08577">
        <ele>95</ele>
        <time>2022-03-06T07:29:07Z</time>
      </trkpt>
      <trkpt lat="48.54105" lon="2.08581">
        <ele>95</ele>
        <time>2022-03-06T07:29:09Z</time>
      </trkpt>
      <trkpt lat="48.54106" lon="2.08586">
        <ele>95</ele>
        <time>2022-03-06T07:29:11Z</time>
      </trkpt>
      <trkpt lat="48.54107" lon="2.08591">
        <ele>95</ele>
        <time>2022-03-06T07:29:13Z</time>
      </trkpt>
      <trkpt lat="48.54107" lon="2.08597">
        <ele>95</ele>
        <time>2022-03-06T07:29:16Z</time>
      </trkpt>
      <trkpt lat="48.54109" lon="2.08603">
        <ele>95</ele>
        <time>2022-03-06T07:29:19Z</time>
      </trkpt>
      <trkpt lat="48.5411" lon="2.08608">
        <ele>95</ele>
        <time>2022-03-06T07:29:21Z</time>
      </trkpt>
      <trkpt lat="48.5411" lon="2.08613">
        <ele>95</ele>
        <time>2022-03-06T07:29:23Z</time>
      </trkpt>
      <trkpt lat="48.54111" lon="2.08618">
        <ele>95</ele>
        <time>2022-03-06T07:29:25Z</time>
      </trkpt>
      <trkpt lat="48.54112" lon="2.08623">
        <ele>95</ele>
        <time>2022-03-06T07:29:27Z</time>
      </trkpt>
      <trkpt lat="48.54112" lon="2.08629">
        <ele>95</ele>
        <time>2022-03-06T07:29:29Z</time>
      </trkpt>
      <trkpt lat="48.54113" lon="2.08635">
        <ele>95</ele>
        <time>2022-03-06T07:29:32Z</time>
      </trkpt>
      <trkpt lat="48.54115" lon="2.0864">
        <ele>95</ele>
        <time>2022-03-06T07:29:35Z</time>
      </trkpt>
      <trkpt lat="48.54115" lon="2.08646">
        <ele>95</ele>
        <time>2022-03-06T07:29:37Z</time>
      </trkpt>
      <trkpt lat="48.54117" lon="2.08651">
        <ele>95</ele>
        <time>2022-03-06T07:29:39Z</time>
      </trkpt>
      <trkpt lat="48.54117" lon="2.08657">
        <ele>96</ele>
        <time>2022-03-06T07:29:41Z</time>
      </trkpt>
      <trkpt lat="48.54117" lon="2.08662">
        <ele>96</ele>
        <time>2022-03-06T07:29:43Z</time>
      </trkpt>
      <trkpt lat="48.54117" lon="2.08667">
        <ele>96</ele>
        <time>2022-03-06T07:29:45Z</time>
      </trkpt>
      <trkpt lat="48.54118" lon="2.08671">
        <ele>96</ele>
        <time>2022-03-06T07:29:47Z</time>
      </trkpt>
      <trkpt lat="48.54118" lon="2.08676">
        <ele>96</ele>
        <time>2022-03-06T07:29:49Z</time>
      </trkpt>
      <trkpt lat="48.54119" lon="2.08681">
        <ele>96</ele>
        <time>2022-03-06T07:29:51Z</time>
      </trkpt>
      <trkpt lat="48.5412" lon="2.08686">
        <ele>95</ele>
        <time>2022-03-06T07:29:53Z</time>
      </trkpt>
      <trkpt lat="48.5412" lon="2.0869">
        <ele>95</ele>
        <time>2022-03-06T07:29:55Z</time>
      </trkpt>
      <trkpt lat="48.54121" lon="2.08696">
        <ele>95</ele>
        <time>2022-03-06T07:29:57Z</time>
      </trkpt>
      <trkpt lat="48.54122" lon="2.087">
        <ele>95</ele>
        <time>2022-03-06T07:29:59Z</time>
      </trkpt>
      <trkpt lat="48.54123" lon="2.08705">
        <ele>95</ele>
        <time>2022-03-06T07:30:01Z</time>
      </trkpt>
      <trkpt lat="48.54124" lon="2.08709">
        <ele>95</ele>
        <time>2022-03-06T07:30:03Z</time>
      </trkpt>
      <trkpt lat="48.54125" lon="2.08715">
        <ele>95</ele>
        <time>2022-03-06T07:30:05Z</time>
      </trkpt>
      <trkpt lat="48.54126" lon="2.0872">
        <ele>95</ele>
        <time>2022-03-06T07:30:07Z</time>
      </trkpt>
      <trkpt lat="48.54127" lon="2.08725">
        <ele>95</ele>
        <time>2022-03-06T07:30:10Z</time>
      </trkpt>
      <trkpt lat="48.54127" lon="2.08729">
        <ele>95</ele>
        <time>2022-03-06T07:30:12Z</time>
      </trkpt>
      <trkpt lat="48.54128" lon="2.08734">
        <ele>95</ele>
        <time>2022-03-06T07:30:14Z</time>
      </trkpt>
      <trkpt lat="48.54129" lon="2.08738">
        <ele>94</ele>
        <time>2022-03-06T07:30:16Z</time>
      </trkpt>
      <trkpt lat="48.5413" lon="2.08742">
        <ele>94</ele>
        <time>2022-03-06T07:30:18Z</time>
      </trkpt>
      <trkpt lat="48.54131" lon="2.08747">
        <ele>94</ele>
        <time>2022-03-06T07:30:20Z</time>
      </trkpt>
      <trkpt lat="48.54132" lon="2.08752">
        <ele>94</ele>
        <time>2022-03-06T07:30:22Z</time>
      </trkpt>
      <trkpt lat="48.54133" lon="2.08757">
        <ele>94</ele>
        <time>2022-03-06T07:30:24Z</time>
      </trkpt>
      <trkpt lat="48.54133" lon="2.08762">
        <ele>94</ele>
        <time>2022-03-06T07:30:26Z</time>
      </trkpt>
      <trkpt lat="48.54134" lon="2.08766">
        <ele>94</ele>
        <time>2022-03-06T07:30:28Z</time>
      </trkpt>
      <trkpt lat="48.54135" lon="2.08772">
        <ele>94</ele>
        <time>2022-03-06T07:30:31Z</time>
      </trkpt>
      <trkpt lat="48.54135" lon="2.08777">
        <ele>94</ele>
        <time>2022-03-06T07:30:33Z</time>
      </trkpt>
      <trkpt lat="48.54136" lon="2.08783">
        <ele>94</ele>
        <time>2022-03-06T07:30:35Z</time>
      </trkpt>
      <trkpt lat="48.54136" lon="2.08789">
        <ele>94</ele>
        <time>2022-03-06T07:30:37Z</time>
      </trkpt>
      <trkpt lat="48.54136" lon="2.08794">
        <ele>94</ele>
        <time>2022-03-06T07:30:39Z</time>
      </trkpt>
      <trkpt lat="48.54137" lon="2.088">
        <ele>94</ele>
        <time>2022-03-06T07:30:42Z</time>
      </trkpt>
      <trkpt lat="48.54137" lon="2.08806">
        <ele>94</ele>
        <time>2022-03-06T07:30:45Z</time>
      </trkpt>
      <trkpt lat="48.54137" lon="2.08812">
        <ele>94</ele>
        <time>2022-03-06T07:30:47Z</time>
      </trkpt>
      <trkpt lat="48.54139" lon="2.08818">
        <ele>94</ele>
        <time>2022-03-06T07:30:50Z</time>
      </trkpt>
      <trkpt lat="48.5414" lon="2.08822">
        <ele>94</ele>
        <time>2022-03-06T07:30:52Z</time>
      </trkpt>
      <trkpt lat="48.54141" lon="2.08826">
        <ele>94</ele>
        <time>2022-03-06T07:30:54Z</time>
      </trkpt>
      <trkpt lat="48.54141" lon="2.08831">
        <ele>94</ele>
        <time>2022-03-06T07:30:55Z</time>
      </trkpt>
      <trkpt lat="48.54142" lon="2.08835">
        <ele>94</ele>
        <time>2022-03-06T07:30:57Z</time>
      </trkpt>
      <trkpt lat="48.54142" lon="2.08839">
        <ele>94</ele>
        <time>2022-03-06T07:30:59Z</time>
      </trkpt>
      <trkpt lat="48.54143" lon="2.08843">
        <ele>94</ele>
        <time>2022-03-06T07:31:01Z</time>
      </trkpt>
      <trkpt lat="48.54144" lon="2.08848">
        <ele>94</ele>
        <time>2022-03-06T07:31:03Z</time>
      </trkpt>
      <trkpt lat="48.54144" lon="2.08853">
        <ele>94</ele>
        <time>2022-03-06T07:31:06Z</time>
      </trkpt>
      <trkpt lat="48.54145" lon="2.08859">
        <ele>94</ele>
        <time>2022-03-06T07:31:08Z</time>
      </trkpt>
      <trkpt lat="48.54146" lon="2.08863">
        <ele>94</ele>
        <time>2022-03-06T07:31:10Z</time>
      </trkpt>
      <trkpt lat="48.54146" lon="2.08868">
        <ele>94</ele>
        <time>2022-03-06T07:31:12Z</time>
      </trkpt>
      <trkpt lat="48.54146" lon="2.08872">
        <ele>94</ele>
        <time>2022-03-06T07:31:14Z</time>
      </trkpt>
      <trkpt lat="48.54147" lon="2.08877">
        <ele>94</ele>
        <time>2022-03-06T07:31:16Z</time>
      </trkpt>
      <trkpt lat="48.54148" lon="2.08882">
        <ele>94</ele>
        <time>2022-03-06T07:31:18Z</time>
      </trkpt>
      <trkpt lat="48.54148" lon="2.08886">
        <ele>94</ele>
        <time>2022-03-06T07:31:20Z</time>
      </trkpt>
      <trkpt lat="48.54149" lon="2.08891">
        <ele>94</ele>
        <time>2022-03-06T07:31:22Z</time>
      </trkpt>
      <trkpt lat="48.5415" lon="2.08895">
        <ele>93</ele>
        <time>2022-03-06T07:31:24Z</time>
      </trkpt>
      <trkpt lat="48.5415" lon="2.089">
        <ele>93</ele>
        <time>2022-03-06T07:31:26Z</time>
      </trkpt>
      <trkpt lat="48.54151" lon="2.08905">
        <ele>93</ele>
        <time>2022-03-06T07:31:28Z</time>
      </trkpt>
      <trkpt lat="48.54151" lon="2.0891">
        <ele>93</ele>
        <time>2022-03-06T07:31:31Z</time>
      </trkpt>
      <trkpt lat="48.54151" lon="2.08916">
        <ele>93</ele>
        <time>2022-03-06T07:31:33Z</time>
      </trkpt>
      <trkpt lat="48.54152" lon="2.08923">
        <ele>93</ele>
        <time>2022-03-06T07:31:36Z</time>
      </trkpt>
      <trkpt lat="48.54153" lon="2.08929">
        <ele>92</ele>
        <time>2022-03-06T07:31:38Z</time>
      </trkpt>
      <trkpt lat="48.54154" lon="2.08934">
        <ele>92</ele>
        <time>2022-03-06T07:31:41Z</time>
      </trkpt>
      <trkpt lat="48.54155" lon="2.08939">
        <ele>92</ele>
        <time>2022-03-06T07:31:43Z</time>
      </trkpt>
      <trkpt lat="48.54156" lon="2.08944">
        <ele>92</ele>
        <time>2022-03-06T07:31:45Z</time>
      </trkpt>
      <trkpt lat="48.54156" lon="2.0895">
        <ele>92</ele>
        <time>2022-03-06T07:31:48Z</time>
      </trkpt>
      <trkpt lat="48.54157" lon="2.08956">
        <ele>92</ele>
        <time>2022-03-06T07:31:51Z</time>
      </trkpt>
      <trkpt lat="48.54157" lon="2.08962">
        <ele>92</ele>
        <time>2022-03-06T07:31:53Z</time>
      </trkpt>
      <trkpt lat="48.54159" lon="2.08968">
        <ele>92</ele>
        <time>2022-03-06T07:31:56Z</time>
      </trkpt>
      <trkpt lat="48.5416" lon="2.08974">
        <ele>92</ele>
        <time>2022-03-06T07:31:59Z</time>
      </trkpt>
      <trkpt lat="48.54161" lon="2.0898">
        <ele>92</ele>
        <time>2022-03-06T07:32:01Z</time>
      </trkpt>
      <trkpt lat="48.54162" lon="2.08985">
        <ele>92</ele>
        <time>2022-03-06T07:32:03Z</time>
      </trkpt>
      <trkpt lat="48.54163" lon="2.0899">
        <ele>92</ele>
        <time>2022-03-06T07:32:05Z</time>
      </trkpt>
      <trkpt lat="48.54163" lon="2.08996">
        <ele>92</ele>
        <time>2022-03-06T07:32:07Z</time>
      </trkpt>
      <trkpt lat="48.54164" lon="2.09001">
        <ele>92</ele>
        <time>2022-03-06T07:32:09Z</time>
      </trkpt>
      <trkpt lat="48.54164" lon="2.09007">
        <ele>92</ele>
        <time>2022-03-06T07:32:11Z</time>
      </trkpt>
      <trkpt lat="48.54165" lon="2.09012">
        <ele>92</ele>
        <time>2022-03-06T07:32:13Z</time>
      </trkpt>
      <trkpt lat="48.54166" lon="2.09017">
        <ele>92</ele>
        <time>2022-03-06T07:32:16Z</time>
      </trkpt>
      <trkpt lat="48.54167" lon="2.09023">
        <ele>93</ele>
        <time>2022-03-06T07:32:19Z</time>
      </trkpt>
      <trkpt lat="48.54168" lon="2.09027">
        <ele>93</ele>
        <time>2022-03-06T07:32:21Z</time>
      </trkpt>
      <trkpt lat="48.54169" lon="2.09032">
        <ele>93</ele>
        <time>2022-03-06T07:32:23Z</time>
      </trkpt>
      <trkpt lat="48.5417" lon="2.09037">
        <ele>93</ele>
        <time>2022-03-06T07:32:25Z</time>
      </trkpt>
      <trkpt lat="48.54171" lon="2.09042">
        <ele>93</ele>
        <time>2022-03-06T07:32:28Z</time>
      </trkpt>
      <trkpt lat="48.54172" lon="2.09048">
        <ele>93</ele>
        <time>2022-03-06T07:32:30Z</time>
      </trkpt>
      <trkpt lat="48.54173" lon="2.09053">
        <ele>94</ele>
        <time>2022-03-06T07:32:32Z</time>
      </trkpt>
      <trkpt lat="48.54174" lon="2.09057">
        <ele>94</ele>
        <time>2022-03-06T07:32:34Z</time>
      </trkpt>
      <trkpt lat="48.54175" lon="2.09061">
        <ele>94</ele>
        <time>2022-03-06T07:32:36Z</time>
      </trkpt>
      <trkpt lat="48.54176" lon="2.09066">
        <ele>94</ele>
        <time>2022-03-06T07:32:38Z</time>
      </trkpt>
      <trkpt lat="48.54177" lon="2.0907">
        <ele>94</ele>
        <time>2022-03-06T07:32:40Z</time>
      </trkpt>
      <trkpt lat="48.54178" lon="2.09075">
        <ele>94</ele>
        <time>2022-03-06T07:32:42Z</time>
      </trkpt>
      <trkpt lat="48.54179" lon="2.09079">
        <ele>94</ele>
        <time>2022-03-06T07:32:44Z</time>
      </trkpt>
      <trkpt lat="48.5418" lon="2.09083">
        <ele>94</ele>
        <time>2022-03-06T07:32:46Z</time>
      </trkpt>
      <trkpt lat="48.54181" lon="2.09088">
        <ele>94</ele>
        <time>2022-03-06T07:32:49Z</time>
      </trkpt>
      <trkpt lat="48.54183" lon="2.09093">
        <ele>94</ele>
        <time>2022-03-06T07:32:52Z</time>
      </trkpt>
      <trkpt lat="48.54184" lon="2.09099">
        <ele>94</ele>
        <time>2022-03-06T07:32:54Z</time>
      </trkpt>
      <trkpt lat="48.54185" lon="2.09104">
        <ele>93</ele>
        <time>2022-03-06T07:32:56Z</time>
      </trkpt>
      <trkpt lat="48.54187" lon="2.09109">
        <ele>93</ele>
        <time>2022-03-06T07:32:59Z</time>
      </trkpt>
      <trkpt lat="48.54188" lon="2.09114">
        <ele>93</ele>
        <time>2022-03-06T07:33:01Z</time>
      </trkpt>
      <trkpt lat="48.54188" lon="2.0912">
        <ele>92</ele>
        <time>2022-03-06T07:33:03Z</time>
      </trkpt>
      <trkpt lat="48.54189" lon="2.09125">
        <ele>92</ele>
        <time>2022-03-06T07:33:05Z</time>
      </trkpt>
      <trkpt lat="48.5419" lon="2.0913">
        <ele>92</ele>
        <time>2022-03-06T07:33:07Z</time>
      </trkpt>
      <trkpt lat="48.5419" lon="2.09134">
        <ele>92</ele>
        <time>2022-03-06T07:33:09Z</time>
      </trkpt>
      <trkpt lat="48.54191" lon="2.0914">
        <ele>91</ele>
        <time>2022-03-06T07:33:11Z</time>
      </trkpt>
      <trkpt lat="48.54192" lon="2.09145">
        <ele>91</ele>
        <time>2022-03-06T07:33:13Z</time>
      </trkpt>
      <trkpt lat="48.54193" lon="2.0915">
        <ele>91</ele>
        <time>2022-03-06T07:33:16Z</time>
      </trkpt>
      <trkpt lat="48.54194" lon="2.09155">
        <ele>91</ele>
        <time>2022-03-06T07:33:20Z</time>
      </trkpt>
      <trkpt lat="48.54195" lon="2.09161">
        <ele>91</ele>
        <time>2022-03-06T07:33:23Z</time>
      </trkpt>
      <trkpt lat="48.54196" lon="2.09165">
        <ele>92</ele>
        <time>2022-03-06T07:33:25Z</time>
      </trkpt>
      <trkpt lat="48.54197" lon="2.09169">
        <ele>92</ele>
        <time>2022-03-06T07:33:27Z</time>
      </trkpt>
      <trkpt lat="48.54197" lon="2.09174">
        <ele>92</ele>
        <time>2022-03-06T07:33:29Z</time>
      </trkpt>
      <trkpt lat="48.54197" lon="2.0918">
        <ele>92</ele>
        <time>2022-03-06T07:33:31Z</time>
      </trkpt>
      <trkpt lat="48.54197" lon="2.09186">
        <ele>93</ele>
        <time>2022-03-06T07:33:33Z</time>
      </trkpt>
      <trkpt lat="48.54197" lon="2.09192">
        <ele>93</ele>
        <time>2022-03-06T07:33:36Z</time>
      </trkpt>
      <trkpt lat="48.54197" lon="2.09198">
        <ele>93</ele>
        <time>2022-03-06T07:33:38Z</time>
      </trkpt>
      <trkpt lat="48.54198" lon="2.09204">
        <ele>94</ele>
        <time>2022-03-06T07:33:41Z</time>
      </trkpt>
      <trkpt lat="48.54198" lon="2.09209">
        <ele>94</ele>
        <time>2022-03-06T07:33:43Z</time>
      </trkpt>
      <trkpt lat="48.54198" lon="2.09214">
        <ele>94</ele>
        <time>2022-03-06T07:33:46Z</time>
      </trkpt>
      <trkpt lat="48.54199" lon="2.0922">
        <ele>94</ele>
        <time>2022-03-06T07:33:48Z</time>
      </trkpt>
      <trkpt lat="48.54199" lon="2.09225">
        <ele>94</ele>
        <time>2022-03-06T07:33:50Z</time>
      </trkpt>
      <trkpt lat="48.542" lon="2.0923">
        <ele>94</ele>
        <time>2022-03-06T07:33:52Z</time>
      </trkpt>
      <trkpt lat="48.542" lon="2.09235">
        <ele>94</ele>
        <time>2022-03-06T07:33:56Z</time>
      </trkpt>
      <trkpt lat="48.54201" lon="2.09241">
        <ele>94</ele>
        <time>2022-03-06T07:33:58Z</time>
      </trkpt>
      <trkpt lat="48.54202" lon="2.09247">
        <ele>93</ele>
        <time>2022-03-06T07:34:00Z</time>
      </trkpt>
      <trkpt lat="48.54202" lon="2.09252">
        <ele>93</ele>
        <time>2022-03-06T07:34:02Z</time>
      </trkpt>
      <trkpt lat="48.54203" lon="2.09256">
        <ele>93</ele>
        <time>2022-03-06T07:34:05Z</time>
      </trkpt>
      <trkpt lat="48.54203" lon="2.09263">
        <ele>93</ele>
        <time>2022-03-06T07:34:08Z</time>
      </trkpt>
      <trkpt lat="48.54204" lon="2.09269">
        <ele>93</ele>
        <time>2022-03-06T07:34:11Z</time>
      </trkpt>
      <trkpt lat="48.54204" lon="2.09275">
        <ele>93</ele>
        <time>2022-03-06T07:34:13Z</time>
      </trkpt>
      <trkpt lat="48.54205" lon="2.0928">
        <ele>93</ele>
        <time>2022-03-06T07:34:15Z</time>
      </trkpt>
      <trkpt lat="48.54205" lon="2.09286">
        <ele>93</ele>
        <time>2022-03-06T07:34:17Z</time>
      </trkpt>
      <trkpt lat="48.54206" lon="2.09292">
        <ele>93</ele>
        <time>2022-03-06T07:34:20Z</time>
      </trkpt>
      <trkpt lat="48.54207" lon="2.09298">
        <ele>93</ele>
        <time>2022-03-06T07:34:22Z</time>
      </trkpt>
      <trkpt lat="48.54208" lon="2.09304">
        <ele>92</ele>
        <time>2022-03-06T07:34:24Z</time>
      </trkpt>
      <trkpt lat="48.54209" lon="2.09308">
        <ele>92</ele>
        <time>2022-03-06T07:34:27Z</time>
      </trkpt>
      <trkpt lat="48.5421" lon="2.09313">
        <ele>92</ele>
        <time>2022-03-06T07:34:29Z</time>
      </trkpt>
      <trkpt lat="48.54211" lon="2.09318">
        <ele>92</ele>
        <time>2022-03-06T07:34:31Z</time>
      </trkpt>
      <trkpt lat="48.54211" lon="2.09323">
        <ele>92</ele>
        <time>2022-03-06T07:34:33Z</time>
      </trkpt>
      <trkpt lat="48.54212" lon="2.09329">
        <ele>92</ele>
        <time>2022-03-06T07:34:35Z</time>
      </trkpt>
      <trkpt lat="48.54213" lon="2.09334">
        <ele>92</ele>
        <time>2022-03-06T07:34:37Z</time>
      </trkpt>
      <trkpt lat="48.54213" lon="2.09339">
        <ele>92</ele>
        <time>2022-03-06T07:34:39Z</time>
      </trkpt>
      <trkpt lat="48.54215" lon="2.09345">
        <ele>91</ele>
        <time>2022-03-06T07:34:42Z</time>
      </trkpt>
      <trkpt lat="48.54216" lon="2.0935">
        <ele>91</ele>
        <time>2022-03-06T07:34:44Z</time>
      </trkpt>
      <trkpt lat="48.54217" lon="2.09354">
        <ele>91</ele>
        <time>2022-03-06T07:34:47Z</time>
      </trkpt>
      <trkpt lat="48.54219" lon="2.0936">
        <ele>91</ele>
        <time>2022-03-06T07:34:50Z</time>
      </trkpt>
      <trkpt lat="48.54221" lon="2.09364">
        <ele>91</ele>
        <time>2022-03-06T07:34:53Z</time>
      </trkpt>
      <trkpt lat="48.54223" lon="2.09368">
        <ele>91</ele>
        <time>2022-03-06T07:34:55Z</time>
      </trkpt>
      <trkpt lat="48.54226" lon="2.09372">
        <ele>92</ele>
        <time>2022-03-06T07:34:59Z</time>
      </trkpt>
      <trkpt lat="48.54228" lon="2.09375">
        <ele>92</ele>
        <time>2022-03-06T07:35:02Z</time>
      </trkpt>
      <trkpt lat="48.54231" lon="2.09379">
        <ele>92</ele>
        <time>2022-03-06T07:35:04Z</time>
      </trkpt>
      <trkpt lat="48.54233" lon="2.09383">
        <ele>92</ele>
        <time>2022-03-06T07:35:07Z</time>
      </trkpt>
      <trkpt lat="48.54235" lon="2.09386">
        <ele>92</ele>
        <time>2022-03-06T07:35:09Z</time>
      </trkpt>
      <trkpt lat="48.54238" lon="2.09389">
        <ele>93</ele>
        <time>2022-03-06T07:35:11Z</time>
      </trkpt>
      <trkpt lat="48.54241" lon="2.09391">
        <ele>93</ele>
        <time>2022-03-06T07:35:13Z</time>
      </trkpt>
      <trkpt lat="48.54244" lon="2.09394">
        <ele>93</ele>
        <time>2022-03-06T07:35:16Z</time>
      </trkpt>
      <trkpt lat="48.54246" lon="2.09397">
        <ele>93</ele>
        <time>2022-03-06T07:35:18Z</time>
      </trkpt>
      <trkpt lat="48.54249" lon="2.094">
        <ele>93</ele>
        <time>2022-03-06T07:35:20Z</time>
      </trkpt>
      <trkpt lat="48.54253" lon="2.09403">
        <ele>94</ele>
        <time>2022-03-06T07:35:23Z</time>
      </trkpt>
      <trkpt lat="48.54257" lon="2.09406">
        <ele>94</ele>
        <time>2022-03-06T07:35:25Z</time>
      </trkpt>
      <trkpt lat="48.5426" lon="2.0941">
        <ele>94</ele>
        <time>2022-03-06T07:35:28Z</time>
      </trkpt>
      <trkpt lat="48.54264" lon="2.09413">
        <ele>94</ele>
        <time>2022-03-06T07:35:30Z</time>
      </trkpt>
      <trkpt lat="48.54266" lon="2.09416">
        <ele>94</ele>
        <time>2022-03-06T07:35:32Z</time>
      </trkpt>
      <trkpt lat="48.54269" lon="2.09419">
        <ele>95</ele>
        <time>2022-03-06T07:35:35Z</time>
      </trkpt>
      <trkpt lat="48.54271" lon="2.09423">
        <ele>95</ele>
        <time>2022-03-06T07:35:37Z</time>
      </trkpt>
      <trkpt lat="48.54273" lon="2.09426">
        <ele>95</ele>
        <time>2022-03-06T07:35:39Z</time>
      </trkpt>
      <trkpt lat="48.54276" lon="2.0943">
        <ele>95</ele>
        <time>2022-03-06T07:35:41Z</time>
      </trkpt>
      <trkpt lat="48.54278" lon="2.09434">
        <ele>96</ele>
        <time>2022-03-06T07:35:44Z</time>
      </trkpt>
      <trkpt lat="48.5428" lon="2.09438">
        <ele>96</ele>
        <time>2022-03-06T07:35:47Z</time>
      </trkpt>
      <trkpt lat="48.54284" lon="2.09441">
        <ele>96</ele>
        <time>2022-03-06T07:35:50Z</time>
      </trkpt>
      <trkpt lat="48.54286" lon="2.09444">
        <ele>96</ele>
        <time>2022-03-06T07:35:52Z</time>
      </trkpt>
      <trkpt lat="48.54289" lon="2.09446">
        <ele>97</ele>
        <time>2022-03-06T07:35:54Z</time>
      </trkpt>
      <trkpt lat="48.54291" lon="2.09449">
        <ele>97</ele>
        <time>2022-03-06T07:35:56Z</time>
      </trkpt>
      <trkpt lat="48.54293" lon="2.09452">
        <ele>97</ele>
        <time>2022-03-06T07:35:58Z</time>
      </trkpt>
      <trkpt lat="48.54295" lon="2.09456">
        <ele>97</ele>
        <time>2022-03-06T07:36:02Z</time>
      </trkpt>
      <trkpt lat="48.54298" lon="2.09459">
        <ele>97</ele>
        <time>2022-03-06T07:36:05Z</time>
      </trkpt>
      <trkpt lat="48.54301" lon="2.09462">
        <ele>97</ele>
        <time>2022-03-06T07:36:07Z</time>
      </trkpt>
      <trkpt lat="48.54303" lon="2.09466">
        <ele>98</ele>
        <time>2022-03-06T07:36:09Z</time>
      </trkpt>
      <trkpt lat="48.54305" lon="2.0947">
        <ele>98</ele>
        <time>2022-03-06T07:36:12Z</time>
      </trkpt>
      <trkpt lat="48.54308" lon="2.09474">
        <ele>98</ele>
        <time>2022-03-06T07:36:15Z</time>
      </trkpt>
      <trkpt lat="48.54312" lon="2.09477">
        <ele>98</ele>
        <time>2022-03-06T07:36:18Z</time>
      </trkpt>
      <trkpt lat="48.54315" lon="2.09479">
        <ele>99</ele>
        <time>2022-03-06T07:36:20Z</time>
      </trkpt>
      <trkpt lat="48.54318" lon="2.09481">
        <ele>99</ele>
        <time>2022-03-06T07:36:23Z</time>
      </trkpt>
      <trkpt lat="48.54321" lon="2.09484">
        <ele>99</ele>
        <time>2022-03-06T07:36:26Z</time>
      </trkpt>
      <trkpt lat="48.54325" lon="2.09485">
        <ele>100</ele>
        <time>2022-03-06T07:36:29Z</time>
      </trkpt>
      <trkpt lat="48.54329" lon="2.09486">
        <ele>100</ele>
        <time>2022-03-06T07:36:32Z</time>
      </trkpt>
      <trkpt lat="48.54331" lon="2.09488">
        <ele>100</ele>
        <time>2022-03-06T07:36:35Z</time>
      </trkpt>
      <trkpt lat="48.54334" lon="2.0949">
        <ele>101</ele>
        <time>2022-03-06T07:36:37Z</time>
      </trkpt>
      <trkpt lat="48.54337" lon="2.09491">
        <ele>101</ele>
        <time>2022-03-06T07:36:39Z</time>
      </trkpt>
      <trkpt lat="48.5434" lon="2.09495">
        <ele>101</ele>
        <time>2022-03-06T07:36:42Z</time>
      </trkpt>
      <trkpt lat="48.54342" lon="2.09498">
        <ele>102</ele>
        <time>2022-03-06T07:36:44Z</time>
      </trkpt>
      <trkpt lat="48.54344" lon="2.09502">
        <ele>102</ele>
        <time>2022-03-06T07:36:46Z</time>
      </trkpt>
      <trkpt lat="48.54346" lon="2.09505">
        <ele>102</ele>
        <time>2022-03-06T07:36:48Z</time>
      </trkpt>
      <trkpt lat="48.54347" lon="2.0951">
        <ele>103</ele>
        <time>2022-03-06T07:36:50Z</time>
      </trkpt>
      <trkpt lat="48.54348" lon="2.09515">
        <ele>104</ele>
        <time>2022-03-06T07:36:53Z</time>
      </trkpt>
      <trkpt lat="48.54349" lon="2.09521">
        <ele>104</ele>
        <time>2022-03-06T07:36:55Z</time>
      </trkpt>
      <trkpt lat="48.5435" lon="2.09526">
        <ele>104</ele>
        <time>2022-03-06T07:36:57Z</time>
      </trkpt>
      <trkpt lat="48.54351" lon="2.09531">
        <ele>105</ele>
        <time>2022-03-06T07:36:59Z</time>
      </trkpt>
      <trkpt lat="48.54352" lon="2.09536">
        <ele>105</ele>
        <time>2022-03-06T07:37:02Z</time>
      </trkpt>
      <trkpt lat="48.54353" lon="2.09541">
        <ele>105</ele>
        <time>2022-03-06T07:37:04Z</time>
      </trkpt>
      <trkpt lat="48.54354" lon="2.09547">
        <ele>106</ele>
        <time>2022-03-06T07:37:07Z</time>
      </trkpt>
      <trkpt lat="48.54356" lon="2.09552">
        <ele>106</ele>
        <time>2022-03-06T07:37:10Z</time>
      </trkpt>
      <trkpt lat="48.54358" lon="2.09556">
        <ele>106</ele>
        <time>2022-03-06T07:37:12Z</time>
      </trkpt>
      <trkpt lat="48.5436" lon="2.09559">
        <ele>107</ele>
        <time>2022-03-06T07:37:15Z</time>
      </trkpt>
      <trkpt lat="48.54363" lon="2.09561">
        <ele>107</ele>
        <time>2022-03-06T07:37:17Z</time>
      </trkpt>
      <trkpt lat="48.54366" lon="2.09563">
        <ele>107</ele>
        <time>2022-03-06T07:37:19Z</time>
      </trkpt>
      <trkpt lat="48.5437" lon="2.09564">
        <ele>108</ele>
        <time>2022-03-06T07:37:22Z</time>
      </trkpt>
      <trkpt lat="48.54373" lon="2.09565">
        <ele>108</ele>
        <time>2022-03-06T07:37:25Z</time>
      </trkpt>
      <trkpt lat="48.54377" lon="2.09565">
        <ele>108</ele>
        <time>2022-03-06T07:37:28Z</time>
      </trkpt>
      <trkpt lat="48.54382" lon="2.09563">
        <ele>109</ele>
        <time>2022-03-06T07:37:31Z</time>
      </trkpt>
      <trkpt lat="48.54386" lon="2.09561">
        <ele>109</ele>
        <time>2022-03-06T07:37:34Z</time>
      </trkpt>
      <trkpt lat="48.54389" lon="2.09558">
        <ele>109</ele>
        <time>2022-03-06T07:37:37Z</time>
      </trkpt>
      <trkpt lat="48.54393" lon="2.09556">
        <ele>109</ele>
        <time>2022-03-06T07:37:39Z</time>
      </trkpt>
      <trkpt lat="48.54396" lon="2.09555">
        <ele>110</ele>
        <time>2022-03-06T07:37:41Z</time>
      </trkpt>
      <trkpt lat="48.54399" lon="2.09553">
        <ele>110</ele>
        <time>2022-03-06T07:37:43Z</time>
      </trkpt>
      <trkpt lat="48.54402" lon="2.09552">
        <ele>110</ele>
        <time>2022-03-06T07:37:47Z</time>
      </trkpt>
      <trkpt lat="48.54405" lon="2.09549">
        <ele>110</ele>
        <time>2022-03-06T07:37:49Z</time>
      </trkpt>
      <trkpt lat="48.54408" lon="2.09546">
        <ele>111</ele>
        <time>2022-03-06T07:37:52Z</time>
      </trkpt>
      <trkpt lat="48.54411" lon="2.09542">
        <ele>111</ele>
        <time>2022-03-06T07:37:55Z</time>
      </trkpt>
      <trkpt lat="48.54413" lon="2.09538">
        <ele>112</ele>
        <time>2022-03-06T07:37:57Z</time>
      </trkpt>
      <trkpt lat="48.54415" lon="2.09533">
        <ele>112</ele>
        <time>2022-03-06T07:38:00Z</time>
      </trkpt>
      <trkpt lat="48.54417" lon="2.09528">
        <ele>113</ele>
        <time>2022-03-06T07:38:03Z</time>
      </trkpt>
      <trkpt lat="48.54419" lon="2.09524">
        <ele>113</ele>
        <time>2022-03-06T07:38:05Z</time>
      </trkpt>
      <trkpt lat="48.54421" lon="2.09522">
        <ele>114</ele>
        <time>2022-03-06T07:38:08Z</time>
      </trkpt>
      <trkpt lat="48.54424" lon="2.09519">
        <ele>114</ele>
        <time>2022-03-06T07:38:11Z</time>
      </trkpt>
      <trkpt lat="48.54427" lon="2.09518">
        <ele>114</ele>
        <time>2022-03-06T07:38:13Z</time>
      </trkpt>
      <trkpt lat="48.54429" lon="2.09515">
        <ele>115</ele>
        <time>2022-03-06T07:38:16Z</time>
      </trkpt>
      <trkpt lat="48.54432" lon="2.09513">
        <ele>115</ele>
        <time>2022-03-06T07:38:18Z</time>
      </trkpt>
      <trkpt lat="48.54436" lon="2.09511">
        <ele>116</ele>
        <time>2022-03-06T07:38:21Z</time>
      </trkpt>
      <trkpt lat="48.54439" lon="2.0951">
        <ele>117</ele>
        <time>2022-03-06T07:38:24Z</time>
      </trkpt>
      <trkpt lat="48.54443" lon="2.09511">
        <ele>117</ele>
        <time>2022-03-06T07:38:27Z</time>
      </trkpt>
      <trkpt lat="48.54447" lon="2.09512">
        <ele>118</ele>
        <time>2022-03-06T07:38:31Z</time>
      </trkpt>
      <trkpt lat="48.5445" lon="2.09513">
        <ele>118</ele>
        <time>2022-03-06T07:38:33Z</time>
      </trkpt>
      <trkpt lat="48.54453" lon="2.09515">
        <ele>119</ele>
        <time>2022-03-06T07:38:35Z</time>
      </trkpt>
      <trkpt lat="48.54456" lon="2.09517">
        <ele>119</ele>
        <time>2022-03-06T07:38:37Z</time>
      </trkpt>
      <trkpt lat="48.54459" lon="2.09519">
        <ele>119</ele>
        <time>2022-03-06T07:38:39Z</time>
      </trkpt>
      <trkpt lat="48.54463" lon="2.09522">
        <ele>120</ele>
        <time>2022-03-06T07:38:42Z</time>
      </trkpt>
      <trkpt lat="48.54468" lon="2.09525">
        <ele>120</ele>
        <time>2022-03-06T07:38:45Z</time>
      </trkpt>
      <trkpt lat="48.54471" lon="2.09528">
        <ele>121</ele>
        <time>2022-03-06T07:38:48Z</time>
      </trkpt>
      <trkpt lat="48.54475" lon="2.0953">
        <ele>121</ele>
        <time>2022-03-06T07:38:51Z</time>
      </trkpt>
      <trkpt lat="48.54477" lon="2.09535">
        <ele>122</ele>
        <time>2022-03-06T07:38:54Z</time>
      </trkpt>
      <trkpt lat="48.54479" lon="2.09538">
        <ele>123</ele>
        <time>2022-03-06T07:38:58Z</time>
      </trkpt>
      <trkpt lat="48.54482" lon="2.0954">
        <ele>123</ele>
        <time>2022-03-06T07:39:00Z</time>
      </trkpt>
      <trkpt lat="48.54484" lon="2.09543">
        <ele>123</ele>
        <time>2022-03-06T07:39:03Z</time>
      </trkpt>
      <trkpt lat="48.54486" lon="2.09547">
        <ele>124</ele>
        <time>2022-03-06T07:39:07Z</time>
      </trkpt>
      <trkpt lat="48.54489" lon="2.09551">
        <ele>125</ele>
        <time>2022-03-06T07:39:10Z</time>
      </trkpt>
      <trkpt lat="48.54491" lon="2.09553">
        <ele>125</ele>
        <time>2022-03-06T07:39:12Z</time>
      </trkpt>
      <trkpt lat="48.54494" lon="2.09556">
        <ele>126</ele>
        <time>2022-03-06T07:39:15Z</time>
      </trkpt>
      <trkpt lat="48.54496" lon="2.09557">
        <ele>126</ele>
        <time>2022-03-06T07:39:18Z</time>
      </trkpt>
      <trkpt lat="48.54499" lon="2.09559">
        <ele>127</ele>
        <time>2022-03-06T07:39:22Z</time>
      </trkpt>
      <trkpt lat="48.54501" lon="2.09562">
        <ele>128</ele>
        <time>2022-03-06T07:39:25Z</time>
      </trkpt>
      <trkpt lat="48.54504" lon="2.09564">
        <ele>128</ele>
        <time>2022-03-06T07:39:28Z</time>
      </trkpt>
      <trkpt lat="48.54507" lon="2.09566">
        <ele>129</ele>
        <time>2022-03-06T07:39:31Z</time>
      </trkpt>
      <trkpt lat="48.54507" lon="2.0957">
        <ele>130</ele>
        <time>2022-03-06T07:39:36Z</time>
      </trkpt>
      <trkpt lat="48.54508" lon="2.09573">
        <ele>129</ele>
        <time>2022-03-06T07:39:49Z</time>
      </trkpt>
      <trkpt lat="48.54509" lon="2.09576">
        <ele>129</ele>
        <time>2022-03-06T07:39:51Z</time>
      </trkpt>
      <trkpt lat="48.54509" lon="2.09581">
        <ele>129</ele>
        <time>2022-03-06T07:39:54Z</time>
      </trkpt>
      <trkpt lat="48.5451" lon="2.09585">
        <ele>129</ele>
        <time>2022-03-06T07:39:56Z</time>
      </trkpt>
      <trkpt lat="48.5451" lon="2.0959">
        <ele>129</ele>
        <time>2022-03-06T07:39:58Z</time>
      </trkpt>
      <trkpt lat="48.54511" lon="2.09594">
        <ele>129</ele>
        <time>2022-03-06T07:40:01Z</time>
      </trkpt>
      <trkpt lat="48.54511" lon="2.09599">
        <ele>129</ele>
        <time>2022-03-06T07:40:04Z</time>
      </trkpt>
      <trkpt lat="48.54513" lon="2.09604">
        <ele>128</ele>
        <time>2022-03-06T07:40:07Z</time>
      </trkpt>
      <trkpt lat="48.54514" lon="2.09609">
        <ele>128</ele>
        <time>2022-03-06T07:40:10Z</time>
      </trkpt>
      <trkpt lat="48.54515" lon="2.09614">
        <ele>128</ele>
        <time>2022-03-06T07:40:13Z</time>
      </trkpt>
      <trkpt lat="48.54516" lon="2.09619">
        <ele>128</ele>
        <time>2022-03-06T07:40:16Z</time>
      </trkpt>
      <trkpt lat="48.54517" lon="2.09624">
        <ele>128</ele>
        <time>2022-03-06T07:40:19Z</time>
      </trkpt>
      <trkpt lat="48.54518" lon="2.09629">
        <ele>128</ele>
        <time>2022-03-06T07:40:22Z</time>
      </trkpt>
      <trkpt lat="48.54519" lon="2.09633">
        <ele>127</ele>
        <time>2022-03-06T07:40:24Z</time>
      </trkpt>
      <trkpt lat="48.54521" lon="2.09638">
        <ele>127</ele>
        <time>2022-03-06T07:40:27Z</time>
      </trkpt>
      <trkpt lat="48.54522" lon="2.09643">
        <ele>127</ele>
        <time>2022-03-06T07:40:29Z</time>
      </trkpt>
      <trkpt lat="48.54523" lon="2.09647">
        <ele>127</ele>
        <time>2022-03-06T07:40:31Z</time>
      </trkpt>
      <trkpt lat="48.54524" lon="2.09651">
        <ele>127</ele>
        <time>2022-03-06T07:40:33Z</time>
      </trkpt>
      <trkpt lat="48.54525" lon="2.09654">
        <ele>127</ele>
        <time>2022-03-06T07:40:35Z</time>
      </trkpt>
      <trkpt lat="48.54526" lon="2.09658">
        <ele>126</ele>
        <time>2022-03-06T07:40:37Z</time>
      </trkpt>
      <trkpt lat="48.54528" lon="2.09662">
        <ele>126</ele>
        <time>2022-03-06T07:40:39Z</time>
      </trkpt>
      <trkpt lat="48.54529" lon="2.09666">
        <ele>126</ele>
        <time>2022-03-06T07:40:41Z</time>
      </trkpt>
      <trkpt lat="48.5453" lon="2.0967">
        <ele>126</ele>
        <time>2022-03-06T07:40:43Z</time>
      </trkpt>
      <trkpt lat="48.54531" lon="2.09674">
        <ele>126</ele>
        <time>2022-03-06T07:40:45Z</time>
      </trkpt>
      <trkpt lat="48.54532" lon="2.09678">
        <ele>126</ele>
        <time>2022-03-06T07:40:47Z</time>
      </trkpt>
      <trkpt lat="48.54533" lon="2.09682">
        <ele>125</ele>
        <time>2022-03-06T07:40:49Z</time>
      </trkpt>
      <trkpt lat="48.54534" lon="2.09687">
        <ele>125</ele>
        <time>2022-03-06T07:40:51Z</time>
      </trkpt>
      <trkpt lat="48.54536" lon="2.09691">
        <ele>125</ele>
        <time>2022-03-06T07:40:53Z</time>
      </trkpt>
      <trkpt lat="48.54537" lon="2.09695">
        <ele>125</ele>
        <time>2022-03-06T07:40:55Z</time>
      </trkpt>
      <trkpt lat="48.54538" lon="2.09699">
        <ele>125</ele>
        <time>2022-03-06T07:40:57Z</time>
      </trkpt>
      <trkpt lat="48.54539" lon="2.09703">
        <ele>125</ele>
        <time>2022-03-06T07:40:59Z</time>
      </trkpt>
      <trkpt lat="48.5454" lon="2.09707">
        <ele>125</ele>
        <time>2022-03-06T07:41:01Z</time>
      </trkpt>
      <trkpt lat="48.54541" lon="2.09711">
        <ele>124</ele>
        <time>2022-03-06T07:41:03Z</time>
      </trkpt>
      <trkpt lat="48.54543" lon="2.09715">
        <ele>124</ele>
        <time>2022-03-06T07:41:05Z</time>
      </trkpt>
      <trkpt lat="48.54544" lon="2.09719">
        <ele>124</ele>
        <time>2022-03-06T07:41:07Z</time>
      </trkpt>
      <trkpt lat="48.54545" lon="2.09724">
        <ele>124</ele>
        <time>2022-03-06T07:41:09Z</time>
      </trkpt>
      <trkpt lat="48.54546" lon="2.09728">
        <ele>124</ele>
        <time>2022-03-06T07:41:11Z</time>
      </trkpt>
      <trkpt lat="48.54547" lon="2.09732">
        <ele>124</ele>
        <time>2022-03-06T07:41:13Z</time>
      </trkpt>
      <trkpt lat="48.54549" lon="2.09736">
        <ele>123</ele>
        <time>2022-03-06T07:41:15Z</time>
      </trkpt>
      <trkpt lat="48.5455" lon="2.09741">
        <ele>123</ele>
        <time>2022-03-06T07:41:17Z</time>
      </trkpt>
      <trkpt lat="48.54551" lon="2.09745">
        <ele>123</ele>
        <time>2022-03-06T07:41:19Z</time>
      </trkpt>
      <trkpt lat="48.54552" lon="2.09749">
        <ele>123</ele>
        <time>2022-03-06T07:41:21Z</time>
      </trkpt>
      <trkpt lat="48.54554" lon="2.09753">
        <ele>122</ele>
        <time>2022-03-06T07:41:23Z</time>
      </trkpt>
      <trkpt lat="48.54555" lon="2.09758">
        <ele>122</ele>
        <time>2022-03-06T07:41:25Z</time>
      </trkpt>
      <trkpt lat="48.54556" lon="2.09762">
        <ele>122</ele>
        <time>2022-03-06T07:41:27Z</time>
      </trkpt>
      <trkpt lat="48.54557" lon="2.09766">
        <ele>122</ele>
        <time>2022-03-06T07:41:29Z</time>
      </trkpt>
      <trkpt lat="48.54559" lon="2.0977">
        <ele>122</ele>
        <time>2022-03-06T07:41:31Z</time>
      </trkpt>
      <trkpt lat="48.5456" lon="2.09774">
        <ele>121</ele>
        <time>2022-03-06T07:41:33Z</time>
      </trkpt>
      <trkpt lat="48.54561" lon="2.09779">
        <ele>121</ele>
        <time>2022-03-06T07:41:35Z</time>
      </trkpt>
      <trkpt lat="48.54563" lon="2.09783">
        <ele>121</ele>
        <time>2022-03-06T07:41:37Z</time>
      </trkpt>
      <trkpt lat="48.54564" lon="2.09787">
        <ele>121</ele>
        <time>2022-03-06T07:41:39Z</time>
      </trkpt>
      <trkpt lat="48.54565" lon="2.09791">
        <ele>121</ele>
        <time>2022-03-06T07:41:41Z</time>
      </trkpt>
      <trkpt lat="48.54566" lon="2.09795">
        <ele>120</ele>
        <time>2022-03-06T07:41:43Z</time>
      </trkpt>
      <trkpt lat="48.54568" lon="2.09799">
        <ele>120</ele>
        <time>2022-03-06T07:41:45Z</time>
      </trkpt>
      <trkpt lat="48.54569" lon="2.09803">
        <ele>120</ele>
        <time>2022-03-06T07:41:47Z</time>
      </trkpt>
      <trkpt lat="48.5457" lon="2.09807">
        <ele>120</ele>
        <time>2022-03-06T07:41:49Z</time>
      </trkpt>
      <trkpt lat="48.54571" lon="2.09811">
        <ele>120</ele>
        <time>2022-03-06T07:41:51Z</time>
      </trkpt>
      <trkpt lat="48.54572" lon="2.09815">
        <ele>120</ele>
        <time>2022-03-06T07:41:53Z</time>
      </trkpt>
      <trkpt lat="48.54573" lon="2.0982">
        <ele>119</ele>
        <time>2022-03-06T07:41:55Z</time>
      </trkpt>
      <trkpt lat="48.54574" lon="2.09824">
        <ele>119</ele>
        <time>2022-03-06T07:41:57Z</time>
      </trkpt>
      <trkpt lat="48.54574" lon="2.09828">
        <ele>119</ele>
        <time>2022-03-06T07:41:59Z</time>
      </trkpt>
      <trkpt lat="48.54574" lon="2.09833">
        <ele>119</ele>
        <time>2022-03-06T07:42:01Z</time>
      </trkpt>
      <trkpt lat="48.54575" lon="2.09837">
        <ele>119</ele>
        <time>2022-03-06T07:42:03Z</time>
      </trkpt>
      <trkpt lat="48.54575" lon="2.09842">
        <ele>119</ele>
        <time>2022-03-06T07:42:05Z</time>
      </trkpt>
      <trkpt lat="48.54576" lon="2.09846">
        <ele>119</ele>
        <time>2022-03-06T07:42:07Z</time>
      </trkpt>
      <trkpt lat="48.54576" lon="2.09851">
        <ele>119</ele>
        <time>2022-03-06T07:42:09Z</time>
      </trkpt>
      <trkpt lat="48.54576" lon="2.09855">
        <ele>119</ele>
        <time>2022-03-06T07:42:11Z</time>
      </trkpt>
      <trkpt lat="48.54577" lon="2.0986">
        <ele>119</ele>
        <time>2022-03-06T07:42:13Z</time>
      </trkpt>
      <trkpt lat="48.54577" lon="2.09864">
        <ele>118</ele>
        <time>2022-03-06T07:42:15Z</time>
      </trkpt>
      <trkpt lat="48.54578" lon="2.09869">
        <ele>118</ele>
        <time>2022-03-06T07:42:17Z</time>
      </trkpt>
      <trkpt lat="48.54578" lon="2.09873">
        <ele>118</ele>
        <time>2022-03-06T07:42:19Z</time>
      </trkpt>
      <trkpt lat="48.54578" lon="2.09878">
        <ele>118</ele>
        <time>2022-03-06T07:42:21Z</time>
      </trkpt>
      <trkpt lat="48.54579" lon="2.09882">
        <ele>118</ele>
        <time>2022-03-06T07:42:23Z</time>
      </trkpt>
      <trkpt lat="48.54579" lon="2.09887">
        <ele>118</ele>
        <time>2022-03-06T07:42:25Z</time>
      </trkpt>
      <trkpt lat="48.54579" lon="2.09891">
        <ele>118</ele>
        <time>2022-03-06T07:42:27Z</time>
      </trkpt>
      <trkpt lat="48.5458" lon="2.09896">
        <ele>118</ele>
        <time>2022-03-06T07:42:29Z</time>
      </trkpt>
      <trkpt lat="48.5458" lon="2.099">
        <ele>118</ele>
        <time>2022-03-06T07:42:31Z</time>
      </trkpt>
      <trkpt lat="48.5458" lon="2.09905">
        <ele>118</ele>
        <time>2022-03-06T07:42:33Z</time>
      </trkpt>
      <trkpt lat="48.5458" lon="2.09909">
        <ele>117</ele>
        <time>2022-03-06T07:42:35Z</time>
      </trkpt>
      <trkpt lat="48.5458" lon="2.09914">
        <ele>117</ele>
        <time>2022-03-06T07:42:37Z</time>
      </trkpt>
      <trkpt lat="48.54581" lon="2.09918">
        <ele>117</ele>
        <time>2022-03-06T07:42:39Z</time>
      </trkpt>
      <trkpt lat="48.54581" lon="2.09922">
        <ele>117</ele>
        <time>2022-03-06T07:42:41Z</time>
      </trkpt>
      <trkpt lat="48.54581" lon="2.09927">
        <ele>117</ele>
        <time>2022-03-06T07:42:43Z</time>
      </trkpt>
      <trkpt lat="48.54582" lon="2.09931">
        <ele>117</ele>
        <time>2022-03-06T07:42:45Z</time>
      </trkpt>
      <trkpt lat="48.54582" lon="2.09936">
        <ele>117</ele>
        <time>2022-03-06T07:42:47Z</time>
      </trkpt>
      <trkpt lat="48.54582" lon="2.09941">
        <ele>117</ele>
        <time>2022-03-06T07:42:49Z</time>
      </trkpt>
      <trkpt lat="48.54582" lon="2.09946">
        <ele>117</ele>
        <time>2022-03-06T07:42:51Z</time>
      </trkpt>
      <trkpt lat="48.54582" lon="2.0995">
        <ele>117</ele>
        <time>2022-03-06T07:42:53Z</time>
      </trkpt>
      <trkpt lat="48.54582" lon="2.09955">
        <ele>117</ele>
        <time>2022-03-06T07:42:55Z</time>
      </trkpt>
      <trkpt lat="48.54583" lon="2.0996">
        <ele>117</ele>
        <time>2022-03-06T07:42:57Z</time>
      </trkpt>
      <trkpt lat="48.54583" lon="2.09964">
        <ele>117</ele>
        <time>2022-03-06T07:42:59Z</time>
      </trkpt>
      <trkpt lat="48.54583" lon="2.09969">
        <ele>117</ele>
        <time>2022-03-06T07:43:01Z</time>
      </trkpt>
      <trkpt lat="48.54583" lon="2.09974">
        <ele>117</ele>
        <time>2022-03-06T07:43:03Z</time>
      </trkpt>
      <trkpt lat="48.54583" lon="2.09978">
        <ele>117</ele>
        <time>2022-03-06T07:43:05Z</time>
      </trkpt>
      <trkpt lat="48.54584" lon="2.09983">
        <ele>116</ele>
        <time>2022-03-06T07:43:07Z</time>
      </trkpt>
      <trkpt lat="48.54584" lon="2.09988">
        <ele>116</ele>
        <time>2022-03-06T07:43:09Z</time>
      </trkpt>
      <trkpt lat="48.54585" lon="2.09992">
        <ele>116</ele>
        <time>2022-03-06T07:43:11Z</time>
      </trkpt>
      <trkpt lat="48.54585" lon="2.09996">
        <ele>116</ele>
        <time>2022-03-06T07:43:13Z</time>
      </trkpt>
      <trkpt lat="48.54585" lon="2.10001">
        <ele>116</ele>
        <time>2022-03-06T07:43:15Z</time>
      </trkpt>
      <trkpt lat="48.54586" lon="2.10005">
        <ele>116</ele>
        <time>2022-03-06T07:43:17Z</time>
      </trkpt>
      <trkpt lat="48.54586" lon="2.1001">
        <ele>116</ele>
        <time>2022-03-06T07:43:19Z</time>
      </trkpt>
      <trkpt lat="48.54586" lon="2.10014">
        <ele>116</ele>
        <time>2022-03-06T07:43:21Z</time>
      </trkpt>
      <trkpt lat="48.54586" lon="2.10019">
        <ele>116</ele>
        <time>2022-03-06T07:43:23Z</time>
      </trkpt>
      <trkpt lat="48.54585" lon="2.10024">
        <ele>116</ele>
        <time>2022-03-06T07:43:25Z</time>
      </trkpt>
      <trkpt lat="48.54585" lon="2.10028">
        <ele>116</ele>
        <time>2022-03-06T07:43:27Z</time>
      </trkpt>
      <trkpt lat="48.54584" lon="2.10033">
        <ele>116</ele>
        <time>2022-03-06T07:43:29Z</time>
      </trkpt>
      <trkpt lat="48.54583" lon="2.10037">
        <ele>116</ele>
        <time>2022-03-06T07:43:31Z</time>
      </trkpt>
      <trkpt lat="48.54582" lon="2.10042">
        <ele>116</ele>
        <time>2022-03-06T07:43:33Z</time>
      </trkpt>
      <trkpt lat="48.54581" lon="2.10046">
        <ele>116</ele>
        <time>2022-03-06T07:43:35Z</time>
      </trkpt>
      <trkpt lat="48.5458" lon="2.1005">
        <ele>116</ele>
        <time>2022-03-06T07:43:37Z</time>
      </trkpt>
      <trkpt lat="48.5458" lon="2.10055">
        <ele>116</ele>
        <time>2022-03-06T07:43:39Z</time>
      </trkpt>
      <trkpt lat="48.54579" lon="2.10059">
        <ele>116</ele>
        <time>2022-03-06T07:43:41Z</time>
      </trkpt>
      <trkpt lat="48.54578" lon="2.10064">
        <ele>116</ele>
        <time>2022-03-06T07:43:43Z</time>
      </trkpt>
      <trkpt lat="48.54577" lon="2.10068">
        <ele>116</ele>
        <time>2022-03-06T07:43:45Z</time>
      </trkpt>
      <trkpt lat="48.54576" lon="2.10073">
        <ele>115</ele>
        <time>2022-03-06T07:43:47Z</time>
      </trkpt>
      <trkpt lat="48.54576" lon="2.10077">
        <ele>115</ele>
        <time>2022-03-06T07:43:49Z</time>
      </trkpt>
      <trkpt lat="48.54575" lon="2.10082">
        <ele>115</ele>
        <time>2022-03-06T07:43:51Z</time>
      </trkpt>
      <trkpt lat="48.54574" lon="2.10086">
        <ele>115</ele>
        <time>2022-03-06T07:43:53Z</time>
      </trkpt>
      <trkpt lat="48.54574" lon="2.10091">
        <ele>115</ele>
        <time>2022-03-06T07:43:55Z</time>
      </trkpt>
      <trkpt lat="48.54574" lon="2.10095">
        <ele>115</ele>
        <time>2022-03-06T07:43:57Z</time>
      </trkpt>
      <trkpt lat="48.54574" lon="2.101">
        <ele>115</ele>
        <time>2022-03-06T07:43:59Z</time>
      </trkpt>
      <trkpt lat="48.54573" lon="2.10105">
        <ele>115</ele>
        <time>2022-03-06T07:44:01Z</time>
      </trkpt>
      <trkpt lat="48.54573" lon="2.10109">
        <ele>115</ele>
        <time>2022-03-06T07:44:03Z</time>
      </trkpt>
      <trkpt lat="48.54572" lon="2.10114">
        <ele>115</ele>
        <time>2022-03-06T07:44:05Z</time>
      </trkpt>
      <trkpt lat="48.54572" lon="2.10119">
        <ele>115</ele>
        <time>2022-03-06T07:44:07Z</time>
      </trkpt>
      <trkpt lat="48.54572" lon="2.10124">
        <ele>114</ele>
        <time>2022-03-06T07:44:09Z</time>
      </trkpt>
      <trkpt lat="48.54571" lon="2.10128">
        <ele>114</ele>
        <time>2022-03-06T07:44:11Z</time>
      </trkpt>
      <trkpt lat="48.54571" lon="2.10132">
        <ele>114</ele>
        <time>2022-03-06T07:44:13Z</time>
      </trkpt>
      <trkpt lat="48.54571" lon="2.10137">
        <ele>114</ele>
        <time>2022-03-06T07:44:15Z</time>
      </trkpt>
      <trkpt lat="48.54571" lon="2.10142">
        <ele>114</ele>
        <time>2022-03-06T07:44:17Z</time>
      </trkpt>
      <trkpt lat="48.54571" lon="2.10147">
        <ele>114</ele>
        <time>2022-03-06T07:44:19Z</time>
      </trkpt>
      <trkpt lat="48.54571" lon="2.10151">
        <ele>114</ele>
        <time>2022-03-06T07:44:21Z</time>
      </trkpt>
      <trkpt lat="48.54571" lon="2.10156">
        <ele>114</ele>
        <time>2022-03-06T07:44:23Z</time>
      </trkpt>
      <trkpt lat="48.54571" lon="2.10161">
        <ele>113</ele>
        <time>2022-03-06T07:44:25Z</time>
      </trkpt>
      <trkpt lat="48.54571" lon="2.10165">
        <ele>113</ele>
        <time>2022-03-06T07:44:27Z</time>
      </trkpt>
      <trkpt lat="48.54572" lon="2.1017">
        <ele>113</ele>
        <time>2022-03-06T07:44:29Z</time>
      </trkpt>
      <trkpt lat="48.54572" lon="2.10174">
        <ele>113</ele>
        <time>2022-03-06T07:44:31Z</time>
      </trkpt>
      <trkpt lat="48.54573" lon="2.10179">
        <ele>113</ele>
        <time>2022-03-06T07:44:33Z</time>
      </trkpt>
      <trkpt lat="48.54573" lon="2.10183">
        <ele>113</ele>
        <time>2022-03-06T07:44:35Z</time>
      </trkpt>
      <trkpt lat="48.54573" lon="2.10188">
        <ele>113</ele>
        <time>2022-03-06T07:44:37Z</time>
      </trkpt>
      <trkpt lat="48.54574" lon="2.10192">
        <ele>112</ele>
        <time>2022-03-06T07:44:39Z</time>
      </trkpt>
      <trkpt lat="48.54574" lon="2.10197">
        <ele>112</ele>
        <time>2022-03-06T07:44:41Z</time>
      </trkpt>
      <trkpt lat="48.54574" lon="2.10202">
        <ele>112</ele>
        <time>2022-03-06T07:44:43Z</time>
      </trkpt>
      <trkpt lat="48.54574" lon="2.10206">
        <ele>112</ele>
        <time>2022-03-06T07:44:45Z</time>
      </trkpt>
      <trkpt lat="48.54575" lon="2.10211">
        <ele>112</ele>
        <time>2022-03-06T07:44:47Z</time>
      </trkpt>
      <trkpt lat="48.54575" lon="2.10216">
        <ele>111</ele>
        <time>2022-03-06T07:44:49Z</time>
      </trkpt>
      <trkpt lat="48.54576" lon="2.1022">
        <ele>111</ele>
        <time>2022-03-06T07:44:51Z</time>
      </trkpt>
      <trkpt lat="48.54577" lon="2.10225">
        <ele>111</ele>
        <time>2022-03-06T07:44:53Z</time>
      </trkpt>
      <trkpt lat="48.54577" lon="2.1023">
        <ele>111</ele>
        <time>2022-03-06T07:44:55Z</time>
      </trkpt>
      <trkpt lat="48.54578" lon="2.10234">
        <ele>111</ele>
        <time>2022-03-06T07:44:57Z</time>
      </trkpt>
      <trkpt lat="48.54578" lon="2.10239">
        <ele>111</ele>
        <time>2022-03-06T07:44:59Z</time>
      </trkpt>
      <trkpt lat="48.54579" lon="2.10244">
        <ele>110</ele>
        <time>2022-03-06T07:45:01Z</time>
      </trkpt>
      <trkpt lat="48.5458" lon="2.10248">
        <ele>110</ele>
        <time>2022-03-06T07:45:03Z</time>
      </trkpt>
      <trkpt lat="48.5458" lon="2.10253">
        <ele>110</ele>
        <time>2022-03-06T07:45:05Z</time>
      </trkpt>
      <trkpt lat="48.54581" lon="2.10257">
        <ele>110</ele>
        <time>2022-03-06T07:45:07Z</time>
      </trkpt>
      <trkpt lat="48.54583" lon="2.10262">
        <ele>110</ele>
        <time>2022-03-06T07:45:09Z</time>
      </trkpt>
      <trkpt lat="48.54584" lon="2.10266">
        <ele>110</ele>
        <time>2022-03-06T07:45:11Z</time>
      </trkpt>
      <trkpt lat="48.54585" lon="2.1027">
        <ele>110</ele>
        <time>2022-03-06T07:45:13Z</time>
      </trkpt>
      <trkpt lat="48.54586" lon="2.10275">
        <ele>109</ele>
        <time>2022-03-06T07:45:15Z</time>
      </trkpt>
      <trkpt lat="48.54587" lon="2.1028">
        <ele>109</ele>
        <time>2022-03-06T07:45:17Z</time>
      </trkpt>
      <trkpt lat="48.54588" lon="2.10284">
        <ele>109</ele>
        <time>2022-03-06T07:45:19Z</time>
      </trkpt>
      <trkpt lat="48.54589" lon="2.10289">
        <ele>109</ele>
        <time>2022-03-06T07:45:21Z</time>
      </trkpt>
      <trkpt lat="48.5459" lon="2.10293">
        <ele>109</ele>
        <time>2022-03-06T07:45:23Z</time>
      </trkpt>
      <trkpt lat="48.54592" lon="2.10297">
        <ele>109</ele>
        <time>2022-03-06T07:45:25Z</time>
      </trkpt>
      <trkpt lat="48.54593" lon="2.10302">
        <ele>109</ele>
        <time>2022-03-06T07:45:27Z</time>
      </trkpt>
      <trkpt lat="48.54594" lon="2.10306">
        <ele>108</ele>
        <time>2022-03-06T07:45:29Z</time>
      </trkpt>
      <trkpt lat="48.54595" lon="2.10311">
        <ele>108</ele>
        <time>2022-03-06T07:45:31Z</time>
      </trkpt>
      <trkpt lat="48.54596" lon="2.10315">
        <ele>108</ele>
        <time>2022-03-06T07:45:33Z</time>
      </trkpt>
      <trkpt lat="48.54598" lon="2.10319">
        <ele>108</ele>
        <time>2022-03-06T07:45:35Z</time>
      </trkpt>
      <trkpt lat="48.54599" lon="2.10324">
        <ele>107</ele>
        <time>2022-03-06T07:45:37Z</time>
      </trkpt>
      <trkpt lat="48.546" lon="2.10328">
        <ele>107</ele>
        <time>2022-03-06T07:45:39Z</time>
      </trkpt>
      <trkpt lat="48.54601" lon="2.10333">
        <ele>107</ele>
        <time>2022-03-06T07:45:41Z</time>
      </trkpt>
      <trkpt lat="48.54602" lon="2.10337">
        <ele>107</ele>
        <time>2022-03-06T07:45:43Z</time>
      </trkpt>
      <trkpt lat="48.54603" lon="2.10342">
        <ele>107</ele>
        <time>2022-03-06T07:45:45Z</time>
      </trkpt>
      <trkpt lat="48.54604" lon="2.10346">
        <ele>106</ele>
        <time>2022-03-06T07:45:47Z</time>
      </trkpt>
      <trkpt lat="48.54605" lon="2.10351">
        <ele>106</ele>
        <time>2022-03-06T07:45:49Z</time>
      </trkpt>
      <trkpt lat="48.54606" lon="2.10355">
        <ele>106</ele>
        <time>2022-03-06T07:45:51Z</time>
      </trkpt>
      <trkpt lat="48.54607" lon="2.1036">
        <ele>106</ele>
        <time>2022-03-06T07:45:53Z</time>
      </trkpt>
      <trkpt lat="48.54608" lon="2.10364">
        <ele>106</ele>
        <time>2022-03-06T07:45:55Z</time>
      </trkpt>
      <trkpt lat="48.54609" lon="2.10368">
        <ele>105</ele>
        <time>2022-03-06T07:45:57Z</time>
      </trkpt>
      <trkpt lat="48.54609" lon="2.10372">
        <ele>105</ele>
        <time>2022-03-06T07:45:59Z</time>
      </trkpt>
      <trkpt lat="48.5461" lon="2.10377">
        <ele>104</ele>
        <time>2022-03-06T07:46:01Z</time>
      </trkpt>
      <trkpt lat="48.54611" lon="2.10381">
        <ele>104</ele>
        <time>2022-03-06T07:46:03Z</time>
      </trkpt>
      <trkpt lat="48.54612" lon="2.10385">
        <ele>104</ele>
        <time>2022-03-06T07:46:05Z</time>
      </trkpt>
      <trkpt lat="48.54613" lon="2.10389">
        <ele>104</ele>
        <time>2022-03-06T07:46:07Z</time>
      </trkpt>
      <trkpt lat="48.54614" lon="2.10393">
        <ele>103</ele>
        <time>2022-03-06T07:46:09Z</time>
      </trkpt>
      <trkpt lat="48.54615" lon="2.10397">
        <ele>103</ele>
        <time>2022-03-06T07:46:11Z</time>
      </trkpt>
      <trkpt lat="48.54616" lon="2.10401">
        <ele>103</ele>
        <time>2022-03-06T07:46:13Z</time>
      </trkpt>
      <trkpt lat="48.54618" lon="2.10405">
        <ele>103</ele>
        <time>2022-03-06T07:46:15Z</time>
      </trkpt>
      <trkpt lat="48.54619" lon="2.10409">
        <ele>102</ele>
        <time>2022-03-06T07:46:17Z</time>
      </trkpt>
      <trkpt lat="48.54621" lon="2.10413">
        <ele>102</ele>
        <time>2022-03-06T07:46:19Z</time>
      </trkpt>
      <trkpt lat="48.54622" lon="2.10417">
        <ele>102</ele>
        <time>2022-03-06T07:46:21Z</time>
      </trkpt>
      <trkpt lat="48.54624" lon="2.1042">
        <ele>101</ele>
        <time>2022-03-06T07:46:23Z</time>
      </trkpt>
      <trkpt lat="48.54626" lon="2.10424">
        <ele>101</ele>
        <time>2022-03-06T07:46:25Z</time>
      </trkpt>
      <trkpt lat="48.54628" lon="2.10428">
        <ele>101</ele>
        <time>2022-03-06T07:46:27Z</time>
      </trkpt>
      <trkpt lat="48.5463" lon="2.10431">
        <ele>101</ele>
        <time>2022-03-06T07:46:29Z</time>
      </trkpt>
      <trkpt lat="48.54632" lon="2.10435">
        <ele>101</ele>
        <time>2022-03-06T07:46:31Z</time>
      </trkpt>
      <trkpt lat="48.54634" lon="2.10438">
        <ele>100</ele>
        <time>2022-03-06T07:46:33Z</time>
      </trkpt>
      <trkpt lat="48.54636" lon="2.10442">
        <ele>100</ele>
        <time>2022-03-06T07:46:35Z</time>
      </trkpt>
      <trkpt lat="48.54638" lon="2.10445">
        <ele>100</ele>
        <time>2022-03-06T07:46:37Z</time>
      </trkpt>
      <trkpt lat="48.5464" lon="2.10449">
        <ele>100</ele>
        <time>2022-03-06T07:46:39Z</time>
      </trkpt>
      <trkpt lat="48.54642" lon="2.10452">
        <ele>99</ele>
        <time>2022-03-06T07:46:41Z</time>
      </trkpt>
      <trkpt lat="48.54644" lon="2.10455">
        <ele>99</ele>
        <time>2022-03-06T07:46:43Z</time>
      </trkpt>
      <trkpt lat="48.54646" lon="2.10459">
        <ele>99</ele>
        <time>2022-03-06T07:46:45Z</time>
      </trkpt>
      <trkpt lat="48.54649" lon="2.10463">
        <ele>99</ele>
        <time>2022-03-06T07:46:47Z</time>
      </trkpt>
      <trkpt lat="48.54651" lon="2.10466">
        <ele>98</ele>
        <time>2022-03-06T07:46:49Z</time>
      </trkpt>
      <trkpt lat="48.54653" lon="2.1047">
        <ele>98</ele>
        <time>2022-03-06T07:46:51Z</time>
      </trkpt>
      <trkpt lat="48.54655" lon="2.10473">
        <ele>98</ele>
        <time>2022-03-06T07:46:53Z</time>
      </trkpt>
      <trkpt lat="48.54657" lon="2.10476">
        <ele>98</ele>
        <time>2022-03-06T07:46:55Z</time>
      </trkpt>
      <trkpt lat="48.54659" lon="2.1048">
        <ele>97</ele>
        <time>2022-03-06T07:46:57Z</time>
      </trkpt>
      <trkpt lat="48.54661" lon="2.10483">
        <ele>97</ele>
        <time>2022-03-06T07:46:59Z</time>
      </trkpt>
      <trkpt lat="48.54663" lon="2.10487">
        <ele>97</ele>
        <time>2022-03-06T07:47:01Z</time>
      </trkpt>
      <trkpt lat="48.54665" lon="2.1049">
        <ele>96</ele>
        <time>2022-03-06T07:47:03Z</time>
      </trkpt>
      <trkpt lat="48.54667" lon="2.10493">
        <ele>96</ele>
        <time>2022-03-06T07:47:05Z</time>
      </trkpt>
      <trkpt lat="48.5467" lon="2.10496">
        <ele>96</ele>
        <time>2022-03-06T07:47:07Z</time>
      </trkpt>
      <trkpt lat="48.54672" lon="2.10499">
        <ele>96</ele>
        <time>2022-03-06T07:47:09Z</time>
      </trkpt>
      <trkpt lat="48.54674" lon="2.10502">
        <ele>96</ele>
        <time>2022-03-06T07:47:11Z</time>
      </trkpt>
      <trkpt lat="48.54676" lon="2.10506">
        <ele>95</ele>
        <time>2022-03-06T07:47:13Z</time>
      </trkpt>
      <trkpt lat="48.54679" lon="2.10509">
        <ele>95</ele>
        <time>2022-03-06T07:47:15Z</time>
      </trkpt>
      <trkpt lat="48.54681" lon="2.10512">
        <ele>95</ele>
        <time>2022-03-06T07:47:17Z</time>
      </trkpt>
      <trkpt lat="48.54683" lon="2.10515">
        <ele>95</ele>
        <time>2022-03-06T07:47:19Z</time>
      </trkpt>
      <trkpt lat="48.54685" lon="2.10518">
        <ele>94</ele>
        <time>2022-03-06T07:47:21Z</time>
      </trkpt>
      <trkpt lat="48.54688" lon="2.10521">
        <ele>94</ele>
        <time>2022-03-06T07:47:23Z</time>
      </trkpt>
      <trkpt lat="48.5469" lon="2.10524">
        <ele>94</ele>
        <time>2022-03-06T07:47:25Z</time>
      </trkpt>
      <trkpt lat="48.54692" lon="2.10527">
        <ele>93</ele>
        <time>2022-03-06T07:47:27Z</time>
      </trkpt>
      <trkpt lat="48.54695" lon="2.1053">
        <ele>93</ele>
        <time>2022-03-06T07:47:29Z</time>
      </trkpt>
      <trkpt lat="48.54697" lon="2.10534">
        <ele>93</ele>
        <time>2022-03-06T07:47:31Z</time>
      </trkpt>
      <trkpt lat="48.547" lon="2.10537">
        <ele>93</ele>
        <time>2022-03-06T07:47:33Z</time>
      </trkpt>
      <trkpt lat="48.54702" lon="2.1054">
        <ele>92</ele>
        <time>2022-03-06T07:47:35Z</time>
      </trkpt>
      <trkpt lat="48.54704" lon="2.10543">
        <ele>92</ele>
        <time>2022-03-06T07:47:37Z</time>
      </trkpt>
      <trkpt lat="48.54706" lon="2.10546">
        <ele>92</ele>
        <time>2022-03-06T07:47:39Z</time>
      </trkpt>
      <trkpt lat="48.54709" lon="2.10549">
        <ele>91</ele>
        <time>2022-03-06T07:47:41Z</time>
      </trkpt>
      <trkpt lat="48.54711" lon="2.10552">
        <ele>91</ele>
        <time>2022-03-06T07:47:43Z</time>
      </trkpt>
      <trkpt lat="48.54713" lon="2.10555">
        <ele>91</ele>
        <time>2022-03-06T07:47:45Z</time>
      </trkpt>
      <trkpt lat="48.54715" lon="2.10558">
        <ele>91</ele>
        <time>2022-03-06T07:47:47Z</time>
      </trkpt>
      <trkpt lat="48.54718" lon="2.10562">
        <ele>90</ele>
        <time>2022-03-06T07:47:49Z</time>
      </trkpt>
      <trkpt lat="48.5472" lon="2.10565">
        <ele>90</ele>
        <time>2022-03-06T07:47:51Z</time>
      </trkpt>
      <trkpt lat="48.54722" lon="2.10568">
        <ele>90</ele>
        <time>2022-03-06T07:47:53Z</time>
      </trkpt>
      <trkpt lat="48.54724" lon="2.10572">
        <ele>90</ele>
        <time>2022-03-06T07:47:55Z</time>
      </trkpt>
      <trkpt lat="48.54726" lon="2.10575">
        <ele>90</ele>
        <time>2022-03-06T07:47:57Z</time>
      </trkpt>
      <trkpt lat="48.54728" lon="2.10579">
        <ele>89</ele>
        <time>2022-03-06T07:48:00Z</time>
      </trkpt>
      <trkpt lat="48.5473" lon="2.10582">
        <ele>89</ele>
        <time>2022-03-06T07:48:03Z</time>
      </trkpt>
      <trkpt lat="48.54733" lon="2.10585">
        <ele>89</ele>
        <time>2022-03-06T07:48:06Z</time>
      </trkpt>
      <trkpt lat="48.54735" lon="2.10586">
        <ele>89</ele>
        <time>2022-03-06T07:48:08Z</time>
      </trkpt>
      <trkpt lat="48.54738" lon="2.10585">
        <ele>89</ele>
        <time>2022-03-06T07:48:10Z</time>
      </trkpt>
      <trkpt lat="48.5474" lon="2.10582">
        <ele>89</ele>
        <time>2022-03-06T07:48:12Z</time>
      </trkpt>
      <trkpt lat="48.54741" lon="2.10579">
        <ele>89</ele>
        <time>2022-03-06T07:48:14Z</time>
      </trkpt>
      <trkpt lat="48.54743" lon="2.10575">
        <ele>89</ele>
        <time>2022-03-06T07:48:16Z</time>
      </trkpt>
      <trkpt lat="48.54745" lon="2.10571">
        <ele>89</ele>
        <time>2022-03-06T07:48:18Z</time>
      </trkpt>
      <trkpt lat="48.54746" lon="2.10567">
        <ele>89</ele>
        <time>2022-03-06T07:48:20Z</time>
      </trkpt>
      <trkpt lat="48.54748" lon="2.10563">
        <ele>89</ele>
        <time>2022-03-06T07:48:22Z</time>
      </trkpt>
      <trkpt lat="48.54749" lon="2.1056">
        <ele>89</ele>
        <time>2022-03-06T07:48:24Z</time>
      </trkpt>
      <trkpt lat="48.54751" lon="2.10556">
        <ele>90</ele>
        <time>2022-03-06T07:48:27Z</time>
      </trkpt>
      <trkpt lat="48.54753" lon="2.10551">
        <ele>90</ele>
        <time>2022-03-06T07:48:30Z</time>
      </trkpt>
      <trkpt lat="48.54755" lon="2.10547">
        <ele>90</ele>
        <time>2022-03-06T07:48:32Z</time>
      </trkpt>
      <trkpt lat="48.54756" lon="2.10542">
        <ele>90</ele>
        <time>2022-03-06T07:48:34Z</time>
      </trkpt>
      <trkpt lat="48.54757" lon="2.10538">
        <ele>90</ele>
        <time>2022-03-06T07:48:36Z</time>
      </trkpt>
      <trkpt lat="48.54758" lon="2.10533">
        <ele>91</ele>
        <time>2022-03-06T07:48:39Z</time>
      </trkpt>
      <trkpt lat="48.54759" lon="2.10527">
        <ele>91</ele>
        <time>2022-03-06T07:48:42Z</time>
      </trkpt>
      <trkpt lat="48.54761" lon="2.10521">
        <ele>91</ele>
        <time>2022-03-06T07:48:45Z</time>
      </trkpt>
      <trkpt lat="48.54762" lon="2.10517">
        <ele>91</ele>
        <time>2022-03-06T07:48:47Z</time>
      </trkpt>
      <trkpt lat="48.54763" lon="2.10512">
        <ele>91</ele>
        <time>2022-03-06T07:48:50Z</time>
      </trkpt>
      <trkpt lat="48.54765" lon="2.10507">
        <ele>91</ele>
        <time>2022-03-06T07:48:52Z</time>
      </trkpt>
      <trkpt lat="48.54766" lon="2.10502">
        <ele>92</ele>
        <time>2022-03-06T07:48:55Z</time>
      </trkpt>
      <trkpt lat="48.54768" lon="2.10497">
        <ele>92</ele>
        <time>2022-03-06T07:48:58Z</time>
      </trkpt>
      <trkpt lat="48.5477" lon="2.10498">
        <ele>92</ele>
        <time>2022-03-06T07:49:02Z</time>
      </trkpt>
      <trkpt lat="48.54773" lon="2.10499">
        <ele>92</ele>
        <time>2022-03-06T07:49:04Z</time>
      </trkpt>
      <trkpt lat="48.54777" lon="2.10502">
        <ele>93</ele>
        <time>2022-03-06T07:49:07Z</time>
      </trkpt>
      <trkpt lat="48.54781" lon="2.10506">
        <ele>93</ele>
        <time>2022-03-06T07:49:10Z</time>
      </trkpt>
      <trkpt lat="48.54783" lon="2.10509">
        <ele>93</ele>
        <time>2022-03-06T07:49:12Z</time>
      </trkpt>
      <trkpt lat="48.54786" lon="2.10512">
        <ele>94</ele>
        <time>2022-03-06T07:49:15Z</time>
      </trkpt>
      <trkpt lat="48.54787" lon="2.10516">
        <ele>94</ele>
        <time>2022-03-06T07:49:17Z</time>
      </trkpt>
      <trkpt lat="48.54788" lon="2.10521">
        <ele>95</ele>
        <time>2022-03-06T07:49:20Z</time>
      </trkpt>
      <trkpt lat="48.54789" lon="2.10525">
        <ele>95</ele>
        <time>2022-03-06T07:49:22Z</time>
      </trkpt>
      <trkpt lat="48.54791" lon="2.10529">
        <ele>95</ele>
        <time>2022-03-06T07:49:25Z</time>
      </trkpt>
      <trkpt lat="48.54793" lon="2.10533">
        <ele>95</ele>
        <time>2022-03-06T07:49:27Z</time>
      </trkpt>
      <trkpt lat="48.54795" lon="2.10536">
        <ele>96</ele>
        <time>2022-03-06T07:49:29Z</time>
      </trkpt>
      <trkpt lat="48.54798" lon="2.10539">
        <ele>96</ele>
        <time>2022-03-06T07:49:32Z</time>
      </trkpt>
      <trkpt lat="48.54801" lon="2.10543">
        <ele>96</ele>
        <time>2022-03-06T07:49:35Z</time>
      </trkpt>
      <trkpt lat="48.54804" lon="2.10547">
        <ele>96</ele>
        <time>2022-03-06T07:49:38Z</time>
      </trkpt>
      <trkpt lat="48.54807" lon="2.10551">
        <ele>97</ele>
        <time>2022-03-06T07:49:41Z</time>
      </trkpt>
      <trkpt lat="48.5481" lon="2.10555">
        <ele>97</ele>
        <time>2022-03-06T07:49:43Z</time>
      </trkpt>
      <trkpt lat="48.54812" lon="2.10558">
        <ele>97</ele>
        <time>2022-03-06T07:49:46Z</time>
      </trkpt>
      <trkpt lat="48.54814" lon="2.10561">
        <ele>97</ele>
        <time>2022-03-06T07:49:48Z</time>
      </trkpt>
      <trkpt lat="48.54817" lon="2.10565">
        <ele>98</ele>
        <time>2022-03-06T07:49:51Z</time>
      </trkpt>
      <trkpt lat="48.5482" lon="2.10568">
        <ele>98</ele>
        <time>2022-03-06T07:49:53Z</time>
      </trkpt>
      <trkpt lat="48.54823" lon="2.10572">
        <ele>98</ele>
        <time>2022-03-06T07:49:56Z</time>
      </trkpt>
      <trkpt lat="48.54825" lon="2.10575">
        <ele>99</ele>
        <time>2022-03-06T07:49:59Z</time>
      </trkpt>
      <trkpt lat="48.54828" lon="2.10578">
        <ele>99</ele>
        <time>2022-03-06T07:50:03Z</time>
      </trkpt>
      <trkpt lat="48.5483" lon="2.1058">
        <ele>99</ele>
        <time>2022-03-06T07:50:05Z</time>
      </trkpt>
      <trkpt lat="48.54832" lon="2.10583">
        <ele>100</ele>
        <time>2022-03-06T07:50:08Z</time>
      </trkpt>
      <trkpt lat="48.54834" lon="2.10587">
        <ele>101</ele>
        <time>2022-03-06T07:50:12Z</time>
      </trkpt>
      <trkpt lat="48.54836" lon="2.10591">
        <ele>101</ele>
        <time>2022-03-06T07:50:14Z</time>
      </trkpt>
      <trkpt lat="48.54839" lon="2.10594">
        <ele>102</ele>
        <time>2022-03-06T07:50:17Z</time>
      </trkpt>
      <trkpt lat="48.54841" lon="2.10597">
        <ele>102</ele>
        <time>2022-03-06T07:50:20Z</time>
      </trkpt>
      <trkpt lat="48.54844" lon="2.106">
        <ele>102</ele>
        <time>2022-03-06T07:50:23Z</time>
      </trkpt>
      <trkpt lat="48.54847" lon="2.10604">
        <ele>102</ele>
        <time>2022-03-06T07:50:26Z</time>
      </trkpt>
      <trkpt lat="48.54851" lon="2.10606">
        <ele>102</ele>
        <time>2022-03-06T07:50:28Z</time>
      </trkpt>
      <trkpt lat="48.54854" lon="2.10608">
        <ele>103</ele>
        <time>2022-03-06T07:50:32Z</time>
      </trkpt>
      <trkpt lat="48.54858" lon="2.1061">
        <ele>103</ele>
        <time>2022-03-06T07:50:35Z</time>
      </trkpt>
      <trkpt lat="48.54861" lon="2.10613">
        <ele>103</ele>
        <time>2022-03-06T07:50:38Z</time>
      </trkpt>
      <trkpt lat="48.54864" lon="2.10616">
        <ele>104</ele>
        <time>2022-03-06T07:50:40Z</time>
      </trkpt>
      <trkpt lat="48.54866" lon="2.10619">
        <ele>104</ele>
        <time>2022-03-06T07:50:42Z</time>
      </trkpt>
      <trkpt lat="48.54869" lon="2.10622">
        <ele>105</ele>
        <time>2022-03-06T07:50:45Z</time>
      </trkpt>
      <trkpt lat="48.54872" lon="2.10624">
        <ele>105</ele>
        <time>2022-03-06T07:50:48Z</time>
      </trkpt>
      <trkpt lat="48.54876" lon="2.10626">
        <ele>106</ele>
        <time>2022-03-06T07:50:52Z</time>
      </trkpt>
      <trkpt lat="48.54879" lon="2.10628">
        <ele>106</ele>
        <time>2022-03-06T07:50:55Z</time>
      </trkpt>
      <trkpt lat="48.54883" lon="2.1063">
        <ele>107</ele>
        <time>2022-03-06T07:51:01Z</time>
      </trkpt>
      <trkpt lat="48.54886" lon="2.10632">
        <ele>107</ele>
        <time>2022-03-06T07:51:04Z</time>
      </trkpt>
      <trkpt lat="48.54888" lon="2.10634">
        <ele>107</ele>
        <time>2022-03-06T07:51:06Z</time>
      </trkpt>
      <trkpt lat="48.5489" lon="2.10638">
        <ele>108</ele>
        <time>2022-03-06T07:51:09Z</time>
      </trkpt>
      <trkpt lat="48.54893" lon="2.10641">
        <ele>108</ele>
        <time>2022-03-06T07:51:14Z</time>
      </trkpt>
      <trkpt lat="48.54896" lon="2.10645">
        <ele>109</ele>
        <time>2022-03-06T07:51:16Z</time>
      </trkpt>
      <trkpt lat="48.54898" lon="2.10648">
        <ele>109</ele>
        <time>2022-03-06T07:51:18Z</time>
      </trkpt>
      <trkpt lat="48.549" lon="2.10653">
        <ele>109</ele>
        <time>2022-03-06T07:51:21Z</time>
      </trkpt>
      <trkpt lat="48.54902" lon="2.10657">
        <ele>110</ele>
        <time>2022-03-06T07:51:24Z</time>
      </trkpt>
      <trkpt lat="48.54904" lon="2.10662">
        <ele>110</ele>
        <time>2022-03-06T07:51:27Z</time>
      </trkpt>
      <trkpt lat="48.54906" lon="2.10666">
        <ele>110</ele>
        <time>2022-03-06T07:51:30Z</time>
      </trkpt>
      <trkpt lat="48.54909" lon="2.10669">
        <ele>110</ele>
        <time>2022-03-06T07:51:32Z</time>
      </trkpt>
      <trkpt lat="48.54912" lon="2.10671">
        <ele>111</ele>
        <time>2022-03-06T07:51:36Z</time>
      </trkpt>
      <trkpt lat="48.54914" lon="2.10675">
        <ele>111</ele>
        <time>2022-03-06T07:51:39Z</time>
      </trkpt>
      <trkpt lat="48.54917" lon="2.10677">
        <ele>111</ele>
        <time>2022-03-06T07:51:42Z</time>
      </trkpt>
      <trkpt lat="48.5492" lon="2.10679">
        <ele>111</ele>
        <time>2022-03-06T07:51:43Z</time>
      </trkpt>
      <trkpt lat="48.54922" lon="2.10682">
        <ele>111</ele>
        <time>2022-03-06T07:51:45Z</time>
      </trkpt>
      <trkpt lat="48.54923" lon="2.10686">
        <ele>111</ele>
        <time>2022-03-06T07:51:47Z</time>
      </trkpt>
      <trkpt lat="48.54924" lon="2.1069">
        <ele>112</ele>
        <time>2022-03-06T07:51:49Z</time>
      </trkpt>
      <trkpt lat="48.54923" lon="2.10696">
        <ele>112</ele>
        <time>2022-03-06T07:51:51Z</time>
      </trkpt>
      <trkpt lat="48.54924" lon="2.10701">
        <ele>112</ele>
        <time>2022-03-06T07:51:54Z</time>
      </trkpt>
      <trkpt lat="48.54925" lon="2.10705">
        <ele>113</ele>
        <time>2022-03-06T07:51:57Z</time>
      </trkpt>
      <trkpt lat="48.54926" lon="2.1071">
        <ele>113</ele>
        <time>2022-03-06T07:52:00Z</time>
      </trkpt>
      <trkpt lat="48.54926" lon="2.10715">
        <ele>113</ele>
        <time>2022-03-06T07:52:02Z</time>
      </trkpt>
      <trkpt lat="48.54926" lon="2.10721">
        <ele>113</ele>
        <time>2022-03-06T07:52:05Z</time>
      </trkpt>
      <trkpt lat="48.54928" lon="2.10725">
        <ele>113</ele>
        <time>2022-03-06T07:52:08Z</time>
      </trkpt>
      <trkpt lat="48.5493" lon="2.1073">
        <ele>114</ele>
        <time>2022-03-06T07:52:12Z</time>
      </trkpt>
      <trkpt lat="48.54933" lon="2.10733">
        <ele>114</ele>
        <time>2022-03-06T07:52:15Z</time>
      </trkpt>
      <trkpt lat="48.54935" lon="2.10738">
        <ele>115</ele>
        <time>2022-03-06T07:52:18Z</time>
      </trkpt>
      <trkpt lat="48.54936" lon="2.10742">
        <ele>115</ele>
        <time>2022-03-06T07:52:21Z</time>
      </trkpt>
      <trkpt lat="48.54938" lon="2.10746">
        <ele>116</ele>
        <time>2022-03-06T07:52:24Z</time>
      </trkpt>
      <trkpt lat="48.5494" lon="2.1075">
        <ele>116</ele>
        <time>2022-03-06T07:52:26Z</time>
      </trkpt>
      <trkpt lat="48.54942" lon="2.10754">
        <ele>117</ele>
        <time>2022-03-06T07:52:29Z</time>
      </trkpt>
      <trkpt lat="48.54943" lon="2.10758">
        <ele>117</ele>
        <time>2022-03-06T07:52:31Z</time>
      </trkpt>
      <trkpt lat="48.54944" lon="2.10763">
        <ele>118</ele>
        <time>2022-03-06T07:52:34Z</time>
      </trkpt>
      <trkpt lat="48.54946" lon="2.10767">
        <ele>118</ele>
        <time>2022-03-06T07:52:37Z</time>
      </trkpt>
      <trkpt lat="48.54946" lon="2.10774">
        <ele>119</ele>
        <time>2022-03-06T07:52:40Z</time>
      </trkpt>
      <trkpt lat="48.54946" lon="2.10779">
        <ele>119</ele>
        <time>2022-03-06T07:52:43Z</time>
      </trkpt>
      <trkpt lat="48.54946" lon="2.10784">
        <ele>120</ele>
        <time>2022-03-06T07:52:46Z</time>
      </trkpt>
      <trkpt lat="48.54948" lon="2.10788">
        <ele>121</ele>
        <time>2022-03-06T07:52:48Z</time>
      </trkpt>
      <trkpt lat="48.54949" lon="2.10792">
        <ele>121</ele>
        <time>2022-03-06T07:52:51Z</time>
      </trkpt>
      <trkpt lat="48.54949" lon="2.10796">
        <ele>122</ele>
        <time>2022-03-06T07:52:54Z</time>
      </trkpt>
      <trkpt lat="48.5495" lon="2.10801">
        <ele>123</ele>
        <time>2022-03-06T07:52:57Z</time>
      </trkpt>
      <trkpt lat="48.5495" lon="2.10806">
        <ele>123</ele>
        <time>2022-03-06T07:53:00Z</time>
      </trkpt>
      <trkpt lat="48.5495" lon="2.10812">
        <ele>123</ele>
        <time>2022-03-06T07:53:03Z</time>
      </trkpt>
      <trkpt lat="48.54951" lon="2.10816">
        <ele>124</ele>
        <time>2022-03-06T07:53:05Z</time>
      </trkpt>
      <trkpt lat="48.54951" lon="2.10821">
        <ele>124</ele>
        <time>2022-03-06T07:53:09Z</time>
      </trkpt>
      <trkpt lat="48.54951" lon="2.10827">
        <ele>125</ele>
        <time>2022-03-06T07:53:12Z</time>
      </trkpt>
      <trkpt lat="48.54952" lon="2.10832">
        <ele>125</ele>
        <time>2022-03-06T07:53:16Z</time>
      </trkpt>
      <trkpt lat="48.54953" lon="2.10835">
        <ele>125</ele>
        <time>2022-03-06T07:53:19Z</time>
      </trkpt>
      <trkpt lat="48.54956" lon="2.10838">
        <ele>125</ele>
        <time>2022-03-06T07:53:23Z</time>
      </trkpt>
      <trkpt lat="48.54959" lon="2.10838">
        <ele>125</ele>
        <time>2022-03-06T07:53:27Z</time>
      </trkpt>
      <trkpt lat="48.54961" lon="2.10836">
        <ele>125</ele>
        <time>2022-03-06T07:53:30Z</time>
      </trkpt>
      <trkpt lat="48.54965" lon="2.10834">
        <ele>125</ele>
        <time>2022-03-06T07:53:33Z</time>
      </trkpt>
      <trkpt lat="48.54968" lon="2.10831">
        <ele>125</ele>
        <time>2022-03-06T07:53:37Z</time>
      </trkpt>
      <trkpt lat="48.54971" lon="2.10829">
        <ele>125</ele>
        <time>2022-03-06T07:53:39Z</time>
      </trkpt>
      <trkpt lat="48.54973" lon="2.10826">
        <ele>126</ele>
        <time>2022-03-06T07:53:41Z</time>
      </trkpt>
      <trkpt lat="48.54976" lon="2.10823">
        <ele>126</ele>
        <time>2022-03-06T07:53:44Z</time>
      </trkpt>
      <trkpt lat="48.54979" lon="2.10821">
        <ele>126</ele>
        <time>2022-03-06T07:53:47Z</time>
      </trkpt>
      <trkpt lat="48.54982" lon="2.10818">
        <ele>127</ele>
        <time>2022-03-06T07:53:49Z</time>
      </trkpt>
      <trkpt lat="48.54985" lon="2.10816">
        <ele>127</ele>
        <time>2022-03-06T07:53:52Z</time>
      </trkpt>
      <trkpt lat="48.54988" lon="2.10814">
        <ele>127</ele>
        <time>2022-03-06T07:53:55Z</time>
      </trkpt>
      <trkpt lat="48.5499" lon="2.10812">
        <ele>127</ele>
        <time>2022-03-06T07:53:57Z</time>
      </trkpt>
      <trkpt lat="48.54993" lon="2.1081">
        <ele>128</ele>
        <time>2022-03-06T07:54:00Z</time>
      </trkpt>
      <trkpt lat="48.54996" lon="2.10807">
        <ele>129</ele>
        <time>2022-03-06T07:54:03Z</time>
      </trkpt>
      <trkpt lat="48.54999" lon="2.10804">
        <ele>129</ele>
        <time>2022-03-06T07:54:06Z</time>
      </trkpt>
      <trkpt lat="48.55002" lon="2.10801">
        <ele>129</ele>
        <time>2022-03-06T07:54:08Z</time>
      </trkpt>
      <trkpt lat="48.55005" lon="2.10799">
        <ele>130</ele>
        <time>2022-03-06T07:54:11Z</time>
      </trkpt>
      <trkpt lat="48.55008" lon="2.10797">
        <ele>130</ele>
        <time>2022-03-06T07:54:15Z</time>
      </trkpt>
      <trkpt lat="48.55011" lon="2.10796">
        <ele>131</ele>
        <time>2022-03-06T07:54:17Z</time>
      </trkpt>
      <trkpt lat="48.55014" lon="2.10794">
        <ele>131</ele>
        <time>2022-03-06T07:54:19Z</time>
      </trkpt>
      <trkpt lat="48.55017" lon="2.10792">
        <ele>131</ele>
        <time>2022-03-06T07:54:22Z</time>
      </trkpt>
      <trkpt lat="48.55019" lon="2.10791">
        <ele>132</ele>
        <time>2022-03-06T07:54:24Z</time>
      </trkpt>
      <trkpt lat="48.55022" lon="2.1079">
        <ele>132</ele>
        <time>2022-03-06T07:54:26Z</time>
      </trkpt>
      <trkpt lat="48.55025" lon="2.10788">
        <ele>132</ele>
        <time>2022-03-06T07:54:28Z</time>
      </trkpt>
      <trkpt lat="48.55028" lon="2.10788">
        <ele>132</ele>
        <time>2022-03-06T07:54:30Z</time>
      </trkpt>
      <trkpt lat="48.55031" lon="2.10787">
        <ele>133</ele>
        <time>2022-03-06T07:54:33Z</time>
      </trkpt>
      <trkpt lat="48.55034" lon="2.10787">
        <ele>133</ele>
        <time>2022-03-06T07:54:35Z</time>
      </trkpt>
      <trkpt lat="48.55038" lon="2.10786">
        <ele>133</ele>
        <time>2022-03-06T07:54:38Z</time>
      </trkpt>
      <trkpt lat="48.55041" lon="2.10785">
        <ele>133</ele>
        <time>2022-03-06T07:54:40Z</time>
      </trkpt>
      <trkpt lat="48.55044" lon="2.10784">
        <ele>134</ele>
        <time>2022-03-06T07:54:43Z</time>
      </trkpt>
      <trkpt lat="48.55048" lon="2.10784">
        <ele>134</ele>
        <time>2022-03-06T07:54:46Z</time>
      </trkpt>
      <trkpt lat="48.55051" lon="2.10783">
        <ele>135</ele>
        <time>2022-03-06T07:54:49Z</time>
      </trkpt>
      <trkpt lat="48.55055" lon="2.10783">
        <ele>135</ele>
        <time>2022-03-06T07:54:51Z</time>
      </trkpt>
      <trkpt lat="48.55058" lon="2.10783">
        <ele>135</ele>
        <time>2022-03-06T07:54:53Z</time>
      </trkpt>
      <trkpt lat="48.55061" lon="2.10784">
        <ele>135</ele>
        <time>2022-03-06T07:54:56Z</time>
      </trkpt>
      <trkpt lat="48.55064" lon="2.10785">
        <ele>136</ele>
        <time>2022-03-06T07:54:59Z</time>
      </trkpt>
      <trkpt lat="48.55068" lon="2.10785">
        <ele>136</ele>
        <time>2022-03-06T07:55:02Z</time>
      </trkpt>
      <trkpt lat="48.55072" lon="2.10785">
        <ele>137</ele>
        <time>2022-03-06T07:55:06Z</time>
      </trkpt>
      <trkpt lat="48.55075" lon="2.10785">
        <ele>137</ele>
        <time>2022-03-06T07:55:09Z</time>
      </trkpt>
      <trkpt lat="48.55078" lon="2.10784">
        <ele>137</ele>
        <time>2022-03-06T07:55:11Z</time>
      </trkpt>
      <trkpt lat="48.55081" lon="2.10783">
        <ele>138</ele>
        <time>2022-03-06T07:55:14Z</time>
      </trkpt>
      <trkpt lat="48.55084" lon="2.10781">
        <ele>138</ele>
        <time>2022-03-06T07:55:16Z</time>
      </trkpt>
      <trkpt lat="48.55087" lon="2.1078">
        <ele>139</ele>
        <time>2022-03-06T07:55:19Z</time>
      </trkpt>
      <trkpt lat="48.5509" lon="2.10778">
        <ele>139</ele>
        <time>2022-03-06T07:55:22Z</time>
      </trkpt>
      <trkpt lat="48.55093" lon="2.10777">
        <ele>140</ele>
        <time>2022-03-06T07:55:25Z</time>
      </trkpt>
      <trkpt lat="48.55096" lon="2.10775">
        <ele>140</ele>
        <time>2022-03-06T07:55:28Z</time>
      </trkpt>
      <trkpt lat="48.55099" lon="2.10772">
        <ele>141</ele>
        <time>2022-03-06T07:55:31Z</time>
      </trkpt>
      <trkpt lat="48.55101" lon="2.10769">
        <ele>141</ele>
        <time>2022-03-06T07:55:34Z</time>
      </trkpt>
      <trkpt lat="48.55102" lon="2.10765">
        <ele>141</ele>
        <time>2022-03-06T07:55:36Z</time>
      </trkpt>
      <trkpt lat="48.55104" lon="2.1076">
        <ele>142</ele>
        <time>2022-03-06T07:55:39Z</time>
      </trkpt>
      <trkpt lat="48.55104" lon="2.10755">
        <ele>142</ele>
        <time>2022-03-06T07:55:42Z</time>
      </trkpt>
      <trkpt lat="48.55105" lon="2.1075">
        <ele>143</ele>
        <time>2022-03-06T07:55:44Z</time>
      </trkpt>
      <trkpt lat="48.55106" lon="2.10745">
        <ele>143</ele>
        <time>2022-03-06T07:55:46Z</time>
      </trkpt>
      <trkpt lat="48.55107" lon="2.1074">
        <ele>143</ele>
        <time>2022-03-06T07:55:49Z</time>
      </trkpt>
      <trkpt lat="48.55107" lon="2.10735">
        <ele>144</ele>
        <time>2022-03-06T07:55:53Z</time>
      </trkpt>
      <trkpt lat="48.55108" lon="2.1073">
        <ele>144</ele>
        <time>2022-03-06T07:55:55Z</time>
      </trkpt>
      <trkpt lat="48.55108" lon="2.10725">
        <ele>145</ele>
        <time>2022-03-06T07:55:59Z</time>
      </trkpt>
      <trkpt lat="48.55108" lon="2.1072">
        <ele>146</ele>
        <time>2022-03-06T07:56:04Z</time>
      </trkpt>
      <trkpt lat="48.55109" lon="2.10716">
        <ele>146</ele>
        <time>2022-03-06T07:56:07Z</time>
      </trkpt>
      <trkpt lat="48.5511" lon="2.10712">
        <ele>147</ele>
        <time>2022-03-06T07:56:12Z</time>
      </trkpt>
      <trkpt lat="48.5511" lon="2.10707">
        <ele>148</ele>
        <time>2022-03-06T07:56:15Z</time>
      </trkpt>
      <trkpt lat="48.55109" lon="2.10702">
        <ele>149</ele>
        <time>2022-03-06T07:56:20Z</time>
      </trkpt>
      <trkpt lat="48.55108" lon="2.10698">
        <ele>149</ele>
        <time>2022-03-06T07:56:24Z</time>
      </trkpt>
      <trkpt lat="48.55106" lon="2.10694">
        <ele>150</ele>
        <time>2022-03-06T07:56:27Z</time>
      </trkpt>
      <trkpt lat="48.55105" lon="2.10689">
        <ele>151</ele>
        <time>2022-03-06T07:56:31Z</time>
      </trkpt>
      <trkpt lat="48.55103" lon="2.10685">
        <ele>151</ele>
        <time>2022-03-06T07:56:34Z</time>
      </trkpt>
      <trkpt lat="48.55102" lon="2.1068">
        <ele>152</ele>
        <time>2022-03-06T07:56:37Z</time>
      </trkpt>
      <trkpt lat="48.551" lon="2.10676">
        <ele>152</ele>
        <time>2022-03-06T07:56:41Z</time>
      </trkpt>
      <trkpt lat="48.55097" lon="2.10672">
        <ele>153</ele>
        <time>2022-03-06T07:56:44Z</time>
      </trkpt>
      <trkpt lat="48.55094" lon="2.10669">
        <ele>153</ele>
        <time>2022-03-06T07:56:47Z</time>
      </trkpt>
      <trkpt lat="48.55091" lon="2.10666">
        <ele>153</ele>
        <time>2022-03-06T07:56:50Z</time>
      </trkpt>
      <trkpt lat="48.55088" lon="2.10663">
        <ele>154</ele>
        <time>2022-03-06T07:56:53Z</time>
      </trkpt>
      <trkpt lat="48.55085" lon="2.1066">
        <ele>154</ele>
        <time>2022-03-06T07:56:56Z</time>
      </trkpt>
      <trkpt lat="48.55083" lon="2.10656">
        <ele>154</ele>
        <time>2022-03-06T07:56:59Z</time>
      </trkpt>
      <trkpt lat="48.55081" lon="2.10652">
        <ele>155</ele>
        <time>2022-03-06T07:57:02Z</time>
      </trkpt>
      <trkpt lat="48.55079" lon="2.10648">
        <ele>155</ele>
        <time>2022-03-06T07:57:05Z</time>
      </trkpt>
      <trkpt lat="48.55076" lon="2.10644">
        <ele>156</ele>
        <time>2022-03-06T07:57:08Z</time>
      </trkpt>
      <trkpt lat="48.55074" lon="2.10639">
        <ele>157</ele>
        <time>2022-03-06T07:57:12Z</time>
      </trkpt>
      <trkpt lat="48.55071" lon="2.10636">
        <ele>157</ele>
        <time>2022-03-06T07:57:15Z</time>
      </trkpt>
      <trkpt lat="48.55069" lon="2.10633">
        <ele>157</ele>
        <time>2022-03-06T07:57:18Z</time>
      </trkpt>
      <trkpt lat="48.55067" lon="2.10629">
        <ele>158</ele>
        <time>2022-03-06T07:57:21Z</time>
      </trkpt>
      <trkpt lat="48.55065" lon="2.10626">
        <ele>158</ele>
        <time>2022-03-06T07:57:23Z</time>
      </trkpt>
      <trkpt lat="48.55062" lon="2.10622">
        <ele>159</ele>
        <time>2022-03-06T07:57:26Z</time>
      </trkpt>
      <trkpt lat="48.5506" lon="2.10618">
        <ele>159</ele>
        <time>2022-03-06T07:57:29Z</time>
      </trkpt>
      <trkpt lat="48.55058" lon="2.10614">
        <ele>159</ele>
        <time>2022-03-06T07:57:31Z</time>
      </trkpt>
      <trkpt lat="48.55055" lon="2.1061">
        <ele>159</ele>
        <time>2022-03-06T07:57:34Z</time>
      </trkpt>
      <trkpt lat="48.55053" lon="2.10607">
        <ele>159</ele>
        <time>2022-03-06T07:57:36Z</time>
      </trkpt>
      <trkpt lat="48.55051" lon="2.10604">
        <ele>159</ele>
        <time>2022-03-06T07:57:38Z</time>
      </trkpt>
      <trkpt lat="48.55049" lon="2.106">
        <ele>159</ele>
        <time>2022-03-06T07:57:41Z</time>
      </trkpt>
      <trkpt lat="48.55047" lon="2.10597">
        <ele>159</ele>
        <time>2022-03-06T07:57:43Z</time>
      </trkpt>
      <trkpt lat="48.55045" lon="2.10593">
        <ele>159</ele>
        <time>2022-03-06T07:57:45Z</time>
      </trkpt>
      <trkpt lat="48.55043" lon="2.1059">
        <ele>159</ele>
        <time>2022-03-06T07:57:47Z</time>
      </trkpt>
      <trkpt lat="48.5504" lon="2.10586">
        <ele>159</ele>
        <time>2022-03-06T07:57:50Z</time>
      </trkpt>
      <trkpt lat="48.55038" lon="2.10582">
        <ele>159</ele>
        <time>2022-03-06T07:57:52Z</time>
      </trkpt>
      <trkpt lat="48.55036" lon="2.10577">
        <ele>159</ele>
        <time>2022-03-06T07:57:55Z</time>
      </trkpt>
      <trkpt lat="48.55035" lon="2.10573">
        <ele>159</ele>
        <time>2022-03-06T07:57:57Z</time>
      </trkpt>
      <trkpt lat="48.55034" lon="2.10569">
        <ele>159</ele>
        <time>2022-03-06T07:58:00Z</time>
      </trkpt>
      <trkpt lat="48.55033" lon="2.10563">
        <ele>159</ele>
        <time>2022-03-06T07:58:03Z</time>
      </trkpt>
      <trkpt lat="48.55032" lon="2.10558">
        <ele>159</ele>
        <time>2022-03-06T07:58:06Z</time>
      </trkpt>
      <trkpt lat="48.55031" lon="2.10552">
        <ele>159</ele>
        <time>2022-03-06T07:58:08Z</time>
      </trkpt>
      <trkpt lat="48.55031" lon="2.10548">
        <ele>159</ele>
        <time>2022-03-06T07:58:10Z</time>
      </trkpt>
      <trkpt lat="48.55031" lon="2.10543">
        <ele>159</ele>
        <time>2022-03-06T07:58:12Z</time>
      </trkpt>
      <trkpt lat="48.55031" lon="2.10538">
        <ele>159</ele>
        <time>2022-03-06T07:58:15Z</time>
      </trkpt>
      <trkpt lat="48.55031" lon="2.10532">
        <ele>159</ele>
        <time>2022-03-06T07:58:17Z</time>
      </trkpt>
      <trkpt lat="48.55031" lon="2.10527">
        <ele>159</ele>
        <time>2022-03-06T07:58:19Z</time>
      </trkpt>
      <trkpt lat="48.55032" lon="2.10522">
        <ele>159</ele>
        <time>2022-03-06T07:58:21Z</time>
      </trkpt>
      <trkpt lat="48.55032" lon="2.10518">
        <ele>159</ele>
        <time>2022-03-06T07:58:24Z</time>
      </trkpt>
      <trkpt lat="48.55033" lon="2.10514">
        <ele>159</ele>
        <time>2022-03-06T07:58:26Z</time>
      </trkpt>
      <trkpt lat="48.55034" lon="2.1051">
        <ele>159</ele>
        <time>2022-03-06T07:58:29Z</time>
      </trkpt>
      <trkpt lat="48.55035" lon="2.10506">
        <ele>159</ele>
        <time>2022-03-06T07:58:32Z</time>
      </trkpt>
      <trkpt lat="48.55035" lon="2.10502">
        <ele>159</ele>
        <time>2022-03-06T07:58:35Z</time>
      </trkpt>
      <trkpt lat="48.55036" lon="2.10498">
        <ele>159</ele>
        <time>2022-03-06T07:58:38Z</time>
      </trkpt>
      <trkpt lat="48.55037" lon="2.10493">
        <ele>159</ele>
        <time>2022-03-06T07:58:42Z</time>
      </trkpt>
      <trkpt lat="48.55037" lon="2.10489">
        <ele>158</ele>
        <time>2022-03-06T07:58:47Z</time>
      </trkpt>
      <trkpt lat="48.55038" lon="2.10484">
        <ele>158</ele>
        <time>2022-03-06T07:58:50Z</time>
      </trkpt>
      <trkpt lat="48.55039" lon="2.1048">
        <ele>158</ele>
        <time>2022-03-06T07:58:53Z</time>
      </trkpt>
      <trkpt lat="48.5504" lon="2.10475">
        <ele>158</ele>
        <time>2022-03-06T07:58:56Z</time>
      </trkpt>
      <trkpt lat="48.55041" lon="2.10471">
        <ele>158</ele>
        <time>2022-03-06T07:59:01Z</time>
      </trkpt>
      <trkpt lat="48.55042" lon="2.10466">
        <ele>158</ele>
        <time>2022-03-06T07:59:08Z</time>
      </trkpt>
      <trkpt lat="48.55043" lon="2.10461">
        <ele>159</ele>
        <time>2022-03-06T07:59:15Z</time>
      </trkpt>
      <trkpt lat="48.55045" lon="2.10456">
        <ele>159</ele>
        <time>2022-03-06T07:59:19Z</time>
      </trkpt>
      <trkpt lat="48.55046" lon="2.10452">
        <ele>159</ele>
        <time>2022-03-06T07:59:21Z</time>
      </trkpt>
      <trkpt lat="48.55048" lon="2.10448">
        <ele>159</ele>
        <time>2022-03-06T07:59:23Z</time>
      </trkpt>
      <trkpt lat="48.55049" lon="2.10444">
        <ele>159</ele>
        <time>2022-03-06T07:59:25Z</time>
      </trkpt>
      <trkpt lat="48.55051" lon="2.1044">
        <ele>159</ele>
        <time>2022-03-06T07:59:28Z</time>
      </trkpt>
      <trkpt lat="48.55052" lon="2.10436">
        <ele>159</ele>
        <time>2022-03-06T07:59:31Z</time>
      </trkpt>
      <trkpt lat="48.55054" lon="2.10432">
        <ele>159</ele>
        <time>2022-03-06T07:59:33Z</time>
      </trkpt>
      <trkpt lat="48.55056" lon="2.10429">
        <ele>160</ele>
        <time>2022-03-06T07:59:36Z</time>
      </trkpt>
      <trkpt lat="48.55058" lon="2.10425">
        <ele>160</ele>
        <time>2022-03-06T07:59:39Z</time>
      </trkpt>
      <trkpt lat="48.55061" lon="2.10422">
        <ele>160</ele>
        <time>2022-03-06T07:59:42Z</time>
      </trkpt>
      <trkpt lat="48.55063" lon="2.10418">
        <ele>160</ele>
        <time>2022-03-06T07:59:45Z</time>
      </trkpt>
      <trkpt lat="48.55065" lon="2.10414">
        <ele>160</ele>
        <time>2022-03-06T07:59:48Z</time>
      </trkpt>
      <trkpt lat="48.55068" lon="2.1041">
        <ele>161</ele>
        <time>2022-03-06T07:59:51Z</time>
      </trkpt>
      <trkpt lat="48.55071" lon="2.10407">
        <ele>161</ele>
        <time>2022-03-06T07:59:54Z</time>
      </trkpt>
      <trkpt lat="48.55073" lon="2.10404">
        <ele>161</ele>
        <time>2022-03-06T07:59:57Z</time>
      </trkpt>
      <trkpt lat="48.55076" lon="2.10401">
        <ele>161</ele>
        <time>2022-03-06T08:00:00Z</time>
      </trkpt>
      <trkpt lat="48.55078" lon="2.10397">
        <ele>161</ele>
        <time>2022-03-06T08:00:03Z</time>
      </trkpt>
      <trkpt lat="48.5508" lon="2.10393">
        <ele>161</ele>
        <time>2022-03-06T08:00:06Z</time>
      </trkpt>
      <trkpt lat="48.55083" lon="2.10389">
        <ele>161</ele>
        <time>2022-03-06T08:00:09Z</time>
      </trkpt>
      <trkpt lat="48.55086" lon="2.10385">
        <ele>161</ele>
        <time>2022-03-06T08:00:11Z</time>
      </trkpt>
      <trkpt lat="48.55089" lon="2.10382">
        <ele>161</ele>
        <time>2022-03-06T08:00:13Z</time>
      </trkpt>
      <trkpt lat="48.55092" lon="2.10381">
        <ele>160</ele>
        <time>2022-03-06T08:00:15Z</time>
      </trkpt>
      <trkpt lat="48.55095" lon="2.10379">
        <ele>160</ele>
        <time>2022-03-06T08:00:18Z</time>
      </trkpt>
      <trkpt lat="48.55098" lon="2.10376">
        <ele>160</ele>
        <time>2022-03-06T08:00:20Z</time>
      </trkpt>
      <trkpt lat="48.551" lon="2.10372">
        <ele>160</ele>
        <time>2022-03-06T08:00:23Z</time>
      </trkpt>
      <trkpt lat="48.55104" lon="2.10369">
        <ele>160</ele>
        <time>2022-03-06T08:00:26Z</time>
      </trkpt>
      <trkpt lat="48.55107" lon="2.10367">
        <ele>160</ele>
        <time>2022-03-06T08:00:28Z</time>
      </trkpt>
      <trkpt lat="48.5511" lon="2.10366">
        <ele>160</ele>
        <time>2022-03-06T08:00:30Z</time>
      </trkpt>
      <trkpt lat="48.55112" lon="2.10364">
        <ele>160</ele>
        <time>2022-03-06T08:00:32Z</time>
      </trkpt>
      <trkpt lat="48.55115" lon="2.10361">
        <ele>160</ele>
        <time>2022-03-06T08:00:34Z</time>
      </trkpt>
      <trkpt lat="48.55117" lon="2.10358">
        <ele>160</ele>
        <time>2022-03-06T08:00:36Z</time>
      </trkpt>
      <trkpt lat="48.55119" lon="2.10355">
        <ele>160</ele>
        <time>2022-03-06T08:00:38Z</time>
      </trkpt>
      <trkpt lat="48.55121" lon="2.10352">
        <ele>160</ele>
        <time>2022-03-06T08:00:40Z</time>
      </trkpt>
      <trkpt lat="48.55124" lon="2.10349">
        <ele>160</ele>
        <time>2022-03-06T08:00:43Z</time>
      </trkpt>
      <trkpt lat="48.55127" lon="2.10345">
        <ele>160</ele>
        <time>2022-03-06T08:00:46Z</time>
      </trkpt>
      <trkpt lat="48.55129" lon="2.10342">
        <ele>160</ele>
        <time>2022-03-06T08:00:49Z</time>
      </trkpt>
      <trkpt lat="48.55132" lon="2.10339">
        <ele>160</ele>
        <time>2022-03-06T08:00:52Z</time>
      </trkpt>
      <trkpt lat="48.55134" lon="2.10336">
        <ele>160</ele>
        <time>2022-03-06T08:00:55Z</time>
      </trkpt>
      <trkpt lat="48.55137" lon="2.10331">
        <ele>160</ele>
        <time>2022-03-06T08:00:59Z</time>
      </trkpt>
      <trkpt lat="48.55139" lon="2.10328">
        <ele>160</ele>
        <time>2022-03-06T08:01:01Z</time>
      </trkpt>
      <trkpt lat="48.55141" lon="2.10324">
        <ele>160</ele>
        <time>2022-03-06T08:01:03Z</time>
      </trkpt>
      <trkpt lat="48.55143" lon="2.10321">
        <ele>160</ele>
        <time>2022-03-06T08:01:07Z</time>
      </trkpt>
      <trkpt lat="48.55145" lon="2.10317">
        <ele>160</ele>
        <time>2022-03-06T08:01:09Z</time>
      </trkpt>
      <trkpt lat="48.55148" lon="2.10314">
        <ele>160</ele>
        <time>2022-03-06T08:01:11Z</time>
      </trkpt>
      <trkpt lat="48.5515" lon="2.10311">
        <ele>159</ele>
        <time>2022-03-06T08:01:13Z</time>
      </trkpt>
      <trkpt lat="48.55153" lon="2.10308">
        <ele>159</ele>
        <time>2022-03-06T08:01:15Z</time>
      </trkpt>
      <trkpt lat="48.55156" lon="2.10305">
        <ele>159</ele>
        <time>2022-03-06T08:01:17Z</time>
      </trkpt>
      <trkpt lat="48.55159" lon="2.10303">
        <ele>159</ele>
        <time>2022-03-06T08:01:19Z</time>
      </trkpt>
      <trkpt lat="48.55161" lon="2.10299">
        <ele>159</ele>
        <time>2022-03-06T08:01:21Z</time>
      </trkpt>
      <trkpt lat="48.55164" lon="2.10297">
        <ele>159</ele>
        <time>2022-03-06T08:01:23Z</time>
      </trkpt>
      <trkpt lat="48.55167" lon="2.10295">
        <ele>159</ele>
        <time>2022-03-06T08:01:25Z</time>
      </trkpt>
      <trkpt lat="48.5517" lon="2.10294">
        <ele>159</ele>
        <time>2022-03-06T08:01:27Z</time>
      </trkpt>
      <trkpt lat="48.55173" lon="2.10292">
        <ele>159</ele>
        <time>2022-03-06T08:01:30Z</time>
      </trkpt>
      <trkpt lat="48.55176" lon="2.1029">
        <ele>159</ele>
        <time>2022-03-06T08:01:32Z</time>
      </trkpt>
      <trkpt lat="48.55179" lon="2.10288">
        <ele>159</ele>
        <time>2022-03-06T08:01:34Z</time>
      </trkpt>
      <trkpt lat="48.55182" lon="2.10287">
        <ele>159</ele>
        <time>2022-03-06T08:01:36Z</time>
      </trkpt>
      <trkpt lat="48.55184" lon="2.10285">
        <ele>158</ele>
        <time>2022-03-06T08:01:38Z</time>
      </trkpt>
      <trkpt lat="48.55187" lon="2.10283">
        <ele>158</ele>
        <time>2022-03-06T08:01:40Z</time>
      </trkpt>
      <trkpt lat="48.55191" lon="2.10282">
        <ele>158</ele>
        <time>2022-03-06T08:01:43Z</time>
      </trkpt>
      <trkpt lat="48.55195" lon="2.10282">
        <ele>158</ele>
        <time>2022-03-06T08:01:45Z</time>
      </trkpt>
      <trkpt lat="48.552" lon="2.10282">
        <ele>158</ele>
        <time>2022-03-06T08:01:48Z</time>
      </trkpt>
      <trkpt lat="48.55204" lon="2.10281">
        <ele>158</ele>
        <time>2022-03-06T08:01:50Z</time>
      </trkpt>
      <trkpt lat="48.55208" lon="2.10282">
        <ele>157</ele>
        <time>2022-03-06T08:01:52Z</time>
      </trkpt>
      <trkpt lat="48.55212" lon="2.10282">
        <ele>157</ele>
        <time>2022-03-06T08:01:54Z</time>
      </trkpt>
      <trkpt lat="48.55215" lon="2.10282">
        <ele>157</ele>
        <time>2022-03-06T08:01:56Z</time>
      </trkpt>
      <trkpt lat="48.55219" lon="2.10282">
        <ele>157</ele>
        <time>2022-03-06T08:01:58Z</time>
      </trkpt>
      <trkpt lat="48.55222" lon="2.10282">
        <ele>156</ele>
        <time>2022-03-06T08:02:00Z</time>
      </trkpt>
      <trkpt lat="48.55225" lon="2.10284">
        <ele>156</ele>
        <time>2022-03-06T08:02:02Z</time>
      </trkpt>
      <trkpt lat="48.55228" lon="2.10285">
        <ele>156</ele>
        <time>2022-03-06T08:02:04Z</time>
      </trkpt>
      <trkpt lat="48.55231" lon="2.10287">
        <ele>156</ele>
        <time>2022-03-06T08:02:06Z</time>
      </trkpt>
      <trkpt lat="48.55234" lon="2.10289">
        <ele>156</ele>
        <time>2022-03-06T08:02:08Z</time>
      </trkpt>
      <trkpt lat="48.55237" lon="2.10291">
        <ele>156</ele>
        <time>2022-03-06T08:02:10Z</time>
      </trkpt>
      <trkpt lat="48.5524" lon="2.10293">
        <ele>157</ele>
        <time>2022-03-06T08:02:12Z</time>
      </trkpt>
      <trkpt lat="48.55243" lon="2.10294">
        <ele>157</ele>
        <time>2022-03-06T08:02:14Z</time>
      </trkpt>
      <trkpt lat="48.55246" lon="2.10295">
        <ele>157</ele>
        <time>2022-03-06T08:02:16Z</time>
      </trkpt>
      <trkpt lat="48.55249" lon="2.10295">
        <ele>157</ele>
        <time>2022-03-06T08:02:18Z</time>
      </trkpt>
      <trkpt lat="48.55252" lon="2.10295">
        <ele>157</ele>
        <time>2022-03-06T08:02:20Z</time>
      </trkpt>
      <trkpt lat="48.55255" lon="2.10295">
        <ele>158</ele>
        <time>2022-03-06T08:02:22Z</time>
      </trkpt>
      <trkpt lat="48.55258" lon="2.10294">
        <ele>158</ele>
        <time>2022-03-06T08:02:24Z</time>
      </trkpt>
      <trkpt lat="48.55261" lon="2.10293">
        <ele>158</ele>
        <time>2022-03-06T08:02:26Z</time>
      </trkpt>
      <trkpt lat="48.55265" lon="2.10292">
        <ele>158</ele>
        <time>2022-03-06T08:02:29Z</time>
      </trkpt>
      <trkpt lat="48.55269" lon="2.10291">
        <ele>158</ele>
        <time>2022-03-06T08:02:31Z</time>
      </trkpt>
      <trkpt lat="48.55272" lon="2.1029">
        <ele>158</ele>
        <time>2022-03-06T08:02:33Z</time>
      </trkpt>
      <trkpt lat="48.55275" lon="2.10288">
        <ele>158</ele>
        <time>2022-03-06T08:02:35Z</time>
      </trkpt>
      <trkpt lat="48.55279" lon="2.10288">
        <ele>158</ele>
        <time>2022-03-06T08:02:37Z</time>
      </trkpt>
      <trkpt lat="48.55282" lon="2.10287">
        <ele>158</ele>
        <time>2022-03-06T08:02:39Z</time>
      </trkpt>
      <trkpt lat="48.55285" lon="2.10287">
        <ele>158</ele>
        <time>2022-03-06T08:02:41Z</time>
      </trkpt>
      <trkpt lat="48.55288" lon="2.10286">
        <ele>158</ele>
        <time>2022-03-06T08:02:43Z</time>
      </trkpt>
      <trkpt lat="48.55291" lon="2.10285">
        <ele>158</ele>
        <time>2022-03-06T08:02:46Z</time>
      </trkpt>
      <trkpt lat="48.55296" lon="2.10285">
        <ele>158</ele>
        <time>2022-03-06T08:02:49Z</time>
      </trkpt>
      <trkpt lat="48.55299" lon="2.10285">
        <ele>158</ele>
        <time>2022-03-06T08:02:51Z</time>
      </trkpt>
      <trkpt lat="48.55303" lon="2.10284">
        <ele>158</ele>
        <time>2022-03-06T08:02:54Z</time>
      </trkpt>
      <trkpt lat="48.55306" lon="2.10284">
        <ele>158</ele>
        <time>2022-03-06T08:02:56Z</time>
      </trkpt>
      <trkpt lat="48.55309" lon="2.10283">
        <ele>158</ele>
        <time>2022-03-06T08:02:58Z</time>
      </trkpt>
      <trkpt lat="48.55312" lon="2.10283">
        <ele>158</ele>
        <time>2022-03-06T08:03:00Z</time>
      </trkpt>
      <trkpt lat="48.55315" lon="2.10281">
        <ele>158</ele>
        <time>2022-03-06T08:03:03Z</time>
      </trkpt>
      <trkpt lat="48.55318" lon="2.1028">
        <ele>158</ele>
        <time>2022-03-06T08:03:17Z</time>
      </trkpt>
      <trkpt lat="48.55322" lon="2.10279">
        <ele>158</ele>
        <time>2022-03-06T08:03:21Z</time>
      </trkpt>
      <trkpt lat="48.55325" lon="2.1028">
        <ele>158</ele>
        <time>2022-03-06T08:03:24Z</time>
      </trkpt>
      <trkpt lat="48.55327" lon="2.10282">
        <ele>157</ele>
        <time>2022-03-06T08:03:27Z</time>
      </trkpt>
      <trkpt lat="48.55329" lon="2.10284">
        <ele>157</ele>
        <time>2022-03-06T08:03:30Z</time>
      </trkpt>
      <trkpt lat="48.55332" lon="2.10286">
        <ele>157</ele>
        <time>2022-03-06T08:03:32Z</time>
      </trkpt>
      <trkpt lat="48.55335" lon="2.10288">
        <ele>156</ele>
        <time>2022-03-06T08:03:33Z</time>
      </trkpt>
      <trkpt lat="48.55336" lon="2.10293">
        <ele>156</ele>
        <time>2022-03-06T08:03:36Z</time>
      </trkpt>
      <trkpt lat="48.55337" lon="2.10297">
        <ele>156</ele>
        <time>2022-03-06T08:03:38Z</time>
      </trkpt>
      <trkpt lat="48.55338" lon="2.10302">
        <ele>155</ele>
        <time>2022-03-06T08:03:41Z</time>
      </trkpt>
      <trkpt lat="48.55338" lon="2.10307">
        <ele>155</ele>
        <time>2022-03-06T08:03:44Z</time>
      </trkpt>
      <trkpt lat="48.55339" lon="2.10312">
        <ele>154</ele>
        <time>2022-03-06T08:03:46Z</time>
      </trkpt>
      <trkpt lat="48.5534" lon="2.10316">
        <ele>154</ele>
        <time>2022-03-06T08:03:48Z</time>
      </trkpt>
      <trkpt lat="48.55342" lon="2.10321">
        <ele>154</ele>
        <time>2022-03-06T08:03:50Z</time>
      </trkpt>
      <trkpt lat="48.55343" lon="2.10325">
        <ele>154</ele>
        <time>2022-03-06T08:03:52Z</time>
      </trkpt>
      <trkpt lat="48.55343" lon="2.10331">
        <ele>154</ele>
        <time>2022-03-06T08:03:55Z</time>
      </trkpt>
      <trkpt lat="48.55344" lon="2.10336">
        <ele>154</ele>
        <time>2022-03-06T08:03:57Z</time>
      </trkpt>
      <trkpt lat="48.55344" lon="2.10341">
        <ele>153</ele>
        <time>2022-03-06T08:04:00Z</time>
      </trkpt>
      <trkpt lat="48.55345" lon="2.10347">
        <ele>153</ele>
        <time>2022-03-06T08:04:02Z</time>
      </trkpt>
      <trkpt lat="48.55346" lon="2.10352">
        <ele>152</ele>
        <time>2022-03-06T08:04:05Z</time>
      </trkpt>
      <trkpt lat="48.55346" lon="2.10357">
        <ele>151</ele>
        <time>2022-03-06T08:04:09Z</time>
      </trkpt>
      <trkpt lat="48.55346" lon="2.10363">
        <ele>151</ele>
        <time>2022-03-06T08:04:12Z</time>
      </trkpt>
      <trkpt lat="48.55346" lon="2.10367">
        <ele>151</ele>
        <time>2022-03-06T08:04:14Z</time>
      </trkpt>
      <trkpt lat="48.55346" lon="2.10373">
        <ele>150</ele>
        <time>2022-03-06T08:04:17Z</time>
      </trkpt>
      <trkpt lat="48.55346" lon="2.10379">
        <ele>150</ele>
        <time>2022-03-06T08:04:21Z</time>
      </trkpt>
      <trkpt lat="48.55347" lon="2.10385">
        <ele>149</ele>
        <time>2022-03-06T08:04:23Z</time>
      </trkpt>
      <trkpt lat="48.55347" lon="2.1039">
        <ele>149</ele>
        <time>2022-03-06T08:04:26Z</time>
      </trkpt>
      <trkpt lat="48.55347" lon="2.10395">
        <ele>148</ele>
        <time>2022-03-06T08:04:28Z</time>
      </trkpt>
      <trkpt lat="48.55346" lon="2.104">
        <ele>148</ele>
        <time>2022-03-06T08:04:30Z</time>
      </trkpt>
      <trkpt lat="48.55347" lon="2.10405">
        <ele>147</ele>
        <time>2022-03-06T08:04:33Z</time>
      </trkpt>
      <trkpt lat="48.55347" lon="2.1041">
        <ele>147</ele>
        <time>2022-03-06T08:04:36Z</time>
      </trkpt>
      <trkpt lat="48.55347" lon="2.10415">
        <ele>146</ele>
        <time>2022-03-06T08:04:39Z</time>
      </trkpt>
      <trkpt lat="48.55348" lon="2.1042">
        <ele>146</ele>
        <time>2022-03-06T08:04:42Z</time>
      </trkpt>
      <trkpt lat="48.55347" lon="2.10425">
        <ele>145</ele>
        <time>2022-03-06T08:04:45Z</time>
      </trkpt>
      <trkpt lat="48.55347" lon="2.1043">
        <ele>145</ele>
        <time>2022-03-06T08:04:47Z</time>
      </trkpt>
      <trkpt lat="48.55346" lon="2.10435">
        <ele>144</ele>
        <time>2022-03-06T08:04:50Z</time>
      </trkpt>
      <trkpt lat="48.55346" lon="2.10439">
        <ele>144</ele>
        <time>2022-03-06T08:04:52Z</time>
      </trkpt>
      <trkpt lat="48.55346" lon="2.10445">
        <ele>144</ele>
        <time>2022-03-06T08:04:55Z</time>
      </trkpt>
      <trkpt lat="48.55347" lon="2.1045">
        <ele>143</ele>
        <time>2022-03-06T08:04:58Z</time>
      </trkpt>
      <trkpt lat="48.55347" lon="2.10455">
        <ele>143</ele>
        <time>2022-03-06T08:05:01Z</time>
      </trkpt>
      <trkpt lat="48.55347" lon="2.10461">
        <ele>142</ele>
        <time>2022-03-06T08:05:04Z</time>
      </trkpt>
      <trkpt lat="48.55348" lon="2.10465">
        <ele>142</ele>
        <time>2022-03-06T08:05:06Z</time>
      </trkpt>
      <trkpt lat="48.55348" lon="2.10471">
        <ele>141</ele>
        <time>2022-03-06T08:05:09Z</time>
      </trkpt>
      <trkpt lat="48.55348" lon="2.10476">
        <ele>141</ele>
        <time>2022-03-06T08:05:11Z</time>
      </trkpt>
      <trkpt lat="48.55348" lon="2.10481">
        <ele>141</ele>
        <time>2022-03-06T08:05:14Z</time>
      </trkpt>
      <trkpt lat="48.55349" lon="2.10487">
        <ele>140</ele>
        <time>2022-03-06T08:05:17Z</time>
      </trkpt>
      <trkpt lat="48.5535" lon="2.10492">
        <ele>140</ele>
        <time>2022-03-06T08:05:19Z</time>
      </trkpt>
      <trkpt lat="48.55352" lon="2.10496">
        <ele>140</ele>
        <time>2022-03-06T08:05:21Z</time>
      </trkpt>
      <trkpt lat="48.55353" lon="2.105">
        <ele>139</ele>
        <time>2022-03-06T08:05:23Z</time>
      </trkpt>
      <trkpt lat="48.55354" lon="2.10505">
        <ele>139</ele>
        <time>2022-03-06T08:05:25Z</time>
      </trkpt>
      <trkpt lat="48.55354" lon="2.1051">
        <ele>139</ele>
        <time>2022-03-06T08:05:28Z</time>
      </trkpt>
      <trkpt lat="48.55355" lon="2.10515">
        <ele>138</ele>
        <time>2022-03-06T08:05:31Z</time>
      </trkpt>
      <trkpt lat="48.55356" lon="2.1052">
        <ele>137</ele>
        <time>2022-03-06T08:05:34Z</time>
      </trkpt>
      <trkpt lat="48.55357" lon="2.10525">
        <ele>137</ele>
        <time>2022-03-06T08:05:37Z</time>
      </trkpt>
      <trkpt lat="48.55359" lon="2.10529">
        <ele>137</ele>
        <time>2022-03-06T08:05:40Z</time>
      </trkpt>
      <trkpt lat="48.5536" lon="2.10534">
        <ele>136</ele>
        <time>2022-03-06T08:05:42Z</time>
      </trkpt>
      <trkpt lat="48.55361" lon="2.10538">
        <ele>136</ele>
        <time>2022-03-06T08:05:44Z</time>
      </trkpt>
      <trkpt lat="48.55363" lon="2.10541">
        <ele>136</ele>
        <time>2022-03-06T08:05:46Z</time>
      </trkpt>
      <trkpt lat="48.55365" lon="2.10545">
        <ele>136</ele>
        <time>2022-03-06T08:05:48Z</time>
      </trkpt>
      <trkpt lat="48.55367" lon="2.10549">
        <ele>135</ele>
        <time>2022-03-06T08:05:51Z</time>
      </trkpt>
      <trkpt lat="48.55369" lon="2.10553">
        <ele>135</ele>
        <time>2022-03-06T08:05:53Z</time>
      </trkpt>
      <trkpt lat="48.55371" lon="2.10556">
        <ele>135</ele>
        <time>2022-03-06T08:05:55Z</time>
      </trkpt>
      <trkpt lat="48.55374" lon="2.10559">
        <ele>134</ele>
        <time>2022-03-06T08:05:58Z</time>
      </trkpt>
      <trkpt lat="48.55377" lon="2.10562">
        <ele>134</ele>
        <time>2022-03-06T08:06:00Z</time>
      </trkpt>
      <trkpt lat="48.5538" lon="2.10564">
        <ele>133</ele>
        <time>2022-03-06T08:06:03Z</time>
      </trkpt>
      <trkpt lat="48.55383" lon="2.10567">
        <ele>133</ele>
        <time>2022-03-06T08:06:06Z</time>
      </trkpt>
      <trkpt lat="48.55385" lon="2.10569">
        <ele>133</ele>
        <time>2022-03-06T08:06:08Z</time>
      </trkpt>
      <trkpt lat="48.55388" lon="2.10572">
        <ele>132</ele>
        <time>2022-03-06T08:06:11Z</time>
      </trkpt>
      <trkpt lat="48.55392" lon="2.10574">
        <ele>132</ele>
        <time>2022-03-06T08:06:14Z</time>
      </trkpt>
      <trkpt lat="48.55395" lon="2.10576">
        <ele>132</ele>
        <time>2022-03-06T08:06:16Z</time>
      </trkpt>
      <trkpt lat="48.55398" lon="2.10579">
        <ele>131</ele>
        <time>2022-03-06T08:06:19Z</time>
      </trkpt>
      <trkpt lat="48.554" lon="2.10582">
        <ele>131</ele>
        <time>2022-03-06T08:06:21Z</time>
      </trkpt>
      <trkpt lat="48.55404" lon="2.10585">
        <ele>131</ele>
        <time>2022-03-06T08:06:24Z</time>
      </trkpt>
      <trkpt lat="48.55407" lon="2.10587">
        <ele>130</ele>
        <time>2022-03-06T08:06:26Z</time>
      </trkpt>
      <trkpt lat="48.5541" lon="2.1059">
        <ele>130</ele>
        <time>2022-03-06T08:06:28Z</time>
      </trkpt>
      <trkpt lat="48.55413" lon="2.10593">
        <ele>130</ele>
        <time>2022-03-06T08:06:30Z</time>
      </trkpt>
      <trkpt lat="48.55415" lon="2.10597">
        <ele>129</ele>
        <time>2022-03-06T08:06:32Z</time>
      </trkpt>
      <trkpt lat="48.55417" lon="2.10599">
        <ele>129</ele>
        <time>2022-03-06T08:06:34Z</time>
      </trkpt>
      <trkpt lat="48.5542" lon="2.10603">
        <ele>129</ele>
        <time>2022-03-06T08:06:36Z</time>
      </trkpt>
      <trkpt lat="48.55422" lon="2.10606">
        <ele>129</ele>
        <time>2022-03-06T08:06:38Z</time>
      </trkpt>
      <trkpt lat="48.55424" lon="2.10609">
        <ele>128</ele>
        <time>2022-03-06T08:06:40Z</time>
      </trkpt>
      <trkpt lat="48.55427" lon="2.10613">
        <ele>128</ele>
        <time>2022-03-06T08:06:43Z</time>
      </trkpt>
      <trkpt lat="48.5543" lon="2.10617">
        <ele>128</ele>
        <time>2022-03-06T08:06:45Z</time>
      </trkpt>
      <trkpt lat="48.55432" lon="2.1062">
        <ele>128</ele>
        <time>2022-03-06T08:06:47Z</time>
      </trkpt>
      <trkpt lat="48.55434" lon="2.10623">
        <ele>128</ele>
        <time>2022-03-06T08:06:49Z</time>
      </trkpt>
      <trkpt lat="48.55437" lon="2.10626">
        <ele>127</ele>
        <time>2022-03-06T08:06:51Z</time>
      </trkpt>
      <trkpt lat="48.55439" lon="2.1063">
        <ele>127</ele>
        <time>2022-03-06T08:06:53Z</time>
      </trkpt>
      <trkpt lat="48.55442" lon="2.10633">
        <ele>127</ele>
        <time>2022-03-06T08:06:55Z</time>
      </trkpt>
      <trkpt lat="48.55444" lon="2.10637">
        <ele>127</ele>
        <time>2022-03-06T08:06:57Z</time>
      </trkpt>
      <trkpt lat="48.55446" lon="2.1064">
        <ele>127</ele>
        <time>2022-03-06T08:06:59Z</time>
      </trkpt>
      <trkpt lat="48.55448" lon="2.10645">
        <ele>127</ele>
        <time>2022-03-06T08:07:02Z</time>
      </trkpt>
      <trkpt lat="48.55449" lon="2.10649">
        <ele>127</ele>
        <time>2022-03-06T08:07:04Z</time>
      </trkpt>
      <trkpt lat="48.55451" lon="2.10652">
        <ele>127</ele>
        <time>2022-03-06T08:07:05Z</time>
      </trkpt>
      <trkpt lat="48.55451" lon="2.10657">
        <ele>126</ele>
        <time>2022-03-06T08:07:07Z</time>
      </trkpt>
      <trkpt lat="48.55452" lon="2.10662">
        <ele>126</ele>
        <time>2022-03-06T08:07:10Z</time>
      </trkpt>
      <trkpt lat="48.55452" lon="2.10667">
        <ele>126</ele>
        <time>2022-03-06T08:07:12Z</time>
      </trkpt>
      <trkpt lat="48.55453" lon="2.10672">
        <ele>126</ele>
        <time>2022-03-06T08:07:14Z</time>
      </trkpt>
      <trkpt lat="48.55454" lon="2.10676">
        <ele>126</ele>
        <time>2022-03-06T08:07:16Z</time>
      </trkpt>
      <trkpt lat="48.55454" lon="2.10681">
        <ele>126</ele>
        <time>2022-03-06T08:07:18Z</time>
      </trkpt>
      <trkpt lat="48.55455" lon="2.10686">
        <ele>126</ele>
        <time>2022-03-06T08:07:20Z</time>
      </trkpt>
      <trkpt lat="48.55456" lon="2.1069">
        <ele>125</ele>
        <time>2022-03-06T08:07:22Z</time>
      </trkpt>
      <trkpt lat="48.55457" lon="2.10694">
        <ele>125</ele>
        <time>2022-03-06T08:07:24Z</time>
      </trkpt>
      <trkpt lat="48.55459" lon="2.10698">
        <ele>125</ele>
        <time>2022-03-06T08:07:26Z</time>
      </trkpt>
      <trkpt lat="48.5546" lon="2.10702">
        <ele>125</ele>
        <time>2022-03-06T08:07:28Z</time>
      </trkpt>
      <trkpt lat="48.55462" lon="2.10706">
        <ele>125</ele>
        <time>2022-03-06T08:07:30Z</time>
      </trkpt>
      <trkpt lat="48.55463" lon="2.1071">
        <ele>125</ele>
        <time>2022-03-06T08:07:32Z</time>
      </trkpt>
      <trkpt lat="48.55465" lon="2.10714">
        <ele>125</ele>
        <time>2022-03-06T08:07:34Z</time>
      </trkpt>
      <trkpt lat="48.55466" lon="2.10719">
        <ele>125</ele>
        <time>2022-03-06T08:07:36Z</time>
      </trkpt>
      <trkpt lat="48.55467" lon="2.10723">
        <ele>125</ele>
        <time>2022-03-06T08:07:38Z</time>
      </trkpt>
      <trkpt lat="48.55468" lon="2.10728">
        <ele>124</ele>
        <time>2022-03-06T08:07:41Z</time>
      </trkpt>
      <trkpt lat="48.55469" lon="2.10732">
        <ele>124</ele>
        <time>2022-03-06T08:07:43Z</time>
      </trkpt>
      <trkpt lat="48.55471" lon="2.10737">
        <ele>124</ele>
        <time>2022-03-06T08:07:45Z</time>
      </trkpt>
      <trkpt lat="48.55471" lon="2.10742">
        <ele>124</ele>
        <time>2022-03-06T08:07:47Z</time>
      </trkpt>
      <trkpt lat="48.55472" lon="2.10746">
        <ele>123</ele>
        <time>2022-03-06T08:07:49Z</time>
      </trkpt>
      <trkpt lat="48.55473" lon="2.1075">
        <ele>123</ele>
        <time>2022-03-06T08:07:51Z</time>
      </trkpt>
      <trkpt lat="48.55474" lon="2.10754">
        <ele>123</ele>
        <time>2022-03-06T08:07:53Z</time>
      </trkpt>
      <trkpt lat="48.55476" lon="2.10758">
        <ele>123</ele>
        <time>2022-03-06T08:07:55Z</time>
      </trkpt>
      <trkpt lat="48.55477" lon="2.10762">
        <ele>123</ele>
        <time>2022-03-06T08:07:57Z</time>
      </trkpt>
      <trkpt lat="48.55478" lon="2.10766">
        <ele>123</ele>
        <time>2022-03-06T08:07:59Z</time>
      </trkpt>
      <trkpt lat="48.5548" lon="2.1077">
        <ele>123</ele>
        <time>2022-03-06T08:08:01Z</time>
      </trkpt>
      <trkpt lat="48.55481" lon="2.10774">
        <ele>123</ele>
        <time>2022-03-06T08:08:03Z</time>
      </trkpt>
      <trkpt lat="48.55482" lon="2.10779">
        <ele>122</ele>
        <time>2022-03-06T08:08:05Z</time>
      </trkpt>
      <trkpt lat="48.55483" lon="2.10783">
        <ele>122</ele>
        <time>2022-03-06T08:08:07Z</time>
      </trkpt>
      <trkpt lat="48.55483" lon="2.10788">
        <ele>122</ele>
        <time>2022-03-06T08:08:09Z</time>
      </trkpt>
      <trkpt lat="48.55484" lon="2.10792">
        <ele>122</ele>
        <time>2022-03-06T08:08:11Z</time>
      </trkpt>
      <trkpt lat="48.55485" lon="2.10796">
        <ele>122</ele>
        <time>2022-03-06T08:08:13Z</time>
      </trkpt>
      <trkpt lat="48.55486" lon="2.10801">
        <ele>122</ele>
        <time>2022-03-06T08:08:15Z</time>
      </trkpt>
      <trkpt lat="48.55487" lon="2.10805">
        <ele>122</ele>
        <time>2022-03-06T08:08:17Z</time>
      </trkpt>
      <trkpt lat="48.55488" lon="2.10809">
        <ele>122</ele>
        <time>2022-03-06T08:08:19Z</time>
      </trkpt>
      <trkpt lat="48.55489" lon="2.10813">
        <ele>122</ele>
        <time>2022-03-06T08:08:21Z</time>
      </trkpt>
      <trkpt lat="48.5549" lon="2.10818">
        <ele>121</ele>
        <time>2022-03-06T08:08:23Z</time>
      </trkpt>
      <trkpt lat="48.55491" lon="2.10822">
        <ele>121</ele>
        <time>2022-03-06T08:08:25Z</time>
      </trkpt>
      <trkpt lat="48.55492" lon="2.10826">
        <ele>121</ele>
        <time>2022-03-06T08:08:27Z</time>
      </trkpt>
      <trkpt lat="48.55493" lon="2.1083">
        <ele>121</ele>
        <time>2022-03-06T08:08:29Z</time>
      </trkpt>
      <trkpt lat="48.55495" lon="2.10835">
        <ele>121</ele>
        <time>2022-03-06T08:08:31Z</time>
      </trkpt>
      <trkpt lat="48.55496" lon="2.10839">
        <ele>121</ele>
        <time>2022-03-06T08:08:33Z</time>
      </trkpt>
      <trkpt lat="48.55497" lon="2.10843">
        <ele>120</ele>
        <time>2022-03-06T08:08:35Z</time>
      </trkpt>
      <trkpt lat="48.55498" lon="2.10848">
        <ele>120</ele>
        <time>2022-03-06T08:08:37Z</time>
      </trkpt>
      <trkpt lat="48.55499" lon="2.10852">
        <ele>120</ele>
        <time>2022-03-06T08:08:39Z</time>
      </trkpt>
      <trkpt lat="48.555" lon="2.10856">
        <ele>120</ele>
        <time>2022-03-06T08:08:41Z</time>
      </trkpt>
      <trkpt lat="48.555" lon="2.10861">
        <ele>120</ele>
        <time>2022-03-06T08:08:43Z</time>
      </trkpt>
      <trkpt lat="48.55501" lon="2.10865">
        <ele>120</ele>
        <time>2022-03-06T08:08:45Z</time>
      </trkpt>
      <trkpt lat="48.55503" lon="2.10869">
        <ele>120</ele>
        <time>2022-03-06T08:08:47Z</time>
      </trkpt>
      <trkpt lat="48.55504" lon="2.10873">
        <ele>120</ele>
        <time>2022-03-06T08:08:49Z</time>
      </trkpt>
      <trkpt lat="48.55505" lon="2.10877">
        <ele>120</ele>
        <time>2022-03-06T08:08:51Z</time>
      </trkpt>
      <trkpt lat="48.55506" lon="2.10881">
        <ele>119</ele>
        <time>2022-03-06T08:08:53Z</time>
      </trkpt>
      <trkpt lat="48.55507" lon="2.10886">
        <ele>119</ele>
        <time>2022-03-06T08:08:55Z</time>
      </trkpt>
      <trkpt lat="48.55508" lon="2.1089">
        <ele>119</ele>
        <time>2022-03-06T08:08:57Z</time>
      </trkpt>
      <trkpt lat="48.55509" lon="2.10895">
        <ele>119</ele>
        <time>2022-03-06T08:08:59Z</time>
      </trkpt>
      <trkpt lat="48.5551" lon="2.10899">
        <ele>119</ele>
        <time>2022-03-06T08:09:01Z</time>
      </trkpt>
      <trkpt lat="48.55511" lon="2.10903">
        <ele>119</ele>
        <time>2022-03-06T08:09:03Z</time>
      </trkpt>
      <trkpt lat="48.55512" lon="2.10907">
        <ele>119</ele>
        <time>2022-03-06T08:09:05Z</time>
      </trkpt>
      <trkpt lat="48.55513" lon="2.10912">
        <ele>119</ele>
        <time>2022-03-06T08:09:07Z</time>
      </trkpt>
      <trkpt lat="48.55514" lon="2.10916">
        <ele>118</ele>
        <time>2022-03-06T08:09:09Z</time>
      </trkpt>
      <trkpt lat="48.55515" lon="2.1092">
        <ele>118</ele>
        <time>2022-03-06T08:09:11Z</time>
      </trkpt>
      <trkpt lat="48.55517" lon="2.10925">
        <ele>118</ele>
        <time>2022-03-06T08:09:13Z</time>
      </trkpt>
      <trkpt lat="48.55518" lon="2.10929">
        <ele>118</ele>
        <time>2022-03-06T08:09:15Z</time>
      </trkpt>
      <trkpt lat="48.55519" lon="2.10933">
        <ele>118</ele>
        <time>2022-03-06T08:09:17Z</time>
      </trkpt>
      <trkpt lat="48.5552" lon="2.10938">
        <ele>118</ele>
        <time>2022-03-06T08:09:19Z</time>
      </trkpt>
      <trkpt lat="48.55521" lon="2.10942">
        <ele>118</ele>
        <time>2022-03-06T08:09:21Z</time>
      </trkpt>
      <trkpt lat="48.55522" lon="2.10947">
        <ele>118</ele>
        <time>2022-03-06T08:09:23Z</time>
      </trkpt>
      <trkpt lat="48.55523" lon="2.10951">
        <ele>117</ele>
        <time>2022-03-06T08:09:25Z</time>
      </trkpt>
      <trkpt lat="48.55525" lon="2.10955">
        <ele>117</ele>
        <time>2022-03-06T08:09:27Z</time>
      </trkpt>
      <trkpt lat="48.55526" lon="2.10959">
        <ele>117</ele>
        <time>2022-03-06T08:09:29Z</time>
      </trkpt>
      <trkpt lat="48.55527" lon="2.10964">
        <ele>117</ele>
        <time>2022-03-06T08:09:31Z</time>
      </trkpt>
      <trkpt lat="48.55528" lon="2.10968">
        <ele>117</ele>
        <time>2022-03-06T08:09:33Z</time>
      </trkpt>
      <trkpt lat="48.5553" lon="2.10972">
        <ele>117</ele>
        <time>2022-03-06T08:09:35Z</time>
      </trkpt>
      <trkpt lat="48.55531" lon="2.10977">
        <ele>117</ele>
        <time>2022-03-06T08:09:37Z</time>
      </trkpt>
      <trkpt lat="48.55533" lon="2.10981">
        <ele>116</ele>
        <time>2022-03-06T08:09:39Z</time>
      </trkpt>
      <trkpt lat="48.55534" lon="2.10985">
        <ele>116</ele>
        <time>2022-03-06T08:09:41Z</time>
      </trkpt>
      <trkpt lat="48.55535" lon="2.10989">
        <ele>116</ele>
        <time>2022-03-06T08:09:43Z</time>
      </trkpt>
      <trkpt lat="48.55537" lon="2.10993">
        <ele>116</ele>
        <time>2022-03-06T08:09:45Z</time>
      </trkpt>
      <trkpt lat="48.55538" lon="2.10997">
        <ele>116</ele>
        <time>2022-03-06T08:09:47Z</time>
      </trkpt>
      <trkpt lat="48.55539" lon="2.11002">
        <ele>116</ele>
        <time>2022-03-06T08:09:49Z</time>
      </trkpt>
      <trkpt lat="48.55541" lon="2.11006">
        <ele>116</ele>
        <time>2022-03-06T08:09:51Z</time>
      </trkpt>
      <trkpt lat="48.55542" lon="2.1101">
        <ele>116</ele>
        <time>2022-03-06T08:09:53Z</time>
      </trkpt>
      <trkpt lat="48.55544" lon="2.11014">
        <ele>116</ele>
        <time>2022-03-06T08:09:55Z</time>
      </trkpt>
      <trkpt lat="48.55545" lon="2.11018">
        <ele>115</ele>
        <time>2022-03-06T08:09:57Z</time>
      </trkpt>
      <trkpt lat="48.55546" lon="2.11022">
        <ele>115</ele>
        <time>2022-03-06T08:09:59Z</time>
      </trkpt>
      <trkpt lat="48.55548" lon="2.11026">
        <ele>115</ele>
        <time>2022-03-06T08:10:01Z</time>
      </trkpt>
      <trkpt lat="48.55549" lon="2.1103">
        <ele>115</ele>
        <time>2022-03-06T08:10:03Z</time>
      </trkpt>
      <trkpt lat="48.5555" lon="2.11034">
        <ele>115</ele>
        <time>2022-03-06T08:10:05Z</time>
      </trkpt>
      <trkpt lat="48.55552" lon="2.11039">
        <ele>115</ele>
        <time>2022-03-06T08:10:07Z</time>
      </trkpt>
      <trkpt lat="48.55553" lon="2.11043">
        <ele>115</ele>
        <time>2022-03-06T08:10:09Z</time>
      </trkpt>
      <trkpt lat="48.55554" lon="2.11047">
        <ele>115</ele>
        <time>2022-03-06T08:10:11Z</time>
      </trkpt>
      <trkpt lat="48.55555" lon="2.11051">
        <ele>114</ele>
        <time>2022-03-06T08:10:13Z</time>
      </trkpt>
      <trkpt lat="48.55557" lon="2.11055">
        <ele>114</ele>
        <time>2022-03-06T08:10:15Z</time>
      </trkpt>
      <trkpt lat="48.55558" lon="2.1106">
        <ele>114</ele>
        <time>2022-03-06T08:10:17Z</time>
      </trkpt>
      <trkpt lat="48.5556" lon="2.11064">
        <ele>114</ele>
        <time>2022-03-06T08:10:19Z</time>
      </trkpt>
      <trkpt lat="48.55561" lon="2.11068">
        <ele>114</ele>
        <time>2022-03-06T08:10:21Z</time>
      </trkpt>
      <trkpt lat="48.55563" lon="2.11072">
        <ele>114</ele>
        <time>2022-03-06T08:10:23Z</time>
      </trkpt>
      <trkpt lat="48.55564" lon="2.11076">
        <ele>114</ele>
        <time>2022-03-06T08:10:25Z</time>
      </trkpt>
      <trkpt lat="48.55565" lon="2.1108">
        <ele>113</ele>
        <time>2022-03-06T08:10:27Z</time>
      </trkpt>
      <trkpt lat="48.55566" lon="2.11084">
        <ele>113</ele>
        <time>2022-03-06T08:10:29Z</time>
      </trkpt>
      <trkpt lat="48.55568" lon="2.11088">
        <ele>113</ele>
        <time>2022-03-06T08:10:31Z</time>
      </trkpt>
      <trkpt lat="48.55569" lon="2.11093">
        <ele>113</ele>
        <time>2022-03-06T08:10:33Z</time>
      </trkpt>
      <trkpt lat="48.5557" lon="2.11097">
        <ele>113</ele>
        <time>2022-03-06T08:10:35Z</time>
      </trkpt>
      <trkpt lat="48.55571" lon="2.11101">
        <ele>113</ele>
        <time>2022-03-06T08:10:37Z</time>
      </trkpt>
      <trkpt lat="48.55572" lon="2.11106">
        <ele>113</ele>
        <time>2022-03-06T08:10:39Z</time>
      </trkpt>
      <trkpt lat="48.55573" lon="2.1111">
        <ele>112</ele>
        <time>2022-03-06T08:10:41Z</time>
      </trkpt>
      <trkpt lat="48.55574" lon="2.11114">
        <ele>112</ele>
        <time>2022-03-06T08:10:43Z</time>
      </trkpt>
      <trkpt lat="48.55575" lon="2.11119">
        <ele>112</ele>
        <time>2022-03-06T08:10:45Z</time>
      </trkpt>
      <trkpt lat="48.55576" lon="2.11123">
        <ele>112</ele>
        <time>2022-03-06T08:10:47Z</time>
      </trkpt>
      <trkpt lat="48.55578" lon="2.11127">
        <ele>112</ele>
        <time>2022-03-06T08:10:49Z</time>
      </trkpt>
      <trkpt lat="48.55579" lon="2.11132">
        <ele>111</ele>
        <time>2022-03-06T08:10:51Z</time>
      </trkpt>
      <trkpt lat="48.5558" lon="2.11137">
        <ele>111</ele>
        <time>2022-03-06T08:10:53Z</time>
      </trkpt>
      <trkpt lat="48.55581" lon="2.11141">
        <ele>111</ele>
        <time>2022-03-06T08:10:55Z</time>
      </trkpt>
      <trkpt lat="48.55582" lon="2.11147">
        <ele>111</ele>
        <time>2022-03-06T08:10:58Z</time>
      </trkpt>
      <trkpt lat="48.55583" lon="2.11152">
        <ele>111</ele>
        <time>2022-03-06T08:11:00Z</time>
      </trkpt>
      <trkpt lat="48.55583" lon="2.11157">
        <ele>110</ele>
        <time>2022-03-06T08:11:02Z</time>
      </trkpt>
      <trkpt lat="48.55584" lon="2.11162">
        <ele>110</ele>
        <time>2022-03-06T08:11:04Z</time>
      </trkpt>
      <trkpt lat="48.55584" lon="2.11167">
        <ele>110</ele>
        <time>2022-03-06T08:11:06Z</time>
      </trkpt>
      <trkpt lat="48.55585" lon="2.11172">
        <ele>110</ele>
        <time>2022-03-06T08:11:08Z</time>
      </trkpt>
      <trkpt lat="48.55585" lon="2.11176">
        <ele>110</ele>
        <time>2022-03-06T08:11:10Z</time>
      </trkpt>
      <trkpt lat="48.55585" lon="2.11182">
        <ele>110</ele>
        <time>2022-03-06T08:11:12Z</time>
      </trkpt>
      <trkpt lat="48.55585" lon="2.11186">
        <ele>109</ele>
        <time>2022-03-06T08:11:14Z</time>
      </trkpt>
      <trkpt lat="48.55586" lon="2.11192">
        <ele>109</ele>
        <time>2022-03-06T08:11:17Z</time>
      </trkpt>
      <trkpt lat="48.55585" lon="2.11197">
        <ele>109</ele>
        <time>2022-03-06T08:11:19Z</time>
      </trkpt>
      <trkpt lat="48.55585" lon="2.11201">
        <ele>109</ele>
        <time>2022-03-06T08:11:21Z</time>
      </trkpt>
      <trkpt lat="48.55584" lon="2.11206">
        <ele>109</ele>
        <time>2022-03-06T08:11:23Z</time>
      </trkpt>
      <trkpt lat="48.55583" lon="2.11211">
        <ele>109</ele>
        <time>2022-03-06T08:11:25Z</time>
      </trkpt>
      <trkpt lat="48.55582" lon="2.11216">
        <ele>108</ele>
        <time>2022-03-06T08:11:27Z</time>
      </trkpt>
      <trkpt lat="48.55582" lon="2.11221">
        <ele>108</ele>
        <time>2022-03-06T08:11:29Z</time>
      </trkpt>
      <trkpt lat="48.55581" lon="2.11226">
        <ele>108</ele>
        <time>2022-03-06T08:11:31Z</time>
      </trkpt>
      <trkpt lat="48.5558" lon="2.11231">
        <ele>108</ele>
        <time>2022-03-06T08:11:33Z</time>
      </trkpt>
      <trkpt lat="48.55579" lon="2.11235">
        <ele>108</ele>
        <time>2022-03-06T08:11:35Z</time>
      </trkpt>
      <trkpt lat="48.55578" lon="2.11239">
        <ele>108</ele>
        <time>2022-03-06T08:11:37Z</time>
      </trkpt>
      <trkpt lat="48.55577" lon="2.11244">
        <ele>107</ele>
        <time>2022-03-06T08:11:40Z</time>
      </trkpt>
      <trkpt lat="48.55575" lon="2.11249">
        <ele>107</ele>
        <time>2022-03-06T08:11:43Z</time>
      </trkpt>
      <trkpt lat="48.55574" lon="2.11254">
        <ele>107</ele>
        <time>2022-03-06T08:11:45Z</time>
      </trkpt>
      <trkpt lat="48.55573" lon="2.11259">
        <ele>107</ele>
        <time>2022-03-06T08:11:48Z</time>
      </trkpt>
      <trkpt lat="48.55571" lon="2.11264">
        <ele>107</ele>
        <time>2022-03-06T08:11:50Z</time>
      </trkpt>
      <trkpt lat="48.5557" lon="2.11268">
        <ele>106</ele>
        <time>2022-03-06T08:11:52Z</time>
      </trkpt>
      <trkpt lat="48.55568" lon="2.11272">
        <ele>106</ele>
        <time>2022-03-06T08:11:54Z</time>
      </trkpt>
      <trkpt lat="48.55567" lon="2.11277">
        <ele>106</ele>
        <time>2022-03-06T08:11:57Z</time>
      </trkpt>
      <trkpt lat="48.55567" lon="2.11281">
        <ele>106</ele>
        <time>2022-03-06T08:11:59Z</time>
      </trkpt>
      <trkpt lat="48.55569" lon="2.11283">
        <ele>106</ele>
        <time>2022-03-06T08:12:02Z</time>
      </trkpt>
      <trkpt lat="48.55572" lon="2.11283">
        <ele>106</ele>
        <time>2022-03-06T08:12:04Z</time>
      </trkpt>
      <trkpt lat="48.55575" lon="2.11282">
        <ele>107</ele>
        <time>2022-03-06T08:12:06Z</time>
      </trkpt>
      <trkpt lat="48.55578" lon="2.11281">
        <ele>107</ele>
        <time>2022-03-06T08:12:09Z</time>
      </trkpt>
      <trkpt lat="48.55582" lon="2.11281">
        <ele>107</ele>
        <time>2022-03-06T08:12:11Z</time>
      </trkpt>
      <trkpt lat="48.55585" lon="2.11281">
        <ele>108</ele>
        <time>2022-03-06T08:12:13Z</time>
      </trkpt>
      <trkpt lat="48.55589" lon="2.1128">
        <ele>109</ele>
        <time>2022-03-06T08:12:17Z</time>
      </trkpt>
      <trkpt lat="48.55592" lon="2.1128">
        <ele>109</ele>
        <time>2022-03-06T08:12:20Z</time>
      </trkpt>
      <trkpt lat="48.55596" lon="2.11281">
        <ele>110</ele>
        <time>2022-03-06T08:12:22Z</time>
      </trkpt>
      <trkpt lat="48.55599" lon="2.11282">
        <ele>110</ele>
        <time>2022-03-06T08:12:24Z</time>
      </trkpt>
      <trkpt lat="48.55601" lon="2.11284">
        <ele>110</ele>
        <time>2022-03-06T08:12:27Z</time>
      </trkpt>
      <trkpt lat="48.55604" lon="2.11287">
        <ele>111</ele>
        <time>2022-03-06T08:12:30Z</time>
      </trkpt>
      <trkpt lat="48.55608" lon="2.11288">
        <ele>112</ele>
        <time>2022-03-06T08:12:34Z</time>
      </trkpt>
      <trkpt lat="48.55611" lon="2.11289">
        <ele>112</ele>
        <time>2022-03-06T08:12:37Z</time>
      </trkpt>
      <trkpt lat="48.55614" lon="2.11291">
        <ele>112</ele>
        <time>2022-03-06T08:12:40Z</time>
      </trkpt>
      <trkpt lat="48.55618" lon="2.11293">
        <ele>113</ele>
        <time>2022-03-06T08:12:44Z</time>
      </trkpt>
      <trkpt lat="48.55621" lon="2.11294">
        <ele>113</ele>
        <time>2022-03-06T08:12:47Z</time>
      </trkpt>
      <trkpt lat="48.55625" lon="2.11294">
        <ele>113</ele>
        <time>2022-03-06T08:12:50Z</time>
      </trkpt>
      <trkpt lat="48.55628" lon="2.11294">
        <ele>114</ele>
        <time>2022-03-06T08:12:53Z</time>
      </trkpt>
      <trkpt lat="48.55631" lon="2.11295">
        <ele>114</ele>
        <time>2022-03-06T08:12:56Z</time>
      </trkpt>
      <trkpt lat="48.55634" lon="2.11297">
        <ele>115</ele>
        <time>2022-03-06T08:12:59Z</time>
      </trkpt>
      <trkpt lat="48.55639" lon="2.11299">
        <ele>115</ele>
        <time>2022-03-06T08:13:03Z</time>
      </trkpt>
      <trkpt lat="48.55642" lon="2.11301">
        <ele>115</ele>
        <time>2022-03-06T08:13:05Z</time>
      </trkpt>
      <trkpt lat="48.55645" lon="2.11302">
        <ele>116</ele>
        <time>2022-03-06T08:13:08Z</time>
      </trkpt>
      <trkpt lat="48.55648" lon="2.11304">
        <ele>116</ele>
        <time>2022-03-06T08:13:11Z</time>
      </trkpt>
      <trkpt lat="48.55651" lon="2.11304">
        <ele>117</ele>
        <time>2022-03-06T08:13:15Z</time>
      </trkpt>
      <trkpt lat="48.55654" lon="2.11303">
        <ele>119</ele>
        <time>2022-03-06T08:13:22Z</time>
      </trkpt>
      <trkpt lat="48.55656" lon="2.11301">
        <ele>120</ele>
        <time>2022-03-06T08:13:25Z</time>
      </trkpt>
      <trkpt lat="48.55658" lon="2.11298">
        <ele>121</ele>
        <time>2022-03-06T08:13:30Z</time>
      </trkpt>
      <trkpt lat="48.55661" lon="2.11298">
        <ele>122</ele>
        <time>2022-03-06T08:13:35Z</time>
      </trkpt>
      <trkpt lat="48.55663" lon="2.11299">
        <ele>123</ele>
        <time>2022-03-06T08:13:41Z</time>
      </trkpt>
      <trkpt lat="48.55666" lon="2.11301">
        <ele>125</ele>
        <time>2022-03-06T08:13:46Z</time>
      </trkpt>
      <trkpt lat="48.55669" lon="2.11304">
        <ele>126</ele>
        <time>2022-03-06T08:13:50Z</time>
      </trkpt>
      <trkpt lat="48.55672" lon="2.11304">
        <ele>127</ele>
        <time>2022-03-06T08:13:54Z</time>
      </trkpt>
      <trkpt lat="48.55674" lon="2.11302">
        <ele>128</ele>
        <time>2022-03-06T08:13:59Z</time>
      </trkpt>
      <trkpt lat="48.55675" lon="2.11298">
        <ele>129</ele>
        <time>2022-03-06T08:14:03Z</time>
      </trkpt>
      <trkpt lat="48.55677" lon="2.11294">
        <ele>129</ele>
        <time>2022-03-06T08:14:07Z</time>
      </trkpt>
      <trkpt lat="48.55678" lon="2.11291">
        <ele>131</ele>
        <time>2022-03-06T08:14:12Z</time>
      </trkpt>
      <trkpt lat="48.55681" lon="2.1129">
        <ele>132</ele>
        <time>2022-03-06T08:14:16Z</time>
      </trkpt>
      <trkpt lat="48.55684" lon="2.11289">
        <ele>133</ele>
        <time>2022-03-06T08:14:19Z</time>
      </trkpt>
      <trkpt lat="48.55687" lon="2.11287">
        <ele>134</ele>
        <time>2022-03-06T08:14:23Z</time>
      </trkpt>
      <trkpt lat="48.55689" lon="2.11289">
        <ele>135</ele>
        <time>2022-03-06T08:14:27Z</time>
      </trkpt>
      <trkpt lat="48.55691" lon="2.11292">
        <ele>136</ele>
        <time>2022-03-06T08:14:30Z</time>
      </trkpt>
      <trkpt lat="48.55693" lon="2.11295">
        <ele>136</ele>
        <time>2022-03-06T08:14:33Z</time>
      </trkpt>
      <trkpt lat="48.55696" lon="2.11297">
        <ele>136</ele>
        <time>2022-03-06T08:14:36Z</time>
      </trkpt>
      <trkpt lat="48.55699" lon="2.11298">
        <ele>137</ele>
        <time>2022-03-06T08:14:39Z</time>
      </trkpt>
      <trkpt lat="48.55702" lon="2.11298">
        <ele>138</ele>
        <time>2022-03-06T08:14:44Z</time>
      </trkpt>
      <trkpt lat="48.55705" lon="2.11297">
        <ele>139</ele>
        <time>2022-03-06T08:14:49Z</time>
      </trkpt>
      <trkpt lat="48.55708" lon="2.11297">
        <ele>140</ele>
        <time>2022-03-06T08:14:53Z</time>
      </trkpt>
      <trkpt lat="48.55711" lon="2.11296">
        <ele>141</ele>
        <time>2022-03-06T08:14:57Z</time>
      </trkpt>
      <trkpt lat="48.55713" lon="2.11294">
        <ele>142</ele>
        <time>2022-03-06T08:15:02Z</time>
      </trkpt>
      <trkpt lat="48.55715" lon="2.11291">
        <ele>143</ele>
        <time>2022-03-06T08:15:04Z</time>
      </trkpt>
      <trkpt lat="48.55717" lon="2.11288">
        <ele>144</ele>
        <time>2022-03-06T08:15:10Z</time>
      </trkpt>
      <trkpt lat="48.55718" lon="2.11284">
        <ele>145</ele>
        <time>2022-03-06T08:15:13Z</time>
      </trkpt>
      <trkpt lat="48.55719" lon="2.11279">
        <ele>146</ele>
        <time>2022-03-06T08:15:18Z</time>
      </trkpt>
      <trkpt lat="48.55721" lon="2.11277">
        <ele>147</ele>
        <time>2022-03-06T08:15:21Z</time>
      </trkpt>
      <trkpt lat="48.55725" lon="2.11278">
        <ele>148</ele>
        <time>2022-03-06T08:15:25Z</time>
      </trkpt>
      <trkpt lat="48.55728" lon="2.11279">
        <ele>149</ele>
        <time>2022-03-06T08:15:28Z</time>
      </trkpt>
      <trkpt lat="48.55731" lon="2.11281">
        <ele>149</ele>
        <time>2022-03-06T08:15:31Z</time>
      </trkpt>
      <trkpt lat="48.55734" lon="2.11282">
        <ele>149</ele>
        <time>2022-03-06T08:15:34Z</time>
      </trkpt>
      <trkpt lat="48.55738" lon="2.11281">
        <ele>149</ele>
        <time>2022-03-06T08:15:36Z</time>
      </trkpt>
      <trkpt lat="48.55741" lon="2.11281">
        <ele>149</ele>
        <time>2022-03-06T08:15:39Z</time>
      </trkpt>
      <trkpt lat="48.55744" lon="2.11283">
        <ele>149</ele>
        <time>2022-03-06T08:15:43Z</time>
      </trkpt>
      <trkpt lat="48.55747" lon="2.11283">
        <ele>149</ele>
        <time>2022-03-06T08:15:46Z</time>
      </trkpt>
      <trkpt lat="48.55749" lon="2.11282">
        <ele>150</ele>
        <time>2022-03-06T08:15:50Z</time>
      </trkpt>
      <trkpt lat="48.55749" lon="2.11279">
        <ele>150</ele>
        <time>2022-03-06T08:15:54Z</time>
      </trkpt>
      <trkpt lat="48.55748" lon="2.11276">
        <ele>150</ele>
        <time>2022-03-06T08:15:58Z</time>
      </trkpt>
      <trkpt lat="48.55748" lon="2.11272">
        <ele>150</ele>
        <time>2022-03-06T08:16:03Z</time>
      </trkpt>
      <trkpt lat="48.55746" lon="2.11268">
        <ele>150</ele>
        <time>2022-03-06T08:16:07Z</time>
      </trkpt>
      <trkpt lat="48.55745" lon="2.11264">
        <ele>150</ele>
        <time>2022-03-06T08:16:11Z</time>
      </trkpt>
      <trkpt lat="48.55744" lon="2.1126">
        <ele>150</ele>
        <time>2022-03-06T08:16:14Z</time>
      </trkpt>
      <trkpt lat="48.55744" lon="2.11256">
        <ele>150</ele>
        <time>2022-03-06T08:16:16Z</time>
      </trkpt>
      <trkpt lat="48.55743" lon="2.11251">
        <ele>150</ele>
        <time>2022-03-06T08:16:19Z</time>
      </trkpt>
      <trkpt lat="48.55742" lon="2.11246">
        <ele>150</ele>
        <time>2022-03-06T08:16:22Z</time>
      </trkpt>
      <trkpt lat="48.55742" lon="2.1124">
        <ele>150</ele>
        <time>2022-03-06T08:16:26Z</time>
      </trkpt>
      <trkpt lat="48.55741" lon="2.11235">
        <ele>150</ele>
        <time>2022-03-06T08:16:28Z</time>
      </trkpt>
      <trkpt lat="48.5574" lon="2.11231">
        <ele>150</ele>
        <time>2022-03-06T08:16:30Z</time>
      </trkpt>
      <trkpt lat="48.5574" lon="2.11225">
        <ele>150</ele>
        <time>2022-03-06T08:16:34Z</time>
      </trkpt>
      <trkpt lat="48.55739" lon="2.1122">
        <ele>150</ele>
        <time>2022-03-06T08:16:36Z</time>
      </trkpt>
      <trkpt lat="48.55739" lon="2.11216">
        <ele>149</ele>
        <time>2022-03-06T08:16:38Z</time>
      </trkpt>
      <trkpt lat="48.55738" lon="2.11211">
        <ele>149</ele>
        <time>2022-03-06T08:16:40Z</time>
      </trkpt>
      <trkpt lat="48.55738" lon="2.11207">
        <ele>149</ele>
        <time>2022-03-06T08:16:42Z</time>
      </trkpt>
      <trkpt lat="48.55737" lon="2.11202">
        <ele>149</ele>
        <time>2022-03-06T08:16:44Z</time>
      </trkpt>
      <trkpt lat="48.55737" lon="2.11196">
        <ele>149</ele>
        <time>2022-03-06T08:16:47Z</time>
      </trkpt>
      <trkpt lat="48.55736" lon="2.11192">
        <ele>149</ele>
        <time>2022-03-06T08:16:51Z</time>
      </trkpt>
      <trkpt lat="48.55736" lon="2.11187">
        <ele>149</ele>
        <time>2022-03-06T08:16:53Z</time>
      </trkpt>
      <trkpt lat="48.55736" lon="2.11183">
        <ele>149</ele>
        <time>2022-03-06T08:16:55Z</time>
      </trkpt>
      <trkpt lat="48.55736" lon="2.11178">
        <ele>149</ele>
        <time>2022-03-06T08:16:57Z</time>
      </trkpt>
      <trkpt lat="48.55736" lon="2.11172">
        <ele>149</ele>
        <time>2022-03-06T08:16:59Z</time>
      </trkpt>
      <trkpt lat="48.55735" lon="2.11167">
        <ele>149</ele>
        <time>2022-03-06T08:17:01Z</time>
      </trkpt>
      <trkpt lat="48.55735" lon="2.11161">
        <ele>149</ele>
        <time>2022-03-06T08:17:03Z</time>
      </trkpt>
      <trkpt lat="48.55735" lon="2.11155">
        <ele>149</ele>
        <time>2022-03-06T08:17:06Z</time>
      </trkpt>
      <trkpt lat="48.55735" lon="2.11149">
        <ele>149</ele>
        <time>2022-03-06T08:17:08Z</time>
      </trkpt>
      <trkpt lat="48.55736" lon="2.11144">
        <ele>149</ele>
        <time>2022-03-06T08:17:10Z</time>
      </trkpt>
      <trkpt lat="48.55735" lon="2.11139">
        <ele>149</ele>
        <time>2022-03-06T08:17:12Z</time>
      </trkpt>
      <trkpt lat="48.55735" lon="2.11135">
        <ele>149</ele>
        <time>2022-03-06T08:17:14Z</time>
      </trkpt>
      <trkpt lat="48.55735" lon="2.1113">
        <ele>149</ele>
        <time>2022-03-06T08:17:16Z</time>
      </trkpt>
      <trkpt lat="48.55735" lon="2.11125">
        <ele>149</ele>
        <time>2022-03-06T08:17:18Z</time>
      </trkpt>
      <trkpt lat="48.55735" lon="2.11121">
        <ele>149</ele>
        <time>2022-03-06T08:17:20Z</time>
      </trkpt>
      <trkpt lat="48.55735" lon="2.11115">
        <ele>149</ele>
        <time>2022-03-06T08:17:23Z</time>
      </trkpt>
      <trkpt lat="48.55735" lon="2.1111">
        <ele>149</ele>
        <time>2022-03-06T08:17:26Z</time>
      </trkpt>
      <trkpt lat="48.55735" lon="2.11104">
        <ele>149</ele>
        <time>2022-03-06T08:17:29Z</time>
      </trkpt>
      <trkpt lat="48.55734" lon="2.11099">
        <ele>149</ele>
        <time>2022-03-06T08:17:31Z</time>
      </trkpt>
      <trkpt lat="48.55734" lon="2.11094">
        <ele>149</ele>
        <time>2022-03-06T08:17:33Z</time>
      </trkpt>
      <trkpt lat="48.55733" lon="2.11088">
        <ele>149</ele>
        <time>2022-03-06T08:17:36Z</time>
      </trkpt>
      <trkpt lat="48.55733" lon="2.11083">
        <ele>149</ele>
        <time>2022-03-06T08:17:38Z</time>
      </trkpt>
      <trkpt lat="48.55732" lon="2.11078">
        <ele>149</ele>
        <time>2022-03-06T08:17:40Z</time>
      </trkpt>
      <trkpt lat="48.55732" lon="2.11072">
        <ele>149</ele>
        <time>2022-03-06T08:17:42Z</time>
      </trkpt>
      <trkpt lat="48.55731" lon="2.11068">
        <ele>149</ele>
        <time>2022-03-06T08:17:44Z</time>
      </trkpt>
      <trkpt lat="48.5573" lon="2.11062">
        <ele>149</ele>
        <time>2022-03-06T08:17:46Z</time>
      </trkpt>
      <trkpt lat="48.5573" lon="2.11056">
        <ele>149</ele>
        <time>2022-03-06T08:17:49Z</time>
      </trkpt>
      <trkpt lat="48.55729" lon="2.1105">
        <ele>149</ele>
        <time>2022-03-06T08:17:52Z</time>
      </trkpt>
      <trkpt lat="48.55728" lon="2.11045">
        <ele>149</ele>
        <time>2022-03-06T08:17:55Z</time>
      </trkpt>
      <trkpt lat="48.55728" lon="2.1104">
        <ele>149</ele>
        <time>2022-03-06T08:17:57Z</time>
      </trkpt>
      <trkpt lat="48.55726" lon="2.11035">
        <ele>149</ele>
        <time>2022-03-06T08:17:59Z</time>
      </trkpt>
      <trkpt lat="48.55725" lon="2.11029">
        <ele>149</ele>
        <time>2022-03-06T08:18:02Z</time>
      </trkpt>
      <trkpt lat="48.55724" lon="2.11024">
        <ele>149</ele>
        <time>2022-03-06T08:18:04Z</time>
      </trkpt>
      <trkpt lat="48.55723" lon="2.11018">
        <ele>149</ele>
        <time>2022-03-06T08:18:07Z</time>
      </trkpt>
      <trkpt lat="48.55722" lon="2.11012">
        <ele>149</ele>
        <time>2022-03-06T08:18:10Z</time>
      </trkpt>
      <trkpt lat="48.55722" lon="2.11006">
        <ele>149</ele>
        <time>2022-03-06T08:18:12Z</time>
      </trkpt>
      <trkpt lat="48.55721" lon="2.11001">
        <ele>150</ele>
        <time>2022-03-06T08:18:14Z</time>
      </trkpt>
      <trkpt lat="48.5572" lon="2.10996">
        <ele>150</ele>
        <time>2022-03-06T08:18:16Z</time>
      </trkpt>
      <trkpt lat="48.5572" lon="2.10991">
        <ele>150</ele>
        <time>2022-03-06T08:18:18Z</time>
      </trkpt>
      <trkpt lat="48.55721" lon="2.10986">
        <ele>150</ele>
        <time>2022-03-06T08:18:20Z</time>
      </trkpt>
      <trkpt lat="48.55721" lon="2.10982">
        <ele>150</ele>
        <time>2022-03-06T08:18:22Z</time>
      </trkpt>
      <trkpt lat="48.55722" lon="2.10977">
        <ele>150</ele>
        <time>2022-03-06T08:18:24Z</time>
      </trkpt>
      <trkpt lat="48.55722" lon="2.10972">
        <ele>151</ele>
        <time>2022-03-06T08:18:26Z</time>
      </trkpt>
      <trkpt lat="48.55723" lon="2.10967">
        <ele>151</ele>
        <time>2022-03-06T08:18:28Z</time>
      </trkpt>
      <trkpt lat="48.55724" lon="2.10962">
        <ele>151</ele>
        <time>2022-03-06T08:18:30Z</time>
      </trkpt>
      <trkpt lat="48.55724" lon="2.10957">
        <ele>151</ele>
        <time>2022-03-06T08:18:32Z</time>
      </trkpt>
      <trkpt lat="48.55725" lon="2.10952">
        <ele>151</ele>
        <time>2022-03-06T08:18:35Z</time>
      </trkpt>
      <trkpt lat="48.55727" lon="2.10948">
        <ele>151</ele>
        <time>2022-03-06T08:18:37Z</time>
      </trkpt>
      <trkpt lat="48.55728" lon="2.10943">
        <ele>151</ele>
        <time>2022-03-06T08:18:40Z</time>
      </trkpt>
      <trkpt lat="48.55729" lon="2.10939">
        <ele>151</ele>
        <time>2022-03-06T08:18:42Z</time>
      </trkpt>
      <trkpt lat="48.5573" lon="2.10934">
        <ele>151</ele>
        <time>2022-03-06T08:18:44Z</time>
      </trkpt>
      <trkpt lat="48.55731" lon="2.10929">
        <ele>151</ele>
        <time>2022-03-06T08:18:46Z</time>
      </trkpt>
      <trkpt lat="48.55733" lon="2.10924">
        <ele>151</ele>
        <time>2022-03-06T08:18:48Z</time>
      </trkpt>
      <trkpt lat="48.55735" lon="2.1092">
        <ele>151</ele>
        <time>2022-03-06T08:18:50Z</time>
      </trkpt>
      <trkpt lat="48.55736" lon="2.10916">
        <ele>151</ele>
        <time>2022-03-06T08:18:52Z</time>
      </trkpt>
      <trkpt lat="48.55736" lon="2.1091">
        <ele>151</ele>
        <time>2022-03-06T08:18:54Z</time>
      </trkpt>
      <trkpt lat="48.55738" lon="2.10907">
        <ele>151</ele>
        <time>2022-03-06T08:18:57Z</time>
      </trkpt>
      <trkpt lat="48.5574" lon="2.10903">
        <ele>152</ele>
        <time>2022-03-06T08:19:00Z</time>
      </trkpt>
      <trkpt lat="48.55742" lon="2.109">
        <ele>152</ele>
        <time>2022-03-06T08:19:05Z</time>
      </trkpt>
      <trkpt lat="48.55742" lon="2.10897">
        <ele>152</ele>
        <time>2022-03-06T08:19:34Z</time>
      </trkpt>
      <trkpt lat="48.55741" lon="2.10892">
        <ele>152</ele>
        <time>2022-03-06T08:19:41Z</time>
      </trkpt>
      <trkpt lat="48.5574" lon="2.10888">
        <ele>152</ele>
        <time>2022-03-06T08:19:45Z</time>
      </trkpt>
      <trkpt lat="48.55738" lon="2.10884">
        <ele>152</ele>
        <time>2022-03-06T08:19:48Z</time>
      </trkpt>
      <trkpt lat="48.55737" lon="2.1088">
        <ele>152</ele>
        <time>2022-03-06T08:19:52Z</time>
      </trkpt>
      <trkpt lat="48.55736" lon="2.10876">
        <ele>152</ele>
        <time>2022-03-06T08:19:56Z</time>
      </trkpt>
      <trkpt lat="48.55734" lon="2.10872">
        <ele>152</ele>
        <time>2022-03-06T08:20:00Z</time>
      </trkpt>
      <trkpt lat="48.55733" lon="2.10868">
        <ele>152</ele>
        <time>2022-03-06T08:20:04Z</time>
      </trkpt>
      <trkpt lat="48.55733" lon="2.10863">
        <ele>152</ele>
        <time>2022-03-06T08:20:11Z</time>
      </trkpt>
      <trkpt lat="48.55735" lon="2.1086">
        <ele>152</ele>
        <time>2022-03-06T08:20:15Z</time>
      </trkpt>
      <trkpt lat="48.55737" lon="2.10856">
        <ele>152</ele>
        <time>2022-03-06T08:20:19Z</time>
      </trkpt>
      <trkpt lat="48.55737" lon="2.10852">
        <ele>152</ele>
        <time>2022-03-06T08:20:22Z</time>
      </trkpt>
      <trkpt lat="48.55736" lon="2.10848">
        <ele>152</ele>
        <time>2022-03-06T08:20:25Z</time>
      </trkpt>
      <trkpt lat="48.55734" lon="2.10845">
        <ele>152</ele>
        <time>2022-03-06T08:20:27Z</time>
      </trkpt>
      <trkpt lat="48.55733" lon="2.1084">
        <ele>152</ele>
        <time>2022-03-06T08:20:29Z</time>
      </trkpt>
      <trkpt lat="48.55733" lon="2.10836">
        <ele>152</ele>
        <time>2022-03-06T08:20:31Z</time>
      </trkpt>
      <trkpt lat="48.55733" lon="2.10831">
        <ele>152</ele>
        <time>2022-03-06T08:20:33Z</time>
      </trkpt>
      <trkpt lat="48.55734" lon="2.10826">
        <ele>152</ele>
        <time>2022-03-06T08:20:35Z</time>
      </trkpt>
      <trkpt lat="48.55735" lon="2.10821">
        <ele>152</ele>
        <time>2022-03-06T08:20:37Z</time>
      </trkpt>
      <trkpt lat="48.55734" lon="2.10816">
        <ele>152</ele>
        <time>2022-03-06T08:20:40Z</time>
      </trkpt>
      <trkpt lat="48.55733" lon="2.1081">
        <ele>152</ele>
        <time>2022-03-06T08:20:42Z</time>
      </trkpt>
      <trkpt lat="48.55731" lon="2.10806">
        <ele>152</ele>
        <time>2022-03-06T08:20:45Z</time>
      </trkpt>
      <trkpt lat="48.55728" lon="2.10803">
        <ele>152</ele>
        <time>2022-03-06T08:20:48Z</time>
      </trkpt>
      <trkpt lat="48.55726" lon="2.108">
        <ele>152</ele>
        <time>2022-03-06T08:20:50Z</time>
      </trkpt>
      <trkpt lat="48.55723" lon="2.10798">
        <ele>152</ele>
        <time>2022-03-06T08:20:52Z</time>
      </trkpt>
      <trkpt lat="48.5572" lon="2.10795">
        <ele>152</ele>
        <time>2022-03-06T08:20:55Z</time>
      </trkpt>
      <trkpt lat="48.55718" lon="2.10792">
        <ele>152</ele>
        <time>2022-03-06T08:20:57Z</time>
      </trkpt>
      <trkpt lat="48.55716" lon="2.10786">
        <ele>152</ele>
        <time>2022-03-06T08:21:01Z</time>
      </trkpt>
      <trkpt lat="48.55715" lon="2.10782">
        <ele>152</ele>
        <time>2022-03-06T08:21:03Z</time>
      </trkpt>
      <trkpt lat="48.55713" lon="2.10777">
        <ele>152</ele>
        <time>2022-03-06T08:21:06Z</time>
      </trkpt>
      <trkpt lat="48.55711" lon="2.10772">
        <ele>152</ele>
        <time>2022-03-06T08:21:09Z</time>
      </trkpt>
      <trkpt lat="48.5571" lon="2.10767">
        <ele>152</ele>
        <time>2022-03-06T08:21:11Z</time>
      </trkpt>
      <trkpt lat="48.5571" lon="2.10761">
        <ele>152</ele>
        <time>2022-03-06T08:21:13Z</time>
      </trkpt>
      <trkpt lat="48.5571" lon="2.10756">
        <ele>152</ele>
        <time>2022-03-06T08:21:15Z</time>
      </trkpt>
      <trkpt lat="48.55709" lon="2.10751">
        <ele>152</ele>
        <time>2022-03-06T08:21:17Z</time>
      </trkpt>
      <trkpt lat="48.55708" lon="2.10747">
        <ele>152</ele>
        <time>2022-03-06T08:21:19Z</time>
      </trkpt>
      <trkpt lat="48.55706" lon="2.10743">
        <ele>152</ele>
        <time>2022-03-06T08:21:22Z</time>
      </trkpt>
      <trkpt lat="48.55703" lon="2.1074">
        <ele>152</ele>
        <time>2022-03-06T08:21:24Z</time>
      </trkpt>
      <trkpt lat="48.55701" lon="2.10738">
        <ele>152</ele>
        <time>2022-03-06T08:21:26Z</time>
      </trkpt>
      <trkpt lat="48.55698" lon="2.10736">
        <ele>152</ele>
        <time>2022-03-06T08:21:28Z</time>
      </trkpt>
      <trkpt lat="48.55695" lon="2.10734">
        <ele>152</ele>
        <time>2022-03-06T08:21:31Z</time>
      </trkpt>
      <trkpt lat="48.55693" lon="2.10731">
        <ele>152</ele>
        <time>2022-03-06T08:21:33Z</time>
      </trkpt>
      <trkpt lat="48.55691" lon="2.10728">
        <ele>152</ele>
        <time>2022-03-06T08:21:35Z</time>
      </trkpt>
      <trkpt lat="48.5569" lon="2.10724">
        <ele>152</ele>
        <time>2022-03-06T08:21:37Z</time>
      </trkpt>
      <trkpt lat="48.55689" lon="2.1072">
        <ele>153</ele>
        <time>2022-03-06T08:21:39Z</time>
      </trkpt>
      <trkpt lat="48.55686" lon="2.10717">
        <ele>153</ele>
        <time>2022-03-06T08:21:42Z</time>
      </trkpt>
      <trkpt lat="48.55684" lon="2.10714">
        <ele>153</ele>
        <time>2022-03-06T08:21:45Z</time>
      </trkpt>
      <trkpt lat="48.55681" lon="2.1071">
        <ele>153</ele>
        <time>2022-03-06T08:21:48Z</time>
      </trkpt>
      <trkpt lat="48.55679" lon="2.10707">
        <ele>153</ele>
        <time>2022-03-06T08:21:50Z</time>
      </trkpt>
      <trkpt lat="48.55678" lon="2.10702">
        <ele>153</ele>
        <time>2022-03-06T08:21:53Z</time>
      </trkpt>
      <trkpt lat="48.55676" lon="2.10698">
        <ele>153</ele>
        <time>2022-03-06T08:21:57Z</time>
      </trkpt>
      <trkpt lat="48.55674" lon="2.10694">
        <ele>153</ele>
        <time>2022-03-06T08:21:59Z</time>
      </trkpt>
      <trkpt lat="48.55672" lon="2.1069">
        <ele>153</ele>
        <time>2022-03-06T08:22:01Z</time>
      </trkpt>
      <trkpt lat="48.55671" lon="2.10685">
        <ele>153</ele>
        <time>2022-03-06T08:22:04Z</time>
      </trkpt>
      <trkpt lat="48.55669" lon="2.1068">
        <ele>153</ele>
        <time>2022-03-06T08:22:07Z</time>
      </trkpt>
      <trkpt lat="48.55667" lon="2.10676">
        <ele>153</ele>
        <time>2022-03-06T08:22:09Z</time>
      </trkpt>
      <trkpt lat="48.55666" lon="2.10671">
        <ele>153</ele>
        <time>2022-03-06T08:22:11Z</time>
      </trkpt>
      <trkpt lat="48.55666" lon="2.10666">
        <ele>153</ele>
        <time>2022-03-06T08:22:13Z</time>
      </trkpt>
      <trkpt lat="48.55667" lon="2.10662">
        <ele>153</ele>
        <time>2022-03-06T08:22:15Z</time>
      </trkpt>
      <trkpt lat="48.55669" lon="2.10659">
        <ele>153</ele>
        <time>2022-03-06T08:22:18Z</time>
      </trkpt>
      <trkpt lat="48.55669" lon="2.10655">
        <ele>153</ele>
        <time>2022-03-06T08:22:21Z</time>
      </trkpt>
      <trkpt lat="48.55667" lon="2.10653">
        <ele>153</ele>
        <time>2022-03-06T08:22:23Z</time>
      </trkpt>
      <trkpt lat="48.55665" lon="2.10654">
        <ele>153</ele>
        <time>2022-03-06T08:22:25Z</time>
      </trkpt>
      <trkpt lat="48.55663" lon="2.10655">
        <ele>153</ele>
        <time>2022-03-06T08:22:27Z</time>
      </trkpt>
      <trkpt lat="48.5566" lon="2.10653">
        <ele>153</ele>
        <time>2022-03-06T08:22:29Z</time>
      </trkpt>
      <trkpt lat="48.55658" lon="2.1065">
        <ele>153</ele>
        <time>2022-03-06T08:22:31Z</time>
      </trkpt>
      <trkpt lat="48.55657" lon="2.10645">
        <ele>153</ele>
        <time>2022-03-06T08:22:34Z</time>
      </trkpt>
      <trkpt lat="48.55654" lon="2.10639">
        <ele>153</ele>
        <time>2022-03-06T08:22:37Z</time>
      </trkpt>
      <trkpt lat="48.55652" lon="2.10634">
        <ele>153</ele>
        <time>2022-03-06T08:22:40Z</time>
      </trkpt>
      <trkpt lat="48.5565" lon="2.10629">
        <ele>153</ele>
        <time>2022-03-06T08:22:43Z</time>
      </trkpt>
      <trkpt lat="48.55649" lon="2.10624">
        <ele>153</ele>
        <time>2022-03-06T08:22:45Z</time>
      </trkpt>
      <trkpt lat="48.55648" lon="2.1062">
        <ele>153</ele>
        <time>2022-03-06T08:22:47Z</time>
      </trkpt>
      <trkpt lat="48.55646" lon="2.10615">
        <ele>153</ele>
        <time>2022-03-06T08:22:49Z</time>
      </trkpt>
      <trkpt lat="48.55645" lon="2.1061">
        <ele>153</ele>
        <time>2022-03-06T08:22:52Z</time>
      </trkpt>
      <trkpt lat="48.55644" lon="2.10606">
        <ele>154</ele>
        <time>2022-03-06T08:22:54Z</time>
      </trkpt>
      <trkpt lat="48.55642" lon="2.10601">
        <ele>154</ele>
        <time>2022-03-06T08:22:57Z</time>
      </trkpt>
      <trkpt lat="48.55641" lon="2.10596">
        <ele>154</ele>
        <time>2022-03-06T08:22:59Z</time>
      </trkpt>
      <trkpt lat="48.55639" lon="2.10592">
        <ele>154</ele>
        <time>2022-03-06T08:23:01Z</time>
      </trkpt>
      <trkpt lat="48.55638" lon="2.10588">
        <ele>154</ele>
        <time>2022-03-06T08:23:03Z</time>
      </trkpt>
      <trkpt lat="48.55636" lon="2.10583">
        <ele>154</ele>
        <time>2022-03-06T08:23:06Z</time>
      </trkpt>
      <trkpt lat="48.55634" lon="2.10579">
        <ele>154</ele>
        <time>2022-03-06T08:23:08Z</time>
      </trkpt>
      <trkpt lat="48.55633" lon="2.10574">
        <ele>154</ele>
        <time>2022-03-06T08:23:10Z</time>
      </trkpt>
      <trkpt lat="48.55631" lon="2.1057">
        <ele>154</ele>
        <time>2022-03-06T08:23:12Z</time>
      </trkpt>
      <trkpt lat="48.5563" lon="2.10565">
        <ele>154</ele>
        <time>2022-03-06T08:23:15Z</time>
      </trkpt>
      <trkpt lat="48.55628" lon="2.1056">
        <ele>154</ele>
        <time>2022-03-06T08:23:17Z</time>
      </trkpt>
      <trkpt lat="48.55626" lon="2.10555">
        <ele>154</ele>
        <time>2022-03-06T08:23:20Z</time>
      </trkpt>
      <trkpt lat="48.55625" lon="2.10551">
        <ele>154</ele>
        <time>2022-03-06T08:23:22Z</time>
      </trkpt>
      <trkpt lat="48.55623" lon="2.10545">
        <ele>154</ele>
        <time>2022-03-06T08:23:25Z</time>
      </trkpt>
      <trkpt lat="48.55621" lon="2.10539">
        <ele>154</ele>
        <time>2022-03-06T08:23:27Z</time>
      </trkpt>
      <trkpt lat="48.55619" lon="2.10534">
        <ele>154</ele>
        <time>2022-03-06T08:23:29Z</time>
      </trkpt>
      <trkpt lat="48.55618" lon="2.10529">
        <ele>154</ele>
        <time>2022-03-06T08:23:32Z</time>
      </trkpt>
      <trkpt lat="48.55616" lon="2.10526">
        <ele>154</ele>
        <time>2022-03-06T08:23:34Z</time>
      </trkpt>
      <trkpt lat="48.55614" lon="2.10521">
        <ele>154</ele>
        <time>2022-03-06T08:23:37Z</time>
      </trkpt>
      <trkpt lat="48.55611" lon="2.10515">
        <ele>154</ele>
        <time>2022-03-06T08:23:40Z</time>
      </trkpt>
      <trkpt lat="48.5561" lon="2.10511">
        <ele>154</ele>
        <time>2022-03-06T08:23:42Z</time>
      </trkpt>
      <trkpt lat="48.55608" lon="2.10506">
        <ele>154</ele>
        <time>2022-03-06T08:23:44Z</time>
      </trkpt>
      <trkpt lat="48.55607" lon="2.10501">
        <ele>154</ele>
        <time>2022-03-06T08:23:46Z</time>
      </trkpt>
      <trkpt lat="48.55606" lon="2.10495">
        <ele>155</ele>
        <time>2022-03-06T08:23:49Z</time>
      </trkpt>
      <trkpt lat="48.55606" lon="2.10489">
        <ele>155</ele>
        <time>2022-03-06T08:23:52Z</time>
      </trkpt>
      <trkpt lat="48.55605" lon="2.10484">
        <ele>155</ele>
        <time>2022-03-06T08:23:54Z</time>
      </trkpt>
      <trkpt lat="48.55603" lon="2.1048">
        <ele>155</ele>
        <time>2022-03-06T08:23:57Z</time>
      </trkpt>
      <trkpt lat="48.55602" lon="2.10475">
        <ele>155</ele>
        <time>2022-03-06T08:23:59Z</time>
      </trkpt>
      <trkpt lat="48.556" lon="2.1047">
        <ele>155</ele>
        <time>2022-03-06T08:24:01Z</time>
      </trkpt>
      <trkpt lat="48.55598" lon="2.10467">
        <ele>155</ele>
        <time>2022-03-06T08:24:03Z</time>
      </trkpt>
      <trkpt lat="48.55595" lon="2.10464">
        <ele>155</ele>
        <time>2022-03-06T08:24:05Z</time>
      </trkpt>
      <trkpt lat="48.55593" lon="2.10459">
        <ele>155</ele>
        <time>2022-03-06T08:24:08Z</time>
      </trkpt>
      <trkpt lat="48.55591" lon="2.10456">
        <ele>155</ele>
        <time>2022-03-06T08:24:10Z</time>
      </trkpt>
      <trkpt lat="48.55588" lon="2.10451">
        <ele>155</ele>
        <time>2022-03-06T08:24:13Z</time>
      </trkpt>
      <trkpt lat="48.55586" lon="2.10447">
        <ele>155</ele>
        <time>2022-03-06T08:24:15Z</time>
      </trkpt>
      <trkpt lat="48.55584" lon="2.10444">
        <ele>155</ele>
        <time>2022-03-06T08:24:17Z</time>
      </trkpt>
      <trkpt lat="48.55583" lon="2.1044">
        <ele>155</ele>
        <time>2022-03-06T08:24:20Z</time>
      </trkpt>
      <trkpt lat="48.55582" lon="2.10436">
        <ele>155</ele>
        <time>2022-03-06T08:24:22Z</time>
      </trkpt>
      <trkpt lat="48.5558" lon="2.10432">
        <ele>155</ele>
        <time>2022-03-06T08:24:24Z</time>
      </trkpt>
      <trkpt lat="48.55579" lon="2.10428">
        <ele>155</ele>
        <time>2022-03-06T08:24:26Z</time>
      </trkpt>
      <trkpt lat="48.55577" lon="2.10424">
        <ele>155</ele>
        <time>2022-03-06T08:24:28Z</time>
      </trkpt>
      <trkpt lat="48.55575" lon="2.1042">
        <ele>155</ele>
        <time>2022-03-06T08:24:30Z</time>
      </trkpt>
      <trkpt lat="48.55573" lon="2.10416">
        <ele>155</ele>
        <time>2022-03-06T08:24:32Z</time>
      </trkpt>
      <trkpt lat="48.55571" lon="2.10411">
        <ele>155</ele>
        <time>2022-03-06T08:24:35Z</time>
      </trkpt>
      <trkpt lat="48.5557" lon="2.10406">
        <ele>155</ele>
        <time>2022-03-06T08:24:38Z</time>
      </trkpt>
      <trkpt lat="48.55568" lon="2.10402">
        <ele>155</ele>
        <time>2022-03-06T08:24:40Z</time>
      </trkpt>
      <trkpt lat="48.55566" lon="2.10397">
        <ele>155</ele>
        <time>2022-03-06T08:24:42Z</time>
      </trkpt>
      <trkpt lat="48.55564" lon="2.10393">
        <ele>155</ele>
        <time>2022-03-06T08:24:44Z</time>
      </trkpt>
      <trkpt lat="48.55562" lon="2.10388">
        <ele>155</ele>
        <time>2022-03-06T08:24:47Z</time>
      </trkpt>
      <trkpt lat="48.55561" lon="2.10383">
        <ele>155</ele>
        <time>2022-03-06T08:24:49Z</time>
      </trkpt>
      <trkpt lat="48.55559" lon="2.10379">
        <ele>155</ele>
        <time>2022-03-06T08:24:51Z</time>
      </trkpt>
      <trkpt lat="48.55557" lon="2.10373">
        <ele>155</ele>
        <time>2022-03-06T08:24:54Z</time>
      </trkpt>
      <trkpt lat="48.55555" lon="2.10368">
        <ele>155</ele>
        <time>2022-03-06T08:24:57Z</time>
      </trkpt>
      <trkpt lat="48.55553" lon="2.10363">
        <ele>155</ele>
        <time>2022-03-06T08:24:59Z</time>
      </trkpt>
      <trkpt lat="48.55551" lon="2.10359">
        <ele>155</ele>
        <time>2022-03-06T08:25:01Z</time>
      </trkpt>
      <trkpt lat="48.5555" lon="2.10354">
        <ele>155</ele>
        <time>2022-03-06T08:25:04Z</time>
      </trkpt>
      <trkpt lat="48.55548" lon="2.10349">
        <ele>155</ele>
        <time>2022-03-06T08:25:06Z</time>
      </trkpt>
      <trkpt lat="48.55547" lon="2.10345">
        <ele>155</ele>
        <time>2022-03-06T08:25:08Z</time>
      </trkpt>
      <trkpt lat="48.55545" lon="2.10339">
        <ele>155</ele>
        <time>2022-03-06T08:25:12Z</time>
      </trkpt>
      <trkpt lat="48.55544" lon="2.10334">
        <ele>156</ele>
        <time>2022-03-06T08:25:14Z</time>
      </trkpt>
      <trkpt lat="48.55542" lon="2.10328">
        <ele>156</ele>
        <time>2022-03-06T08:25:16Z</time>
      </trkpt>
      <trkpt lat="48.55541" lon="2.10323">
        <ele>156</ele>
        <time>2022-03-06T08:25:18Z</time>
      </trkpt>
      <trkpt lat="48.55539" lon="2.10318">
        <ele>156</ele>
        <time>2022-03-06T08:25:21Z</time>
      </trkpt>
      <trkpt lat="48.55537" lon="2.10314">
        <ele>156</ele>
        <time>2022-03-06T08:25:24Z</time>
      </trkpt>
      <trkpt lat="48.55535" lon="2.1031">
        <ele>156</ele>
        <time>2022-03-06T08:25:26Z</time>
      </trkpt>
      <trkpt lat="48.55533" lon="2.10306">
        <ele>156</ele>
        <time>2022-03-06T08:25:28Z</time>
      </trkpt>
      <trkpt lat="48.55532" lon="2.10302">
        <ele>156</ele>
        <time>2022-03-06T08:25:31Z</time>
      </trkpt>
      <trkpt lat="48.55531" lon="2.10297">
        <ele>156</ele>
        <time>2022-03-06T08:25:33Z</time>
      </trkpt>
      <trkpt lat="48.55529" lon="2.10293">
        <ele>156</ele>
        <time>2022-03-06T08:25:35Z</time>
      </trkpt>
      <trkpt lat="48.55528" lon="2.10289">
        <ele>156</ele>
        <time>2022-03-06T08:25:37Z</time>
      </trkpt>
      <trkpt lat="48.55526" lon="2.10284">
        <ele>156</ele>
        <time>2022-03-06T08:25:39Z</time>
      </trkpt>
      <trkpt lat="48.55525" lon="2.10279">
        <ele>156</ele>
        <time>2022-03-06T08:25:41Z</time>
      </trkpt>
      <trkpt lat="48.55523" lon="2.10273">
        <ele>156</ele>
        <time>2022-03-06T08:25:44Z</time>
      </trkpt>
      <trkpt lat="48.55522" lon="2.10268">
        <ele>156</ele>
        <time>2022-03-06T08:25:47Z</time>
      </trkpt>
      <trkpt lat="48.55522" lon="2.10263">
        <ele>156</ele>
        <time>2022-03-06T08:25:50Z</time>
      </trkpt>
      <trkpt lat="48.55521" lon="2.10258">
        <ele>156</ele>
        <time>2022-03-06T08:25:53Z</time>
      </trkpt>
      <trkpt lat="48.55519" lon="2.10254">
        <ele>156</ele>
        <time>2022-03-06T08:25:55Z</time>
      </trkpt>
      <trkpt lat="48.55517" lon="2.10249">
        <ele>156</ele>
        <time>2022-03-06T08:25:58Z</time>
      </trkpt>
      <trkpt lat="48.55515" lon="2.10245">
        <ele>156</ele>
        <time>2022-03-06T08:26:00Z</time>
      </trkpt>
      <trkpt lat="48.55514" lon="2.1024">
        <ele>156</ele>
        <time>2022-03-06T08:26:02Z</time>
      </trkpt>
      <trkpt lat="48.55514" lon="2.10235">
        <ele>156</ele>
        <time>2022-03-06T08:26:04Z</time>
      </trkpt>
      <trkpt lat="48.55515" lon="2.10231">
        <ele>156</ele>
        <time>2022-03-06T08:26:06Z</time>
      </trkpt>
      <trkpt lat="48.55515" lon="2.10226">
        <ele>156</ele>
        <time>2022-03-06T08:26:08Z</time>
      </trkpt>
      <trkpt lat="48.55516" lon="2.1022">
        <ele>156</ele>
        <time>2022-03-06T08:26:11Z</time>
      </trkpt>
      <trkpt lat="48.55517" lon="2.10215">
        <ele>156</ele>
        <time>2022-03-06T08:26:13Z</time>
      </trkpt>
      <trkpt lat="48.55517" lon="2.10209">
        <ele>156</ele>
        <time>2022-03-06T08:26:16Z</time>
      </trkpt>
      <trkpt lat="48.55517" lon="2.10203">
        <ele>156</ele>
        <time>2022-03-06T08:26:19Z</time>
      </trkpt>
      <trkpt lat="48.55516" lon="2.10197">
        <ele>156</ele>
        <time>2022-03-06T08:26:21Z</time>
      </trkpt>
      <trkpt lat="48.55516" lon="2.10193">
        <ele>156</ele>
        <time>2022-03-06T08:26:23Z</time>
      </trkpt>
      <trkpt lat="48.55515" lon="2.10188">
        <ele>156</ele>
        <time>2022-03-06T08:26:26Z</time>
      </trkpt>
      <trkpt lat="48.55514" lon="2.10183">
        <ele>156</ele>
        <time>2022-03-06T08:26:28Z</time>
      </trkpt>
      <trkpt lat="48.55513" lon="2.10178">
        <ele>156</ele>
        <time>2022-03-06T08:26:31Z</time>
      </trkpt>
      <trkpt lat="48.55511" lon="2.10173">
        <ele>156</ele>
        <time>2022-03-06T08:26:33Z</time>
      </trkpt>
      <trkpt lat="48.55509" lon="2.10168">
        <ele>156</ele>
        <time>2022-03-06T08:26:36Z</time>
      </trkpt>
      <trkpt lat="48.55507" lon="2.10165">
        <ele>156</ele>
        <time>2022-03-06T08:26:38Z</time>
      </trkpt>
      <trkpt lat="48.55506" lon="2.1016">
        <ele>156</ele>
        <time>2022-03-06T08:26:40Z</time>
      </trkpt>
      <trkpt lat="48.55505" lon="2.10155">
        <ele>156</ele>
        <time>2022-03-06T08:26:43Z</time>
      </trkpt>
      <trkpt lat="48.55504" lon="2.1015">
        <ele>157</ele>
        <time>2022-03-06T08:26:46Z</time>
      </trkpt>
      <trkpt lat="48.55504" lon="2.10145">
        <ele>157</ele>
        <time>2022-03-06T08:26:50Z</time>
      </trkpt>
      <trkpt lat="48.55504" lon="2.10141">
        <ele>157</ele>
        <time>2022-03-06T08:26:53Z</time>
      </trkpt>
      <trkpt lat="48.55503" lon="2.10137">
        <ele>157</ele>
        <time>2022-03-06T08:26:56Z</time>
      </trkpt>
      <trkpt lat="48.55501" lon="2.10133">
        <ele>157</ele>
        <time>2022-03-06T08:27:24Z</time>
      </trkpt>
      <trkpt lat="48.555" lon="2.10129">
        <ele>157</ele>
        <time>2022-03-06T08:27:26Z</time>
      </trkpt>
      <trkpt lat="48.55498" lon="2.10126">
        <ele>157</ele>
        <time>2022-03-06T08:27:28Z</time>
      </trkpt>
      <trkpt lat="48.55495" lon="2.10121">
        <ele>157</ele>
        <time>2022-03-06T08:27:31Z</time>
      </trkpt>
      <trkpt lat="48.55493" lon="2.10116">
        <ele>157</ele>
        <time>2022-03-06T08:27:33Z</time>
      </trkpt>
      <trkpt lat="48.55492" lon="2.1011">
        <ele>157</ele>
        <time>2022-03-06T08:27:36Z</time>
      </trkpt>
      <trkpt lat="48.55491" lon="2.10105">
        <ele>157</ele>
        <time>2022-03-06T08:27:38Z</time>
      </trkpt>
      <trkpt lat="48.5549" lon="2.101">
        <ele>157</ele>
        <time>2022-03-06T08:27:41Z</time>
      </trkpt>
      <trkpt lat="48.55489" lon="2.10094">
        <ele>157</ele>
        <time>2022-03-06T08:27:43Z</time>
      </trkpt>
      <trkpt lat="48.55488" lon="2.10088">
        <ele>157</ele>
        <time>2022-03-06T08:27:45Z</time>
      </trkpt>
      <trkpt lat="48.55487" lon="2.10082">
        <ele>157</ele>
        <time>2022-03-06T08:27:49Z</time>
      </trkpt>
      <trkpt lat="48.55486" lon="2.10077">
        <ele>157</ele>
        <time>2022-03-06T08:27:51Z</time>
      </trkpt>
      <trkpt lat="48.55485" lon="2.10072">
        <ele>157</ele>
        <time>2022-03-06T08:27:53Z</time>
      </trkpt>
      <trkpt lat="48.55483" lon="2.10067">
        <ele>157</ele>
        <time>2022-03-06T08:27:57Z</time>
      </trkpt>
      <trkpt lat="48.55481" lon="2.10062">
        <ele>157</ele>
        <time>2022-03-06T08:28:05Z</time>
      </trkpt>
      <trkpt lat="48.5548" lon="2.10058">
        <ele>157</ele>
        <time>2022-03-06T08:28:08Z</time>
      </trkpt>
      <trkpt lat="48.55479" lon="2.10053">
        <ele>157</ele>
        <time>2022-03-06T08:28:11Z</time>
      </trkpt>
      <trkpt lat="48.55478" lon="2.10048">
        <ele>157</ele>
        <time>2022-03-06T08:28:13Z</time>
      </trkpt>
      <trkpt lat="48.55477" lon="2.10044">
        <ele>157</ele>
        <time>2022-03-06T08:28:15Z</time>
      </trkpt>
      <trkpt lat="48.55477" lon="2.10039">
        <ele>157</ele>
        <time>2022-03-06T08:28:17Z</time>
      </trkpt>
      <trkpt lat="48.55476" lon="2.10035">
        <ele>157</ele>
        <time>2022-03-06T08:28:19Z</time>
      </trkpt>
      <trkpt lat="48.55475" lon="2.10031">
        <ele>157</ele>
        <time>2022-03-06T08:28:21Z</time>
      </trkpt>
      <trkpt lat="48.55473" lon="2.10027">
        <ele>157</ele>
        <time>2022-03-06T08:28:23Z</time>
      </trkpt>
      <trkpt lat="48.55472" lon="2.10023">
        <ele>157</ele>
        <time>2022-03-06T08:28:25Z</time>
      </trkpt>
      <trkpt lat="48.5547" lon="2.10018">
        <ele>157</ele>
        <time>2022-03-06T08:28:27Z</time>
      </trkpt>
      <trkpt lat="48.5547" lon="2.10014">
        <ele>157</ele>
        <time>2022-03-06T08:28:29Z</time>
      </trkpt>
      <trkpt lat="48.55469" lon="2.1001">
        <ele>157</ele>
        <time>2022-03-06T08:28:31Z</time>
      </trkpt>
      <trkpt lat="48.55467" lon="2.10005">
        <ele>157</ele>
        <time>2022-03-06T08:28:34Z</time>
      </trkpt>
      <trkpt lat="48.55466" lon="2.1">
        <ele>157</ele>
        <time>2022-03-06T08:28:36Z</time>
      </trkpt>
      <trkpt lat="48.55464" lon="2.09996">
        <ele>157</ele>
        <time>2022-03-06T08:28:38Z</time>
      </trkpt>
      <trkpt lat="48.55463" lon="2.09992">
        <ele>157</ele>
        <time>2022-03-06T08:28:40Z</time>
      </trkpt>
      <trkpt lat="48.55462" lon="2.09987">
        <ele>157</ele>
        <time>2022-03-06T08:28:43Z</time>
      </trkpt>
      <trkpt lat="48.55461" lon="2.09982">
        <ele>157</ele>
        <time>2022-03-06T08:28:45Z</time>
      </trkpt>
      <trkpt lat="48.55459" lon="2.09977">
        <ele>157</ele>
        <time>2022-03-06T08:28:47Z</time>
      </trkpt>
      <trkpt lat="48.55458" lon="2.09973">
        <ele>157</ele>
        <time>2022-03-06T08:28:49Z</time>
      </trkpt>
      <trkpt lat="48.55457" lon="2.09967">
        <ele>157</ele>
        <time>2022-03-06T08:28:52Z</time>
      </trkpt>
      <trkpt lat="48.55456" lon="2.09963">
        <ele>157</ele>
        <time>2022-03-06T08:28:54Z</time>
      </trkpt>
      <trkpt lat="48.55455" lon="2.09957">
        <ele>157</ele>
        <time>2022-03-06T08:28:57Z</time>
      </trkpt>
      <trkpt lat="48.55453" lon="2.09951">
        <ele>157</ele>
        <time>2022-03-06T08:28:59Z</time>
      </trkpt>
      <trkpt lat="48.55452" lon="2.09946">
        <ele>157</ele>
        <time>2022-03-06T08:29:02Z</time>
      </trkpt>
      <trkpt lat="48.5545" lon="2.09942">
        <ele>157</ele>
        <time>2022-03-06T08:29:04Z</time>
      </trkpt>
      <trkpt lat="48.55448" lon="2.09938">
        <ele>157</ele>
        <time>2022-03-06T08:29:06Z</time>
      </trkpt>
      <trkpt lat="48.55447" lon="2.09934">
        <ele>157</ele>
        <time>2022-03-06T08:29:08Z</time>
      </trkpt>
      <trkpt lat="48.55446" lon="2.0993">
        <ele>157</ele>
        <time>2022-03-06T08:29:10Z</time>
      </trkpt>
      <trkpt lat="48.55444" lon="2.09926">
        <ele>157</ele>
        <time>2022-03-06T08:29:13Z</time>
      </trkpt>
      <trkpt lat="48.55443" lon="2.09921">
        <ele>157</ele>
        <time>2022-03-06T08:29:15Z</time>
      </trkpt>
      <trkpt lat="48.55441" lon="2.09917">
        <ele>157</ele>
        <time>2022-03-06T08:29:18Z</time>
      </trkpt>
      <trkpt lat="48.55439" lon="2.09911">
        <ele>157</ele>
        <time>2022-03-06T08:29:21Z</time>
      </trkpt>
      <trkpt lat="48.55438" lon="2.09906">
        <ele>157</ele>
        <time>2022-03-06T08:29:24Z</time>
      </trkpt>
      <trkpt lat="48.55436" lon="2.09901">
        <ele>157</ele>
        <time>2022-03-06T08:29:27Z</time>
      </trkpt>
      <trkpt lat="48.55434" lon="2.09896">
        <ele>157</ele>
        <time>2022-03-06T08:29:29Z</time>
      </trkpt>
      <trkpt lat="48.55433" lon="2.09891">
        <ele>157</ele>
        <time>2022-03-06T08:29:32Z</time>
      </trkpt>
      <trkpt lat="48.55432" lon="2.09887">
        <ele>158</ele>
        <time>2022-03-06T08:29:34Z</time>
      </trkpt>
      <trkpt lat="48.5543" lon="2.09883">
        <ele>157</ele>
        <time>2022-03-06T08:29:36Z</time>
      </trkpt>
      <trkpt lat="48.55429" lon="2.09878">
        <ele>157</ele>
        <time>2022-03-06T08:29:38Z</time>
      </trkpt>
      <trkpt lat="48.55428" lon="2.09872">
        <ele>157</ele>
        <time>2022-03-06T08:29:41Z</time>
      </trkpt>
      <trkpt lat="48.55427" lon="2.09866">
        <ele>158</ele>
        <time>2022-03-06T08:29:44Z</time>
      </trkpt>
      <trkpt lat="48.55427" lon="2.0986">
        <ele>158</ele>
        <time>2022-03-06T08:29:47Z</time>
      </trkpt>
      <trkpt lat="48.55427" lon="2.09855">
        <ele>158</ele>
        <time>2022-03-06T08:29:49Z</time>
      </trkpt>
      <trkpt lat="48.55426" lon="2.0985">
        <ele>157</ele>
        <time>2022-03-06T08:29:51Z</time>
      </trkpt>
      <trkpt lat="48.55425" lon="2.09845">
        <ele>157</ele>
        <time>2022-03-06T08:29:52Z</time>
      </trkpt>
      <trkpt lat="48.55424" lon="2.0984">
        <ele>157</ele>
        <time>2022-03-06T08:29:54Z</time>
      </trkpt>
      <trkpt lat="48.55423" lon="2.09835">
        <ele>157</ele>
        <time>2022-03-06T08:29:56Z</time>
      </trkpt>
      <trkpt lat="48.55422" lon="2.0983">
        <ele>157</ele>
        <time>2022-03-06T08:29:59Z</time>
      </trkpt>
      <trkpt lat="48.55421" lon="2.09824">
        <ele>157</ele>
        <time>2022-03-06T08:30:02Z</time>
      </trkpt>
      <trkpt lat="48.5542" lon="2.09818">
        <ele>157</ele>
        <time>2022-03-06T08:30:05Z</time>
      </trkpt>
      <trkpt lat="48.5542" lon="2.09814">
        <ele>157</ele>
        <time>2022-03-06T08:30:07Z</time>
      </trkpt>
      <trkpt lat="48.5542" lon="2.09808">
        <ele>157</ele>
        <time>2022-03-06T08:30:09Z</time>
      </trkpt>
      <trkpt lat="48.5542" lon="2.09802">
        <ele>157</ele>
        <time>2022-03-06T08:30:12Z</time>
      </trkpt>
      <trkpt lat="48.55419" lon="2.09795">
        <ele>157</ele>
        <time>2022-03-06T08:30:14Z</time>
      </trkpt>
      <trkpt lat="48.55419" lon="2.09791">
        <ele>157</ele>
        <time>2022-03-06T08:30:16Z</time>
      </trkpt>
      <trkpt lat="48.55419" lon="2.09785">
        <ele>157</ele>
        <time>2022-03-06T08:30:18Z</time>
      </trkpt>
      <trkpt lat="48.55419" lon="2.0978">
        <ele>157</ele>
        <time>2022-03-06T08:30:20Z</time>
      </trkpt>
      <trkpt lat="48.55418" lon="2.09775">
        <ele>157</ele>
        <time>2022-03-06T08:30:22Z</time>
      </trkpt>
      <trkpt lat="48.55417" lon="2.09771">
        <ele>157</ele>
        <time>2022-03-06T08:30:24Z</time>
      </trkpt>
      <trkpt lat="48.55417" lon="2.09765">
        <ele>157</ele>
        <time>2022-03-06T08:30:27Z</time>
      </trkpt>
      <trkpt lat="48.55417" lon="2.0976">
        <ele>157</ele>
        <time>2022-03-06T08:30:29Z</time>
      </trkpt>
      <trkpt lat="48.55416" lon="2.09753">
        <ele>157</ele>
        <time>2022-03-06T08:30:32Z</time>
      </trkpt>
      <trkpt lat="48.55415" lon="2.09748">
        <ele>157</ele>
        <time>2022-03-06T08:30:34Z</time>
      </trkpt>
      <trkpt lat="48.55415" lon="2.09743">
        <ele>157</ele>
        <time>2022-03-06T08:30:37Z</time>
      </trkpt>
      <trkpt lat="48.55414" lon="2.09738">
        <ele>157</ele>
        <time>2022-03-06T08:30:39Z</time>
      </trkpt>
      <trkpt lat="48.55413" lon="2.09733">
        <ele>157</ele>
        <time>2022-03-06T08:30:41Z</time>
      </trkpt>
      <trkpt lat="48.55412" lon="2.09727">
        <ele>157</ele>
        <time>2022-03-06T08:30:43Z</time>
      </trkpt>
      <trkpt lat="48.55411" lon="2.09722">
        <ele>158</ele>
        <time>2022-03-06T08:30:45Z</time>
      </trkpt>
      <trkpt lat="48.5541" lon="2.09716">
        <ele>157</ele>
        <time>2022-03-06T08:30:47Z</time>
      </trkpt>
      <trkpt lat="48.5541" lon="2.0971">
        <ele>157</ele>
        <time>2022-03-06T08:30:49Z</time>
      </trkpt>
      <trkpt lat="48.55409" lon="2.09705">
        <ele>157</ele>
        <time>2022-03-06T08:30:51Z</time>
      </trkpt>
      <trkpt lat="48.55408" lon="2.09701">
        <ele>157</ele>
        <time>2022-03-06T08:30:53Z</time>
      </trkpt>
      <trkpt lat="48.55406" lon="2.09697">
        <ele>157</ele>
        <time>2022-03-06T08:30:55Z</time>
      </trkpt>
      <trkpt lat="48.55405" lon="2.09693">
        <ele>157</ele>
        <time>2022-03-06T08:30:57Z</time>
      </trkpt>
      <trkpt lat="48.55404" lon="2.09689">
        <ele>157</ele>
        <time>2022-03-06T08:30:59Z</time>
      </trkpt>
      <trkpt lat="48.55403" lon="2.09685">
        <ele>157</ele>
        <time>2022-03-06T08:31:01Z</time>
      </trkpt>
      <trkpt lat="48.55403" lon="2.0968">
        <ele>157</ele>
        <time>2022-03-06T08:31:03Z</time>
      </trkpt>
      <trkpt lat="48.55405" lon="2.09676">
        <ele>157</ele>
        <time>2022-03-06T08:31:07Z</time>
      </trkpt>
      <trkpt lat="48.55405" lon="2.0967">
        <ele>157</ele>
        <time>2022-03-06T08:31:09Z</time>
      </trkpt>
      <trkpt lat="48.55406" lon="2.09665">
        <ele>157</ele>
        <time>2022-03-06T08:31:11Z</time>
      </trkpt>
      <trkpt lat="48.55405" lon="2.09659">
        <ele>157</ele>
        <time>2022-03-06T08:31:14Z</time>
      </trkpt>
      <trkpt lat="48.55403" lon="2.09655">
        <ele>157</ele>
        <time>2022-03-06T08:31:18Z</time>
      </trkpt>
      <trkpt lat="48.55402" lon="2.09651">
        <ele>157</ele>
        <time>2022-03-06T08:31:25Z</time>
      </trkpt>
      <trkpt lat="48.55399" lon="2.0965">
        <ele>157</ele>
        <time>2022-03-06T08:31:59Z</time>
      </trkpt>
      <trkpt lat="48.55397" lon="2.09647">
        <ele>157</ele>
        <time>2022-03-06T08:32:02Z</time>
      </trkpt>
      <trkpt lat="48.55395" lon="2.09644">
        <ele>157</ele>
        <time>2022-03-06T08:32:05Z</time>
      </trkpt>
      <trkpt lat="48.55393" lon="2.0964">
        <ele>157</ele>
        <time>2022-03-06T08:32:07Z</time>
      </trkpt>
      <trkpt lat="48.55392" lon="2.09637">
        <ele>157</ele>
        <time>2022-03-06T08:32:09Z</time>
      </trkpt>
      <trkpt lat="48.55389" lon="2.09632">
        <ele>157</ele>
        <time>2022-03-06T08:32:11Z</time>
      </trkpt>
      <trkpt lat="48.55388" lon="2.09628">
        <ele>157</ele>
        <time>2022-03-06T08:32:13Z</time>
      </trkpt>
      <trkpt lat="48.55386" lon="2.09623">
        <ele>157</ele>
        <time>2022-03-06T08:32:16Z</time>
      </trkpt>
      <trkpt lat="48.55384" lon="2.09618">
        <ele>157</ele>
        <time>2022-03-06T08:32:19Z</time>
      </trkpt>
      <trkpt lat="48.55382" lon="2.09615">
        <ele>157</ele>
        <time>2022-03-06T08:32:21Z</time>
      </trkpt>
      <trkpt lat="48.5538" lon="2.0961">
        <ele>157</ele>
        <time>2022-03-06T08:32:23Z</time>
      </trkpt>
      <trkpt lat="48.55379" lon="2.09606">
        <ele>157</ele>
        <time>2022-03-06T08:32:25Z</time>
      </trkpt>
      <trkpt lat="48.55377" lon="2.09602">
        <ele>157</ele>
        <time>2022-03-06T08:32:27Z</time>
      </trkpt>
      <trkpt lat="48.55376" lon="2.09598">
        <ele>157</ele>
        <time>2022-03-06T08:32:29Z</time>
      </trkpt>
      <trkpt lat="48.55375" lon="2.09594">
        <ele>157</ele>
        <time>2022-03-06T08:32:31Z</time>
      </trkpt>
      <trkpt lat="48.55373" lon="2.09589">
        <ele>157</ele>
        <time>2022-03-06T08:32:34Z</time>
      </trkpt>
      <trkpt lat="48.55373" lon="2.09584">
        <ele>157</ele>
        <time>2022-03-06T08:32:36Z</time>
      </trkpt>
      <trkpt lat="48.55373" lon="2.09578">
        <ele>157</ele>
        <time>2022-03-06T08:32:39Z</time>
      </trkpt>
      <trkpt lat="48.55373" lon="2.09573">
        <ele>157</ele>
        <time>2022-03-06T08:32:41Z</time>
      </trkpt>
      <trkpt lat="48.55372" lon="2.09568">
        <ele>157</ele>
        <time>2022-03-06T08:32:43Z</time>
      </trkpt>
      <trkpt lat="48.55369" lon="2.09564">
        <ele>157</ele>
        <time>2022-03-06T08:32:46Z</time>
      </trkpt>
      <trkpt lat="48.55367" lon="2.09561">
        <ele>157</ele>
        <time>2022-03-06T08:32:48Z</time>
      </trkpt>
      <trkpt lat="48.55365" lon="2.09558">
        <ele>157</ele>
        <time>2022-03-06T08:32:51Z</time>
      </trkpt>
      <trkpt lat="48.55362" lon="2.09554">
        <ele>157</ele>
        <time>2022-03-06T08:32:53Z</time>
      </trkpt>
      <trkpt lat="48.5536" lon="2.09551">
        <ele>157</ele>
        <time>2022-03-06T08:32:55Z</time>
      </trkpt>
      <trkpt lat="48.55357" lon="2.09548">
        <ele>157</ele>
        <time>2022-03-06T08:32:57Z</time>
      </trkpt>
      <trkpt lat="48.55354" lon="2.09546">
        <ele>157</ele>
        <time>2022-03-06T08:33:00Z</time>
      </trkpt>
      <trkpt lat="48.55352" lon="2.09544">
        <ele>157</ele>
        <time>2022-03-06T08:33:04Z</time>
      </trkpt>
      <trkpt lat="48.55351" lon="2.0954">
        <ele>157</ele>
        <time>2022-03-06T08:33:07Z</time>
      </trkpt>
      <trkpt lat="48.5535" lon="2.09536">
        <ele>157</ele>
        <time>2022-03-06T08:33:09Z</time>
      </trkpt>
      <trkpt lat="48.55348" lon="2.09532">
        <ele>157</ele>
        <time>2022-03-06T08:33:12Z</time>
      </trkpt>
      <trkpt lat="48.55347" lon="2.09528">
        <ele>157</ele>
        <time>2022-03-06T08:33:14Z</time>
      </trkpt>
      <trkpt lat="48.55345" lon="2.09524">
        <ele>157</ele>
        <time>2022-03-06T08:33:17Z</time>
      </trkpt>
      <trkpt lat="48.55342" lon="2.09523">
        <ele>157</ele>
        <time>2022-03-06T08:33:19Z</time>
      </trkpt>
      <trkpt lat="48.55339" lon="2.09522">
        <ele>157</ele>
        <time>2022-03-06T08:33:21Z</time>
      </trkpt>
      <trkpt lat="48.55337" lon="2.09519">
        <ele>157</ele>
        <time>2022-03-06T08:33:24Z</time>
      </trkpt>
      <trkpt lat="48.55335" lon="2.09515">
        <ele>157</ele>
        <time>2022-03-06T08:33:27Z</time>
      </trkpt>
      <trkpt lat="48.55333" lon="2.09511">
        <ele>157</ele>
        <time>2022-03-06T08:33:29Z</time>
      </trkpt>
      <trkpt lat="48.55331" lon="2.09508">
        <ele>157</ele>
        <time>2022-03-06T08:33:32Z</time>
      </trkpt>
      <trkpt lat="48.55328" lon="2.09504">
        <ele>157</ele>
        <time>2022-03-06T08:33:35Z</time>
      </trkpt>
      <trkpt lat="48.55327" lon="2.095">
        <ele>157</ele>
        <time>2022-03-06T08:33:37Z</time>
      </trkpt>
      <trkpt lat="48.55325" lon="2.09495">
        <ele>157</ele>
        <time>2022-03-06T08:33:39Z</time>
      </trkpt>
      <trkpt lat="48.55323" lon="2.09491">
        <ele>157</ele>
        <time>2022-03-06T08:33:41Z</time>
      </trkpt>
      <trkpt lat="48.55321" lon="2.09487">
        <ele>157</ele>
        <time>2022-03-06T08:33:43Z</time>
      </trkpt>
      <trkpt lat="48.55319" lon="2.09483">
        <ele>157</ele>
        <time>2022-03-06T08:33:45Z</time>
      </trkpt>
      <trkpt lat="48.55318" lon="2.09479">
        <ele>157</ele>
        <time>2022-03-06T08:33:47Z</time>
      </trkpt>
      <trkpt lat="48.55316" lon="2.09474">
        <ele>157</ele>
        <time>2022-03-06T08:33:49Z</time>
      </trkpt>
      <trkpt lat="48.55315" lon="2.0947">
        <ele>157</ele>
        <time>2022-03-06T08:33:51Z</time>
      </trkpt>
      <trkpt lat="48.55313" lon="2.09466">
        <ele>157</ele>
        <time>2022-03-06T08:33:53Z</time>
      </trkpt>
      <trkpt lat="48.55312" lon="2.09462">
        <ele>157</ele>
        <time>2022-03-06T08:33:55Z</time>
      </trkpt>
      <trkpt lat="48.5531" lon="2.09457">
        <ele>157</ele>
        <time>2022-03-06T08:33:57Z</time>
      </trkpt>
      <trkpt lat="48.55309" lon="2.09453">
        <ele>157</ele>
        <time>2022-03-06T08:33:59Z</time>
      </trkpt>
      <trkpt lat="48.55307" lon="2.09447">
        <ele>157</ele>
        <time>2022-03-06T08:34:02Z</time>
      </trkpt>
      <trkpt lat="48.55305" lon="2.09442">
        <ele>157</ele>
        <time>2022-03-06T08:34:05Z</time>
      </trkpt>
      <trkpt lat="48.55303" lon="2.09437">
        <ele>157</ele>
        <time>2022-03-06T08:34:07Z</time>
      </trkpt>
      <trkpt lat="48.55301" lon="2.09432">
        <ele>157</ele>
        <time>2022-03-06T08:34:10Z</time>
      </trkpt>
      <trkpt lat="48.55299" lon="2.09427">
        <ele>157</ele>
        <time>2022-03-06T08:34:12Z</time>
      </trkpt>
      <trkpt lat="48.55298" lon="2.09423">
        <ele>157</ele>
        <time>2022-03-06T08:34:14Z</time>
      </trkpt>
      <trkpt lat="48.55297" lon="2.09419">
        <ele>157</ele>
        <time>2022-03-06T08:34:16Z</time>
      </trkpt>
      <trkpt lat="48.55295" lon="2.09414">
        <ele>157</ele>
        <time>2022-03-06T08:34:18Z</time>
      </trkpt>
      <trkpt lat="48.55294" lon="2.0941">
        <ele>157</ele>
        <time>2022-03-06T08:34:20Z</time>
      </trkpt>
      <trkpt lat="48.55295" lon="2.09411">
        <ele>157</ele>
        <time>2022-03-06T08:34:24Z</time>
      </trkpt>
      <trkpt lat="48.55294" lon="2.09407">
        <ele>157</ele>
        <time>2022-03-06T08:34:34Z</time>
      </trkpt>
      <trkpt lat="48.55292" lon="2.09404">
        <ele>157</ele>
        <time>2022-03-06T08:34:36Z</time>
      </trkpt>
      <trkpt lat="48.55291" lon="2.094">
        <ele>157</ele>
        <time>2022-03-06T08:34:38Z</time>
      </trkpt>
      <trkpt lat="48.55289" lon="2.09396">
        <ele>157</ele>
        <time>2022-03-06T08:34:41Z</time>
      </trkpt>
      <trkpt lat="48.55288" lon="2.09392">
        <ele>157</ele>
        <time>2022-03-06T08:34:43Z</time>
      </trkpt>
      <trkpt lat="48.55286" lon="2.09388">
        <ele>157</ele>
        <time>2022-03-06T08:34:45Z</time>
      </trkpt>
      <trkpt lat="48.55284" lon="2.09384">
        <ele>157</ele>
        <time>2022-03-06T08:34:48Z</time>
      </trkpt>
      <trkpt lat="48.55282" lon="2.09379">
        <ele>157</ele>
        <time>2022-03-06T08:34:51Z</time>
      </trkpt>
      <trkpt lat="48.55281" lon="2.09375">
        <ele>157</ele>
        <time>2022-03-06T08:34:54Z</time>
      </trkpt>
      <trkpt lat="48.55283" lon="2.09372">
        <ele>157</ele>
        <time>2022-03-06T08:34:58Z</time>
      </trkpt>
      <trkpt lat="48.55285" lon="2.0937">
        <ele>157</ele>
        <time>2022-03-06T08:35:01Z</time>
      </trkpt>
      <trkpt lat="48.55285" lon="2.09365">
        <ele>157</ele>
        <time>2022-03-06T08:35:04Z</time>
      </trkpt>
      <trkpt lat="48.55284" lon="2.09362">
        <ele>157</ele>
        <time>2022-03-06T08:35:06Z</time>
      </trkpt>
      <trkpt lat="48.55283" lon="2.09358">
        <ele>157</ele>
        <time>2022-03-06T08:35:10Z</time>
      </trkpt>
      <trkpt lat="48.55282" lon="2.09353">
        <ele>157</ele>
        <time>2022-03-06T08:35:12Z</time>
      </trkpt>
      <trkpt lat="48.55281" lon="2.09349">
        <ele>157</ele>
        <time>2022-03-06T08:35:14Z</time>
      </trkpt>
      <trkpt lat="48.55279" lon="2.09346">
        <ele>157</ele>
        <time>2022-03-06T08:35:16Z</time>
      </trkpt>
      <trkpt lat="48.55277" lon="2.09341">
        <ele>157</ele>
        <time>2022-03-06T08:35:19Z</time>
      </trkpt>
      <trkpt lat="48.55275" lon="2.09337">
        <ele>157</ele>
        <time>2022-03-06T08:35:21Z</time>
      </trkpt>
      <trkpt lat="48.55274" lon="2.09332">
        <ele>157</ele>
        <time>2022-03-06T08:35:23Z</time>
      </trkpt>
      <trkpt lat="48.55272" lon="2.09328">
        <ele>157</ele>
        <time>2022-03-06T08:35:26Z</time>
      </trkpt>
      <trkpt lat="48.5527" lon="2.09323">
        <ele>157</ele>
        <time>2022-03-06T08:35:29Z</time>
      </trkpt>
      <trkpt lat="48.55269" lon="2.09319">
        <ele>157</ele>
        <time>2022-03-06T08:35:31Z</time>
      </trkpt>
      <trkpt lat="48.55267" lon="2.09314">
        <ele>157</ele>
        <time>2022-03-06T08:35:34Z</time>
      </trkpt>
      <trkpt lat="48.55266" lon="2.09309">
        <ele>157</ele>
        <time>2022-03-06T08:35:36Z</time>
      </trkpt>
      <trkpt lat="48.55264" lon="2.09305">
        <ele>157</ele>
        <time>2022-03-06T08:35:38Z</time>
      </trkpt>
      <trkpt lat="48.55262" lon="2.09301">
        <ele>157</ele>
        <time>2022-03-06T08:35:40Z</time>
      </trkpt>
      <trkpt lat="48.5526" lon="2.09297">
        <ele>157</ele>
        <time>2022-03-06T08:35:42Z</time>
      </trkpt>
      <trkpt lat="48.55258" lon="2.09292">
        <ele>157</ele>
        <time>2022-03-06T08:35:45Z</time>
      </trkpt>
      <trkpt lat="48.55257" lon="2.09288">
        <ele>157</ele>
        <time>2022-03-06T08:35:47Z</time>
      </trkpt>
      <trkpt lat="48.55256" lon="2.09284">
        <ele>157</ele>
        <time>2022-03-06T08:35:49Z</time>
      </trkpt>
      <trkpt lat="48.55255" lon="2.0928">
        <ele>157</ele>
        <time>2022-03-06T08:35:51Z</time>
      </trkpt>
      <trkpt lat="48.55252" lon="2.09277">
        <ele>157</ele>
        <time>2022-03-06T08:35:54Z</time>
      </trkpt>
      <trkpt lat="48.55251" lon="2.09274">
        <ele>157</ele>
        <time>2022-03-06T08:35:56Z</time>
      </trkpt>
      <trkpt lat="48.55248" lon="2.0927">
        <ele>157</ele>
        <time>2022-03-06T08:35:58Z</time>
      </trkpt>
      <trkpt lat="48.55247" lon="2.09266">
        <ele>157</ele>
        <time>2022-03-06T08:36:00Z</time>
      </trkpt>
      <trkpt lat="48.55245" lon="2.09262">
        <ele>157</ele>
        <time>2022-03-06T08:36:02Z</time>
      </trkpt>
      <trkpt lat="48.55243" lon="2.09258">
        <ele>157</ele>
        <time>2022-03-06T08:36:04Z</time>
      </trkpt>
      <trkpt lat="48.55242" lon="2.09254">
        <ele>157</ele>
        <time>2022-03-06T08:36:07Z</time>
      </trkpt>
      <trkpt lat="48.5524" lon="2.09249">
        <ele>157</ele>
        <time>2022-03-06T08:36:10Z</time>
      </trkpt>
      <trkpt lat="48.55238" lon="2.09245">
        <ele>157</ele>
        <time>2022-03-06T08:36:12Z</time>
      </trkpt>
      <trkpt lat="48.55236" lon="2.0924">
        <ele>157</ele>
        <time>2022-03-06T08:36:15Z</time>
      </trkpt>
      <trkpt lat="48.55235" lon="2.09235">
        <ele>157</ele>
        <time>2022-03-06T08:36:18Z</time>
      </trkpt>
      <trkpt lat="48.55233" lon="2.0923">
        <ele>157</ele>
        <time>2022-03-06T08:36:21Z</time>
      </trkpt>
      <trkpt lat="48.55231" lon="2.09226">
        <ele>157</ele>
        <time>2022-03-06T08:36:23Z</time>
      </trkpt>
      <trkpt lat="48.5523" lon="2.09221">
        <ele>157</ele>
        <time>2022-03-06T08:36:25Z</time>
      </trkpt>
      <trkpt lat="48.55228" lon="2.09217">
        <ele>157</ele>
        <time>2022-03-06T08:36:28Z</time>
      </trkpt>
      <trkpt lat="48.55226" lon="2.09212">
        <ele>157</ele>
        <time>2022-03-06T08:36:30Z</time>
      </trkpt>
      <trkpt lat="48.55224" lon="2.09208">
        <ele>157</ele>
        <time>2022-03-06T08:36:33Z</time>
      </trkpt>
      <trkpt lat="48.55222" lon="2.09203">
        <ele>157</ele>
        <time>2022-03-06T08:36:35Z</time>
      </trkpt>
      <trkpt lat="48.55221" lon="2.09198">
        <ele>157</ele>
        <time>2022-03-06T08:36:37Z</time>
      </trkpt>
      <trkpt lat="48.5522" lon="2.09194">
        <ele>157</ele>
        <time>2022-03-06T08:36:39Z</time>
      </trkpt>
      <trkpt lat="48.5522" lon="2.09189">
        <ele>157</ele>
        <time>2022-03-06T08:36:41Z</time>
      </trkpt>
      <trkpt lat="48.55219" lon="2.09185">
        <ele>157</ele>
        <time>2022-03-06T08:36:43Z</time>
      </trkpt>
      <trkpt lat="48.55218" lon="2.0918">
        <ele>156</ele>
        <time>2022-03-06T08:36:45Z</time>
      </trkpt>
      <trkpt lat="48.55217" lon="2.09175">
        <ele>156</ele>
        <time>2022-03-06T08:36:47Z</time>
      </trkpt>
      <trkpt lat="48.55216" lon="2.09171">
        <ele>156</ele>
        <time>2022-03-06T08:36:49Z</time>
      </trkpt>
      <trkpt lat="48.55214" lon="2.09165">
        <ele>156</ele>
        <time>2022-03-06T08:36:52Z</time>
      </trkpt>
      <trkpt lat="48.55213" lon="2.09161">
        <ele>156</ele>
        <time>2022-03-06T08:36:54Z</time>
      </trkpt>
      <trkpt lat="48.55213" lon="2.09156">
        <ele>156</ele>
        <time>2022-03-06T08:36:56Z</time>
      </trkpt>
      <trkpt lat="48.55213" lon="2.0915">
        <ele>156</ele>
        <time>2022-03-06T08:36:58Z</time>
      </trkpt>
      <trkpt lat="48.55213" lon="2.09145">
        <ele>156</ele>
        <time>2022-03-06T08:37:00Z</time>
      </trkpt>
      <trkpt lat="48.55212" lon="2.09141">
        <ele>156</ele>
        <time>2022-03-06T08:37:02Z</time>
      </trkpt>
      <trkpt lat="48.55211" lon="2.09135">
        <ele>156</ele>
        <time>2022-03-06T08:37:05Z</time>
      </trkpt>
      <trkpt lat="48.5521" lon="2.0913">
        <ele>156</ele>
        <time>2022-03-06T08:37:07Z</time>
      </trkpt>
      <trkpt lat="48.5521" lon="2.09123">
        <ele>156</ele>
        <time>2022-03-06T08:37:10Z</time>
      </trkpt>
      <trkpt lat="48.5521" lon="2.09118">
        <ele>156</ele>
        <time>2022-03-06T08:37:12Z</time>
      </trkpt>
      <trkpt lat="48.5521" lon="2.09113">
        <ele>156</ele>
        <time>2022-03-06T08:37:14Z</time>
      </trkpt>
      <trkpt lat="48.5521" lon="2.09108">
        <ele>156</ele>
        <time>2022-03-06T08:37:16Z</time>
      </trkpt>
      <trkpt lat="48.55209" lon="2.09103">
        <ele>156</ele>
        <time>2022-03-06T08:37:18Z</time>
      </trkpt>
      <trkpt lat="48.55209" lon="2.09098">
        <ele>156</ele>
        <time>2022-03-06T08:37:20Z</time>
      </trkpt>
      <trkpt lat="48.55208" lon="2.09093">
        <ele>156</ele>
        <time>2022-03-06T08:37:22Z</time>
      </trkpt>
      <trkpt lat="48.55207" lon="2.09088">
        <ele>155</ele>
        <time>2022-03-06T08:37:24Z</time>
      </trkpt>
      <trkpt lat="48.55207" lon="2.09083">
        <ele>155</ele>
        <time>2022-03-06T08:37:26Z</time>
      </trkpt>
      <trkpt lat="48.55207" lon="2.09077">
        <ele>155</ele>
        <time>2022-03-06T08:37:29Z</time>
      </trkpt>
      <trkpt lat="48.55208" lon="2.09073">
        <ele>155</ele>
        <time>2022-03-06T08:37:32Z</time>
      </trkpt>
      <trkpt lat="48.55208" lon="2.09068">
        <ele>155</ele>
        <time>2022-03-06T08:37:34Z</time>
      </trkpt>
      <trkpt lat="48.55208" lon="2.09063">
        <ele>155</ele>
        <time>2022-03-06T08:37:36Z</time>
      </trkpt>
      <trkpt lat="48.55209" lon="2.09058">
        <ele>155</ele>
        <time>2022-03-06T08:37:39Z</time>
      </trkpt>
      <trkpt lat="48.5521" lon="2.09053">
        <ele>155</ele>
        <time>2022-03-06T08:37:41Z</time>
      </trkpt>
      <trkpt lat="48.55209" lon="2.09049">
        <ele>155</ele>
        <time>2022-03-06T08:37:43Z</time>
      </trkpt>
      <trkpt lat="48.55209" lon="2.09044">
        <ele>155</ele>
        <time>2022-03-06T08:37:45Z</time>
      </trkpt>
      <trkpt lat="48.55209" lon="2.09039">
        <ele>155</ele>
        <time>2022-03-06T08:37:47Z</time>
      </trkpt>
      <trkpt lat="48.55209" lon="2.09034">
        <ele>155</ele>
        <time>2022-03-06T08:37:49Z</time>
      </trkpt>
      <trkpt lat="48.55208" lon="2.09029">
        <ele>155</ele>
        <time>2022-03-06T08:37:51Z</time>
      </trkpt>
      <trkpt lat="48.55206" lon="2.09023">
        <ele>155</ele>
        <time>2022-03-06T08:37:54Z</time>
      </trkpt>
      <trkpt lat="48.55206" lon="2.09018">
        <ele>155</ele>
        <time>2022-03-06T08:37:56Z</time>
      </trkpt>
      <trkpt lat="48.55205" lon="2.09014">
        <ele>155</ele>
        <time>2022-03-06T08:37:58Z</time>
      </trkpt>
      <trkpt lat="48.55204" lon="2.09009">
        <ele>155</ele>
        <time>2022-03-06T08:38:00Z</time>
      </trkpt>
      <trkpt lat="48.55203" lon="2.09003">
        <ele>155</ele>
        <time>2022-03-06T08:38:03Z</time>
      </trkpt>
      <trkpt lat="48.55203" lon="2.08997">
        <ele>155</ele>
        <time>2022-03-06T08:38:06Z</time>
      </trkpt>
      <trkpt lat="48.55203" lon="2.08992">
        <ele>155</ele>
        <time>2022-03-06T08:38:08Z</time>
      </trkpt>
      <trkpt lat="48.55203" lon="2.08986">
        <ele>155</ele>
        <time>2022-03-06T08:38:11Z</time>
      </trkpt>
      <trkpt lat="48.55202" lon="2.08981">
        <ele>155</ele>
        <time>2022-03-06T08:38:13Z</time>
      </trkpt>
      <trkpt lat="48.55201" lon="2.08977">
        <ele>155</ele>
        <time>2022-03-06T08:38:15Z</time>
      </trkpt>
      <trkpt lat="48.55201" lon="2.08972">
        <ele>155</ele>
        <time>2022-03-06T08:38:18Z</time>
      </trkpt>
      <trkpt lat="48.552" lon="2.08966">
        <ele>155</ele>
        <time>2022-03-06T08:38:20Z</time>
      </trkpt>
      <trkpt lat="48.552" lon="2.08961">
        <ele>155</ele>
        <time>2022-03-06T08:38:22Z</time>
      </trkpt>
      <trkpt lat="48.55199" lon="2.08956">
        <ele>155</ele>
        <time>2022-03-06T08:38:25Z</time>
      </trkpt>
      <trkpt lat="48.55198" lon="2.0895">
        <ele>155</ele>
        <time>2022-03-06T08:38:27Z</time>
      </trkpt>
      <trkpt lat="48.55196" lon="2.08943">
        <ele>155</ele>
        <time>2022-03-06T08:38:30Z</time>
      </trkpt>
      <trkpt lat="48.55195" lon="2.08938">
        <ele>155</ele>
        <time>2022-03-06T08:38:32Z</time>
      </trkpt>
      <trkpt lat="48.55195" lon="2.08933">
        <ele>155</ele>
        <time>2022-03-06T08:38:34Z</time>
      </trkpt>
      <trkpt lat="48.55194" lon="2.08929">
        <ele>155</ele>
        <time>2022-03-06T08:38:36Z</time>
      </trkpt>
      <trkpt lat="48.55194" lon="2.08924">
        <ele>155</ele>
        <time>2022-03-06T08:38:38Z</time>
      </trkpt>
      <trkpt lat="48.55194" lon="2.08919">
        <ele>155</ele>
        <time>2022-03-06T08:38:41Z</time>
      </trkpt>
      <trkpt lat="48.55193" lon="2.08913">
        <ele>155</ele>
        <time>2022-03-06T08:38:44Z</time>
      </trkpt>
      <trkpt lat="48.55193" lon="2.08908">
        <ele>155</ele>
        <time>2022-03-06T08:38:46Z</time>
      </trkpt>
      <trkpt lat="48.55193" lon="2.08903">
        <ele>155</ele>
        <time>2022-03-06T08:38:48Z</time>
      </trkpt>
      <trkpt lat="48.55194" lon="2.08897">
        <ele>155</ele>
        <time>2022-03-06T08:38:51Z</time>
      </trkpt>
      <trkpt lat="48.55194" lon="2.08891">
        <ele>155</ele>
        <time>2022-03-06T08:38:54Z</time>
      </trkpt>
      <trkpt lat="48.55195" lon="2.08886">
        <ele>155</ele>
        <time>2022-03-06T08:38:56Z</time>
      </trkpt>
      <trkpt lat="48.55195" lon="2.08882">
        <ele>155</ele>
        <time>2022-03-06T08:38:58Z</time>
      </trkpt>
      <trkpt lat="48.55196" lon="2.08876">
        <ele>155</ele>
        <time>2022-03-06T08:39:00Z</time>
      </trkpt>
      <trkpt lat="48.55196" lon="2.0887">
        <ele>155</ele>
        <time>2022-03-06T08:39:03Z</time>
      </trkpt>
      <trkpt lat="48.55196" lon="2.08863">
        <ele>155</ele>
        <time>2022-03-06T08:39:06Z</time>
      </trkpt>
      <trkpt lat="48.55196" lon="2.08858">
        <ele>155</ele>
        <time>2022-03-06T08:39:08Z</time>
      </trkpt>
      <trkpt lat="48.55197" lon="2.08853">
        <ele>155</ele>
        <time>2022-03-06T08:39:10Z</time>
      </trkpt>
      <trkpt lat="48.55197" lon="2.08847">
        <ele>155</ele>
        <time>2022-03-06T08:39:13Z</time>
      </trkpt>
      <trkpt lat="48.55198" lon="2.08841">
        <ele>155</ele>
        <time>2022-03-06T08:39:16Z</time>
      </trkpt>
      <trkpt lat="48.552" lon="2.08836">
        <ele>155</ele>
        <time>2022-03-06T08:39:18Z</time>
      </trkpt>
      <trkpt lat="48.55201" lon="2.08832">
        <ele>154</ele>
        <time>2022-03-06T08:39:21Z</time>
      </trkpt>
      <trkpt lat="48.55201" lon="2.08826">
        <ele>154</ele>
        <time>2022-03-06T08:39:23Z</time>
      </trkpt>
      <trkpt lat="48.55201" lon="2.08821">
        <ele>154</ele>
        <time>2022-03-06T08:39:25Z</time>
      </trkpt>
      <trkpt lat="48.55201" lon="2.08815">
        <ele>154</ele>
        <time>2022-03-06T08:39:27Z</time>
      </trkpt>
      <trkpt lat="48.55201" lon="2.0881">
        <ele>154</ele>
        <time>2022-03-06T08:39:29Z</time>
      </trkpt>
      <trkpt lat="48.55201" lon="2.08805">
        <ele>154</ele>
        <time>2022-03-06T08:39:32Z</time>
      </trkpt>
      <trkpt lat="48.55202" lon="2.088">
        <ele>154</ele>
        <time>2022-03-06T08:39:35Z</time>
      </trkpt>
      <trkpt lat="48.55201" lon="2.08795">
        <ele>154</ele>
        <time>2022-03-06T08:39:37Z</time>
      </trkpt>
      <trkpt lat="48.55201" lon="2.08789">
        <ele>154</ele>
        <time>2022-03-06T08:39:40Z</time>
      </trkpt>
      <trkpt lat="48.55202" lon="2.08785">
        <ele>154</ele>
        <time>2022-03-06T08:39:42Z</time>
      </trkpt>
      <trkpt lat="48.55204" lon="2.0878">
        <ele>154</ele>
        <time>2022-03-06T08:39:45Z</time>
      </trkpt>
      <trkpt lat="48.55206" lon="2.08776">
        <ele>154</ele>
        <time>2022-03-06T08:39:48Z</time>
      </trkpt>
      <trkpt lat="48.55206" lon="2.08771">
        <ele>154</ele>
        <time>2022-03-06T08:39:53Z</time>
      </trkpt>
      <trkpt lat="48.55206" lon="2.08767">
        <ele>154</ele>
        <time>2022-03-06T08:39:57Z</time>
      </trkpt>
      <trkpt lat="48.55206" lon="2.08767">
        <ele>154</ele>
        <time>2022-03-06T08:40:07Z</time>
      </trkpt>
      <trkpt lat="48.55205" lon="2.08763">
        <ele>154</ele>
        <time>2022-03-06T08:40:28Z</time>
      </trkpt>
      <trkpt lat="48.55207" lon="2.0876">
        <ele>154</ele>
        <time>2022-03-06T08:40:33Z</time>
      </trkpt>
      <trkpt lat="48.55208" lon="2.08761">
        <ele>154</ele>
        <time>2022-03-06T08:40:47Z</time>
      </trkpt>
      <trkpt lat="48.55211" lon="2.08762">
        <ele>154</ele>
        <time>2022-03-06T08:41:09Z</time>
      </trkpt>
      <trkpt lat="48.55213" lon="2.08759">
        <ele>154</ele>
        <time>2022-03-06T08:41:14Z</time>
      </trkpt>
      <trkpt lat="48.55215" lon="2.08756">
        <ele>154</ele>
        <time>2022-03-06T08:41:16Z</time>
      </trkpt>
      <trkpt lat="48.55217" lon="2.08752">
        <ele>154</ele>
        <time>2022-03-06T08:41:18Z</time>
      </trkpt>
      <trkpt lat="48.5522" lon="2.0875">
        <ele>154</ele>
        <time>2022-03-06T08:41:21Z</time>
      </trkpt>
      <trkpt lat="48.55222" lon="2.08752">
        <ele>154</ele>
        <time>2022-03-06T08:41:23Z</time>
      </trkpt>
      <trkpt lat="48.55225" lon="2.08754">
        <ele>154</ele>
        <time>2022-03-06T08:41:25Z</time>
      </trkpt>
      <trkpt lat="48.55228" lon="2.08757">
        <ele>154</ele>
        <time>2022-03-06T08:41:27Z</time>
      </trkpt>
      <trkpt lat="48.55231" lon="2.08759">
        <ele>155</ele>
        <time>2022-03-06T08:41:30Z</time>
      </trkpt>
      <trkpt lat="48.55235" lon="2.0876">
        <ele>155</ele>
        <time>2022-03-06T08:41:32Z</time>
      </trkpt>
      <trkpt lat="48.55238" lon="2.0876">
        <ele>155</ele>
        <time>2022-03-06T08:41:34Z</time>
      </trkpt>
      <trkpt lat="48.55241" lon="2.08759">
        <ele>155</ele>
        <time>2022-03-06T08:41:36Z</time>
      </trkpt>
      <trkpt lat="48.55244" lon="2.08759">
        <ele>155</ele>
        <time>2022-03-06T08:41:38Z</time>
      </trkpt>
      <trkpt lat="48.55248" lon="2.0876">
        <ele>155</ele>
        <time>2022-03-06T08:41:40Z</time>
      </trkpt>
      <trkpt lat="48.55251" lon="2.08761">
        <ele>155</ele>
        <time>2022-03-06T08:41:42Z</time>
      </trkpt>
      <trkpt lat="48.55255" lon="2.08761">
        <ele>155</ele>
        <time>2022-03-06T08:41:44Z</time>
      </trkpt>
      <trkpt lat="48.55258" lon="2.0876">
        <ele>155</ele>
        <time>2022-03-06T08:41:46Z</time>
      </trkpt>
      <trkpt lat="48.55262" lon="2.0876">
        <ele>155</ele>
        <time>2022-03-06T08:41:48Z</time>
      </trkpt>
      <trkpt lat="48.55265" lon="2.08761">
        <ele>155</ele>
        <time>2022-03-06T08:41:50Z</time>
      </trkpt>
      <trkpt lat="48.55268" lon="2.08761">
        <ele>155</ele>
        <time>2022-03-06T08:41:52Z</time>
      </trkpt>
      <trkpt lat="48.55271" lon="2.08761">
        <ele>155</ele>
        <time>2022-03-06T08:41:55Z</time>
      </trkpt>
      <trkpt lat="48.55274" lon="2.08761">
        <ele>155</ele>
        <time>2022-03-06T08:41:57Z</time>
      </trkpt>
      <trkpt lat="48.55278" lon="2.08761">
        <ele>155</ele>
        <time>2022-03-06T08:42:00Z</time>
      </trkpt>
      <trkpt lat="48.55282" lon="2.0876">
        <ele>155</ele>
        <time>2022-03-06T08:42:03Z</time>
      </trkpt>
      <trkpt lat="48.55287" lon="2.0876">
        <ele>155</ele>
        <time>2022-03-06T08:42:06Z</time>
      </trkpt>
      <trkpt lat="48.5529" lon="2.0876">
        <ele>156</ele>
        <time>2022-03-06T08:42:09Z</time>
      </trkpt>
      <trkpt lat="48.55294" lon="2.0876">
        <ele>156</ele>
        <time>2022-03-06T08:42:11Z</time>
      </trkpt>
      <trkpt lat="48.55297" lon="2.0876">
        <ele>156</ele>
        <time>2022-03-06T08:42:14Z</time>
      </trkpt>
      <trkpt lat="48.55301" lon="2.08761">
        <ele>156</ele>
        <time>2022-03-06T08:42:17Z</time>
      </trkpt>
      <trkpt lat="48.55304" lon="2.08761">
        <ele>156</ele>
        <time>2022-03-06T08:42:19Z</time>
      </trkpt>
      <trkpt lat="48.55308" lon="2.08762">
        <ele>156</ele>
        <time>2022-03-06T08:42:22Z</time>
      </trkpt>
      <trkpt lat="48.55311" lon="2.08762">
        <ele>156</ele>
        <time>2022-03-06T08:42:24Z</time>
      </trkpt>
      <trkpt lat="48.55314" lon="2.08763">
        <ele>156</ele>
        <time>2022-03-06T08:42:27Z</time>
      </trkpt>
      <trkpt lat="48.55317" lon="2.08764">
        <ele>156</ele>
        <time>2022-03-06T08:42:29Z</time>
      </trkpt>
      <trkpt lat="48.5532" lon="2.08764">
        <ele>156</ele>
        <time>2022-03-06T08:42:31Z</time>
      </trkpt>
      <trkpt lat="48.55324" lon="2.08765">
        <ele>156</ele>
        <time>2022-03-06T08:42:33Z</time>
      </trkpt>
      <trkpt lat="48.55327" lon="2.08766">
        <ele>156</ele>
        <time>2022-03-06T08:42:35Z</time>
      </trkpt>
      <trkpt lat="48.5533" lon="2.08766">
        <ele>156</ele>
        <time>2022-03-06T08:42:38Z</time>
      </trkpt>
      <trkpt lat="48.55334" lon="2.08767">
        <ele>156</ele>
        <time>2022-03-06T08:42:41Z</time>
      </trkpt>
      <trkpt lat="48.55339" lon="2.08768">
        <ele>156</ele>
        <time>2022-03-06T08:42:43Z</time>
      </trkpt>
      <trkpt lat="48.55342" lon="2.08769">
        <ele>156</ele>
        <time>2022-03-06T08:42:45Z</time>
      </trkpt>
      <trkpt lat="48.55346" lon="2.08769">
        <ele>156</ele>
        <time>2022-03-06T08:42:47Z</time>
      </trkpt>
      <trkpt lat="48.55349" lon="2.0877">
        <ele>156</ele>
        <time>2022-03-06T08:42:49Z</time>
      </trkpt>
      <trkpt lat="48.55352" lon="2.08771">
        <ele>157</ele>
        <time>2022-03-06T08:42:51Z</time>
      </trkpt>
      <trkpt lat="48.55355" lon="2.08772">
        <ele>157</ele>
        <time>2022-03-06T08:42:54Z</time>
      </trkpt>
      <trkpt lat="48.55357" lon="2.08774">
        <ele>157</ele>
        <time>2022-03-06T08:42:55Z</time>
      </trkpt>
      <trkpt lat="48.55361" lon="2.08777">
        <ele>157</ele>
        <time>2022-03-06T08:42:59Z</time>
      </trkpt>
      <trkpt lat="48.55365" lon="2.0878">
        <ele>157</ele>
        <time>2022-03-06T08:43:01Z</time>
      </trkpt>
      <trkpt lat="48.55369" lon="2.08781">
        <ele>157</ele>
        <time>2022-03-06T08:43:03Z</time>
      </trkpt>
      <trkpt lat="48.55373" lon="2.08783">
        <ele>157</ele>
        <time>2022-03-06T08:43:06Z</time>
      </trkpt>
      <trkpt lat="48.55376" lon="2.08785">
        <ele>157</ele>
        <time>2022-03-06T08:43:08Z</time>
      </trkpt>
      <trkpt lat="48.55379" lon="2.08788">
        <ele>157</ele>
        <time>2022-03-06T08:43:10Z</time>
      </trkpt>
      <trkpt lat="48.55382" lon="2.0879">
        <ele>157</ele>
        <time>2022-03-06T08:43:13Z</time>
      </trkpt>
      <trkpt lat="48.55385" lon="2.08792">
        <ele>157</ele>
        <time>2022-03-06T08:43:16Z</time>
      </trkpt>
      <trkpt lat="48.55389" lon="2.08793">
        <ele>157</ele>
        <time>2022-03-06T08:43:18Z</time>
      </trkpt>
      <trkpt lat="48.55393" lon="2.08794">
        <ele>157</ele>
        <time>2022-03-06T08:43:21Z</time>
      </trkpt>
      <trkpt lat="48.55398" lon="2.08795">
        <ele>157</ele>
        <time>2022-03-06T08:43:23Z</time>
      </trkpt>
      <trkpt lat="48.55401" lon="2.08796">
        <ele>157</ele>
        <time>2022-03-06T08:43:25Z</time>
      </trkpt>
      <trkpt lat="48.55404" lon="2.08796">
        <ele>157</ele>
        <time>2022-03-06T08:43:27Z</time>
      </trkpt>
      <trkpt lat="48.55408" lon="2.08797">
        <ele>158</ele>
        <time>2022-03-06T08:43:29Z</time>
      </trkpt>
      <trkpt lat="48.55411" lon="2.08798">
        <ele>158</ele>
        <time>2022-03-06T08:43:32Z</time>
      </trkpt>
      <trkpt lat="48.55416" lon="2.08799">
        <ele>158</ele>
        <time>2022-03-06T08:43:35Z</time>
      </trkpt>
      <trkpt lat="48.5542" lon="2.08799">
        <ele>158</ele>
        <time>2022-03-06T08:43:37Z</time>
      </trkpt>
      <trkpt lat="48.55423" lon="2.08799">
        <ele>158</ele>
        <time>2022-03-06T08:43:39Z</time>
      </trkpt>
      <trkpt lat="48.55427" lon="2.08799">
        <ele>158</ele>
        <time>2022-03-06T08:43:41Z</time>
      </trkpt>
      <trkpt lat="48.5543" lon="2.08799">
        <ele>158</ele>
        <time>2022-03-06T08:43:43Z</time>
      </trkpt>
      <trkpt lat="48.55433" lon="2.088">
        <ele>158</ele>
        <time>2022-03-06T08:43:45Z</time>
      </trkpt>
      <trkpt lat="48.55436" lon="2.08801">
        <ele>158</ele>
        <time>2022-03-06T08:43:46Z</time>
      </trkpt>
      <trkpt lat="48.55439" lon="2.08804">
        <ele>158</ele>
        <time>2022-03-06T08:43:48Z</time>
      </trkpt>
      <trkpt lat="48.55442" lon="2.08806">
        <ele>158</ele>
        <time>2022-03-06T08:43:50Z</time>
      </trkpt>
      <trkpt lat="48.55445" lon="2.08808">
        <ele>158</ele>
        <time>2022-03-06T08:43:53Z</time>
      </trkpt>
      <trkpt lat="48.55448" lon="2.0881">
        <ele>158</ele>
        <time>2022-03-06T08:43:55Z</time>
      </trkpt>
      <trkpt lat="48.55451" lon="2.08812">
        <ele>158</ele>
        <time>2022-03-06T08:43:58Z</time>
      </trkpt>
      <trkpt lat="48.55454" lon="2.08814">
        <ele>158</ele>
        <time>2022-03-06T08:44:00Z</time>
      </trkpt>
      <trkpt lat="48.55457" lon="2.08815">
        <ele>158</ele>
        <time>2022-03-06T08:44:01Z</time>
      </trkpt>
      <trkpt lat="48.5546" lon="2.08817">
        <ele>158</ele>
        <time>2022-03-06T08:44:03Z</time>
      </trkpt>
      <trkpt lat="48.55463" lon="2.08819">
        <ele>158</ele>
        <time>2022-03-06T08:44:05Z</time>
      </trkpt>
      <trkpt lat="48.55467" lon="2.08821">
        <ele>158</ele>
        <time>2022-03-06T08:44:07Z</time>
      </trkpt>
      <trkpt lat="48.5547" lon="2.08823">
        <ele>158</ele>
        <time>2022-03-06T08:44:10Z</time>
      </trkpt>
      <trkpt lat="48.55473" lon="2.08825">
        <ele>158</ele>
        <time>2022-03-06T08:44:12Z</time>
      </trkpt>
      <trkpt lat="48.55477" lon="2.08827">
        <ele>158</ele>
        <time>2022-03-06T08:44:15Z</time>
      </trkpt>
      <trkpt lat="48.5548" lon="2.0883">
        <ele>158</ele>
        <time>2022-03-06T08:44:17Z</time>
      </trkpt>
      <trkpt lat="48.55483" lon="2.08833">
        <ele>158</ele>
        <time>2022-03-06T08:44:20Z</time>
      </trkpt>
      <trkpt lat="48.55486" lon="2.08836">
        <ele>158</ele>
        <time>2022-03-06T08:44:22Z</time>
      </trkpt>
      <trkpt lat="48.55488" lon="2.08839">
        <ele>158</ele>
        <time>2022-03-06T08:44:25Z</time>
      </trkpt>
      <trkpt lat="48.55491" lon="2.08842">
        <ele>158</ele>
        <time>2022-03-06T08:44:27Z</time>
      </trkpt>
      <trkpt lat="48.55494" lon="2.08844">
        <ele>158</ele>
        <time>2022-03-06T08:44:29Z</time>
      </trkpt>
      <trkpt lat="48.55497" lon="2.08846">
        <ele>158</ele>
        <time>2022-03-06T08:44:31Z</time>
      </trkpt>
      <trkpt lat="48.555" lon="2.08849">
        <ele>158</ele>
        <time>2022-03-06T08:44:34Z</time>
      </trkpt>
      <trkpt lat="48.55503" lon="2.0885">
        <ele>158</ele>
        <time>2022-03-06T08:44:36Z</time>
      </trkpt>
      <trkpt lat="48.55506" lon="2.08853">
        <ele>158</ele>
        <time>2022-03-06T08:44:38Z</time>
      </trkpt>
      <trkpt lat="48.55509" lon="2.08855">
        <ele>158</ele>
        <time>2022-03-06T08:44:40Z</time>
      </trkpt>
      <trkpt lat="48.55513" lon="2.08855">
        <ele>158</ele>
        <time>2022-03-06T08:44:43Z</time>
      </trkpt>
      <trkpt lat="48.55516" lon="2.08857">
        <ele>158</ele>
        <time>2022-03-06T08:44:45Z</time>
      </trkpt>
      <trkpt lat="48.5552" lon="2.08859">
        <ele>158</ele>
        <time>2022-03-06T08:44:48Z</time>
      </trkpt>
      <trkpt lat="48.55523" lon="2.08863">
        <ele>158</ele>
        <time>2022-03-06T08:44:51Z</time>
      </trkpt>
      <trkpt lat="48.55526" lon="2.08866">
        <ele>158</ele>
        <time>2022-03-06T08:44:53Z</time>
      </trkpt>
      <trkpt lat="48.55529" lon="2.08868">
        <ele>158</ele>
        <time>2022-03-06T08:44:56Z</time>
      </trkpt>
      <trkpt lat="48.55532" lon="2.0887">
        <ele>158</ele>
        <time>2022-03-06T08:44:58Z</time>
      </trkpt>
      <trkpt lat="48.55536" lon="2.08872">
        <ele>158</ele>
        <time>2022-03-06T08:45:00Z</time>
      </trkpt>
      <trkpt lat="48.55539" lon="2.08875">
        <ele>158</ele>
        <time>2022-03-06T08:45:03Z</time>
      </trkpt>
      <trkpt lat="48.55543" lon="2.08878">
        <ele>158</ele>
        <time>2022-03-06T08:45:05Z</time>
      </trkpt>
      <trkpt lat="48.55545" lon="2.08881">
        <ele>158</ele>
        <time>2022-03-06T08:45:07Z</time>
      </trkpt>
      <trkpt lat="48.55548" lon="2.08884">
        <ele>158</ele>
        <time>2022-03-06T08:45:09Z</time>
      </trkpt>
      <trkpt lat="48.5555" lon="2.08887">
        <ele>158</ele>
        <time>2022-03-06T08:45:11Z</time>
      </trkpt>
      <trkpt lat="48.55553" lon="2.0889">
        <ele>157</ele>
        <time>2022-03-06T08:45:13Z</time>
      </trkpt>
      <trkpt lat="48.55557" lon="2.08894">
        <ele>157</ele>
        <time>2022-03-06T08:45:15Z</time>
      </trkpt>
      <trkpt lat="48.55559" lon="2.08897">
        <ele>157</ele>
        <time>2022-03-06T08:45:18Z</time>
      </trkpt>
      <trkpt lat="48.55562" lon="2.08902">
        <ele>157</ele>
        <time>2022-03-06T08:45:21Z</time>
      </trkpt>
      <trkpt lat="48.55565" lon="2.08906">
        <ele>157</ele>
        <time>2022-03-06T08:45:23Z</time>
      </trkpt>
      <trkpt lat="48.55568" lon="2.08909">
        <ele>157</ele>
        <time>2022-03-06T08:45:26Z</time>
      </trkpt>
      <trkpt lat="48.55571" lon="2.08914">
        <ele>157</ele>
        <time>2022-03-06T08:45:29Z</time>
      </trkpt>
      <trkpt lat="48.55575" lon="2.08918">
        <ele>157</ele>
        <time>2022-03-06T08:45:31Z</time>
      </trkpt>
      <trkpt lat="48.55577" lon="2.08922">
        <ele>157</ele>
        <time>2022-03-06T08:45:33Z</time>
      </trkpt>
      <trkpt lat="48.55579" lon="2.08925">
        <ele>157</ele>
        <time>2022-03-06T08:45:35Z</time>
      </trkpt>
      <trkpt lat="48.55582" lon="2.08928">
        <ele>157</ele>
        <time>2022-03-06T08:45:37Z</time>
      </trkpt>
      <trkpt lat="48.55585" lon="2.08932">
        <ele>157</ele>
        <time>2022-03-06T08:45:40Z</time>
      </trkpt>
      <trkpt lat="48.55588" lon="2.08936">
        <ele>157</ele>
        <time>2022-03-06T08:45:43Z</time>
      </trkpt>
      <trkpt lat="48.55592" lon="2.08939">
        <ele>156</ele>
        <time>2022-03-06T08:45:45Z</time>
      </trkpt>
      <trkpt lat="48.55595" lon="2.08941">
        <ele>156</ele>
        <time>2022-03-06T08:45:47Z</time>
      </trkpt>
      <trkpt lat="48.55599" lon="2.08944">
        <ele>156</ele>
        <time>2022-03-06T08:45:50Z</time>
      </trkpt>
      <trkpt lat="48.55603" lon="2.08947">
        <ele>156</ele>
        <time>2022-03-06T08:45:53Z</time>
      </trkpt>
      <trkpt lat="48.55605" lon="2.08951">
        <ele>156</ele>
        <time>2022-03-06T08:45:56Z</time>
      </trkpt>
      <trkpt lat="48.55608" lon="2.08953">
        <ele>156</ele>
        <time>2022-03-06T08:45:58Z</time>
      </trkpt>
      <trkpt lat="48.55611" lon="2.08955">
        <ele>156</ele>
        <time>2022-03-06T08:46:01Z</time>
      </trkpt>
      <trkpt lat="48.55614" lon="2.08958">
        <ele>156</ele>
        <time>2022-03-06T08:46:03Z</time>
      </trkpt>
      <trkpt lat="48.55618" lon="2.0896">
        <ele>156</ele>
        <time>2022-03-06T08:46:06Z</time>
      </trkpt>
      <trkpt lat="48.55621" lon="2.08962">
        <ele>156</ele>
        <time>2022-03-06T08:46:08Z</time>
      </trkpt>
      <trkpt lat="48.55624" lon="2.08963">
        <ele>156</ele>
        <time>2022-03-06T08:46:10Z</time>
      </trkpt>
      <trkpt lat="48.55627" lon="2.08965">
        <ele>155</ele>
        <time>2022-03-06T08:46:13Z</time>
      </trkpt>
      <trkpt lat="48.5563" lon="2.08968">
        <ele>155</ele>
        <time>2022-03-06T08:46:15Z</time>
      </trkpt>
      <trkpt lat="48.55633" lon="2.08971">
        <ele>155</ele>
        <time>2022-03-06T08:46:18Z</time>
      </trkpt>
      <trkpt lat="48.55636" lon="2.08975">
        <ele>155</ele>
        <time>2022-03-06T08:46:20Z</time>
      </trkpt>
      <trkpt lat="48.55638" lon="2.08979">
        <ele>155</ele>
        <time>2022-03-06T08:46:22Z</time>
      </trkpt>
      <trkpt lat="48.5564" lon="2.08982">
        <ele>155</ele>
        <time>2022-03-06T08:46:23Z</time>
      </trkpt>
      <trkpt lat="48.55643" lon="2.08985">
        <ele>155</ele>
        <time>2022-03-06T08:46:25Z</time>
      </trkpt>
      <trkpt lat="48.55644" lon="2.08989">
        <ele>155</ele>
        <time>2022-03-06T08:46:27Z</time>
      </trkpt>
      <trkpt lat="48.55646" lon="2.08992">
        <ele>155</ele>
        <time>2022-03-06T08:46:29Z</time>
      </trkpt>
      <trkpt lat="48.55648" lon="2.08995">
        <ele>155</ele>
        <time>2022-03-06T08:46:31Z</time>
      </trkpt>
      <trkpt lat="48.55651" lon="2.08997">
        <ele>155</ele>
        <time>2022-03-06T08:46:33Z</time>
      </trkpt>
      <trkpt lat="48.55654" lon="2.08999">
        <ele>155</ele>
        <time>2022-03-06T08:46:35Z</time>
      </trkpt>
      <trkpt lat="48.55657" lon="2.09">
        <ele>155</ele>
        <time>2022-03-06T08:46:37Z</time>
      </trkpt>
      <trkpt lat="48.55661" lon="2.09003">
        <ele>154</ele>
        <time>2022-03-06T08:46:40Z</time>
      </trkpt>
      <trkpt lat="48.55664" lon="2.09006">
        <ele>154</ele>
        <time>2022-03-06T08:46:42Z</time>
      </trkpt>
      <trkpt lat="48.55669" lon="2.09008">
        <ele>154</ele>
        <time>2022-03-06T08:46:44Z</time>
      </trkpt>
      <trkpt lat="48.55673" lon="2.0901">
        <ele>154</ele>
        <time>2022-03-06T08:46:46Z</time>
      </trkpt>
      <trkpt lat="48.55676" lon="2.09011">
        <ele>154</ele>
        <time>2022-03-06T08:46:49Z</time>
      </trkpt>
      <trkpt lat="48.5568" lon="2.09014">
        <ele>154</ele>
        <time>2022-03-06T08:46:52Z</time>
      </trkpt>
      <trkpt lat="48.55683" lon="2.09017">
        <ele>154</ele>
        <time>2022-03-06T08:46:54Z</time>
      </trkpt>
      <trkpt lat="48.55687" lon="2.0902">
        <ele>153</ele>
        <time>2022-03-06T08:46:56Z</time>
      </trkpt>
      <trkpt lat="48.55689" lon="2.09025">
        <ele>153</ele>
        <time>2022-03-06T08:46:58Z</time>
      </trkpt>
      <trkpt lat="48.5569" lon="2.09029">
        <ele>153</ele>
        <time>2022-03-06T08:47:00Z</time>
      </trkpt>
      <trkpt lat="48.55691" lon="2.09034">
        <ele>153</ele>
        <time>2022-03-06T08:47:03Z</time>
      </trkpt>
      <trkpt lat="48.55691" lon="2.0904">
        <ele>153</ele>
        <time>2022-03-06T08:47:06Z</time>
      </trkpt>
      <trkpt lat="48.55691" lon="2.09045">
        <ele>152</ele>
        <time>2022-03-06T08:47:08Z</time>
      </trkpt>
      <trkpt lat="48.55692" lon="2.09051">
        <ele>152</ele>
        <time>2022-03-06T08:47:11Z</time>
      </trkpt>
      <trkpt lat="48.55692" lon="2.09056">
        <ele>152</ele>
        <time>2022-03-06T08:47:14Z</time>
      </trkpt>
      <trkpt lat="48.55691" lon="2.09062">
        <ele>151</ele>
        <time>2022-03-06T08:47:17Z</time>
      </trkpt>
      <trkpt lat="48.55691" lon="2.09067">
        <ele>151</ele>
        <time>2022-03-06T08:47:21Z</time>
      </trkpt>
      <trkpt lat="48.55692" lon="2.09072">
        <ele>150</ele>
        <time>2022-03-06T08:47:24Z</time>
      </trkpt>
      <trkpt lat="48.55693" lon="2.09077">
        <ele>150</ele>
        <time>2022-03-06T08:47:28Z</time>
      </trkpt>
      <trkpt lat="48.55696" lon="2.09081">
        <ele>149</ele>
        <time>2022-03-06T08:47:33Z</time>
      </trkpt>
      <trkpt lat="48.55698" lon="2.09084">
        <ele>149</ele>
        <time>2022-03-06T08:47:37Z</time>
      </trkpt>
      <trkpt lat="48.557" lon="2.09088">
        <ele>148</ele>
        <time>2022-03-06T08:47:40Z</time>
      </trkpt>
      <trkpt lat="48.55702" lon="2.09091">
        <ele>148</ele>
        <time>2022-03-06T08:47:43Z</time>
      </trkpt>
      <trkpt lat="48.55704" lon="2.09095">
        <ele>148</ele>
        <time>2022-03-06T08:47:46Z</time>
      </trkpt>
      <trkpt lat="48.55708" lon="2.09098">
        <ele>147</ele>
        <time>2022-03-06T08:47:49Z</time>
      </trkpt>
      <trkpt lat="48.55711" lon="2.091">
        <ele>147</ele>
        <time>2022-03-06T08:47:51Z</time>
      </trkpt>
      <trkpt lat="48.55714" lon="2.09102">
        <ele>146</ele>
        <time>2022-03-06T08:47:54Z</time>
      </trkpt>
      <trkpt lat="48.55717" lon="2.09103">
        <ele>146</ele>
        <time>2022-03-06T08:47:56Z</time>
      </trkpt>
      <trkpt lat="48.55721" lon="2.09105">
        <ele>145</ele>
        <time>2022-03-06T08:47:59Z</time>
      </trkpt>
      <trkpt lat="48.55725" lon="2.09108">
        <ele>145</ele>
        <time>2022-03-06T08:48:02Z</time>
      </trkpt>
      <trkpt lat="48.55729" lon="2.0911">
        <ele>145</ele>
        <time>2022-03-06T08:48:05Z</time>
      </trkpt>
      <trkpt lat="48.55732" lon="2.09111">
        <ele>144</ele>
        <time>2022-03-06T08:48:07Z</time>
      </trkpt>
      <trkpt lat="48.55736" lon="2.09113">
        <ele>144</ele>
        <time>2022-03-06T08:48:10Z</time>
      </trkpt>
      <trkpt lat="48.55739" lon="2.09115">
        <ele>143</ele>
        <time>2022-03-06T08:48:12Z</time>
      </trkpt>
      <trkpt lat="48.55742" lon="2.09118">
        <ele>143</ele>
        <time>2022-03-06T08:48:15Z</time>
      </trkpt>
      <trkpt lat="48.55745" lon="2.09119">
        <ele>142</ele>
        <time>2022-03-06T08:48:17Z</time>
      </trkpt>
      <trkpt lat="48.55748" lon="2.09121">
        <ele>142</ele>
        <time>2022-03-06T08:48:19Z</time>
      </trkpt>
      <trkpt lat="48.55751" lon="2.09123">
        <ele>142</ele>
        <time>2022-03-06T08:48:22Z</time>
      </trkpt>
      <trkpt lat="48.55754" lon="2.09125">
        <ele>142</ele>
        <time>2022-03-06T08:48:24Z</time>
      </trkpt>
      <trkpt lat="48.55757" lon="2.09127">
        <ele>141</ele>
        <time>2022-03-06T08:48:26Z</time>
      </trkpt>
      <trkpt lat="48.5576" lon="2.0913">
        <ele>141</ele>
        <time>2022-03-06T08:48:28Z</time>
      </trkpt>
      <trkpt lat="48.55762" lon="2.09133">
        <ele>141</ele>
        <time>2022-03-06T08:48:31Z</time>
      </trkpt>
      <trkpt lat="48.55765" lon="2.09135">
        <ele>140</ele>
        <time>2022-03-06T08:48:34Z</time>
      </trkpt>
      <trkpt lat="48.55768" lon="2.09137">
        <ele>140</ele>
        <time>2022-03-06T08:48:36Z</time>
      </trkpt>
      <trkpt lat="48.55771" lon="2.09138">
        <ele>139</ele>
        <time>2022-03-06T08:48:39Z</time>
      </trkpt>
      <trkpt lat="48.55774" lon="2.0914">
        <ele>139</ele>
        <time>2022-03-06T08:48:41Z</time>
      </trkpt>
      <trkpt lat="48.55778" lon="2.09143">
        <ele>139</ele>
        <time>2022-03-06T08:48:43Z</time>
      </trkpt>
      <trkpt lat="48.55781" lon="2.09145">
        <ele>138</ele>
        <time>2022-03-06T08:48:45Z</time>
      </trkpt>
      <trkpt lat="48.55784" lon="2.09147">
        <ele>138</ele>
        <time>2022-03-06T08:48:47Z</time>
      </trkpt>
      <trkpt lat="48.55787" lon="2.09149">
        <ele>137</ele>
        <time>2022-03-06T08:48:50Z</time>
      </trkpt>
      <trkpt lat="48.5579" lon="2.0915">
        <ele>137</ele>
        <time>2022-03-06T08:48:52Z</time>
      </trkpt>
      <trkpt lat="48.55793" lon="2.09151">
        <ele>137</ele>
        <time>2022-03-06T08:48:54Z</time>
      </trkpt>
      <trkpt lat="48.55797" lon="2.09153">
        <ele>136</ele>
        <time>2022-03-06T08:48:56Z</time>
      </trkpt>
      <trkpt lat="48.558" lon="2.09156">
        <ele>136</ele>
        <time>2022-03-06T08:48:59Z</time>
      </trkpt>
      <trkpt lat="48.55803" lon="2.09159">
        <ele>136</ele>
        <time>2022-03-06T08:49:02Z</time>
      </trkpt>
      <trkpt lat="48.55807" lon="2.09161">
        <ele>135</ele>
        <time>2022-03-06T08:49:05Z</time>
      </trkpt>
      <trkpt lat="48.5581" lon="2.09163">
        <ele>135</ele>
        <time>2022-03-06T08:49:07Z</time>
      </trkpt>
      <trkpt lat="48.55814" lon="2.09165">
        <ele>135</ele>
        <time>2022-03-06T08:49:09Z</time>
      </trkpt>
      <trkpt lat="48.55817" lon="2.09167">
        <ele>135</ele>
        <time>2022-03-06T08:49:11Z</time>
      </trkpt>
      <trkpt lat="48.5582" lon="2.09171">
        <ele>135</ele>
        <time>2022-03-06T08:49:13Z</time>
      </trkpt>
      <trkpt lat="48.55823" lon="2.09175">
        <ele>134</ele>
        <time>2022-03-06T08:49:15Z</time>
      </trkpt>
      <trkpt lat="48.55826" lon="2.09177">
        <ele>134</ele>
        <time>2022-03-06T08:49:17Z</time>
      </trkpt>
      <trkpt lat="48.5583" lon="2.09178">
        <ele>134</ele>
        <time>2022-03-06T08:49:19Z</time>
      </trkpt>
      <trkpt lat="48.55833" lon="2.0918">
        <ele>134</ele>
        <time>2022-03-06T08:49:21Z</time>
      </trkpt>
      <trkpt lat="48.55836" lon="2.09182">
        <ele>134</ele>
        <time>2022-03-06T08:49:24Z</time>
      </trkpt>
      <trkpt lat="48.55839" lon="2.09183">
        <ele>134</ele>
        <time>2022-03-06T08:49:27Z</time>
      </trkpt>
      <trkpt lat="48.55842" lon="2.09183">
        <ele>133</ele>
        <time>2022-03-06T08:49:30Z</time>
      </trkpt>
      <trkpt lat="48.55846" lon="2.09183">
        <ele>134</ele>
        <time>2022-03-06T08:49:33Z</time>
      </trkpt>
      <trkpt lat="48.55849" lon="2.09183">
        <ele>134</ele>
        <time>2022-03-06T08:49:35Z</time>
      </trkpt>
      <trkpt lat="48.55852" lon="2.09184">
        <ele>134</ele>
        <time>2022-03-06T08:49:37Z</time>
      </trkpt>
      <trkpt lat="48.55855" lon="2.09185">
        <ele>134</ele>
        <time>2022-03-06T08:49:39Z</time>
      </trkpt>
      <trkpt lat="48.55858" lon="2.09186">
        <ele>134</ele>
        <time>2022-03-06T08:49:41Z</time>
      </trkpt>
      <trkpt lat="48.55862" lon="2.09187">
        <ele>134</ele>
        <time>2022-03-06T08:49:43Z</time>
      </trkpt>
      <trkpt lat="48.55866" lon="2.09189">
        <ele>134</ele>
        <time>2022-03-06T08:49:46Z</time>
      </trkpt>
      <trkpt lat="48.5587" lon="2.09191">
        <ele>133</ele>
        <time>2022-03-06T08:49:49Z</time>
      </trkpt>
      <trkpt lat="48.55874" lon="2.09193">
        <ele>133</ele>
        <time>2022-03-06T08:49:51Z</time>
      </trkpt>
      <trkpt lat="48.55877" lon="2.09194">
        <ele>133</ele>
        <time>2022-03-06T08:49:53Z</time>
      </trkpt>
      <trkpt lat="48.5588" lon="2.09194">
        <ele>133</ele>
        <time>2022-03-06T08:49:55Z</time>
      </trkpt>
      <trkpt lat="48.55884" lon="2.09194">
        <ele>133</ele>
        <time>2022-03-06T08:49:58Z</time>
      </trkpt>
      <trkpt lat="48.55887" lon="2.09195">
        <ele>133</ele>
        <time>2022-03-06T08:50:00Z</time>
      </trkpt>
      <trkpt lat="48.55891" lon="2.09195">
        <ele>133</ele>
        <time>2022-03-06T08:50:02Z</time>
      </trkpt>
      <trkpt lat="48.55894" lon="2.09196">
        <ele>132</ele>
        <time>2022-03-06T08:50:05Z</time>
      </trkpt>
      <trkpt lat="48.55898" lon="2.09196">
        <ele>132</ele>
        <time>2022-03-06T08:50:07Z</time>
      </trkpt>
      <trkpt lat="48.55901" lon="2.09197">
        <ele>132</ele>
        <time>2022-03-06T08:50:09Z</time>
      </trkpt>
      <trkpt lat="48.55905" lon="2.09198">
        <ele>132</ele>
        <time>2022-03-06T08:50:11Z</time>
      </trkpt>
      <trkpt lat="48.55908" lon="2.092">
        <ele>132</ele>
        <time>2022-03-06T08:50:13Z</time>
      </trkpt>
      <trkpt lat="48.55911" lon="2.09201">
        <ele>131</ele>
        <time>2022-03-06T08:50:15Z</time>
      </trkpt>
      <trkpt lat="48.55915" lon="2.09201">
        <ele>131</ele>
        <time>2022-03-06T08:50:18Z</time>
      </trkpt>
      <trkpt lat="48.55919" lon="2.092">
        <ele>131</ele>
        <time>2022-03-06T08:50:20Z</time>
      </trkpt>
      <trkpt lat="48.55922" lon="2.092">
        <ele>131</ele>
        <time>2022-03-06T08:50:23Z</time>
      </trkpt>
      <trkpt lat="48.55926" lon="2.09199">
        <ele>130</ele>
        <time>2022-03-06T08:50:25Z</time>
      </trkpt>
      <trkpt lat="48.5593" lon="2.09197">
        <ele>130</ele>
        <time>2022-03-06T08:50:28Z</time>
      </trkpt>
      <trkpt lat="48.55933" lon="2.09196">
        <ele>130</ele>
        <time>2022-03-06T08:50:31Z</time>
      </trkpt>
      <trkpt lat="48.55936" lon="2.09195">
        <ele>130</ele>
        <time>2022-03-06T08:50:33Z</time>
      </trkpt>
      <trkpt lat="48.55939" lon="2.09193">
        <ele>130</ele>
        <time>2022-03-06T08:50:35Z</time>
      </trkpt>
      <trkpt lat="48.55942" lon="2.09192">
        <ele>130</ele>
        <time>2022-03-06T08:50:37Z</time>
      </trkpt>
      <trkpt lat="48.55946" lon="2.09192">
        <ele>130</ele>
        <time>2022-03-06T08:50:39Z</time>
      </trkpt>
      <trkpt lat="48.5595" lon="2.09192">
        <ele>130</ele>
        <time>2022-03-06T08:50:42Z</time>
      </trkpt>
      <trkpt lat="48.55953" lon="2.09191">
        <ele>130</ele>
        <time>2022-03-06T08:50:44Z</time>
      </trkpt>
      <trkpt lat="48.55956" lon="2.0919">
        <ele>129</ele>
        <time>2022-03-06T08:50:46Z</time>
      </trkpt>
      <trkpt lat="48.55959" lon="2.09188">
        <ele>129</ele>
        <time>2022-03-06T08:50:49Z</time>
      </trkpt>
      <trkpt lat="48.55962" lon="2.09185">
        <ele>129</ele>
        <time>2022-03-06T08:50:52Z</time>
      </trkpt>
      <trkpt lat="48.55966" lon="2.09181">
        <ele>129</ele>
        <time>2022-03-06T08:50:55Z</time>
      </trkpt>
      <trkpt lat="48.55969" lon="2.09179">
        <ele>128</ele>
        <time>2022-03-06T08:50:57Z</time>
      </trkpt>
      <trkpt lat="48.55971" lon="2.09176">
        <ele>128</ele>
        <time>2022-03-06T08:50:59Z</time>
      </trkpt>
      <trkpt lat="48.55975" lon="2.09174">
        <ele>128</ele>
        <time>2022-03-06T08:51:01Z</time>
      </trkpt>
      <trkpt lat="48.55978" lon="2.09172">
        <ele>128</ele>
        <time>2022-03-06T08:51:03Z</time>
      </trkpt>
      <trkpt lat="48.55981" lon="2.0917">
        <ele>127</ele>
        <time>2022-03-06T08:51:05Z</time>
      </trkpt>
      <trkpt lat="48.55985" lon="2.09169">
        <ele>127</ele>
        <time>2022-03-06T08:51:07Z</time>
      </trkpt>
      <trkpt lat="48.55988" lon="2.09167">
        <ele>127</ele>
        <time>2022-03-06T08:51:09Z</time>
      </trkpt>
      <trkpt lat="48.55992" lon="2.09164">
        <ele>127</ele>
        <time>2022-03-06T08:51:11Z</time>
      </trkpt>
      <trkpt lat="48.55995" lon="2.09162">
        <ele>126</ele>
        <time>2022-03-06T08:51:13Z</time>
      </trkpt>
      <trkpt lat="48.55998" lon="2.09161">
        <ele>126</ele>
        <time>2022-03-06T08:51:15Z</time>
      </trkpt>
      <trkpt lat="48.56" lon="2.09158">
        <ele>126</ele>
        <time>2022-03-06T08:51:17Z</time>
      </trkpt>
      <trkpt lat="48.56003" lon="2.09157">
        <ele>125</ele>
        <time>2022-03-06T08:51:19Z</time>
      </trkpt>
      <trkpt lat="48.56006" lon="2.09155">
        <ele>125</ele>
        <time>2022-03-06T08:51:21Z</time>
      </trkpt>
      <trkpt lat="48.56009" lon="2.09153">
        <ele>125</ele>
        <time>2022-03-06T08:51:23Z</time>
      </trkpt>
      <trkpt lat="48.56013" lon="2.09152">
        <ele>124</ele>
        <time>2022-03-06T08:51:26Z</time>
      </trkpt>
      <trkpt lat="48.56016" lon="2.09151">
        <ele>124</ele>
        <time>2022-03-06T08:51:28Z</time>
      </trkpt>
      <trkpt lat="48.5602" lon="2.0915">
        <ele>124</ele>
        <time>2022-03-06T08:51:30Z</time>
      </trkpt>
      <trkpt lat="48.56023" lon="2.09149">
        <ele>123</ele>
        <time>2022-03-06T08:51:32Z</time>
      </trkpt>
      <trkpt lat="48.56026" lon="2.09148">
        <ele>123</ele>
        <time>2022-03-06T08:51:34Z</time>
      </trkpt>
      <trkpt lat="48.56029" lon="2.09146">
        <ele>123</ele>
        <time>2022-03-06T08:51:36Z</time>
      </trkpt>
      <trkpt lat="48.56032" lon="2.09145">
        <ele>123</ele>
        <time>2022-03-06T08:51:38Z</time>
      </trkpt>
      <trkpt lat="48.56035" lon="2.09143">
        <ele>123</ele>
        <time>2022-03-06T08:51:40Z</time>
      </trkpt>
      <trkpt lat="48.56038" lon="2.09142">
        <ele>122</ele>
        <time>2022-03-06T08:51:42Z</time>
      </trkpt>
      <trkpt lat="48.56041" lon="2.0914">
        <ele>122</ele>
        <time>2022-03-06T08:51:44Z</time>
      </trkpt>
      <trkpt lat="48.56044" lon="2.09139">
        <ele>122</ele>
        <time>2022-03-06T08:51:46Z</time>
      </trkpt>
      <trkpt lat="48.56047" lon="2.09137">
        <ele>122</ele>
        <time>2022-03-06T08:51:48Z</time>
      </trkpt>
      <trkpt lat="48.56049" lon="2.09136">
        <ele>122</ele>
        <time>2022-03-06T08:51:50Z</time>
      </trkpt>
      <trkpt lat="48.56053" lon="2.09134">
        <ele>121</ele>
        <time>2022-03-06T08:51:53Z</time>
      </trkpt>
      <trkpt lat="48.56056" lon="2.09133">
        <ele>121</ele>
        <time>2022-03-06T08:51:55Z</time>
      </trkpt>
      <trkpt lat="48.5606" lon="2.09131">
        <ele>121</ele>
        <time>2022-03-06T08:51:58Z</time>
      </trkpt>
      <trkpt lat="48.56064" lon="2.09129">
        <ele>121</ele>
        <time>2022-03-06T08:52:00Z</time>
      </trkpt>
      <trkpt lat="48.56068" lon="2.09128">
        <ele>120</ele>
        <time>2022-03-06T08:52:03Z</time>
      </trkpt>
      <trkpt lat="48.56071" lon="2.09127">
        <ele>120</ele>
        <time>2022-03-06T08:52:06Z</time>
      </trkpt>
      <trkpt lat="48.56075" lon="2.09125">
        <ele>120</ele>
        <time>2022-03-06T08:52:09Z</time>
      </trkpt>
      <trkpt lat="48.56078" lon="2.09124">
        <ele>120</ele>
        <time>2022-03-06T08:52:11Z</time>
      </trkpt>
      <trkpt lat="48.56081" lon="2.09122">
        <ele>120</ele>
        <time>2022-03-06T08:52:13Z</time>
      </trkpt>
      <trkpt lat="48.56085" lon="2.09121">
        <ele>119</ele>
        <time>2022-03-06T08:52:15Z</time>
      </trkpt>
      <trkpt lat="48.56088" lon="2.0912">
        <ele>119</ele>
        <time>2022-03-06T08:52:18Z</time>
      </trkpt>
      <trkpt lat="48.56092" lon="2.09118">
        <ele>119</ele>
        <time>2022-03-06T08:52:20Z</time>
      </trkpt>
      <trkpt lat="48.56096" lon="2.09117">
        <ele>119</ele>
        <time>2022-03-06T08:52:23Z</time>
      </trkpt>
      <trkpt lat="48.56099" lon="2.09116">
        <ele>119</ele>
        <time>2022-03-06T08:52:25Z</time>
      </trkpt>
      <trkpt lat="48.56103" lon="2.09115">
        <ele>118</ele>
        <time>2022-03-06T08:52:27Z</time>
      </trkpt>
      <trkpt lat="48.56108" lon="2.09114">
        <ele>118</ele>
        <time>2022-03-06T08:52:29Z</time>
      </trkpt>
      <trkpt lat="48.56112" lon="2.09114">
        <ele>118</ele>
        <time>2022-03-06T08:52:31Z</time>
      </trkpt>
      <trkpt lat="48.56116" lon="2.09114">
        <ele>118</ele>
        <time>2022-03-06T08:52:34Z</time>
      </trkpt>
      <trkpt lat="48.56119" lon="2.09115">
        <ele>118</ele>
        <time>2022-03-06T08:52:36Z</time>
      </trkpt>
      <trkpt lat="48.56123" lon="2.09115">
        <ele>118</ele>
        <time>2022-03-06T08:52:38Z</time>
      </trkpt>
      <trkpt lat="48.56126" lon="2.09115">
        <ele>118</ele>
        <time>2022-03-06T08:52:40Z</time>
      </trkpt>
      <trkpt lat="48.5613" lon="2.09116">
        <ele>117</ele>
        <time>2022-03-06T08:52:42Z</time>
      </trkpt>
      <trkpt lat="48.56133" lon="2.09116">
        <ele>117</ele>
        <time>2022-03-06T08:52:44Z</time>
      </trkpt>
      <trkpt lat="48.56137" lon="2.09116">
        <ele>117</ele>
        <time>2022-03-06T08:52:47Z</time>
      </trkpt>
      <trkpt lat="48.56141" lon="2.09115">
        <ele>117</ele>
        <time>2022-03-06T08:52:50Z</time>
      </trkpt>
      <trkpt lat="48.56144" lon="2.09115">
        <ele>117</ele>
        <time>2022-03-06T08:52:52Z</time>
      </trkpt>
      <trkpt lat="48.56149" lon="2.09116">
        <ele>117</ele>
        <time>2022-03-06T08:52:55Z</time>
      </trkpt>
      <trkpt lat="48.56152" lon="2.09116">
        <ele>117</ele>
        <time>2022-03-06T08:52:57Z</time>
      </trkpt>
      <trkpt lat="48.56156" lon="2.09117">
        <ele>116</ele>
        <time>2022-03-06T08:52:59Z</time>
      </trkpt>
      <trkpt lat="48.56159" lon="2.09117">
        <ele>116</ele>
        <time>2022-03-06T08:53:01Z</time>
      </trkpt>
      <trkpt lat="48.56162" lon="2.09118">
        <ele>116</ele>
        <time>2022-03-06T08:53:03Z</time>
      </trkpt>
      <trkpt lat="48.56165" lon="2.09118">
        <ele>116</ele>
        <time>2022-03-06T08:53:05Z</time>
      </trkpt>
      <trkpt lat="48.56168" lon="2.09118">
        <ele>116</ele>
        <time>2022-03-06T08:53:07Z</time>
      </trkpt>
      <trkpt lat="48.56171" lon="2.09118">
        <ele>116</ele>
        <time>2022-03-06T08:53:09Z</time>
      </trkpt>
      <trkpt lat="48.56175" lon="2.09119">
        <ele>116</ele>
        <time>2022-03-06T08:53:12Z</time>
      </trkpt>
      <trkpt lat="48.56178" lon="2.0912">
        <ele>116</ele>
        <time>2022-03-06T08:53:14Z</time>
      </trkpt>
      <trkpt lat="48.56182" lon="2.0912">
        <ele>116</ele>
        <time>2022-03-06T08:53:16Z</time>
      </trkpt>
      <trkpt lat="48.56186" lon="2.0912">
        <ele>115</ele>
        <time>2022-03-06T08:53:18Z</time>
      </trkpt>
      <trkpt lat="48.56189" lon="2.0912">
        <ele>115</ele>
        <time>2022-03-06T08:53:20Z</time>
      </trkpt>
      <trkpt lat="48.56192" lon="2.09121">
        <ele>115</ele>
        <time>2022-03-06T08:53:23Z</time>
      </trkpt>
      <trkpt lat="48.56196" lon="2.09122">
        <ele>115</ele>
        <time>2022-03-06T08:53:26Z</time>
      </trkpt>
      <trkpt lat="48.56199" lon="2.09123">
        <ele>115</ele>
        <time>2022-03-06T08:53:28Z</time>
      </trkpt>
      <trkpt lat="48.56202" lon="2.09123">
        <ele>115</ele>
        <time>2022-03-06T08:53:30Z</time>
      </trkpt>
      <trkpt lat="48.56205" lon="2.09124">
        <ele>115</ele>
        <time>2022-03-06T08:53:32Z</time>
      </trkpt>
      <trkpt lat="48.56208" lon="2.09125">
        <ele>115</ele>
        <time>2022-03-06T08:53:34Z</time>
      </trkpt>
      <trkpt lat="48.56212" lon="2.09125">
        <ele>115</ele>
        <time>2022-03-06T08:53:36Z</time>
      </trkpt>
      <trkpt lat="48.56215" lon="2.09126">
        <ele>115</ele>
        <time>2022-03-06T08:53:38Z</time>
      </trkpt>
      <trkpt lat="48.56218" lon="2.09127">
        <ele>114</ele>
        <time>2022-03-06T08:53:41Z</time>
      </trkpt>
      <trkpt lat="48.56222" lon="2.09126">
        <ele>114</ele>
        <time>2022-03-06T08:53:44Z</time>
      </trkpt>
      <trkpt lat="48.56224" lon="2.09123">
        <ele>114</ele>
        <time>2022-03-06T08:53:46Z</time>
      </trkpt>
      <trkpt lat="48.56225" lon="2.09119">
        <ele>114</ele>
        <time>2022-03-06T08:53:48Z</time>
      </trkpt>
      <trkpt lat="48.56225" lon="2.09115">
        <ele>114</ele>
        <time>2022-03-06T08:53:50Z</time>
      </trkpt>
      <trkpt lat="48.56225" lon="2.0911">
        <ele>113</ele>
        <time>2022-03-06T08:53:53Z</time>
      </trkpt>
      <trkpt lat="48.56224" lon="2.09104">
        <ele>113</ele>
        <time>2022-03-06T08:53:55Z</time>
      </trkpt>
      <trkpt lat="48.56224" lon="2.09099">
        <ele>113</ele>
        <time>2022-03-06T08:53:57Z</time>
      </trkpt>
      <trkpt lat="48.56224" lon="2.09093">
        <ele>112</ele>
        <time>2022-03-06T08:54:00Z</time>
      </trkpt>
      <trkpt lat="48.56223" lon="2.09087">
        <ele>112</ele>
        <time>2022-03-06T08:54:02Z</time>
      </trkpt>
      <trkpt lat="48.56222" lon="2.09083">
        <ele>112</ele>
        <time>2022-03-06T08:54:04Z</time>
      </trkpt>
      <trkpt lat="48.56221" lon="2.09077">
        <ele>111</ele>
        <time>2022-03-06T08:54:07Z</time>
      </trkpt>
      <trkpt lat="48.5622" lon="2.09072">
        <ele>111</ele>
        <time>2022-03-06T08:54:09Z</time>
      </trkpt>
      <trkpt lat="48.5622" lon="2.09066">
        <ele>111</ele>
        <time>2022-03-06T08:54:12Z</time>
      </trkpt>
      <trkpt lat="48.56219" lon="2.0906">
        <ele>110</ele>
        <time>2022-03-06T08:54:14Z</time>
      </trkpt>
      <trkpt lat="48.56219" lon="2.09055">
        <ele>110</ele>
        <time>2022-03-06T08:54:16Z</time>
      </trkpt>
      <trkpt lat="48.56219" lon="2.0905">
        <ele>110</ele>
        <time>2022-03-06T08:54:18Z</time>
      </trkpt>
      <trkpt lat="48.56219" lon="2.09044">
        <ele>109</ele>
        <time>2022-03-06T08:54:21Z</time>
      </trkpt>
      <trkpt lat="48.56219" lon="2.09038">
        <ele>109</ele>
        <time>2022-03-06T08:54:23Z</time>
      </trkpt>
      <trkpt lat="48.56218" lon="2.09033">
        <ele>109</ele>
        <time>2022-03-06T08:54:26Z</time>
      </trkpt>
      <trkpt lat="48.56218" lon="2.09027">
        <ele>109</ele>
        <time>2022-03-06T08:54:28Z</time>
      </trkpt>
      <trkpt lat="48.56218" lon="2.09022">
        <ele>108</ele>
        <time>2022-03-06T08:54:30Z</time>
      </trkpt>
      <trkpt lat="48.56217" lon="2.09018">
        <ele>108</ele>
        <time>2022-03-06T08:54:31Z</time>
      </trkpt>
      <trkpt lat="48.56217" lon="2.09013">
        <ele>108</ele>
        <time>2022-03-06T08:54:33Z</time>
      </trkpt>
      <trkpt lat="48.56216" lon="2.09007">
        <ele>108</ele>
        <time>2022-03-06T08:54:36Z</time>
      </trkpt>
      <trkpt lat="48.56216" lon="2.09002">
        <ele>108</ele>
        <time>2022-03-06T08:54:38Z</time>
      </trkpt>
      <trkpt lat="48.56215" lon="2.08997">
        <ele>107</ele>
        <time>2022-03-06T08:54:40Z</time>
      </trkpt>
      <trkpt lat="48.56214" lon="2.08991">
        <ele>107</ele>
        <time>2022-03-06T08:54:42Z</time>
      </trkpt>
      <trkpt lat="48.56214" lon="2.08985">
        <ele>107</ele>
        <time>2022-03-06T08:54:44Z</time>
      </trkpt>
      <trkpt lat="48.56213" lon="2.08979">
        <ele>107</ele>
        <time>2022-03-06T08:54:47Z</time>
      </trkpt>
      <trkpt lat="48.56213" lon="2.08973">
        <ele>107</ele>
        <time>2022-03-06T08:54:50Z</time>
      </trkpt>
      <trkpt lat="48.56213" lon="2.08967">
        <ele>106</ele>
        <time>2022-03-06T08:54:52Z</time>
      </trkpt>
      <trkpt lat="48.56212" lon="2.08962">
        <ele>106</ele>
        <time>2022-03-06T08:54:55Z</time>
      </trkpt>
      <trkpt lat="48.56212" lon="2.08956">
        <ele>106</ele>
        <time>2022-03-06T08:54:57Z</time>
      </trkpt>
      <trkpt lat="48.56211" lon="2.0895">
        <ele>106</ele>
        <time>2022-03-06T08:54:59Z</time>
      </trkpt>
      <trkpt lat="48.56211" lon="2.08945">
        <ele>106</ele>
        <time>2022-03-06T08:55:01Z</time>
      </trkpt>
      <trkpt lat="48.5621" lon="2.08939">
        <ele>106</ele>
        <time>2022-03-06T08:55:03Z</time>
      </trkpt>
      <trkpt lat="48.5621" lon="2.08933">
        <ele>105</ele>
        <time>2022-03-06T08:55:05Z</time>
      </trkpt>
      <trkpt lat="48.5621" lon="2.08928">
        <ele>105</ele>
        <time>2022-03-06T08:55:07Z</time>
      </trkpt>
      <trkpt lat="48.5621" lon="2.08923">
        <ele>105</ele>
        <time>2022-03-06T08:55:09Z</time>
      </trkpt>
      <trkpt lat="48.5621" lon="2.08919">
        <ele>105</ele>
        <time>2022-03-06T08:55:11Z</time>
      </trkpt>
      <trkpt lat="48.56209" lon="2.08914">
        <ele>105</ele>
        <time>2022-03-06T08:55:13Z</time>
      </trkpt>
      <trkpt lat="48.56209" lon="2.08909">
        <ele>105</ele>
        <time>2022-03-06T08:55:15Z</time>
      </trkpt>
      <trkpt lat="48.56209" lon="2.08904">
        <ele>104</ele>
        <time>2022-03-06T08:55:17Z</time>
      </trkpt>
      <trkpt lat="48.56209" lon="2.089">
        <ele>104</ele>
        <time>2022-03-06T08:55:20Z</time>
      </trkpt>
      <trkpt lat="48.56208" lon="2.08894">
        <ele>104</ele>
        <time>2022-03-06T08:55:23Z</time>
      </trkpt>
      <trkpt lat="48.56208" lon="2.08888">
        <ele>104</ele>
        <time>2022-03-06T08:55:25Z</time>
      </trkpt>
      <trkpt lat="48.56207" lon="2.08884">
        <ele>104</ele>
        <time>2022-03-06T08:55:27Z</time>
      </trkpt>
      <trkpt lat="48.56206" lon="2.08878">
        <ele>104</ele>
        <time>2022-03-06T08:55:29Z</time>
      </trkpt>
      <trkpt lat="48.56206" lon="2.08873">
        <ele>103</ele>
        <time>2022-03-06T08:55:31Z</time>
      </trkpt>
      <trkpt lat="48.56206" lon="2.08868">
        <ele>103</ele>
        <time>2022-03-06T08:55:33Z</time>
      </trkpt>
      <trkpt lat="48.56207" lon="2.08864">
        <ele>103</ele>
        <time>2022-03-06T08:55:35Z</time>
      </trkpt>
      <trkpt lat="48.56207" lon="2.0886">
        <ele>103</ele>
        <time>2022-03-06T08:55:37Z</time>
      </trkpt>
      <trkpt lat="48.56209" lon="2.08854">
        <ele>103</ele>
        <time>2022-03-06T08:55:40Z</time>
      </trkpt>
      <trkpt lat="48.56211" lon="2.0885">
        <ele>103</ele>
        <time>2022-03-06T08:55:42Z</time>
      </trkpt>
      <trkpt lat="48.56213" lon="2.08847">
        <ele>102</ele>
        <time>2022-03-06T08:55:44Z</time>
      </trkpt>
      <trkpt lat="48.56215" lon="2.08843">
        <ele>102</ele>
        <time>2022-03-06T08:55:46Z</time>
      </trkpt>
      <trkpt lat="48.56218" lon="2.08839">
        <ele>102</ele>
        <time>2022-03-06T08:55:48Z</time>
      </trkpt>
      <trkpt lat="48.5622" lon="2.08835">
        <ele>102</ele>
        <time>2022-03-06T08:55:50Z</time>
      </trkpt>
      <trkpt lat="48.56222" lon="2.08831">
        <ele>102</ele>
        <time>2022-03-06T08:55:52Z</time>
      </trkpt>
      <trkpt lat="48.56224" lon="2.08826">
        <ele>101</ele>
        <time>2022-03-06T08:55:54Z</time>
      </trkpt>
      <trkpt lat="48.56226" lon="2.08823">
        <ele>101</ele>
        <time>2022-03-06T08:55:56Z</time>
      </trkpt>
      <trkpt lat="48.56228" lon="2.0882">
        <ele>101</ele>
        <time>2022-03-06T08:55:58Z</time>
      </trkpt>
      <trkpt lat="48.5623" lon="2.08817">
        <ele>101</ele>
        <time>2022-03-06T08:56:00Z</time>
      </trkpt>
      <trkpt lat="48.56232" lon="2.08814">
        <ele>101</ele>
        <time>2022-03-06T08:56:03Z</time>
      </trkpt>
      <trkpt lat="48.56234" lon="2.08811">
        <ele>101</ele>
        <time>2022-03-06T08:56:05Z</time>
      </trkpt>
      <trkpt lat="48.56236" lon="2.08805">
        <ele>101</ele>
        <time>2022-03-06T08:56:08Z</time>
      </trkpt>
      <trkpt lat="48.56237" lon="2.088">
        <ele>101</ele>
        <time>2022-03-06T08:56:10Z</time>
      </trkpt>
      <trkpt lat="48.56237" lon="2.08794">
        <ele>100</ele>
        <time>2022-03-06T08:56:13Z</time>
      </trkpt>
      <trkpt lat="48.56238" lon="2.08789">
        <ele>100</ele>
        <time>2022-03-06T08:56:15Z</time>
      </trkpt>
      <trkpt lat="48.56238" lon="2.08784">
        <ele>100</ele>
        <time>2022-03-06T08:56:17Z</time>
      </trkpt>
      <trkpt lat="48.56238" lon="2.08779">
        <ele>100</ele>
        <time>2022-03-06T08:56:19Z</time>
      </trkpt>
      <trkpt lat="48.56238" lon="2.08773">
        <ele>100</ele>
        <time>2022-03-06T08:56:21Z</time>
      </trkpt>
      <trkpt lat="48.56238" lon="2.08767">
        <ele>100</ele>
        <time>2022-03-06T08:56:24Z</time>
      </trkpt>
      <trkpt lat="48.56238" lon="2.08761">
        <ele>100</ele>
        <time>2022-03-06T08:56:26Z</time>
      </trkpt>
      <trkpt lat="48.56238" lon="2.08756">
        <ele>100</ele>
        <time>2022-03-06T08:56:28Z</time>
      </trkpt>
      <trkpt lat="48.56238" lon="2.08751">
        <ele>100</ele>
        <time>2022-03-06T08:56:31Z</time>
      </trkpt>
      <trkpt lat="48.56239" lon="2.08745">
        <ele>100</ele>
        <time>2022-03-06T08:56:34Z</time>
      </trkpt>
      <trkpt lat="48.56239" lon="2.0874">
        <ele>100</ele>
        <time>2022-03-06T08:56:36Z</time>
      </trkpt>
      <trkpt lat="48.56239" lon="2.08735">
        <ele>100</ele>
        <time>2022-03-06T08:56:38Z</time>
      </trkpt>
      <trkpt lat="48.56238" lon="2.0873">
        <ele>100</ele>
        <time>2022-03-06T08:56:40Z</time>
      </trkpt>
      <trkpt lat="48.56238" lon="2.08724">
        <ele>100</ele>
        <time>2022-03-06T08:56:43Z</time>
      </trkpt>
      <trkpt lat="48.56238" lon="2.08719">
        <ele>100</ele>
        <time>2022-03-06T08:56:45Z</time>
      </trkpt>
      <trkpt lat="48.56238" lon="2.08714">
        <ele>100</ele>
        <time>2022-03-06T08:56:47Z</time>
      </trkpt>
      <trkpt lat="48.56238" lon="2.08709">
        <ele>100</ele>
        <time>2022-03-06T08:56:49Z</time>
      </trkpt>
      <trkpt lat="48.56238" lon="2.08705">
        <ele>100</ele>
        <time>2022-03-06T08:56:51Z</time>
      </trkpt>
      <trkpt lat="48.56238" lon="2.08699">
        <ele>100</ele>
        <time>2022-03-06T08:56:53Z</time>
      </trkpt>
      <trkpt lat="48.56238" lon="2.08692">
        <ele>100</ele>
        <time>2022-03-06T08:56:55Z</time>
      </trkpt>
      <trkpt lat="48.56237" lon="2.08687">
        <ele>100</ele>
        <time>2022-03-06T08:56:57Z</time>
      </trkpt>
      <trkpt lat="48.56237" lon="2.08681">
        <ele>101</ele>
        <time>2022-03-06T08:57:00Z</time>
      </trkpt>
      <trkpt lat="48.56237" lon="2.08677">
        <ele>101</ele>
        <time>2022-03-06T08:57:02Z</time>
      </trkpt>
      <trkpt lat="48.56235" lon="2.08672">
        <ele>101</ele>
        <time>2022-03-06T08:57:05Z</time>
      </trkpt>
      <trkpt lat="48.56235" lon="2.08667">
        <ele>101</ele>
        <time>2022-03-06T08:57:08Z</time>
      </trkpt>
      <trkpt lat="48.56234" lon="2.08662">
        <ele>102</ele>
        <time>2022-03-06T08:57:10Z</time>
      </trkpt>
      <trkpt lat="48.56233" lon="2.08657">
        <ele>102</ele>
        <time>2022-03-06T08:57:12Z</time>
      </trkpt>
      <trkpt lat="48.56231" lon="2.08653">
        <ele>102</ele>
        <time>2022-03-06T08:57:14Z</time>
      </trkpt>
      <trkpt lat="48.5623" lon="2.08649">
        <ele>102</ele>
        <time>2022-03-06T08:57:16Z</time>
      </trkpt>
      <trkpt lat="48.56229" lon="2.08644">
        <ele>102</ele>
        <time>2022-03-06T08:57:18Z</time>
      </trkpt>
      <trkpt lat="48.56229" lon="2.0864">
        <ele>102</ele>
        <time>2022-03-06T08:57:22Z</time>
      </trkpt>
      <trkpt lat="48.56228" lon="2.08635">
        <ele>103</ele>
        <time>2022-03-06T08:57:24Z</time>
      </trkpt>
      <trkpt lat="48.56227" lon="2.0863">
        <ele>103</ele>
        <time>2022-03-06T08:57:27Z</time>
      </trkpt>
      <trkpt lat="48.56227" lon="2.08625">
        <ele>103</ele>
        <time>2022-03-06T08:57:30Z</time>
      </trkpt>
      <trkpt lat="48.56226" lon="2.0862">
        <ele>103</ele>
        <time>2022-03-06T08:57:33Z</time>
      </trkpt>
      <trkpt lat="48.56226" lon="2.08615">
        <ele>103</ele>
        <time>2022-03-06T08:57:36Z</time>
      </trkpt>
      <trkpt lat="48.56225" lon="2.0861">
        <ele>103</ele>
        <time>2022-03-06T08:57:39Z</time>
      </trkpt>
      <trkpt lat="48.56225" lon="2.08606">
        <ele>104</ele>
        <time>2022-03-06T08:57:42Z</time>
      </trkpt>
      <trkpt lat="48.56224" lon="2.08601">
        <ele>104</ele>
        <time>2022-03-06T08:57:45Z</time>
      </trkpt>
      <trkpt lat="48.56224" lon="2.08597">
        <ele>104</ele>
        <time>2022-03-06T08:57:52Z</time>
      </trkpt>
      <trkpt lat="48.56224" lon="2.08592">
        <ele>104</ele>
        <time>2022-03-06T08:57:54Z</time>
      </trkpt>
      <trkpt lat="48.56224" lon="2.08586">
        <ele>104</ele>
        <time>2022-03-06T08:57:58Z</time>
      </trkpt>
      <trkpt lat="48.56223" lon="2.0858">
        <ele>104</ele>
        <time>2022-03-06T08:58:00Z</time>
      </trkpt>
      <trkpt lat="48.56222" lon="2.08574">
        <ele>104</ele>
        <time>2022-03-06T08:58:03Z</time>
      </trkpt>
      <trkpt lat="48.56222" lon="2.08569">
        <ele>104</ele>
        <time>2022-03-06T08:58:06Z</time>
      </trkpt>
      <trkpt lat="48.56222" lon="2.08564">
        <ele>105</ele>
        <time>2022-03-06T08:58:10Z</time>
      </trkpt>
      <trkpt lat="48.56222" lon="2.08559">
        <ele>105</ele>
        <time>2022-03-06T08:58:13Z</time>
      </trkpt>
      <trkpt lat="48.56222" lon="2.08553">
        <ele>105</ele>
        <time>2022-03-06T08:58:16Z</time>
      </trkpt>
      <trkpt lat="48.56221" lon="2.08548">
        <ele>105</ele>
        <time>2022-03-06T08:58:18Z</time>
      </trkpt>
      <trkpt lat="48.5622" lon="2.08543">
        <ele>105</ele>
        <time>2022-03-06T08:58:20Z</time>
      </trkpt>
      <trkpt lat="48.56219" lon="2.08537">
        <ele>105</ele>
        <time>2022-03-06T08:58:22Z</time>
      </trkpt>
      <trkpt lat="48.56218" lon="2.08531">
        <ele>106</ele>
        <time>2022-03-06T08:58:25Z</time>
      </trkpt>
      <trkpt lat="48.56217" lon="2.08526">
        <ele>106</ele>
        <time>2022-03-06T08:58:28Z</time>
      </trkpt>
      <trkpt lat="48.56216" lon="2.08519">
        <ele>106</ele>
        <time>2022-03-06T08:58:30Z</time>
      </trkpt>
      <trkpt lat="48.56214" lon="2.08514">
        <ele>106</ele>
        <time>2022-03-06T08:58:32Z</time>
      </trkpt>
      <trkpt lat="48.56214" lon="2.08508">
        <ele>107</ele>
        <time>2022-03-06T08:58:35Z</time>
      </trkpt>
      <trkpt lat="48.56213" lon="2.08504">
        <ele>107</ele>
        <time>2022-03-06T08:58:38Z</time>
      </trkpt>
      <trkpt lat="48.56213" lon="2.08498">
        <ele>107</ele>
        <time>2022-03-06T08:58:41Z</time>
      </trkpt>
      <trkpt lat="48.56212" lon="2.08493">
        <ele>108</ele>
        <time>2022-03-06T08:58:44Z</time>
      </trkpt>
      <trkpt lat="48.56211" lon="2.08489">
        <ele>108</ele>
        <time>2022-03-06T08:58:46Z</time>
      </trkpt>
      <trkpt lat="48.56211" lon="2.08485">
        <ele>108</ele>
        <time>2022-03-06T08:58:48Z</time>
      </trkpt>
      <trkpt lat="48.5621" lon="2.08481">
        <ele>109</ele>
        <time>2022-03-06T08:58:51Z</time>
      </trkpt>
      <trkpt lat="48.56209" lon="2.08476">
        <ele>109</ele>
        <time>2022-03-06T08:58:53Z</time>
      </trkpt>
      <trkpt lat="48.56208" lon="2.08472">
        <ele>110</ele>
        <time>2022-03-06T08:58:56Z</time>
      </trkpt>
      <trkpt lat="48.56208" lon="2.08466">
        <ele>110</ele>
        <time>2022-03-06T08:58:58Z</time>
      </trkpt>
      <trkpt lat="48.56207" lon="2.0846">
        <ele>110</ele>
        <time>2022-03-06T08:59:00Z</time>
      </trkpt>
      <trkpt lat="48.56207" lon="2.08455">
        <ele>111</ele>
        <time>2022-03-06T08:59:03Z</time>
      </trkpt>
      <trkpt lat="48.56208" lon="2.08451">
        <ele>111</ele>
        <time>2022-03-06T08:59:06Z</time>
      </trkpt>
      <trkpt lat="48.56209" lon="2.08447">
        <ele>112</ele>
        <time>2022-03-06T08:59:09Z</time>
      </trkpt>
      <trkpt lat="48.56212" lon="2.08444">
        <ele>112</ele>
        <time>2022-03-06T08:59:12Z</time>
      </trkpt>
      <trkpt lat="48.56214" lon="2.0844">
        <ele>113</ele>
        <time>2022-03-06T08:59:14Z</time>
      </trkpt>
      <trkpt lat="48.56216" lon="2.08436">
        <ele>113</ele>
        <time>2022-03-06T08:59:17Z</time>
      </trkpt>
      <trkpt lat="48.56218" lon="2.08432">
        <ele>113</ele>
        <time>2022-03-06T08:59:20Z</time>
      </trkpt>
      <trkpt lat="48.56221" lon="2.08429">
        <ele>114</ele>
        <time>2022-03-06T08:59:23Z</time>
      </trkpt>
      <trkpt lat="48.56222" lon="2.08424">
        <ele>114</ele>
        <time>2022-03-06T08:59:27Z</time>
      </trkpt>
      <trkpt lat="48.5622" lon="2.08422">
        <ele>114</ele>
        <time>2022-03-06T08:59:31Z</time>
      </trkpt>
      <trkpt lat="48.56217" lon="2.08421">
        <ele>114</ele>
        <time>2022-03-06T08:59:34Z</time>
      </trkpt>
      <trkpt lat="48.56214" lon="2.08421">
        <ele>115</ele>
        <time>2022-03-06T08:59:37Z</time>
      </trkpt>
      <trkpt lat="48.5621" lon="2.08421">
        <ele>115</ele>
        <time>2022-03-06T08:59:40Z</time>
      </trkpt>
      <trkpt lat="48.56207" lon="2.08422">
        <ele>115</ele>
        <time>2022-03-06T08:59:43Z</time>
      </trkpt>
      <trkpt lat="48.56203" lon="2.08423">
        <ele>115</ele>
        <time>2022-03-06T08:59:47Z</time>
      </trkpt>
      <trkpt lat="48.562" lon="2.08423">
        <ele>115</ele>
        <time>2022-03-06T08:59:50Z</time>
      </trkpt>
      <trkpt lat="48.56196" lon="2.08424">
        <ele>115</ele>
        <time>2022-03-06T08:59:53Z</time>
      </trkpt>
      <trkpt lat="48.56193" lon="2.08425">
        <ele>115</ele>
        <time>2022-03-06T08:59:55Z</time>
      </trkpt>
      <trkpt lat="48.56189" lon="2.08425">
        <ele>115</ele>
        <time>2022-03-06T08:59:57Z</time>
      </trkpt>
      <trkpt lat="48.56186" lon="2.08426">
        <ele>115</ele>
        <time>2022-03-06T08:59:59Z</time>
      </trkpt>
      <trkpt lat="48.56182" lon="2.08427">
        <ele>115</ele>
        <time>2022-03-06T09:00:02Z</time>
      </trkpt>
      <trkpt lat="48.56178" lon="2.08428">
        <ele>115</ele>
        <time>2022-03-06T09:00:05Z</time>
      </trkpt>
      <trkpt lat="48.56175" lon="2.08429">
        <ele>115</ele>
        <time>2022-03-06T09:00:07Z</time>
      </trkpt>
      <trkpt lat="48.56172" lon="2.08429">
        <ele>115</ele>
        <time>2022-03-06T09:00:09Z</time>
      </trkpt>
      <trkpt lat="48.56168" lon="2.0843">
        <ele>115</ele>
        <time>2022-03-06T09:00:12Z</time>
      </trkpt>
      <trkpt lat="48.56165" lon="2.08431">
        <ele>116</ele>
        <time>2022-03-06T09:00:14Z</time>
      </trkpt>
      <trkpt lat="48.56162" lon="2.08432">
        <ele>116</ele>
        <time>2022-03-06T09:00:16Z</time>
      </trkpt>
      <trkpt lat="48.56159" lon="2.08433">
        <ele>116</ele>
        <time>2022-03-06T09:00:18Z</time>
      </trkpt>
      <trkpt lat="48.56155" lon="2.08434">
        <ele>116</ele>
        <time>2022-03-06T09:00:21Z</time>
      </trkpt>
      <trkpt lat="48.56152" lon="2.08435">
        <ele>116</ele>
        <time>2022-03-06T09:00:23Z</time>
      </trkpt>
      <trkpt lat="48.56149" lon="2.08435">
        <ele>116</ele>
        <time>2022-03-06T09:00:25Z</time>
      </trkpt>
      <trkpt lat="48.56145" lon="2.08436">
        <ele>116</ele>
        <time>2022-03-06T09:00:28Z</time>
      </trkpt>
      <trkpt lat="48.56142" lon="2.08436">
        <ele>117</ele>
        <time>2022-03-06T09:00:30Z</time>
      </trkpt>
      <trkpt lat="48.56139" lon="2.08437">
        <ele>117</ele>
        <time>2022-03-06T09:00:32Z</time>
      </trkpt>
      <trkpt lat="48.56136" lon="2.08437">
        <ele>117</ele>
        <time>2022-03-06T09:00:35Z</time>
      </trkpt>
      <trkpt lat="48.56132" lon="2.08437">
        <ele>117</ele>
        <time>2022-03-06T09:00:37Z</time>
      </trkpt>
      <trkpt lat="48.5613" lon="2.08437">
        <ele>117</ele>
        <time>2022-03-06T09:00:39Z</time>
      </trkpt>
      <trkpt lat="48.56127" lon="2.08438">
        <ele>118</ele>
        <time>2022-03-06T09:00:41Z</time>
      </trkpt>
      <trkpt lat="48.56123" lon="2.08439">
        <ele>118</ele>
        <time>2022-03-06T09:00:44Z</time>
      </trkpt>
      <trkpt lat="48.5612" lon="2.08439">
        <ele>118</ele>
        <time>2022-03-06T09:00:46Z</time>
      </trkpt>
      <trkpt lat="48.56117" lon="2.0844">
        <ele>118</ele>
        <time>2022-03-06T09:00:49Z</time>
      </trkpt>
      <trkpt lat="48.56113" lon="2.0844">
        <ele>119</ele>
        <time>2022-03-06T09:00:52Z</time>
      </trkpt>
      <trkpt lat="48.5611" lon="2.08439">
        <ele>119</ele>
        <time>2022-03-06T09:00:55Z</time>
      </trkpt>
      <trkpt lat="48.56106" lon="2.08438">
        <ele>120</ele>
        <time>2022-03-06T09:00:58Z</time>
      </trkpt>
      <trkpt lat="48.56103" lon="2.08437">
        <ele>120</ele>
        <time>2022-03-06T09:01:00Z</time>
      </trkpt>
      <trkpt lat="48.56099" lon="2.08436">
        <ele>120</ele>
        <time>2022-03-06T09:01:03Z</time>
      </trkpt>
      <trkpt lat="48.56096" lon="2.08435">
        <ele>121</ele>
        <time>2022-03-06T09:01:06Z</time>
      </trkpt>
      <trkpt lat="48.56092" lon="2.08434">
        <ele>121</ele>
        <time>2022-03-06T09:01:08Z</time>
      </trkpt>
      <trkpt lat="48.56089" lon="2.08434">
        <ele>121</ele>
        <time>2022-03-06T09:01:10Z</time>
      </trkpt>
      <trkpt lat="48.56086" lon="2.08433">
        <ele>121</ele>
        <time>2022-03-06T09:01:13Z</time>
      </trkpt>
      <trkpt lat="48.56082" lon="2.08432">
        <ele>121</ele>
        <time>2022-03-06T09:01:16Z</time>
      </trkpt>
      <trkpt lat="48.56079" lon="2.08431">
        <ele>122</ele>
        <time>2022-03-06T09:01:20Z</time>
      </trkpt>
      <trkpt lat="48.56076" lon="2.0843">
        <ele>122</ele>
        <time>2022-03-06T09:01:22Z</time>
      </trkpt>
      <trkpt lat="48.56073" lon="2.08429">
        <ele>122</ele>
        <time>2022-03-06T09:01:24Z</time>
      </trkpt>
      <trkpt lat="48.56069" lon="2.08429">
        <ele>122</ele>
        <time>2022-03-06T09:01:27Z</time>
      </trkpt>
      <trkpt lat="48.56066" lon="2.08428">
        <ele>122</ele>
        <time>2022-03-06T09:01:29Z</time>
      </trkpt>
      <trkpt lat="48.56063" lon="2.08427">
        <ele>122</ele>
        <time>2022-03-06T09:01:31Z</time>
      </trkpt>
      <trkpt lat="48.5606" lon="2.08425">
        <ele>122</ele>
        <time>2022-03-06T09:01:33Z</time>
      </trkpt>
      <trkpt lat="48.56056" lon="2.08424">
        <ele>122</ele>
        <time>2022-03-06T09:01:36Z</time>
      </trkpt>
      <trkpt lat="48.56053" lon="2.08422">
        <ele>122</ele>
        <time>2022-03-06T09:01:38Z</time>
      </trkpt>
      <trkpt lat="48.5605" lon="2.0842">
        <ele>122</ele>
        <time>2022-03-06T09:01:40Z</time>
      </trkpt>
      <trkpt lat="48.56047" lon="2.08418">
        <ele>122</ele>
        <time>2022-03-06T09:01:42Z</time>
      </trkpt>
      <trkpt lat="48.56044" lon="2.08416">
        <ele>122</ele>
        <time>2022-03-06T09:01:45Z</time>
      </trkpt>
      <trkpt lat="48.5604" lon="2.08414">
        <ele>122</ele>
        <time>2022-03-06T09:01:48Z</time>
      </trkpt>
      <trkpt lat="48.56037" lon="2.08413">
        <ele>122</ele>
        <time>2022-03-06T09:01:50Z</time>
      </trkpt>
      <trkpt lat="48.56034" lon="2.08411">
        <ele>122</ele>
        <time>2022-03-06T09:01:52Z</time>
      </trkpt>
      <trkpt lat="48.5603" lon="2.0841">
        <ele>123</ele>
        <time>2022-03-06T09:01:55Z</time>
      </trkpt>
      <trkpt lat="48.56027" lon="2.08408">
        <ele>123</ele>
        <time>2022-03-06T09:01:58Z</time>
      </trkpt>
      <trkpt lat="48.56024" lon="2.08406">
        <ele>123</ele>
        <time>2022-03-06T09:02:00Z</time>
      </trkpt>
      <trkpt lat="48.56021" lon="2.08405">
        <ele>123</ele>
        <time>2022-03-06T09:02:02Z</time>
      </trkpt>
      <trkpt lat="48.56017" lon="2.08403">
        <ele>123</ele>
        <time>2022-03-06T09:02:05Z</time>
      </trkpt>
      <trkpt lat="48.56015" lon="2.084">
        <ele>123</ele>
        <time>2022-03-06T09:02:07Z</time>
      </trkpt>
      <trkpt lat="48.56011" lon="2.08398">
        <ele>123</ele>
        <time>2022-03-06T09:02:10Z</time>
      </trkpt>
      <trkpt lat="48.56008" lon="2.08395">
        <ele>124</ele>
        <time>2022-03-06T09:02:13Z</time>
      </trkpt>
      <trkpt lat="48.56004" lon="2.08392">
        <ele>124</ele>
        <time>2022-03-06T09:02:16Z</time>
      </trkpt>
      <trkpt lat="48.56001" lon="2.0839">
        <ele>124</ele>
        <time>2022-03-06T09:02:19Z</time>
      </trkpt>
      <trkpt lat="48.55998" lon="2.08389">
        <ele>124</ele>
        <time>2022-03-06T09:02:22Z</time>
      </trkpt>
      <trkpt lat="48.55995" lon="2.08387">
        <ele>124</ele>
        <time>2022-03-06T09:02:24Z</time>
      </trkpt>
      <trkpt lat="48.55992" lon="2.08385">
        <ele>124</ele>
        <time>2022-03-06T09:02:26Z</time>
      </trkpt>
      <trkpt lat="48.55989" lon="2.08382">
        <ele>125</ele>
        <time>2022-03-06T09:02:29Z</time>
      </trkpt>
      <trkpt lat="48.55986" lon="2.08381">
        <ele>125</ele>
        <time>2022-03-06T09:02:32Z</time>
      </trkpt>
      <trkpt lat="48.55983" lon="2.0838">
        <ele>125</ele>
        <time>2022-03-06T09:02:34Z</time>
      </trkpt>
      <trkpt lat="48.55979" lon="2.08379">
        <ele>125</ele>
        <time>2022-03-06T09:02:37Z</time>
      </trkpt>
      <trkpt lat="48.55976" lon="2.08379">
        <ele>126</ele>
        <time>2022-03-06T09:02:39Z</time>
      </trkpt>
      <trkpt lat="48.55973" lon="2.08378">
        <ele>126</ele>
        <time>2022-03-06T09:02:41Z</time>
      </trkpt>
      <trkpt lat="48.55969" lon="2.08378">
        <ele>126</ele>
        <time>2022-03-06T09:02:44Z</time>
      </trkpt>
      <trkpt lat="48.55965" lon="2.08377">
        <ele>127</ele>
        <time>2022-03-06T09:02:48Z</time>
      </trkpt>
      <trkpt lat="48.55961" lon="2.08377">
        <ele>127</ele>
        <time>2022-03-06T09:02:51Z</time>
      </trkpt>
      <trkpt lat="48.55957" lon="2.08376">
        <ele>127</ele>
        <time>2022-03-06T09:02:54Z</time>
      </trkpt>
      <trkpt lat="48.55953" lon="2.08376">
        <ele>128</ele>
        <time>2022-03-06T09:02:57Z</time>
      </trkpt>
      <trkpt lat="48.5595" lon="2.08375">
        <ele>128</ele>
        <time>2022-03-06T09:03:00Z</time>
      </trkpt>
      <trkpt lat="48.55946" lon="2.08374">
        <ele>128</ele>
        <time>2022-03-06T09:03:02Z</time>
      </trkpt>
      <trkpt lat="48.55943" lon="2.08372">
        <ele>129</ele>
        <time>2022-03-06T09:03:04Z</time>
      </trkpt>
      <trkpt lat="48.5594" lon="2.08371">
        <ele>129</ele>
        <time>2022-03-06T09:03:06Z</time>
      </trkpt>
      <trkpt lat="48.55937" lon="2.0837">
        <ele>129</ele>
        <time>2022-03-06T09:03:08Z</time>
      </trkpt>
      <trkpt lat="48.55934" lon="2.0837">
        <ele>129</ele>
        <time>2022-03-06T09:03:11Z</time>
      </trkpt>
      <trkpt lat="48.5593" lon="2.0837">
        <ele>130</ele>
        <time>2022-03-06T09:03:14Z</time>
      </trkpt>
      <trkpt lat="48.55927" lon="2.08371">
        <ele>130</ele>
        <time>2022-03-06T09:03:17Z</time>
      </trkpt>
      <trkpt lat="48.55923" lon="2.08371">
        <ele>130</ele>
        <time>2022-03-06T09:03:19Z</time>
      </trkpt>
      <trkpt lat="48.5592" lon="2.08371">
        <ele>131</ele>
        <time>2022-03-06T09:03:22Z</time>
      </trkpt>
      <trkpt lat="48.55916" lon="2.0837">
        <ele>131</ele>
        <time>2022-03-06T09:03:25Z</time>
      </trkpt>
      <trkpt lat="48.55912" lon="2.0837">
        <ele>131</ele>
        <time>2022-03-06T09:03:28Z</time>
      </trkpt>
      <trkpt lat="48.55909" lon="2.08371">
        <ele>132</ele>
        <time>2022-03-06T09:03:30Z</time>
      </trkpt>
      <trkpt lat="48.55905" lon="2.0837">
        <ele>132</ele>
        <time>2022-03-06T09:03:33Z</time>
      </trkpt>
      <trkpt lat="48.55901" lon="2.0837">
        <ele>132</ele>
        <time>2022-03-06T09:03:36Z</time>
      </trkpt>
      <trkpt lat="48.55898" lon="2.0837">
        <ele>133</ele>
        <time>2022-03-06T09:03:39Z</time>
      </trkpt>
      <trkpt lat="48.55894" lon="2.08369">
        <ele>133</ele>
        <time>2022-03-06T09:03:42Z</time>
      </trkpt>
      <trkpt lat="48.55891" lon="2.08369">
        <ele>134</ele>
        <time>2022-03-06T09:03:45Z</time>
      </trkpt>
      <trkpt lat="48.55888" lon="2.08369">
        <ele>134</ele>
        <time>2022-03-06T09:03:47Z</time>
      </trkpt>
      <trkpt lat="48.55884" lon="2.08369">
        <ele>134</ele>
        <time>2022-03-06T09:03:49Z</time>
      </trkpt>
      <trkpt lat="48.55881" lon="2.08369">
        <ele>134</ele>
        <time>2022-03-06T09:03:52Z</time>
      </trkpt>
      <trkpt lat="48.55877" lon="2.08369">
        <ele>134</ele>
        <time>2022-03-06T09:03:54Z</time>
      </trkpt>
      <trkpt lat="48.55874" lon="2.08367">
        <ele>134</ele>
        <time>2022-03-06T09:03:57Z</time>
      </trkpt>
      <trkpt lat="48.5587" lon="2.08366">
        <ele>134</ele>
        <time>2022-03-06T09:03:59Z</time>
      </trkpt>
      <trkpt lat="48.55867" lon="2.08366">
        <ele>134</ele>
        <time>2022-03-06T09:04:01Z</time>
      </trkpt>
      <trkpt lat="48.55863" lon="2.08366">
        <ele>134</ele>
        <time>2022-03-06T09:04:03Z</time>
      </trkpt>
      <trkpt lat="48.5586" lon="2.08364">
        <ele>134</ele>
        <time>2022-03-06T09:04:05Z</time>
      </trkpt>
      <trkpt lat="48.55857" lon="2.08364">
        <ele>134</ele>
        <time>2022-03-06T09:04:08Z</time>
      </trkpt>
      <trkpt lat="48.55854" lon="2.08363">
        <ele>134</ele>
        <time>2022-03-06T09:04:10Z</time>
      </trkpt>
      <trkpt lat="48.55851" lon="2.08362">
        <ele>134</ele>
        <time>2022-03-06T09:04:12Z</time>
      </trkpt>
      <trkpt lat="48.55847" lon="2.08361">
        <ele>134</ele>
        <time>2022-03-06T09:04:15Z</time>
      </trkpt>
      <trkpt lat="48.55844" lon="2.0836">
        <ele>134</ele>
        <time>2022-03-06T09:04:17Z</time>
      </trkpt>
      <trkpt lat="48.5584" lon="2.0836">
        <ele>134</ele>
        <time>2022-03-06T09:04:19Z</time>
      </trkpt>
      <trkpt lat="48.55836" lon="2.0836">
        <ele>134</ele>
        <time>2022-03-06T09:04:22Z</time>
      </trkpt>
      <trkpt lat="48.55833" lon="2.08359">
        <ele>134</ele>
        <time>2022-03-06T09:04:25Z</time>
      </trkpt>
      <trkpt lat="48.5583" lon="2.08359">
        <ele>134</ele>
        <time>2022-03-06T09:04:27Z</time>
      </trkpt>
      <trkpt lat="48.55826" lon="2.08359">
        <ele>134</ele>
        <time>2022-03-06T09:04:29Z</time>
      </trkpt>
      <trkpt lat="48.55823" lon="2.08359">
        <ele>134</ele>
        <time>2022-03-06T09:04:31Z</time>
      </trkpt>
      <trkpt lat="48.5582" lon="2.08359">
        <ele>134</ele>
        <time>2022-03-06T09:04:34Z</time>
      </trkpt>
      <trkpt lat="48.55817" lon="2.08359">
        <ele>134</ele>
        <time>2022-03-06T09:04:36Z</time>
      </trkpt>
      <trkpt lat="48.55813" lon="2.08359">
        <ele>135</ele>
        <time>2022-03-06T09:04:39Z</time>
      </trkpt>
      <trkpt lat="48.5581" lon="2.08361">
        <ele>135</ele>
        <time>2022-03-06T09:04:42Z</time>
      </trkpt>
      <trkpt lat="48.55805" lon="2.08361">
        <ele>135</ele>
        <time>2022-03-06T09:04:44Z</time>
      </trkpt>
      <trkpt lat="48.55802" lon="2.08361">
        <ele>135</ele>
        <time>2022-03-06T09:04:47Z</time>
      </trkpt>
      <trkpt lat="48.55798" lon="2.08361">
        <ele>135</ele>
        <time>2022-03-06T09:04:50Z</time>
      </trkpt>
      <trkpt lat="48.55795" lon="2.08361">
        <ele>135</ele>
        <time>2022-03-06T09:04:54Z</time>
      </trkpt>
      <trkpt lat="48.55791" lon="2.08361">
        <ele>136</ele>
        <time>2022-03-06T09:04:57Z</time>
      </trkpt>
      <trkpt lat="48.55788" lon="2.08361">
        <ele>135</ele>
        <time>2022-03-06T09:05:19Z</time>
      </trkpt>
      <trkpt lat="48.55785" lon="2.08361">
        <ele>135</ele>
        <time>2022-03-06T09:05:23Z</time>
      </trkpt>
      <trkpt lat="48.55782" lon="2.08362">
        <ele>136</ele>
        <time>2022-03-06T09:05:27Z</time>
      </trkpt>
      <trkpt lat="48.55779" lon="2.08363">
        <ele>136</ele>
        <time>2022-03-06T09:05:31Z</time>
      </trkpt>
      <trkpt lat="48.55775" lon="2.08364">
        <ele>136</ele>
        <time>2022-03-06T09:05:34Z</time>
      </trkpt>
      <trkpt lat="48.55772" lon="2.08363">
        <ele>136</ele>
        <time>2022-03-06T09:05:36Z</time>
      </trkpt>
      <trkpt lat="48.55768" lon="2.08363">
        <ele>137</ele>
        <time>2022-03-06T09:05:39Z</time>
      </trkpt>
      <trkpt lat="48.55765" lon="2.08362">
        <ele>137</ele>
        <time>2022-03-06T09:05:42Z</time>
      </trkpt>
      <trkpt lat="48.55761" lon="2.08362">
        <ele>138</ele>
        <time>2022-03-06T09:05:45Z</time>
      </trkpt>
      <trkpt lat="48.55758" lon="2.08362">
        <ele>138</ele>
        <time>2022-03-06T09:05:47Z</time>
      </trkpt>
      <trkpt lat="48.55755" lon="2.08361">
        <ele>138</ele>
        <time>2022-03-06T09:05:49Z</time>
      </trkpt>
      <trkpt lat="48.55752" lon="2.08362">
        <ele>139</ele>
        <time>2022-03-06T09:05:53Z</time>
      </trkpt>
      <trkpt lat="48.55748" lon="2.08363">
        <ele>140</ele>
        <time>2022-03-06T09:05:57Z</time>
      </trkpt>
      <trkpt lat="48.55745" lon="2.08365">
        <ele>140</ele>
        <time>2022-03-06T09:05:59Z</time>
      </trkpt>
      <trkpt lat="48.55742" lon="2.08367">
        <ele>141</ele>
        <time>2022-03-06T09:06:02Z</time>
      </trkpt>
      <trkpt lat="48.55739" lon="2.08369">
        <ele>142</ele>
        <time>2022-03-06T09:06:06Z</time>
      </trkpt>
      <trkpt lat="48.55736" lon="2.08372">
        <ele>143</ele>
        <time>2022-03-06T09:06:10Z</time>
      </trkpt>
      <trkpt lat="48.55733" lon="2.08374">
        <ele>143</ele>
        <time>2022-03-06T09:06:12Z</time>
      </trkpt>
      <trkpt lat="48.5573" lon="2.08376">
        <ele>143</ele>
        <time>2022-03-06T09:06:15Z</time>
      </trkpt>
      <trkpt lat="48.55726" lon="2.08378">
        <ele>144</ele>
        <time>2022-03-06T09:06:18Z</time>
      </trkpt>
      <trkpt lat="48.55723" lon="2.08381">
        <ele>145</ele>
        <time>2022-03-06T09:06:21Z</time>
      </trkpt>
      <trkpt lat="48.5572" lon="2.08384">
        <ele>145</ele>
        <time>2022-03-06T09:06:25Z</time>
      </trkpt>
      <trkpt lat="48.55717" lon="2.08386">
        <ele>146</ele>
        <time>2022-03-06T09:06:28Z</time>
      </trkpt>
      <trkpt lat="48.55714" lon="2.08388">
        <ele>147</ele>
        <time>2022-03-06T09:06:31Z</time>
      </trkpt>
      <trkpt lat="48.55711" lon="2.08391">
        <ele>147</ele>
        <time>2022-03-06T09:06:34Z</time>
      </trkpt>
      <trkpt lat="48.55708" lon="2.08392">
        <ele>148</ele>
        <time>2022-03-06T09:06:39Z</time>
      </trkpt>
      <trkpt lat="48.55705" lon="2.08393">
        <ele>149</ele>
        <time>2022-03-06T09:06:42Z</time>
      </trkpt>
      <trkpt lat="48.55702" lon="2.08395">
        <ele>149</ele>
        <time>2022-03-06T09:06:45Z</time>
      </trkpt>
      <trkpt lat="48.55699" lon="2.08396">
        <ele>150</ele>
        <time>2022-03-06T09:06:48Z</time>
      </trkpt>
      <trkpt lat="48.55696" lon="2.08398">
        <ele>150</ele>
        <time>2022-03-06T09:06:50Z</time>
      </trkpt>
      <trkpt lat="48.55693" lon="2.084">
        <ele>150</ele>
        <time>2022-03-06T09:06:53Z</time>
      </trkpt>
      <trkpt lat="48.55691" lon="2.08402">
        <ele>151</ele>
        <time>2022-03-06T09:06:55Z</time>
      </trkpt>
      <trkpt lat="48.55687" lon="2.08404">
        <ele>151</ele>
        <time>2022-03-06T09:06:58Z</time>
      </trkpt>
      <trkpt lat="48.55683" lon="2.08406">
        <ele>151</ele>
        <time>2022-03-06T09:07:01Z</time>
      </trkpt>
      <trkpt lat="48.55681" lon="2.0841">
        <ele>151</ele>
        <time>2022-03-06T09:07:04Z</time>
      </trkpt>
      <trkpt lat="48.55679" lon="2.08413">
        <ele>152</ele>
        <time>2022-03-06T09:07:06Z</time>
      </trkpt>
      <trkpt lat="48.55677" lon="2.08417">
        <ele>152</ele>
        <time>2022-03-06T09:07:09Z</time>
      </trkpt>
      <trkpt lat="48.55675" lon="2.08422">
        <ele>152</ele>
        <time>2022-03-06T09:07:12Z</time>
      </trkpt>
      <trkpt lat="48.55673" lon="2.08427">
        <ele>152</ele>
        <time>2022-03-06T09:07:15Z</time>
      </trkpt>
      <trkpt lat="48.55671" lon="2.08432">
        <ele>152</ele>
        <time>2022-03-06T09:07:17Z</time>
      </trkpt>
      <trkpt lat="48.5567" lon="2.08436">
        <ele>152</ele>
        <time>2022-03-06T09:07:19Z</time>
      </trkpt>
      <trkpt lat="48.55667" lon="2.08439">
        <ele>152</ele>
        <time>2022-03-06T09:07:22Z</time>
      </trkpt>
      <trkpt lat="48.55665" lon="2.08445">
        <ele>152</ele>
        <time>2022-03-06T09:07:24Z</time>
      </trkpt>
      <trkpt lat="48.55663" lon="2.08449">
        <ele>152</ele>
        <time>2022-03-06T09:07:26Z</time>
      </trkpt>
      <trkpt lat="48.5566" lon="2.08449">
        <ele>152</ele>
        <time>2022-03-06T09:07:28Z</time>
      </trkpt>
      <trkpt lat="48.55658" lon="2.08453">
        <ele>152</ele>
        <time>2022-03-06T09:07:31Z</time>
      </trkpt>
      <trkpt lat="48.55656" lon="2.08457">
        <ele>152</ele>
        <time>2022-03-06T09:07:34Z</time>
      </trkpt>
      <trkpt lat="48.55653" lon="2.08459">
        <ele>152</ele>
        <time>2022-03-06T09:07:37Z</time>
      </trkpt>
      <trkpt lat="48.5565" lon="2.0846">
        <ele>152</ele>
        <time>2022-03-06T09:07:39Z</time>
      </trkpt>
      <trkpt lat="48.55646" lon="2.08461">
        <ele>153</ele>
        <time>2022-03-06T09:07:42Z</time>
      </trkpt>
      <trkpt lat="48.55643" lon="2.08461">
        <ele>153</ele>
        <time>2022-03-06T09:07:44Z</time>
      </trkpt>
      <trkpt lat="48.5564" lon="2.08461">
        <ele>153</ele>
        <time>2022-03-06T09:07:47Z</time>
      </trkpt>
      <trkpt lat="48.55636" lon="2.08461">
        <ele>153</ele>
        <time>2022-03-06T09:07:49Z</time>
      </trkpt>
      <trkpt lat="48.55633" lon="2.08461">
        <ele>153</ele>
        <time>2022-03-06T09:07:52Z</time>
      </trkpt>
      <trkpt lat="48.55629" lon="2.08461">
        <ele>153</ele>
        <time>2022-03-06T09:07:55Z</time>
      </trkpt>
      <trkpt lat="48.55625" lon="2.08461">
        <ele>153</ele>
        <time>2022-03-06T09:07:57Z</time>
      </trkpt>
      <trkpt lat="48.55622" lon="2.08461">
        <ele>154</ele>
        <time>2022-03-06T09:08:00Z</time>
      </trkpt>
      <trkpt lat="48.55619" lon="2.08461">
        <ele>154</ele>
        <time>2022-03-06T09:08:03Z</time>
      </trkpt>
      <trkpt lat="48.55616" lon="2.08461">
        <ele>154</ele>
        <time>2022-03-06T09:08:05Z</time>
      </trkpt>
      <trkpt lat="48.55612" lon="2.08461">
        <ele>154</ele>
        <time>2022-03-06T09:08:08Z</time>
      </trkpt>
      <trkpt lat="48.55609" lon="2.08461">
        <ele>154</ele>
        <time>2022-03-06T09:08:10Z</time>
      </trkpt>
      <trkpt lat="48.55606" lon="2.08461">
        <ele>154</ele>
        <time>2022-03-06T09:08:12Z</time>
      </trkpt>
      <trkpt lat="48.55603" lon="2.08461">
        <ele>154</ele>
        <time>2022-03-06T09:08:15Z</time>
      </trkpt>
      <trkpt lat="48.55599" lon="2.08462">
        <ele>154</ele>
        <time>2022-03-06T09:08:18Z</time>
      </trkpt>
      <trkpt lat="48.55596" lon="2.08463">
        <ele>154</ele>
        <time>2022-03-06T09:08:20Z</time>
      </trkpt>
      <trkpt lat="48.55593" lon="2.08462">
        <ele>154</ele>
        <time>2022-03-06T09:08:23Z</time>
      </trkpt>
      <trkpt lat="48.55589" lon="2.08462">
        <ele>155</ele>
        <time>2022-03-06T09:08:26Z</time>
      </trkpt>
      <trkpt lat="48.55586" lon="2.08462">
        <ele>155</ele>
        <time>2022-03-06T09:08:28Z</time>
      </trkpt>
      <trkpt lat="48.55582" lon="2.08462">
        <ele>155</ele>
        <time>2022-03-06T09:08:30Z</time>
      </trkpt>
      <trkpt lat="48.55579" lon="2.08463">
        <ele>155</ele>
        <time>2022-03-06T09:08:32Z</time>
      </trkpt>
      <trkpt lat="48.55576" lon="2.08463">
        <ele>155</ele>
        <time>2022-03-06T09:08:34Z</time>
      </trkpt>
      <trkpt lat="48.55573" lon="2.08464">
        <ele>155</ele>
        <time>2022-03-06T09:08:36Z</time>
      </trkpt>
      <trkpt lat="48.5557" lon="2.08465">
        <ele>155</ele>
        <time>2022-03-06T09:08:38Z</time>
      </trkpt>
      <trkpt lat="48.55567" lon="2.08466">
        <ele>155</ele>
        <time>2022-03-06T09:08:40Z</time>
      </trkpt>
      <trkpt lat="48.55564" lon="2.08467">
        <ele>155</ele>
        <time>2022-03-06T09:08:42Z</time>
      </trkpt>
      <trkpt lat="48.55561" lon="2.08467">
        <ele>155</ele>
        <time>2022-03-06T09:08:45Z</time>
      </trkpt>
      <trkpt lat="48.55557" lon="2.08467">
        <ele>155</ele>
        <time>2022-03-06T09:08:48Z</time>
      </trkpt>
      <trkpt lat="48.55553" lon="2.08467">
        <ele>155</ele>
        <time>2022-03-06T09:08:51Z</time>
      </trkpt>
      <trkpt lat="48.55549" lon="2.08467">
        <ele>155</ele>
        <time>2022-03-06T09:08:54Z</time>
      </trkpt>
      <trkpt lat="48.55546" lon="2.08468">
        <ele>155</ele>
        <time>2022-03-06T09:08:56Z</time>
      </trkpt>
      <trkpt lat="48.55542" lon="2.08469">
        <ele>155</ele>
        <time>2022-03-06T09:08:58Z</time>
      </trkpt>
      <trkpt lat="48.55539" lon="2.0847">
        <ele>156</ele>
        <time>2022-03-06T09:09:00Z</time>
      </trkpt>
      <trkpt lat="48.55536" lon="2.08471">
        <ele>156</ele>
        <time>2022-03-06T09:09:02Z</time>
      </trkpt>
      <trkpt lat="48.55533" lon="2.0847">
        <ele>156</ele>
        <time>2022-03-06T09:09:05Z</time>
      </trkpt>
      <trkpt lat="48.5553" lon="2.08468">
        <ele>156</ele>
        <time>2022-03-06T09:09:07Z</time>
      </trkpt>
      <trkpt lat="48.55527" lon="2.08467">
        <ele>156</ele>
        <time>2022-03-06T09:09:09Z</time>
      </trkpt>
      <trkpt lat="48.55524" lon="2.08465">
        <ele>156</ele>
        <time>2022-03-06T09:09:11Z</time>
      </trkpt>
      <trkpt lat="48.55521" lon="2.08464">
        <ele>156</ele>
        <time>2022-03-06T09:09:14Z</time>
      </trkpt>
      <trkpt lat="48.55517" lon="2.08464">
        <ele>156</ele>
        <time>2022-03-06T09:09:16Z</time>
      </trkpt>
      <trkpt lat="48.55514" lon="2.08463">
        <ele>156</ele>
        <time>2022-03-06T09:09:18Z</time>
      </trkpt>
      <trkpt lat="48.5551" lon="2.08462">
        <ele>156</ele>
        <time>2022-03-06T09:09:21Z</time>
      </trkpt>
      <trkpt lat="48.55507" lon="2.08461">
        <ele>156</ele>
        <time>2022-03-06T09:09:23Z</time>
      </trkpt>
      <trkpt lat="48.55504" lon="2.0846">
        <ele>156</ele>
        <time>2022-03-06T09:09:25Z</time>
      </trkpt>
      <trkpt lat="48.55501" lon="2.08459">
        <ele>156</ele>
        <time>2022-03-06T09:09:28Z</time>
      </trkpt>
      <trkpt lat="48.55498" lon="2.08458">
        <ele>156</ele>
        <time>2022-03-06T09:09:31Z</time>
      </trkpt>
      <trkpt lat="48.55494" lon="2.08458">
        <ele>156</ele>
        <time>2022-03-06T09:09:34Z</time>
      </trkpt>
      <trkpt lat="48.5549" lon="2.08459">
        <ele>156</ele>
        <time>2022-03-06T09:09:36Z</time>
      </trkpt>
      <trkpt lat="48.55487" lon="2.08459">
        <ele>156</ele>
        <time>2022-03-06T09:09:38Z</time>
      </trkpt>
      <trkpt lat="48.55483" lon="2.08458">
        <ele>156</ele>
        <time>2022-03-06T09:09:40Z</time>
      </trkpt>
      <trkpt lat="48.5548" lon="2.08457">
        <ele>156</ele>
        <time>2022-03-06T09:09:42Z</time>
      </trkpt>
      <trkpt lat="48.55477" lon="2.08456">
        <ele>156</ele>
        <time>2022-03-06T09:09:45Z</time>
      </trkpt>
      <trkpt lat="48.55474" lon="2.08456">
        <ele>156</ele>
        <time>2022-03-06T09:09:47Z</time>
      </trkpt>
      <trkpt lat="48.5547" lon="2.08456">
        <ele>155</ele>
        <time>2022-03-06T09:09:49Z</time>
      </trkpt>
      <trkpt lat="48.55467" lon="2.08456">
        <ele>155</ele>
        <time>2022-03-06T09:09:51Z</time>
      </trkpt>
      <trkpt lat="48.55463" lon="2.08455">
        <ele>155</ele>
        <time>2022-03-06T09:09:54Z</time>
      </trkpt>
      <trkpt lat="48.5546" lon="2.08455">
        <ele>155</ele>
        <time>2022-03-06T09:09:56Z</time>
      </trkpt>
      <trkpt lat="48.55457" lon="2.08455">
        <ele>155</ele>
        <time>2022-03-06T09:09:59Z</time>
      </trkpt>
      <trkpt lat="48.55454" lon="2.08455">
        <ele>156</ele>
        <time>2022-03-06T09:10:01Z</time>
      </trkpt>
      <trkpt lat="48.5545" lon="2.08455">
        <ele>156</ele>
        <time>2022-03-06T09:10:03Z</time>
      </trkpt>
      <trkpt lat="48.55447" lon="2.08456">
        <ele>156</ele>
        <time>2022-03-06T09:10:05Z</time>
      </trkpt>
      <trkpt lat="48.55444" lon="2.08457">
        <ele>156</ele>
        <time>2022-03-06T09:10:08Z</time>
      </trkpt>
      <trkpt lat="48.5544" lon="2.08458">
        <ele>156</ele>
        <time>2022-03-06T09:10:10Z</time>
      </trkpt>
      <trkpt lat="48.55436" lon="2.08458">
        <ele>156</ele>
        <time>2022-03-06T09:10:12Z</time>
      </trkpt>
      <trkpt lat="48.55433" lon="2.08459">
        <ele>156</ele>
        <time>2022-03-06T09:10:14Z</time>
      </trkpt>
      <trkpt lat="48.5543" lon="2.08459">
        <ele>156</ele>
        <time>2022-03-06T09:10:16Z</time>
      </trkpt>
      <trkpt lat="48.55427" lon="2.08459">
        <ele>156</ele>
        <time>2022-03-06T09:10:19Z</time>
      </trkpt>
      <trkpt lat="48.55423" lon="2.0846">
        <ele>156</ele>
        <time>2022-03-06T09:10:21Z</time>
      </trkpt>
      <trkpt lat="48.5542" lon="2.0846">
        <ele>156</ele>
        <time>2022-03-06T09:10:23Z</time>
      </trkpt>
      <trkpt lat="48.55417" lon="2.0846">
        <ele>156</ele>
        <time>2022-03-06T09:10:25Z</time>
      </trkpt>
      <trkpt lat="48.55413" lon="2.0846">
        <ele>156</ele>
        <time>2022-03-06T09:10:29Z</time>
      </trkpt>
      <trkpt lat="48.5541" lon="2.0846">
        <ele>156</ele>
        <time>2022-03-06T09:10:31Z</time>
      </trkpt>
      <trkpt lat="48.55406" lon="2.08461">
        <ele>156</ele>
        <time>2022-03-06T09:10:34Z</time>
      </trkpt>
      <trkpt lat="48.55403" lon="2.08463">
        <ele>156</ele>
        <time>2022-03-06T09:10:36Z</time>
      </trkpt>
      <trkpt lat="48.554" lon="2.08465">
        <ele>156</ele>
        <time>2022-03-06T09:10:38Z</time>
      </trkpt>
      <trkpt lat="48.55397" lon="2.08466">
        <ele>156</ele>
        <time>2022-03-06T09:10:40Z</time>
      </trkpt>
      <trkpt lat="48.55393" lon="2.08466">
        <ele>155</ele>
        <time>2022-03-06T09:10:42Z</time>
      </trkpt>
      <trkpt lat="48.55391" lon="2.08466">
        <ele>155</ele>
        <time>2022-03-06T09:10:44Z</time>
      </trkpt>
      <trkpt lat="48.55388" lon="2.08466">
        <ele>155</ele>
        <time>2022-03-06T09:10:46Z</time>
      </trkpt>
      <trkpt lat="48.55384" lon="2.08466">
        <ele>155</ele>
        <time>2022-03-06T09:10:49Z</time>
      </trkpt>
      <trkpt lat="48.55381" lon="2.08466">
        <ele>155</ele>
        <time>2022-03-06T09:10:51Z</time>
      </trkpt>
      <trkpt lat="48.55377" lon="2.08467">
        <ele>155</ele>
        <time>2022-03-06T09:10:53Z</time>
      </trkpt>
      <trkpt lat="48.55373" lon="2.08467">
        <ele>155</ele>
        <time>2022-03-06T09:10:56Z</time>
      </trkpt>
      <trkpt lat="48.5537" lon="2.08467">
        <ele>155</ele>
        <time>2022-03-06T09:10:58Z</time>
      </trkpt>
      <trkpt lat="48.55367" lon="2.08467">
        <ele>155</ele>
        <time>2022-03-06T09:11:00Z</time>
      </trkpt>
      <trkpt lat="48.55363" lon="2.08467">
        <ele>155</ele>
        <time>2022-03-06T09:11:02Z</time>
      </trkpt>
      <trkpt lat="48.5536" lon="2.08467">
        <ele>155</ele>
        <time>2022-03-06T09:11:04Z</time>
      </trkpt>
      <trkpt lat="48.55357" lon="2.08467">
        <ele>155</ele>
        <time>2022-03-06T09:11:07Z</time>
      </trkpt>
      <trkpt lat="48.55353" lon="2.08467">
        <ele>155</ele>
        <time>2022-03-06T09:11:09Z</time>
      </trkpt>
      <trkpt lat="48.5535" lon="2.08467">
        <ele>155</ele>
        <time>2022-03-06T09:11:11Z</time>
      </trkpt>
      <trkpt lat="48.55347" lon="2.08466">
        <ele>155</ele>
        <time>2022-03-06T09:11:14Z</time>
      </trkpt>
      <trkpt lat="48.55343" lon="2.08466">
        <ele>155</ele>
        <time>2022-03-06T09:11:16Z</time>
      </trkpt>
      <trkpt lat="48.5534" lon="2.08465">
        <ele>155</ele>
        <time>2022-03-06T09:11:19Z</time>
      </trkpt>
      <trkpt lat="48.55337" lon="2.08464">
        <ele>155</ele>
        <time>2022-03-06T09:11:21Z</time>
      </trkpt>
      <trkpt lat="48.55333" lon="2.08463">
        <ele>154</ele>
        <time>2022-03-06T09:11:23Z</time>
      </trkpt>
      <trkpt lat="48.5533" lon="2.08461">
        <ele>154</ele>
        <time>2022-03-06T09:11:25Z</time>
      </trkpt>
      <trkpt lat="48.55327" lon="2.0846">
        <ele>154</ele>
        <time>2022-03-06T09:11:27Z</time>
      </trkpt>
      <trkpt lat="48.55324" lon="2.08459">
        <ele>154</ele>
        <time>2022-03-06T09:11:29Z</time>
      </trkpt>
      <trkpt lat="48.55321" lon="2.08459">
        <ele>154</ele>
        <time>2022-03-06T09:11:31Z</time>
      </trkpt>
      <trkpt lat="48.55318" lon="2.08459">
        <ele>154</ele>
        <time>2022-03-06T09:11:34Z</time>
      </trkpt>
      <trkpt lat="48.55315" lon="2.08458">
        <ele>154</ele>
        <time>2022-03-06T09:11:36Z</time>
      </trkpt>
      <trkpt lat="48.55312" lon="2.08457">
        <ele>154</ele>
        <time>2022-03-06T09:11:38Z</time>
      </trkpt>
      <trkpt lat="48.55309" lon="2.08456">
        <ele>154</ele>
        <time>2022-03-06T09:11:40Z</time>
      </trkpt>
      <trkpt lat="48.55305" lon="2.08455">
        <ele>154</ele>
        <time>2022-03-06T09:11:43Z</time>
      </trkpt>
      <trkpt lat="48.55302" lon="2.08454">
        <ele>154</ele>
        <time>2022-03-06T09:11:45Z</time>
      </trkpt>
      <trkpt lat="48.55298" lon="2.08453">
        <ele>154</ele>
        <time>2022-03-06T09:11:47Z</time>
      </trkpt>
      <trkpt lat="48.55295" lon="2.08453">
        <ele>154</ele>
        <time>2022-03-06T09:11:49Z</time>
      </trkpt>
      <trkpt lat="48.55292" lon="2.08453">
        <ele>154</ele>
        <time>2022-03-06T09:11:52Z</time>
      </trkpt>
      <trkpt lat="48.55288" lon="2.08453">
        <ele>154</ele>
        <time>2022-03-06T09:11:55Z</time>
      </trkpt>
      <trkpt lat="48.55285" lon="2.08453">
        <ele>154</ele>
        <time>2022-03-06T09:11:57Z</time>
      </trkpt>
      <trkpt lat="48.55282" lon="2.08454">
        <ele>154</ele>
        <time>2022-03-06T09:11:59Z</time>
      </trkpt>
      <trkpt lat="48.55278" lon="2.08453">
        <ele>154</ele>
        <time>2022-03-06T09:12:02Z</time>
      </trkpt>
      <trkpt lat="48.55274" lon="2.08453">
        <ele>154</ele>
        <time>2022-03-06T09:12:05Z</time>
      </trkpt>
      <trkpt lat="48.5527" lon="2.08452">
        <ele>154</ele>
        <time>2022-03-06T09:12:07Z</time>
      </trkpt>
      <trkpt lat="48.55267" lon="2.08452">
        <ele>153</ele>
        <time>2022-03-06T09:12:10Z</time>
      </trkpt>
      <trkpt lat="48.55263" lon="2.08451">
        <ele>153</ele>
        <time>2022-03-06T09:12:12Z</time>
      </trkpt>
      <trkpt lat="48.5526" lon="2.0845">
        <ele>153</ele>
        <time>2022-03-06T09:12:15Z</time>
      </trkpt>
      <trkpt lat="48.55255" lon="2.08451">
        <ele>153</ele>
        <time>2022-03-06T09:12:18Z</time>
      </trkpt>
      <trkpt lat="48.55252" lon="2.0845">
        <ele>153</ele>
        <time>2022-03-06T09:12:20Z</time>
      </trkpt>
      <trkpt lat="48.55249" lon="2.0845">
        <ele>153</ele>
        <time>2022-03-06T09:12:23Z</time>
      </trkpt>
      <trkpt lat="48.55245" lon="2.0845">
        <ele>153</ele>
        <time>2022-03-06T09:12:25Z</time>
      </trkpt>
      <trkpt lat="48.55242" lon="2.0845">
        <ele>153</ele>
        <time>2022-03-06T09:12:27Z</time>
      </trkpt>
      <trkpt lat="48.55239" lon="2.0845">
        <ele>153</ele>
        <time>2022-03-06T09:12:29Z</time>
      </trkpt>
      <trkpt lat="48.55235" lon="2.0845">
        <ele>153</ele>
        <time>2022-03-06T09:12:32Z</time>
      </trkpt>
      <trkpt lat="48.55231" lon="2.0845">
        <ele>153</ele>
        <time>2022-03-06T09:12:35Z</time>
      </trkpt>
      <trkpt lat="48.55228" lon="2.0845">
        <ele>153</ele>
        <time>2022-03-06T09:12:37Z</time>
      </trkpt>
      <trkpt lat="48.55224" lon="2.0845">
        <ele>153</ele>
        <time>2022-03-06T09:12:39Z</time>
      </trkpt>
      <trkpt lat="48.55221" lon="2.08451">
        <ele>152</ele>
        <time>2022-03-06T09:12:42Z</time>
      </trkpt>
      <trkpt lat="48.55217" lon="2.08452">
        <ele>152</ele>
        <time>2022-03-06T09:12:45Z</time>
      </trkpt>
      <trkpt lat="48.55214" lon="2.08453">
        <ele>152</ele>
        <time>2022-03-06T09:12:47Z</time>
      </trkpt>
      <trkpt lat="48.5521" lon="2.08453">
        <ele>152</ele>
        <time>2022-03-06T09:12:49Z</time>
      </trkpt>
      <trkpt lat="48.55207" lon="2.08454">
        <ele>152</ele>
        <time>2022-03-06T09:12:51Z</time>
      </trkpt>
      <trkpt lat="48.55204" lon="2.08454">
        <ele>152</ele>
        <time>2022-03-06T09:12:53Z</time>
      </trkpt>
      <trkpt lat="48.55201" lon="2.08452">
        <ele>152</ele>
        <time>2022-03-06T09:12:56Z</time>
      </trkpt>
      <trkpt lat="48.55199" lon="2.0845">
        <ele>152</ele>
        <time>2022-03-06T09:12:59Z</time>
      </trkpt>
      <trkpt lat="48.55197" lon="2.08446">
        <ele>151</ele>
        <time>2022-03-06T09:13:01Z</time>
      </trkpt>
      <trkpt lat="48.55197" lon="2.08441">
        <ele>151</ele>
        <time>2022-03-06T09:13:04Z</time>
      </trkpt>
      <trkpt lat="48.55196" lon="2.08436">
        <ele>151</ele>
        <time>2022-03-06T09:13:06Z</time>
      </trkpt>
      <trkpt lat="48.55196" lon="2.0843">
        <ele>151</ele>
        <time>2022-03-06T09:13:08Z</time>
      </trkpt>
      <trkpt lat="48.55195" lon="2.08425">
        <ele>151</ele>
        <time>2022-03-06T09:13:10Z</time>
      </trkpt>
      <trkpt lat="48.55195" lon="2.0842">
        <ele>151</ele>
        <time>2022-03-06T09:13:12Z</time>
      </trkpt>
      <trkpt lat="48.55195" lon="2.08415">
        <ele>151</ele>
        <time>2022-03-06T09:13:14Z</time>
      </trkpt>
      <trkpt lat="48.55195" lon="2.08409">
        <ele>151</ele>
        <time>2022-03-06T09:13:16Z</time>
      </trkpt>
      <trkpt lat="48.55194" lon="2.08403">
        <ele>151</ele>
        <time>2022-03-06T09:13:18Z</time>
      </trkpt>
      <trkpt lat="48.55194" lon="2.08399">
        <ele>151</ele>
        <time>2022-03-06T09:13:20Z</time>
      </trkpt>
      <trkpt lat="48.55194" lon="2.08394">
        <ele>151</ele>
        <time>2022-03-06T09:13:22Z</time>
      </trkpt>
      <trkpt lat="48.55193" lon="2.08389">
        <ele>151</ele>
        <time>2022-03-06T09:13:25Z</time>
      </trkpt>
      <trkpt lat="48.55193" lon="2.08383">
        <ele>151</ele>
        <time>2022-03-06T09:13:28Z</time>
      </trkpt>
      <trkpt lat="48.55193" lon="2.08377">
        <ele>151</ele>
        <time>2022-03-06T09:13:31Z</time>
      </trkpt>
      <trkpt lat="48.55193" lon="2.08371">
        <ele>151</ele>
        <time>2022-03-06T09:13:34Z</time>
      </trkpt>
      <trkpt lat="48.55192" lon="2.08365">
        <ele>151</ele>
        <time>2022-03-06T09:13:37Z</time>
      </trkpt>
      <trkpt lat="48.55192" lon="2.0836">
        <ele>151</ele>
        <time>2022-03-06T09:13:39Z</time>
      </trkpt>
      <trkpt lat="48.55192" lon="2.08355">
        <ele>151</ele>
        <time>2022-03-06T09:13:41Z</time>
      </trkpt>
      <trkpt lat="48.55192" lon="2.0835">
        <ele>151</ele>
        <time>2022-03-06T09:13:44Z</time>
      </trkpt>
      <trkpt lat="48.55192" lon="2.08345">
        <ele>151</ele>
        <time>2022-03-06T09:13:46Z</time>
      </trkpt>
      <trkpt lat="48.55192" lon="2.08341">
        <ele>151</ele>
        <time>2022-03-06T09:13:48Z</time>
      </trkpt>
      <trkpt lat="48.55192" lon="2.08336">
        <ele>151</ele>
        <time>2022-03-06T09:13:50Z</time>
      </trkpt>
      <trkpt lat="48.55191" lon="2.08332">
        <ele>151</ele>
        <time>2022-03-06T09:13:52Z</time>
      </trkpt>
      <trkpt lat="48.55191" lon="2.08328">
        <ele>150</ele>
        <time>2022-03-06T09:13:54Z</time>
      </trkpt>
      <trkpt lat="48.55191" lon="2.08323">
        <ele>150</ele>
        <time>2022-03-06T09:13:56Z</time>
      </trkpt>
      <trkpt lat="48.55191" lon="2.08319">
        <ele>150</ele>
        <time>2022-03-06T09:13:58Z</time>
      </trkpt>
      <trkpt lat="48.55191" lon="2.08314">
        <ele>150</ele>
        <time>2022-03-06T09:14:00Z</time>
      </trkpt>
      <trkpt lat="48.55191" lon="2.0831">
        <ele>150</ele>
        <time>2022-03-06T09:14:02Z</time>
      </trkpt>
      <trkpt lat="48.55191" lon="2.08305">
        <ele>150</ele>
        <time>2022-03-06T09:14:04Z</time>
      </trkpt>
      <trkpt lat="48.55191" lon="2.08301">
        <ele>150</ele>
        <time>2022-03-06T09:14:06Z</time>
      </trkpt>
      <trkpt lat="48.55191" lon="2.08296">
        <ele>150</ele>
        <time>2022-03-06T09:14:09Z</time>
      </trkpt>
      <trkpt lat="48.5519" lon="2.08291">
        <ele>150</ele>
        <time>2022-03-06T09:14:11Z</time>
      </trkpt>
      <trkpt lat="48.5519" lon="2.08286">
        <ele>150</ele>
        <time>2022-03-06T09:14:13Z</time>
      </trkpt>
      <trkpt lat="48.5519" lon="2.08281">
        <ele>150</ele>
        <time>2022-03-06T09:14:15Z</time>
      </trkpt>
      <trkpt lat="48.5519" lon="2.08276">
        <ele>150</ele>
        <time>2022-03-06T09:14:17Z</time>
      </trkpt>
      <trkpt lat="48.5519" lon="2.08271">
        <ele>150</ele>
        <time>2022-03-06T09:14:19Z</time>
      </trkpt>
      <trkpt lat="48.5519" lon="2.08267">
        <ele>150</ele>
        <time>2022-03-06T09:14:21Z</time>
      </trkpt>
      <trkpt lat="48.5519" lon="2.08262">
        <ele>150</ele>
        <time>2022-03-06T09:14:23Z</time>
      </trkpt>
      <trkpt lat="48.5519" lon="2.08258">
        <ele>150</ele>
        <time>2022-03-06T09:14:25Z</time>
      </trkpt>
      <trkpt lat="48.5519" lon="2.08253">
        <ele>150</ele>
        <time>2022-03-06T09:14:27Z</time>
      </trkpt>
      <trkpt lat="48.5519" lon="2.08249">
        <ele>150</ele>
        <time>2022-03-06T09:14:29Z</time>
      </trkpt>
      <trkpt lat="48.5519" lon="2.08244">
        <ele>150</ele>
        <time>2022-03-06T09:14:31Z</time>
      </trkpt>
      <trkpt lat="48.5519" lon="2.08239">
        <ele>150</ele>
        <time>2022-03-06T09:14:33Z</time>
      </trkpt>
      <trkpt lat="48.5519" lon="2.08235">
        <ele>150</ele>
        <time>2022-03-06T09:14:35Z</time>
      </trkpt>
      <trkpt lat="48.5519" lon="2.0823">
        <ele>150</ele>
        <time>2022-03-06T09:14:37Z</time>
      </trkpt>
      <trkpt lat="48.5519" lon="2.08226">
        <ele>149</ele>
        <time>2022-03-06T09:14:39Z</time>
      </trkpt>
      <trkpt lat="48.5519" lon="2.08222">
        <ele>149</ele>
        <time>2022-03-06T09:14:41Z</time>
      </trkpt>
      <trkpt lat="48.5519" lon="2.08217">
        <ele>149</ele>
        <time>2022-03-06T09:14:43Z</time>
      </trkpt>
      <trkpt lat="48.5519" lon="2.08213">
        <ele>149</ele>
        <time>2022-03-06T09:14:45Z</time>
      </trkpt>
      <trkpt lat="48.5519" lon="2.08209">
        <ele>149</ele>
        <time>2022-03-06T09:14:47Z</time>
      </trkpt>
      <trkpt lat="48.5519" lon="2.08204">
        <ele>149</ele>
        <time>2022-03-06T09:14:49Z</time>
      </trkpt>
      <trkpt lat="48.5519" lon="2.08199">
        <ele>149</ele>
        <time>2022-03-06T09:14:51Z</time>
      </trkpt>
      <trkpt lat="48.5519" lon="2.08195">
        <ele>149</ele>
        <time>2022-03-06T09:14:53Z</time>
      </trkpt>
      <trkpt lat="48.5519" lon="2.0819">
        <ele>149</ele>
        <time>2022-03-06T09:14:55Z</time>
      </trkpt>
      <trkpt lat="48.55189" lon="2.08186">
        <ele>149</ele>
        <time>2022-03-06T09:14:57Z</time>
      </trkpt>
      <trkpt lat="48.55189" lon="2.08181">
        <ele>149</ele>
        <time>2022-03-06T09:14:59Z</time>
      </trkpt>
      <trkpt lat="48.55189" lon="2.08177">
        <ele>149</ele>
        <time>2022-03-06T09:15:01Z</time>
      </trkpt>
      <trkpt lat="48.55189" lon="2.08172">
        <ele>149</ele>
        <time>2022-03-06T09:15:03Z</time>
      </trkpt>
      <trkpt lat="48.55189" lon="2.08168">
        <ele>149</ele>
        <time>2022-03-06T09:15:05Z</time>
      </trkpt>
      <trkpt lat="48.55189" lon="2.08163">
        <ele>149</ele>
        <time>2022-03-06T09:15:07Z</time>
      </trkpt>
      <trkpt lat="48.55189" lon="2.08158">
        <ele>149</ele>
        <time>2022-03-06T09:15:09Z</time>
      </trkpt>
      <trkpt lat="48.5519" lon="2.08154">
        <ele>149</ele>
        <time>2022-03-06T09:15:11Z</time>
      </trkpt>
      <trkpt lat="48.5519" lon="2.0815">
        <ele>149</ele>
        <time>2022-03-06T09:15:13Z</time>
      </trkpt>
      <trkpt lat="48.5519" lon="2.08144">
        <ele>149</ele>
        <time>2022-03-06T09:15:16Z</time>
      </trkpt>
      <trkpt lat="48.5519" lon="2.08139">
        <ele>149</ele>
        <time>2022-03-06T09:15:19Z</time>
      </trkpt>
      <trkpt lat="48.5519" lon="2.08133">
        <ele>149</ele>
        <time>2022-03-06T09:15:22Z</time>
      </trkpt>
      <trkpt lat="48.55191" lon="2.08128">
        <ele>149</ele>
        <time>2022-03-06T09:15:24Z</time>
      </trkpt>
      <trkpt lat="48.55191" lon="2.08123">
        <ele>149</ele>
        <time>2022-03-06T09:15:26Z</time>
      </trkpt>
      <trkpt lat="48.55191" lon="2.08119">
        <ele>149</ele>
        <time>2022-03-06T09:15:29Z</time>
      </trkpt>
      <trkpt lat="48.55191" lon="2.08115">
        <ele>149</ele>
        <time>2022-03-06T09:16:39Z</time>
      </trkpt>
      <trkpt lat="48.5519" lon="2.08111">
        <ele>149</ele>
        <time>2022-03-06T09:17:19Z</time>
      </trkpt>
      <trkpt lat="48.55191" lon="2.08108">
        <ele>149</ele>
        <time>2022-03-06T09:17:28Z</time>
      </trkpt>
      <trkpt lat="48.55192" lon="2.08104">
        <ele>149</ele>
        <time>2022-03-06T09:17:31Z</time>
      </trkpt>
      <trkpt lat="48.55193" lon="2.08099">
        <ele>149</ele>
        <time>2022-03-06T09:17:34Z</time>
      </trkpt>
      <trkpt lat="48.55194" lon="2.08095">
        <ele>149</ele>
        <time>2022-03-06T09:17:38Z</time>
      </trkpt>
      <trkpt lat="48.55194" lon="2.0809">
        <ele>149</ele>
        <time>2022-03-06T09:17:45Z</time>
      </trkpt>
      <trkpt lat="48.55195" lon="2.08085">
        <ele>149</ele>
        <time>2022-03-06T09:17:48Z</time>
      </trkpt>
      <trkpt lat="48.55196" lon="2.08081">
        <ele>149</ele>
        <time>2022-03-06T09:17:50Z</time>
      </trkpt>
      <trkpt lat="48.55196" lon="2.08077">
        <ele>149</ele>
        <time>2022-03-06T09:17:52Z</time>
      </trkpt>
      <trkpt lat="48.55197" lon="2.08072">
        <ele>149</ele>
        <time>2022-03-06T09:17:54Z</time>
      </trkpt>
      <trkpt lat="48.55197" lon="2.08068">
        <ele>149</ele>
        <time>2022-03-06T09:17:56Z</time>
      </trkpt>
      <trkpt lat="48.55197" lon="2.08063">
        <ele>149</ele>
        <time>2022-03-06T09:17:58Z</time>
      </trkpt>
      <trkpt lat="48.55198" lon="2.08058">
        <ele>149</ele>
        <time>2022-03-06T09:18:00Z</time>
      </trkpt>
      <trkpt lat="48.55199" lon="2.08054">
        <ele>149</ele>
        <time>2022-03-06T09:18:02Z</time>
      </trkpt>
      <trkpt lat="48.552" lon="2.08049">
        <ele>149</ele>
        <time>2022-03-06T09:18:05Z</time>
      </trkpt>
      <trkpt lat="48.552" lon="2.08045">
        <ele>149</ele>
        <time>2022-03-06T09:18:07Z</time>
      </trkpt>
      <trkpt lat="48.55201" lon="2.0804">
        <ele>149</ele>
        <time>2022-03-06T09:18:09Z</time>
      </trkpt>
      <trkpt lat="48.55201" lon="2.08036">
        <ele>149</ele>
        <time>2022-03-06T09:18:11Z</time>
      </trkpt>
      <trkpt lat="48.55202" lon="2.08032">
        <ele>149</ele>
        <time>2022-03-06T09:18:13Z</time>
      </trkpt>
      <trkpt lat="48.55202" lon="2.08028">
        <ele>149</ele>
        <time>2022-03-06T09:18:15Z</time>
      </trkpt>
      <trkpt lat="48.55203" lon="2.08023">
        <ele>149</ele>
        <time>2022-03-06T09:18:17Z</time>
      </trkpt>
      <trkpt lat="48.55204" lon="2.08019">
        <ele>149</ele>
        <time>2022-03-06T09:18:19Z</time>
      </trkpt>
      <trkpt lat="48.55204" lon="2.08015">
        <ele>149</ele>
        <time>2022-03-06T09:18:21Z</time>
      </trkpt>
      <trkpt lat="48.55205" lon="2.08011">
        <ele>149</ele>
        <time>2022-03-06T09:18:23Z</time>
      </trkpt>
      <trkpt lat="48.55206" lon="2.08007">
        <ele>149</ele>
        <time>2022-03-06T09:18:25Z</time>
      </trkpt>
      <trkpt lat="48.55206" lon="2.08002">
        <ele>149</ele>
        <time>2022-03-06T09:18:27Z</time>
      </trkpt>
      <trkpt lat="48.55207" lon="2.07998">
        <ele>149</ele>
        <time>2022-03-06T09:18:29Z</time>
      </trkpt>
      <trkpt lat="48.55207" lon="2.07993">
        <ele>149</ele>
        <time>2022-03-06T09:18:31Z</time>
      </trkpt>
      <trkpt lat="48.55208" lon="2.07989">
        <ele>149</ele>
        <time>2022-03-06T09:18:33Z</time>
      </trkpt>
      <trkpt lat="48.55209" lon="2.07985">
        <ele>149</ele>
        <time>2022-03-06T09:18:35Z</time>
      </trkpt>
      <trkpt lat="48.55209" lon="2.0798">
        <ele>149</ele>
        <time>2022-03-06T09:18:37Z</time>
      </trkpt>
      <trkpt lat="48.55209" lon="2.07976">
        <ele>149</ele>
        <time>2022-03-06T09:18:39Z</time>
      </trkpt>
      <trkpt lat="48.55211" lon="2.07971">
        <ele>149</ele>
        <time>2022-03-06T09:18:42Z</time>
      </trkpt>
      <trkpt lat="48.55212" lon="2.07966">
        <ele>149</ele>
        <time>2022-03-06T09:18:45Z</time>
      </trkpt>
      <trkpt lat="48.55213" lon="2.07961">
        <ele>149</ele>
        <time>2022-03-06T09:18:47Z</time>
      </trkpt>
      <trkpt lat="48.55215" lon="2.07956">
        <ele>149</ele>
        <time>2022-03-06T09:18:50Z</time>
      </trkpt>
      <trkpt lat="48.55216" lon="2.07951">
        <ele>149</ele>
        <time>2022-03-06T09:18:52Z</time>
      </trkpt>
      <trkpt lat="48.55216" lon="2.07947">
        <ele>149</ele>
        <time>2022-03-06T09:18:54Z</time>
      </trkpt>
      <trkpt lat="48.55217" lon="2.07942">
        <ele>149</ele>
        <time>2022-03-06T09:18:56Z</time>
      </trkpt>
      <trkpt lat="48.55218" lon="2.07938">
        <ele>149</ele>
        <time>2022-03-06T09:18:58Z</time>
      </trkpt>
      <trkpt lat="48.55218" lon="2.07934">
        <ele>149</ele>
        <time>2022-03-06T09:19:00Z</time>
      </trkpt>
      <trkpt lat="48.55219" lon="2.07929">
        <ele>149</ele>
        <time>2022-03-06T09:19:02Z</time>
      </trkpt>
      <trkpt lat="48.5522" lon="2.07925">
        <ele>149</ele>
        <time>2022-03-06T09:19:04Z</time>
      </trkpt>
      <trkpt lat="48.55221" lon="2.07921">
        <ele>149</ele>
        <time>2022-03-06T09:19:06Z</time>
      </trkpt>
      <trkpt lat="48.55221" lon="2.07916">
        <ele>149</ele>
        <time>2022-03-06T09:19:08Z</time>
      </trkpt>
      <trkpt lat="48.55222" lon="2.07912">
        <ele>149</ele>
        <time>2022-03-06T09:19:10Z</time>
      </trkpt>
      <trkpt lat="48.55224" lon="2.07908">
        <ele>149</ele>
        <time>2022-03-06T09:19:12Z</time>
      </trkpt>
      <trkpt lat="48.55225" lon="2.07903">
        <ele>149</ele>
        <time>2022-03-06T09:19:14Z</time>
      </trkpt>
      <trkpt lat="48.55226" lon="2.07899">
        <ele>149</ele>
        <time>2022-03-06T09:19:16Z</time>
      </trkpt>
      <trkpt lat="48.55228" lon="2.07894">
        <ele>149</ele>
        <time>2022-03-06T09:19:19Z</time>
      </trkpt>
      <trkpt lat="48.55229" lon="2.0789">
        <ele>149</ele>
        <time>2022-03-06T09:19:21Z</time>
      </trkpt>
      <trkpt lat="48.5523" lon="2.07884">
        <ele>149</ele>
        <time>2022-03-06T09:19:24Z</time>
      </trkpt>
      <trkpt lat="48.55231" lon="2.0788">
        <ele>149</ele>
        <time>2022-03-06T09:19:26Z</time>
      </trkpt>
      <trkpt lat="48.55232" lon="2.07875">
        <ele>149</ele>
        <time>2022-03-06T09:19:28Z</time>
      </trkpt>
      <trkpt lat="48.55233" lon="2.07871">
        <ele>149</ele>
        <time>2022-03-06T09:19:30Z</time>
      </trkpt>
      <trkpt lat="48.55234" lon="2.07867">
        <ele>149</ele>
        <time>2022-03-06T09:19:32Z</time>
      </trkpt>
      <trkpt lat="48.55235" lon="2.07863">
        <ele>149</ele>
        <time>2022-03-06T09:19:34Z</time>
      </trkpt>
      <trkpt lat="48.55236" lon="2.07858">
        <ele>149</ele>
        <time>2022-03-06T09:19:36Z</time>
      </trkpt>
      <trkpt lat="48.55236" lon="2.07854">
        <ele>149</ele>
        <time>2022-03-06T09:19:38Z</time>
      </trkpt>
      <trkpt lat="48.55237" lon="2.0785">
        <ele>149</ele>
        <time>2022-03-06T09:19:40Z</time>
      </trkpt>
      <trkpt lat="48.55238" lon="2.07845">
        <ele>149</ele>
        <time>2022-03-06T09:19:42Z</time>
      </trkpt>
      <trkpt lat="48.55239" lon="2.07841">
        <ele>149</ele>
        <time>2022-03-06T09:19:44Z</time>
      </trkpt>
      <trkpt lat="48.55241" lon="2.07836">
        <ele>149</ele>
        <time>2022-03-06T09:19:46Z</time>
      </trkpt>
      <trkpt lat="48.55241" lon="2.07831">
        <ele>149</ele>
        <time>2022-03-06T09:19:48Z</time>
      </trkpt>
      <trkpt lat="48.55243" lon="2.07827">
        <ele>149</ele>
        <time>2022-03-06T09:19:50Z</time>
      </trkpt>
      <trkpt lat="48.55244" lon="2.07823">
        <ele>149</ele>
        <time>2022-03-06T09:19:52Z</time>
      </trkpt>
      <trkpt lat="48.55245" lon="2.07819">
        <ele>149</ele>
        <time>2022-03-06T09:19:54Z</time>
      </trkpt>
      <trkpt lat="48.55247" lon="2.07814">
        <ele>150</ele>
        <time>2022-03-06T09:19:57Z</time>
      </trkpt>
      <trkpt lat="48.55248" lon="2.0781">
        <ele>150</ele>
        <time>2022-03-06T09:19:59Z</time>
      </trkpt>
      <trkpt lat="48.55249" lon="2.07806">
        <ele>150</ele>
        <time>2022-03-06T09:20:01Z</time>
      </trkpt>
      <trkpt lat="48.5525" lon="2.07801">
        <ele>150</ele>
        <time>2022-03-06T09:20:03Z</time>
      </trkpt>
      <trkpt lat="48.55251" lon="2.07797">
        <ele>150</ele>
        <time>2022-03-06T09:20:05Z</time>
      </trkpt>
      <trkpt lat="48.55252" lon="2.07793">
        <ele>150</ele>
        <time>2022-03-06T09:20:07Z</time>
      </trkpt>
      <trkpt lat="48.55253" lon="2.07789">
        <ele>150</ele>
        <time>2022-03-06T09:20:09Z</time>
      </trkpt>
      <trkpt lat="48.55255" lon="2.07785">
        <ele>150</ele>
        <time>2022-03-06T09:20:12Z</time>
      </trkpt>
      <trkpt lat="48.55257" lon="2.07781">
        <ele>150</ele>
        <time>2022-03-06T09:20:14Z</time>
      </trkpt>
      <trkpt lat="48.55259" lon="2.07777">
        <ele>150</ele>
        <time>2022-03-06T09:20:16Z</time>
      </trkpt>
      <trkpt lat="48.5526" lon="2.07774">
        <ele>150</ele>
        <time>2022-03-06T09:20:18Z</time>
      </trkpt>
      <trkpt lat="48.55262" lon="2.0777">
        <ele>150</ele>
        <time>2022-03-06T09:20:20Z</time>
      </trkpt>
      <trkpt lat="48.55264" lon="2.07766">
        <ele>150</ele>
        <time>2022-03-06T09:20:22Z</time>
      </trkpt>
      <trkpt lat="48.55265" lon="2.07762">
        <ele>150</ele>
        <time>2022-03-06T09:20:24Z</time>
      </trkpt>
      <trkpt lat="48.55267" lon="2.07759">
        <ele>150</ele>
        <time>2022-03-06T09:20:26Z</time>
      </trkpt>
      <trkpt lat="48.55268" lon="2.07755">
        <ele>150</ele>
        <time>2022-03-06T09:20:28Z</time>
      </trkpt>
      <trkpt lat="48.5527" lon="2.07751">
        <ele>150</ele>
        <time>2022-03-06T09:20:31Z</time>
      </trkpt>
      <trkpt lat="48.55272" lon="2.07747">
        <ele>150</ele>
        <time>2022-03-06T09:20:33Z</time>
      </trkpt>
      <trkpt lat="48.55274" lon="2.07743">
        <ele>150</ele>
        <time>2022-03-06T09:20:35Z</time>
      </trkpt>
      <trkpt lat="48.55276" lon="2.07739">
        <ele>150</ele>
        <time>2022-03-06T09:20:37Z</time>
      </trkpt>
      <trkpt lat="48.55277" lon="2.07736">
        <ele>150</ele>
        <time>2022-03-06T09:20:39Z</time>
      </trkpt>
      <trkpt lat="48.55279" lon="2.07733">
        <ele>150</ele>
        <time>2022-03-06T09:20:41Z</time>
      </trkpt>
      <trkpt lat="48.55281" lon="2.0773">
        <ele>150</ele>
        <time>2022-03-06T09:20:43Z</time>
      </trkpt>
      <trkpt lat="48.55283" lon="2.07726">
        <ele>150</ele>
        <time>2022-03-06T09:20:45Z</time>
      </trkpt>
      <trkpt lat="48.55285" lon="2.07723">
        <ele>150</ele>
        <time>2022-03-06T09:20:47Z</time>
      </trkpt>
      <trkpt lat="48.55287" lon="2.07719">
        <ele>150</ele>
        <time>2022-03-06T09:20:49Z</time>
      </trkpt>
      <trkpt lat="48.55288" lon="2.07716">
        <ele>150</ele>
        <time>2022-03-06T09:20:51Z</time>
      </trkpt>
      <trkpt lat="48.5529" lon="2.07712">
        <ele>150</ele>
        <time>2022-03-06T09:20:53Z</time>
      </trkpt>
      <trkpt lat="48.55292" lon="2.07708">
        <ele>150</ele>
        <time>2022-03-06T09:20:55Z</time>
      </trkpt>
      <trkpt lat="48.55293" lon="2.07704">
        <ele>150</ele>
        <time>2022-03-06T09:20:57Z</time>
      </trkpt>
      <trkpt lat="48.55295" lon="2.077">
        <ele>150</ele>
        <time>2022-03-06T09:20:59Z</time>
      </trkpt>
      <trkpt lat="48.55296" lon="2.07696">
        <ele>150</ele>
        <time>2022-03-06T09:21:01Z</time>
      </trkpt>
      <trkpt lat="48.55298" lon="2.07691">
        <ele>150</ele>
        <time>2022-03-06T09:21:04Z</time>
      </trkpt>
      <trkpt lat="48.553" lon="2.07687">
        <ele>150</ele>
        <time>2022-03-06T09:21:06Z</time>
      </trkpt>
      <trkpt lat="48.55302" lon="2.07684">
        <ele>150</ele>
        <time>2022-03-06T09:21:08Z</time>
      </trkpt>
      <trkpt lat="48.55304" lon="2.07681">
        <ele>150</ele>
        <time>2022-03-06T09:21:10Z</time>
      </trkpt>
      <trkpt lat="48.55306" lon="2.07678">
        <ele>150</ele>
        <time>2022-03-06T09:21:12Z</time>
      </trkpt>
      <trkpt lat="48.55307" lon="2.07674">
        <ele>150</ele>
        <time>2022-03-06T09:21:14Z</time>
      </trkpt>
      <trkpt lat="48.55309" lon="2.07671">
        <ele>150</ele>
        <time>2022-03-06T09:21:16Z</time>
      </trkpt>
      <trkpt lat="48.55311" lon="2.07667">
        <ele>150</ele>
        <time>2022-03-06T09:21:18Z</time>
      </trkpt>
      <trkpt lat="48.55312" lon="2.07663">
        <ele>150</ele>
        <time>2022-03-06T09:21:20Z</time>
      </trkpt>
      <trkpt lat="48.55314" lon="2.07659">
        <ele>150</ele>
        <time>2022-03-06T09:21:22Z</time>
      </trkpt>
      <trkpt lat="48.55316" lon="2.07656">
        <ele>150</ele>
        <time>2022-03-06T09:21:24Z</time>
      </trkpt>
      <trkpt lat="48.55317" lon="2.07652">
        <ele>150</ele>
        <time>2022-03-06T09:21:26Z</time>
      </trkpt>
      <trkpt lat="48.55318" lon="2.07648">
        <ele>151</ele>
        <time>2022-03-06T09:21:28Z</time>
      </trkpt>
      <trkpt lat="48.5532" lon="2.07645">
        <ele>151</ele>
        <time>2022-03-06T09:21:30Z</time>
      </trkpt>
      <trkpt lat="48.55322" lon="2.07641">
        <ele>151</ele>
        <time>2022-03-06T09:21:32Z</time>
      </trkpt>
      <trkpt lat="48.55323" lon="2.07637">
        <ele>151</ele>
        <time>2022-03-06T09:21:34Z</time>
      </trkpt>
      <trkpt lat="48.55324" lon="2.07633">
        <ele>151</ele>
        <time>2022-03-06T09:21:36Z</time>
      </trkpt>
      <trkpt lat="48.55326" lon="2.07629">
        <ele>151</ele>
        <time>2022-03-06T09:21:38Z</time>
      </trkpt>
      <trkpt lat="48.55327" lon="2.07625">
        <ele>151</ele>
        <time>2022-03-06T09:21:40Z</time>
      </trkpt>
      <trkpt lat="48.55328" lon="2.07621">
        <ele>151</ele>
        <time>2022-03-06T09:21:42Z</time>
      </trkpt>
      <trkpt lat="48.5533" lon="2.07617">
        <ele>151</ele>
        <time>2022-03-06T09:21:44Z</time>
      </trkpt>
      <trkpt lat="48.55331" lon="2.07614">
        <ele>151</ele>
        <time>2022-03-06T09:21:46Z</time>
      </trkpt>
      <trkpt lat="48.55333" lon="2.07609">
        <ele>151</ele>
        <time>2022-03-06T09:21:49Z</time>
      </trkpt>
      <trkpt lat="48.55334" lon="2.07604">
        <ele>151</ele>
        <time>2022-03-06T09:21:51Z</time>
      </trkpt>
      <trkpt lat="48.55335" lon="2.076">
        <ele>151</ele>
        <time>2022-03-06T09:21:53Z</time>
      </trkpt>
      <trkpt lat="48.55337" lon="2.07595">
        <ele>151</ele>
        <time>2022-03-06T09:21:55Z</time>
      </trkpt>
      <trkpt lat="48.55338" lon="2.07592">
        <ele>151</ele>
        <time>2022-03-06T09:21:57Z</time>
      </trkpt>
      <trkpt lat="48.55339" lon="2.07587">
        <ele>151</ele>
        <time>2022-03-06T09:21:59Z</time>
      </trkpt>
      <trkpt lat="48.5534" lon="2.07583">
        <ele>151</ele>
        <time>2022-03-06T09:22:01Z</time>
      </trkpt>
      <trkpt lat="48.55342" lon="2.07579">
        <ele>151</ele>
        <time>2022-03-06T09:22:03Z</time>
      </trkpt>
      <trkpt lat="48.55342" lon="2.07575">
        <ele>151</ele>
        <time>2022-03-06T09:22:05Z</time>
      </trkpt>
      <trkpt lat="48.55344" lon="2.07571">
        <ele>151</ele>
        <time>2022-03-06T09:22:07Z</time>
      </trkpt>
      <trkpt lat="48.55345" lon="2.07567">
        <ele>151</ele>
        <time>2022-03-06T09:22:09Z</time>
      </trkpt>
      <trkpt lat="48.55346" lon="2.07563">
        <ele>151</ele>
        <time>2022-03-06T09:22:11Z</time>
      </trkpt>
      <trkpt lat="48.55347" lon="2.07558">
        <ele>151</ele>
        <time>2022-03-06T09:22:13Z</time>
      </trkpt>
      <trkpt lat="48.55348" lon="2.07554">
        <ele>151</ele>
        <time>2022-03-06T09:22:15Z</time>
      </trkpt>
      <trkpt lat="48.55349" lon="2.0755">
        <ele>151</ele>
        <time>2022-03-06T09:22:17Z</time>
      </trkpt>
      <trkpt lat="48.5535" lon="2.07545">
        <ele>151</ele>
        <time>2022-03-06T09:22:19Z</time>
      </trkpt>
      <trkpt lat="48.55351" lon="2.07541">
        <ele>151</ele>
        <time>2022-03-06T09:22:21Z</time>
      </trkpt>
      <trkpt lat="48.55352" lon="2.07537">
        <ele>151</ele>
        <time>2022-03-06T09:22:23Z</time>
      </trkpt>
      <trkpt lat="48.55353" lon="2.07533">
        <ele>151</ele>
        <time>2022-03-06T09:22:25Z</time>
      </trkpt>
      <trkpt lat="48.55354" lon="2.07529">
        <ele>151</ele>
        <time>2022-03-06T09:22:27Z</time>
      </trkpt>
      <trkpt lat="48.55355" lon="2.07525">
        <ele>151</ele>
        <time>2022-03-06T09:22:29Z</time>
      </trkpt>
      <trkpt lat="48.55356" lon="2.0752">
        <ele>151</ele>
        <time>2022-03-06T09:22:31Z</time>
      </trkpt>
      <trkpt lat="48.55357" lon="2.07516">
        <ele>151</ele>
        <time>2022-03-06T09:22:33Z</time>
      </trkpt>
      <trkpt lat="48.55358" lon="2.07511">
        <ele>151</ele>
        <time>2022-03-06T09:22:36Z</time>
      </trkpt>
      <trkpt lat="48.55359" lon="2.07506">
        <ele>151</ele>
        <time>2022-03-06T09:22:38Z</time>
      </trkpt>
      <trkpt lat="48.5536" lon="2.07502">
        <ele>151</ele>
        <time>2022-03-06T09:22:40Z</time>
      </trkpt>
      <trkpt lat="48.55361" lon="2.07498">
        <ele>151</ele>
        <time>2022-03-06T09:22:42Z</time>
      </trkpt>
      <trkpt lat="48.55362" lon="2.07493">
        <ele>151</ele>
        <time>2022-03-06T09:22:44Z</time>
      </trkpt>
      <trkpt lat="48.55363" lon="2.07489">
        <ele>151</ele>
        <time>2022-03-06T09:22:46Z</time>
      </trkpt>
      <trkpt lat="48.55364" lon="2.07485">
        <ele>151</ele>
        <time>2022-03-06T09:22:48Z</time>
      </trkpt>
      <trkpt lat="48.55364" lon="2.07481">
        <ele>151</ele>
        <time>2022-03-06T09:22:50Z</time>
      </trkpt>
      <trkpt lat="48.55366" lon="2.07477">
        <ele>151</ele>
        <time>2022-03-06T09:22:52Z</time>
      </trkpt>
      <trkpt lat="48.55367" lon="2.07473">
        <ele>151</ele>
        <time>2022-03-06T09:22:54Z</time>
      </trkpt>
      <trkpt lat="48.55368" lon="2.07468">
        <ele>151</ele>
        <time>2022-03-06T09:22:56Z</time>
      </trkpt>
      <trkpt lat="48.55369" lon="2.07465">
        <ele>151</ele>
        <time>2022-03-06T09:22:58Z</time>
      </trkpt>
      <trkpt lat="48.5537" lon="2.07461">
        <ele>151</ele>
        <time>2022-03-06T09:23:00Z</time>
      </trkpt>
      <trkpt lat="48.55371" lon="2.07457">
        <ele>151</ele>
        <time>2022-03-06T09:23:02Z</time>
      </trkpt>
      <trkpt lat="48.55372" lon="2.07453">
        <ele>152</ele>
        <time>2022-03-06T09:23:04Z</time>
      </trkpt>
      <trkpt lat="48.55374" lon="2.07448">
        <ele>152</ele>
        <time>2022-03-06T09:23:06Z</time>
      </trkpt>
      <trkpt lat="48.55375" lon="2.07444">
        <ele>152</ele>
        <time>2022-03-06T09:23:08Z</time>
      </trkpt>
      <trkpt lat="48.55376" lon="2.0744">
        <ele>152</ele>
        <time>2022-03-06T09:23:10Z</time>
      </trkpt>
      <trkpt lat="48.55377" lon="2.07436">
        <ele>152</ele>
        <time>2022-03-06T09:23:12Z</time>
      </trkpt>
      <trkpt lat="48.55378" lon="2.07432">
        <ele>152</ele>
        <time>2022-03-06T09:23:14Z</time>
      </trkpt>
      <trkpt lat="48.55379" lon="2.07428">
        <ele>152</ele>
        <time>2022-03-06T09:23:16Z</time>
      </trkpt>
      <trkpt lat="48.55381" lon="2.07424">
        <ele>152</ele>
        <time>2022-03-06T09:23:18Z</time>
      </trkpt>
      <trkpt lat="48.55382" lon="2.0742">
        <ele>152</ele>
        <time>2022-03-06T09:23:20Z</time>
      </trkpt>
      <trkpt lat="48.55383" lon="2.07415">
        <ele>152</ele>
        <time>2022-03-06T09:23:22Z</time>
      </trkpt>
      <trkpt lat="48.55384" lon="2.07411">
        <ele>152</ele>
        <time>2022-03-06T09:23:24Z</time>
      </trkpt>
      <trkpt lat="48.55385" lon="2.07407">
        <ele>152</ele>
        <time>2022-03-06T09:23:26Z</time>
      </trkpt>
      <trkpt lat="48.55387" lon="2.07403">
        <ele>152</ele>
        <time>2022-03-06T09:23:28Z</time>
      </trkpt>
      <trkpt lat="48.55388" lon="2.07399">
        <ele>152</ele>
        <time>2022-03-06T09:23:30Z</time>
      </trkpt>
      <trkpt lat="48.55389" lon="2.07395">
        <ele>152</ele>
        <time>2022-03-06T09:23:32Z</time>
      </trkpt>
      <trkpt lat="48.5539" lon="2.07391">
        <ele>152</ele>
        <time>2022-03-06T09:23:34Z</time>
      </trkpt>
      <trkpt lat="48.55392" lon="2.07387">
        <ele>152</ele>
        <time>2022-03-06T09:23:36Z</time>
      </trkpt>
      <trkpt lat="48.55393" lon="2.07383">
        <ele>152</ele>
        <time>2022-03-06T09:23:38Z</time>
      </trkpt>
      <trkpt lat="48.55394" lon="2.07379">
        <ele>152</ele>
        <time>2022-03-06T09:23:40Z</time>
      </trkpt>
      <trkpt lat="48.55395" lon="2.07375">
        <ele>152</ele>
        <time>2022-03-06T09:23:42Z</time>
      </trkpt>
      <trkpt lat="48.55396" lon="2.07371">
        <ele>152</ele>
        <time>2022-03-06T09:23:44Z</time>
      </trkpt>
      <trkpt lat="48.55397" lon="2.07367">
        <ele>152</ele>
        <time>2022-03-06T09:23:46Z</time>
      </trkpt>
      <trkpt lat="48.55399" lon="2.07363">
        <ele>152</ele>
        <time>2022-03-06T09:23:48Z</time>
      </trkpt>
      <trkpt lat="48.554" lon="2.0736">
        <ele>152</ele>
        <time>2022-03-06T09:23:50Z</time>
      </trkpt>
      <trkpt lat="48.55402" lon="2.07356">
        <ele>152</ele>
        <time>2022-03-06T09:23:52Z</time>
      </trkpt>
      <trkpt lat="48.55403" lon="2.07352">
        <ele>152</ele>
        <time>2022-03-06T09:23:54Z</time>
      </trkpt>
      <trkpt lat="48.55404" lon="2.07349">
        <ele>152</ele>
        <time>2022-03-06T09:23:56Z</time>
      </trkpt>
      <trkpt lat="48.55406" lon="2.07345">
        <ele>152</ele>
        <time>2022-03-06T09:23:58Z</time>
      </trkpt>
      <trkpt lat="48.55407" lon="2.07341">
        <ele>152</ele>
        <time>2022-03-06T09:24:00Z</time>
      </trkpt>
      <trkpt lat="48.55409" lon="2.07337">
        <ele>152</ele>
        <time>2022-03-06T09:24:02Z</time>
      </trkpt>
      <trkpt lat="48.5541" lon="2.07333">
        <ele>152</ele>
        <time>2022-03-06T09:24:04Z</time>
      </trkpt>
      <trkpt lat="48.55411" lon="2.07329">
        <ele>152</ele>
        <time>2022-03-06T09:24:06Z</time>
      </trkpt>
      <trkpt lat="48.55413" lon="2.07325">
        <ele>152</ele>
        <time>2022-03-06T09:24:08Z</time>
      </trkpt>
      <trkpt lat="48.55415" lon="2.07322">
        <ele>152</ele>
        <time>2022-03-06T09:24:10Z</time>
      </trkpt>
      <trkpt lat="48.55416" lon="2.07318">
        <ele>152</ele>
        <time>2022-03-06T09:24:12Z</time>
      </trkpt>
      <trkpt lat="48.55418" lon="2.07315">
        <ele>152</ele>
        <time>2022-03-06T09:24:14Z</time>
      </trkpt>
      <trkpt lat="48.55419" lon="2.07311">
        <ele>152</ele>
        <time>2022-03-06T09:24:16Z</time>
      </trkpt>
      <trkpt lat="48.55421" lon="2.07308">
        <ele>152</ele>
        <time>2022-03-06T09:24:18Z</time>
      </trkpt>
      <trkpt lat="48.55423" lon="2.07304">
        <ele>152</ele>
        <time>2022-03-06T09:24:20Z</time>
      </trkpt>
      <trkpt lat="48.55424" lon="2.073">
        <ele>152</ele>
        <time>2022-03-06T09:24:22Z</time>
      </trkpt>
      <trkpt lat="48.55426" lon="2.07297">
        <ele>152</ele>
        <time>2022-03-06T09:24:24Z</time>
      </trkpt>
      <trkpt lat="48.55427" lon="2.07293">
        <ele>152</ele>
        <time>2022-03-06T09:24:26Z</time>
      </trkpt>
      <trkpt lat="48.55428" lon="2.07289">
        <ele>152</ele>
        <time>2022-03-06T09:24:28Z</time>
      </trkpt>
      <trkpt lat="48.55429" lon="2.07285">
        <ele>152</ele>
        <time>2022-03-06T09:24:30Z</time>
      </trkpt>
      <trkpt lat="48.55431" lon="2.07281">
        <ele>152</ele>
        <time>2022-03-06T09:24:32Z</time>
      </trkpt>
      <trkpt lat="48.55432" lon="2.07277">
        <ele>152</ele>
        <time>2022-03-06T09:24:34Z</time>
      </trkpt>
      <trkpt lat="48.55434" lon="2.07273">
        <ele>152</ele>
        <time>2022-03-06T09:24:36Z</time>
      </trkpt>
      <trkpt lat="48.55436" lon="2.0727">
        <ele>152</ele>
        <time>2022-03-06T09:24:38Z</time>
      </trkpt>
      <trkpt lat="48.55437" lon="2.07266">
        <ele>152</ele>
        <time>2022-03-06T09:24:40Z</time>
      </trkpt>
      <trkpt lat="48.55439" lon="2.07262">
        <ele>152</ele>
        <time>2022-03-06T09:24:42Z</time>
      </trkpt>
      <trkpt lat="48.5544" lon="2.07259">
        <ele>152</ele>
        <time>2022-03-06T09:24:44Z</time>
      </trkpt>
      <trkpt lat="48.55442" lon="2.07255">
        <ele>152</ele>
        <time>2022-03-06T09:24:46Z</time>
      </trkpt>
      <trkpt lat="48.55443" lon="2.07251">
        <ele>152</ele>
        <time>2022-03-06T09:24:48Z</time>
      </trkpt>
      <trkpt lat="48.55445" lon="2.07248">
        <ele>152</ele>
        <time>2022-03-06T09:24:50Z</time>
      </trkpt>
      <trkpt lat="48.55447" lon="2.07244">
        <ele>152</ele>
        <time>2022-03-06T09:24:52Z</time>
      </trkpt>
      <trkpt lat="48.55448" lon="2.0724">
        <ele>152</ele>
        <time>2022-03-06T09:24:54Z</time>
      </trkpt>
      <trkpt lat="48.55449" lon="2.07236">
        <ele>153</ele>
        <time>2022-03-06T09:24:56Z</time>
      </trkpt>
      <trkpt lat="48.5545" lon="2.07232">
        <ele>153</ele>
        <time>2022-03-06T09:24:58Z</time>
      </trkpt>
      <trkpt lat="48.55452" lon="2.07228">
        <ele>153</ele>
        <time>2022-03-06T09:25:00Z</time>
      </trkpt>
      <trkpt lat="48.55453" lon="2.07225">
        <ele>153</ele>
        <time>2022-03-06T09:25:02Z</time>
      </trkpt>
      <trkpt lat="48.55455" lon="2.07222">
        <ele>153</ele>
        <time>2022-03-06T09:25:04Z</time>
      </trkpt>
      <trkpt lat="48.55456" lon="2.07218">
        <ele>153</ele>
        <time>2022-03-06T09:25:06Z</time>
      </trkpt>
      <trkpt lat="48.55458" lon="2.07215">
        <ele>153</ele>
        <time>2022-03-06T09:25:08Z</time>
      </trkpt>
      <trkpt lat="48.5546" lon="2.07211">
        <ele>153</ele>
        <time>2022-03-06T09:25:10Z</time>
      </trkpt>
      <trkpt lat="48.55461" lon="2.07208">
        <ele>153</ele>
        <time>2022-03-06T09:25:12Z</time>
      </trkpt>
      <trkpt lat="48.55463" lon="2.07204">
        <ele>153</ele>
        <time>2022-03-06T09:25:14Z</time>
      </trkpt>
      <trkpt lat="48.55464" lon="2.072">
        <ele>153</ele>
        <time>2022-03-06T09:25:16Z</time>
      </trkpt>
      <trkpt lat="48.55466" lon="2.07197">
        <ele>153</ele>
        <time>2022-03-06T09:25:18Z</time>
      </trkpt>
      <trkpt lat="48.55468" lon="2.07193">
        <ele>153</ele>
        <time>2022-03-06T09:25:20Z</time>
      </trkpt>
      <trkpt lat="48.5547" lon="2.0719">
        <ele>153</ele>
        <time>2022-03-06T09:25:22Z</time>
      </trkpt>
      <trkpt lat="48.55471" lon="2.07186">
        <ele>153</ele>
        <time>2022-03-06T09:25:24Z</time>
      </trkpt>
      <trkpt lat="48.55472" lon="2.07182">
        <ele>153</ele>
        <time>2022-03-06T09:25:26Z</time>
      </trkpt>
      <trkpt lat="48.55474" lon="2.07178">
        <ele>153</ele>
        <time>2022-03-06T09:25:28Z</time>
      </trkpt>
      <trkpt lat="48.55475" lon="2.07174">
        <ele>153</ele>
        <time>2022-03-06T09:25:30Z</time>
      </trkpt>
      <trkpt lat="48.55476" lon="2.0717">
        <ele>153</ele>
        <time>2022-03-06T09:25:32Z</time>
      </trkpt>
      <trkpt lat="48.55478" lon="2.07166">
        <ele>153</ele>
        <time>2022-03-06T09:25:34Z</time>
      </trkpt>
      <trkpt lat="48.55479" lon="2.07163">
        <ele>153</ele>
        <time>2022-03-06T09:25:36Z</time>
      </trkpt>
      <trkpt lat="48.55481" lon="2.07159">
        <ele>153</ele>
        <time>2022-03-06T09:25:38Z</time>
      </trkpt>
      <trkpt lat="48.55482" lon="2.07155">
        <ele>153</ele>
        <time>2022-03-06T09:25:40Z</time>
      </trkpt>
      <trkpt lat="48.55484" lon="2.07152">
        <ele>153</ele>
        <time>2022-03-06T09:25:42Z</time>
      </trkpt>
      <trkpt lat="48.55485" lon="2.07148">
        <ele>153</ele>
        <time>2022-03-06T09:25:44Z</time>
      </trkpt>
      <trkpt lat="48.55487" lon="2.07145">
        <ele>153</ele>
        <time>2022-03-06T09:25:46Z</time>
      </trkpt>
      <trkpt lat="48.55488" lon="2.07141">
        <ele>153</ele>
        <time>2022-03-06T09:25:48Z</time>
      </trkpt>
      <trkpt lat="48.55489" lon="2.07137">
        <ele>153</ele>
        <time>2022-03-06T09:25:50Z</time>
      </trkpt>
      <trkpt lat="48.55491" lon="2.07133">
        <ele>153</ele>
        <time>2022-03-06T09:25:52Z</time>
      </trkpt>
      <trkpt lat="48.55492" lon="2.07129">
        <ele>153</ele>
        <time>2022-03-06T09:25:54Z</time>
      </trkpt>
      <trkpt lat="48.55493" lon="2.07125">
        <ele>153</ele>
        <time>2022-03-06T09:25:56Z</time>
      </trkpt>
      <trkpt lat="48.55494" lon="2.0712">
        <ele>153</ele>
        <time>2022-03-06T09:25:59Z</time>
      </trkpt>
      <trkpt lat="48.55495" lon="2.07115">
        <ele>153</ele>
        <time>2022-03-06T09:26:02Z</time>
      </trkpt>
      <trkpt lat="48.55495" lon="2.07111">
        <ele>153</ele>
        <time>2022-03-06T09:26:06Z</time>
      </trkpt>
      <trkpt lat="48.55496" lon="2.07106">
        <ele>153</ele>
        <time>2022-03-06T09:26:09Z</time>
      </trkpt>
      <trkpt lat="48.55496" lon="2.07101">
        <ele>153</ele>
        <time>2022-03-06T09:26:11Z</time>
      </trkpt>
      <trkpt lat="48.55496" lon="2.07097">
        <ele>153</ele>
        <time>2022-03-06T09:26:13Z</time>
      </trkpt>
      <trkpt lat="48.55496" lon="2.07092">
        <ele>153</ele>
        <time>2022-03-06T09:26:15Z</time>
      </trkpt>
      <trkpt lat="48.55496" lon="2.07087">
        <ele>153</ele>
        <time>2022-03-06T09:26:18Z</time>
      </trkpt>
      <trkpt lat="48.55496" lon="2.07083">
        <ele>153</ele>
        <time>2022-03-06T09:26:20Z</time>
      </trkpt>
      <trkpt lat="48.55495" lon="2.07078">
        <ele>153</ele>
        <time>2022-03-06T09:26:22Z</time>
      </trkpt>
      <trkpt lat="48.55495" lon="2.07073">
        <ele>153</ele>
        <time>2022-03-06T09:26:25Z</time>
      </trkpt>
      <trkpt lat="48.55494" lon="2.07068">
        <ele>153</ele>
        <time>2022-03-06T09:26:28Z</time>
      </trkpt>
      <trkpt lat="48.55493" lon="2.07063">
        <ele>153</ele>
        <time>2022-03-06T09:26:31Z</time>
      </trkpt>
      <trkpt lat="48.55492" lon="2.07058">
        <ele>153</ele>
        <time>2022-03-06T09:26:34Z</time>
      </trkpt>
      <trkpt lat="48.5549" lon="2.07053">
        <ele>153</ele>
        <time>2022-03-06T09:26:37Z</time>
      </trkpt>
      <trkpt lat="48.55489" lon="2.07049">
        <ele>153</ele>
        <time>2022-03-06T09:26:39Z</time>
      </trkpt>
      <trkpt lat="48.55488" lon="2.07045">
        <ele>153</ele>
        <time>2022-03-06T09:26:41Z</time>
      </trkpt>
      <trkpt lat="48.55486" lon="2.07041">
        <ele>153</ele>
        <time>2022-03-06T09:26:43Z</time>
      </trkpt>
      <trkpt lat="48.55484" lon="2.07038">
        <ele>153</ele>
        <time>2022-03-06T09:26:45Z</time>
      </trkpt>
      <trkpt lat="48.55483" lon="2.07033">
        <ele>152</ele>
        <time>2022-03-06T09:26:48Z</time>
      </trkpt>
      <trkpt lat="48.55481" lon="2.0703">
        <ele>152</ele>
        <time>2022-03-06T09:26:50Z</time>
      </trkpt>
      <trkpt lat="48.55479" lon="2.07026">
        <ele>152</ele>
        <time>2022-03-06T09:26:53Z</time>
      </trkpt>
      <trkpt lat="48.55476" lon="2.07021">
        <ele>152</ele>
        <time>2022-03-06T09:26:56Z</time>
      </trkpt>
      <trkpt lat="48.55474" lon="2.07016">
        <ele>152</ele>
        <time>2022-03-06T09:26:59Z</time>
      </trkpt>
      <trkpt lat="48.55473" lon="2.07011">
        <ele>152</ele>
        <time>2022-03-06T09:27:02Z</time>
      </trkpt>
      <trkpt lat="48.55471" lon="2.07005">
        <ele>152</ele>
        <time>2022-03-06T09:27:05Z</time>
      </trkpt>
      <trkpt lat="48.5547" lon="2.07001">
        <ele>152</ele>
        <time>2022-03-06T09:27:07Z</time>
      </trkpt>
      <trkpt lat="48.55469" lon="2.06996">
        <ele>152</ele>
        <time>2022-03-06T09:27:09Z</time>
      </trkpt>
      <trkpt lat="48.55469" lon="2.06992">
        <ele>152</ele>
        <time>2022-03-06T09:27:11Z</time>
      </trkpt>
      <trkpt lat="48.55468" lon="2.06988">
        <ele>152</ele>
        <time>2022-03-06T09:27:13Z</time>
      </trkpt>
      <trkpt lat="48.55468" lon="2.06983">
        <ele>152</ele>
        <time>2022-03-06T09:27:16Z</time>
      </trkpt>
      <trkpt lat="48.55469" lon="2.06977">
        <ele>152</ele>
        <time>2022-03-06T09:27:19Z</time>
      </trkpt>
      <trkpt lat="48.55469" lon="2.06971">
        <ele>152</ele>
        <time>2022-03-06T09:27:22Z</time>
      </trkpt>
      <trkpt lat="48.5547" lon="2.06967">
        <ele>152</ele>
        <time>2022-03-06T09:27:24Z</time>
      </trkpt>
      <trkpt lat="48.55471" lon="2.06962">
        <ele>152</ele>
        <time>2022-03-06T09:27:26Z</time>
      </trkpt>
      <trkpt lat="48.55472" lon="2.06957">
        <ele>152</ele>
        <time>2022-03-06T09:27:29Z</time>
      </trkpt>
      <trkpt lat="48.55473" lon="2.06953">
        <ele>152</ele>
        <time>2022-03-06T09:27:31Z</time>
      </trkpt>
      <trkpt lat="48.55474" lon="2.06947">
        <ele>152</ele>
        <time>2022-03-06T09:27:34Z</time>
      </trkpt>
      <trkpt lat="48.55475" lon="2.06942">
        <ele>152</ele>
        <time>2022-03-06T09:27:37Z</time>
      </trkpt>
      <trkpt lat="48.55475" lon="2.06938">
        <ele>152</ele>
        <time>2022-03-06T09:27:39Z</time>
      </trkpt>
      <trkpt lat="48.55476" lon="2.06933">
        <ele>152</ele>
        <time>2022-03-06T09:27:42Z</time>
      </trkpt>
      <trkpt lat="48.55478" lon="2.06927">
        <ele>152</ele>
        <time>2022-03-06T09:27:45Z</time>
      </trkpt>
      <trkpt lat="48.55479" lon="2.06922">
        <ele>152</ele>
        <time>2022-03-06T09:27:48Z</time>
      </trkpt>
      <trkpt lat="48.5548" lon="2.06917">
        <ele>152</ele>
        <time>2022-03-06T09:27:50Z</time>
      </trkpt>
      <trkpt lat="48.55481" lon="2.06912">
        <ele>152</ele>
        <time>2022-03-06T09:27:52Z</time>
      </trkpt>
      <trkpt lat="48.55482" lon="2.06907">
        <ele>152</ele>
        <time>2022-03-06T09:27:55Z</time>
      </trkpt>
      <trkpt lat="48.55484" lon="2.06901">
        <ele>152</ele>
        <time>2022-03-06T09:27:58Z</time>
      </trkpt>
      <trkpt lat="48.55486" lon="2.06897">
        <ele>152</ele>
        <time>2022-03-06T09:28:01Z</time>
      </trkpt>
      <trkpt lat="48.55488" lon="2.06893">
        <ele>152</ele>
        <time>2022-03-06T09:28:04Z</time>
      </trkpt>
      <trkpt lat="48.55491" lon="2.06891">
        <ele>152</ele>
        <time>2022-03-06T09:28:07Z</time>
      </trkpt>
      <trkpt lat="48.55494" lon="2.0689">
        <ele>152</ele>
        <time>2022-03-06T09:28:10Z</time>
      </trkpt>
      <trkpt lat="48.55498" lon="2.0689">
        <ele>152</ele>
        <time>2022-03-06T09:28:13Z</time>
      </trkpt>
      <trkpt lat="48.55501" lon="2.0689">
        <ele>152</ele>
        <time>2022-03-06T09:28:16Z</time>
      </trkpt>
      <trkpt lat="48.55505" lon="2.0689">
        <ele>152</ele>
        <time>2022-03-06T09:28:19Z</time>
      </trkpt>
      <trkpt lat="48.55508" lon="2.0689">
        <ele>152</ele>
        <time>2022-03-06T09:28:21Z</time>
      </trkpt>
      <trkpt lat="48.55511" lon="2.06889">
        <ele>152</ele>
        <time>2022-03-06T09:28:23Z</time>
      </trkpt>
      <trkpt lat="48.55514" lon="2.06889">
        <ele>152</ele>
        <time>2022-03-06T09:28:25Z</time>
      </trkpt>
      <trkpt lat="48.55517" lon="2.06889">
        <ele>152</ele>
        <time>2022-03-06T09:28:28Z</time>
      </trkpt>
      <trkpt lat="48.5552" lon="2.06888">
        <ele>152</ele>
        <time>2022-03-06T09:28:32Z</time>
      </trkpt>
      <trkpt lat="48.55524" lon="2.06888">
        <ele>152</ele>
        <time>2022-03-06T09:28:35Z</time>
      </trkpt>
      <trkpt lat="48.55527" lon="2.06886">
        <ele>152</ele>
        <time>2022-03-06T09:28:38Z</time>
      </trkpt>
      <trkpt lat="48.55529" lon="2.06883">
        <ele>152</ele>
        <time>2022-03-06T09:28:41Z</time>
      </trkpt>
      <trkpt lat="48.5553" lon="2.06878">
        <ele>152</ele>
        <time>2022-03-06T09:28:44Z</time>
      </trkpt>
      <trkpt lat="48.55531" lon="2.06874">
        <ele>152</ele>
        <time>2022-03-06T09:28:46Z</time>
      </trkpt>
      <trkpt lat="48.55533" lon="2.06869">
        <ele>152</ele>
        <time>2022-03-06T09:28:49Z</time>
      </trkpt>
      <trkpt lat="48.55534" lon="2.06863">
        <ele>152</ele>
        <time>2022-03-06T09:28:52Z</time>
      </trkpt>
      <trkpt lat="48.55534" lon="2.06857">
        <ele>152</ele>
        <time>2022-03-06T09:28:55Z</time>
      </trkpt>
      <trkpt lat="48.55534" lon="2.06852">
        <ele>152</ele>
        <time>2022-03-06T09:28:57Z</time>
      </trkpt>
      <trkpt lat="48.55533" lon="2.06847">
        <ele>152</ele>
        <time>2022-03-06T09:28:59Z</time>
      </trkpt>
      <trkpt lat="48.55533" lon="2.06842">
        <ele>152</ele>
        <time>2022-03-06T09:29:01Z</time>
      </trkpt>
      <trkpt lat="48.55532" lon="2.06838">
        <ele>152</ele>
        <time>2022-03-06T09:29:03Z</time>
      </trkpt>
      <trkpt lat="48.55531" lon="2.06833">
        <ele>152</ele>
        <time>2022-03-06T09:29:05Z</time>
      </trkpt>
      <trkpt lat="48.55531" lon="2.06827">
        <ele>152</ele>
        <time>2022-03-06T09:29:08Z</time>
      </trkpt>
      <trkpt lat="48.5553" lon="2.06822">
        <ele>152</ele>
        <time>2022-03-06T09:29:10Z</time>
      </trkpt>
      <trkpt lat="48.55529" lon="2.06817">
        <ele>152</ele>
        <time>2022-03-06T09:29:12Z</time>
      </trkpt>
      <trkpt lat="48.55528" lon="2.06813">
        <ele>152</ele>
        <time>2022-03-06T09:29:14Z</time>
      </trkpt>
      <trkpt lat="48.55527" lon="2.06808">
        <ele>152</ele>
        <time>2022-03-06T09:29:16Z</time>
      </trkpt>
      <trkpt lat="48.55526" lon="2.06803">
        <ele>152</ele>
        <time>2022-03-06T09:29:18Z</time>
      </trkpt>
      <trkpt lat="48.55525" lon="2.06798">
        <ele>152</ele>
        <time>2022-03-06T09:29:21Z</time>
      </trkpt>
      <trkpt lat="48.55525" lon="2.06793">
        <ele>152</ele>
        <time>2022-03-06T09:29:23Z</time>
      </trkpt>
      <trkpt lat="48.55524" lon="2.06788">
        <ele>152</ele>
        <time>2022-03-06T09:29:25Z</time>
      </trkpt>
      <trkpt lat="48.55523" lon="2.06784">
        <ele>152</ele>
        <time>2022-03-06T09:29:27Z</time>
      </trkpt>
      <trkpt lat="48.55523" lon="2.06779">
        <ele>152</ele>
        <time>2022-03-06T09:29:30Z</time>
      </trkpt>
      <trkpt lat="48.55523" lon="2.06774">
        <ele>152</ele>
        <time>2022-03-06T09:29:32Z</time>
      </trkpt>
      <trkpt lat="48.55523" lon="2.0677">
        <ele>152</ele>
        <time>2022-03-06T09:29:34Z</time>
      </trkpt>
      <trkpt lat="48.55523" lon="2.06765">
        <ele>152</ele>
        <time>2022-03-06T09:29:37Z</time>
      </trkpt>
      <trkpt lat="48.55523" lon="2.06759">
        <ele>151</ele>
        <time>2022-03-06T09:29:41Z</time>
      </trkpt>
      <trkpt lat="48.55523" lon="2.06754">
        <ele>151</ele>
        <time>2022-03-06T09:29:43Z</time>
      </trkpt>
      <trkpt lat="48.55523" lon="2.06749">
        <ele>151</ele>
        <time>2022-03-06T09:29:46Z</time>
      </trkpt>
      <trkpt lat="48.55523" lon="2.06743">
        <ele>151</ele>
        <time>2022-03-06T09:29:49Z</time>
      </trkpt>
      <trkpt lat="48.55523" lon="2.06738">
        <ele>151</ele>
        <time>2022-03-06T09:29:52Z</time>
      </trkpt>
      <trkpt lat="48.55522" lon="2.06733">
        <ele>151</ele>
        <time>2022-03-06T09:29:54Z</time>
      </trkpt>
      <trkpt lat="48.55521" lon="2.06729">
        <ele>151</ele>
        <time>2022-03-06T09:29:56Z</time>
      </trkpt>
      <trkpt lat="48.5552" lon="2.06723">
        <ele>151</ele>
        <time>2022-03-06T09:29:58Z</time>
      </trkpt>
      <trkpt lat="48.5552" lon="2.06718">
        <ele>151</ele>
        <time>2022-03-06T09:30:00Z</time>
      </trkpt>
      <trkpt lat="48.5552" lon="2.06713">
        <ele>151</ele>
        <time>2022-03-06T09:30:02Z</time>
      </trkpt>
      <trkpt lat="48.55519" lon="2.06708">
        <ele>151</ele>
        <time>2022-03-06T09:30:05Z</time>
      </trkpt>
      <trkpt lat="48.55518" lon="2.06703">
        <ele>151</ele>
        <time>2022-03-06T09:30:07Z</time>
      </trkpt>
      <trkpt lat="48.55517" lon="2.06698">
        <ele>151</ele>
        <time>2022-03-06T09:30:09Z</time>
      </trkpt>
      <trkpt lat="48.55517" lon="2.06693">
        <ele>151</ele>
        <time>2022-03-06T09:30:11Z</time>
      </trkpt>
      <trkpt lat="48.55516" lon="2.06689">
        <ele>151</ele>
        <time>2022-03-06T09:30:13Z</time>
      </trkpt>
      <trkpt lat="48.55516" lon="2.06684">
        <ele>150</ele>
        <time>2022-03-06T09:30:16Z</time>
      </trkpt>
      <trkpt lat="48.55515" lon="2.06679">
        <ele>150</ele>
        <time>2022-03-06T09:30:19Z</time>
      </trkpt>
      <trkpt lat="48.55514" lon="2.06674">
        <ele>150</ele>
        <time>2022-03-06T09:30:21Z</time>
      </trkpt>
      <trkpt lat="48.55514" lon="2.06669">
        <ele>150</ele>
        <time>2022-03-06T09:30:23Z</time>
      </trkpt>
      <trkpt lat="48.55513" lon="2.06664">
        <ele>150</ele>
        <time>2022-03-06T09:30:25Z</time>
      </trkpt>
      <trkpt lat="48.55512" lon="2.06659">
        <ele>150</ele>
        <time>2022-03-06T09:30:27Z</time>
      </trkpt>
      <trkpt lat="48.55512" lon="2.06655">
        <ele>150</ele>
        <time>2022-03-06T09:30:29Z</time>
      </trkpt>
      <trkpt lat="48.55511" lon="2.0665">
        <ele>150</ele>
        <time>2022-03-06T09:30:31Z</time>
      </trkpt>
      <trkpt lat="48.55511" lon="2.06646">
        <ele>150</ele>
        <time>2022-03-06T09:30:33Z</time>
      </trkpt>
      <trkpt lat="48.55511" lon="2.06642">
        <ele>150</ele>
        <time>2022-03-06T09:30:35Z</time>
      </trkpt>
      <trkpt lat="48.5551" lon="2.06638">
        <ele>150</ele>
        <time>2022-03-06T09:30:37Z</time>
      </trkpt>
      <trkpt lat="48.55509" lon="2.06633">
        <ele>150</ele>
        <time>2022-03-06T09:30:40Z</time>
      </trkpt>
      <trkpt lat="48.55509" lon="2.06629">
        <ele>149</ele>
        <time>2022-03-06T09:30:42Z</time>
      </trkpt>
      <trkpt lat="48.55508" lon="2.06625">
        <ele>149</ele>
        <time>2022-03-06T09:30:44Z</time>
      </trkpt>
      <trkpt lat="48.55507" lon="2.0662">
        <ele>149</ele>
        <time>2022-03-06T09:30:47Z</time>
      </trkpt>
      <trkpt lat="48.55506" lon="2.06614">
        <ele>149</ele>
        <time>2022-03-06T09:30:50Z</time>
      </trkpt>
      <trkpt lat="48.55505" lon="2.06608">
        <ele>149</ele>
        <time>2022-03-06T09:30:53Z</time>
      </trkpt>
      <trkpt lat="48.55505" lon="2.06603">
        <ele>149</ele>
        <time>2022-03-06T09:30:56Z</time>
      </trkpt>
      <trkpt lat="48.55504" lon="2.06598">
        <ele>149</ele>
        <time>2022-03-06T09:30:58Z</time>
      </trkpt>
      <trkpt lat="48.55504" lon="2.06593">
        <ele>149</ele>
        <time>2022-03-06T09:31:01Z</time>
      </trkpt>
      <trkpt lat="48.55503" lon="2.06588">
        <ele>149</ele>
        <time>2022-03-06T09:31:04Z</time>
      </trkpt>
      <trkpt lat="48.55503" lon="2.06583">
        <ele>149</ele>
        <time>2022-03-06T09:31:06Z</time>
      </trkpt>
      <trkpt lat="48.55502" lon="2.06579">
        <ele>148</ele>
        <time>2022-03-06T09:31:08Z</time>
      </trkpt>
      <trkpt lat="48.55502" lon="2.06573">
        <ele>148</ele>
        <time>2022-03-06T09:31:11Z</time>
      </trkpt>
      <trkpt lat="48.55501" lon="2.06569">
        <ele>148</ele>
        <time>2022-03-06T09:31:13Z</time>
      </trkpt>
      <trkpt lat="48.55501" lon="2.06563">
        <ele>148</ele>
        <time>2022-03-06T09:31:16Z</time>
      </trkpt>
      <trkpt lat="48.55501" lon="2.06559">
        <ele>148</ele>
        <time>2022-03-06T09:31:18Z</time>
      </trkpt>
      <trkpt lat="48.555" lon="2.06554">
        <ele>148</ele>
        <time>2022-03-06T09:31:20Z</time>
      </trkpt>
      <trkpt lat="48.555" lon="2.0655">
        <ele>148</ele>
        <time>2022-03-06T09:31:22Z</time>
      </trkpt>
      <trkpt lat="48.55499" lon="2.06545">
        <ele>147</ele>
        <time>2022-03-06T09:31:24Z</time>
      </trkpt>
      <trkpt lat="48.555" lon="2.0654">
        <ele>147</ele>
        <time>2022-03-06T09:31:27Z</time>
      </trkpt>
      <trkpt lat="48.55499" lon="2.06535">
        <ele>147</ele>
        <time>2022-03-06T09:31:29Z</time>
      </trkpt>
      <trkpt lat="48.555" lon="2.0653">
        <ele>147</ele>
        <time>2022-03-06T09:31:32Z</time>
      </trkpt>
      <trkpt lat="48.555" lon="2.06524">
        <ele>147</ele>
        <time>2022-03-06T09:31:35Z</time>
      </trkpt>
      <trkpt lat="48.55499" lon="2.06519">
        <ele>147</ele>
        <time>2022-03-06T09:31:37Z</time>
      </trkpt>
      <trkpt lat="48.55499" lon="2.06514">
        <ele>147</ele>
        <time>2022-03-06T09:31:39Z</time>
      </trkpt>
      <trkpt lat="48.55499" lon="2.0651">
        <ele>146</ele>
        <time>2022-03-06T09:31:41Z</time>
      </trkpt>
      <trkpt lat="48.55499" lon="2.06506">
        <ele>146</ele>
        <time>2022-03-06T09:31:43Z</time>
      </trkpt>
      <trkpt lat="48.555" lon="2.06501">
        <ele>146</ele>
        <time>2022-03-06T09:31:45Z</time>
      </trkpt>
      <trkpt lat="48.555" lon="2.06497">
        <ele>146</ele>
        <time>2022-03-06T09:31:47Z</time>
      </trkpt>
      <trkpt lat="48.555" lon="2.06492">
        <ele>146</ele>
        <time>2022-03-06T09:31:49Z</time>
      </trkpt>
      <trkpt lat="48.555" lon="2.06488">
        <ele>145</ele>
        <time>2022-03-06T09:31:51Z</time>
      </trkpt>
      <trkpt lat="48.555" lon="2.06483">
        <ele>145</ele>
        <time>2022-03-06T09:31:53Z</time>
      </trkpt>
      <trkpt lat="48.55501" lon="2.06479">
        <ele>145</ele>
        <time>2022-03-06T09:31:55Z</time>
      </trkpt>
      <trkpt lat="48.555" lon="2.06475">
        <ele>145</ele>
        <time>2022-03-06T09:31:57Z</time>
      </trkpt>
      <trkpt lat="48.55501" lon="2.0647">
        <ele>145</ele>
        <time>2022-03-06T09:31:59Z</time>
      </trkpt>
      <trkpt lat="48.55501" lon="2.06466">
        <ele>145</ele>
        <time>2022-03-06T09:32:01Z</time>
      </trkpt>
      <trkpt lat="48.555" lon="2.06462">
        <ele>144</ele>
        <time>2022-03-06T09:32:03Z</time>
      </trkpt>
      <trkpt lat="48.555" lon="2.06457">
        <ele>144</ele>
        <time>2022-03-06T09:32:05Z</time>
      </trkpt>
      <trkpt lat="48.55501" lon="2.06453">
        <ele>144</ele>
        <time>2022-03-06T09:32:07Z</time>
      </trkpt>
      <trkpt lat="48.55501" lon="2.06449">
        <ele>144</ele>
        <time>2022-03-06T09:32:09Z</time>
      </trkpt>
      <trkpt lat="48.55502" lon="2.06445">
        <ele>143</ele>
        <time>2022-03-06T09:32:11Z</time>
      </trkpt>
      <trkpt lat="48.55502" lon="2.0644">
        <ele>143</ele>
        <time>2022-03-06T09:32:13Z</time>
      </trkpt>
      <trkpt lat="48.55503" lon="2.06435">
        <ele>143</ele>
        <time>2022-03-06T09:32:16Z</time>
      </trkpt>
      <trkpt lat="48.55504" lon="2.0643">
        <ele>142</ele>
        <time>2022-03-06T09:32:18Z</time>
      </trkpt>
      <trkpt lat="48.55506" lon="2.06426">
        <ele>142</ele>
        <time>2022-03-06T09:32:20Z</time>
      </trkpt>
      <trkpt lat="48.55507" lon="2.06421">
        <ele>141</ele>
        <time>2022-03-06T09:32:22Z</time>
      </trkpt>
      <trkpt lat="48.55508" lon="2.06417">
        <ele>141</ele>
        <time>2022-03-06T09:32:24Z</time>
      </trkpt>
      <trkpt lat="48.55509" lon="2.06412">
        <ele>140</ele>
        <time>2022-03-06T09:32:26Z</time>
      </trkpt>
      <trkpt lat="48.55509" lon="2.06408">
        <ele>140</ele>
        <time>2022-03-06T09:32:28Z</time>
      </trkpt>
      <trkpt lat="48.5551" lon="2.06404">
        <ele>139</ele>
        <time>2022-03-06T09:32:30Z</time>
      </trkpt>
      <trkpt lat="48.55511" lon="2.06399">
        <ele>139</ele>
        <time>2022-03-06T09:32:32Z</time>
      </trkpt>
      <trkpt lat="48.55512" lon="2.06395">
        <ele>139</ele>
        <time>2022-03-06T09:32:34Z</time>
      </trkpt>
      <trkpt lat="48.55513" lon="2.0639">
        <ele>138</ele>
        <time>2022-03-06T09:32:36Z</time>
      </trkpt>
      <trkpt lat="48.55513" lon="2.06386">
        <ele>138</ele>
        <time>2022-03-06T09:32:38Z</time>
      </trkpt>
      <trkpt lat="48.55514" lon="2.06381">
        <ele>138</ele>
        <time>2022-03-06T09:32:40Z</time>
      </trkpt>
      <trkpt lat="48.55515" lon="2.06377">
        <ele>137</ele>
        <time>2022-03-06T09:32:42Z</time>
      </trkpt>
      <trkpt lat="48.55516" lon="2.06373">
        <ele>137</ele>
        <time>2022-03-06T09:32:44Z</time>
      </trkpt>
      <trkpt lat="48.55516" lon="2.06368">
        <ele>137</ele>
        <time>2022-03-06T09:32:46Z</time>
      </trkpt>
      <trkpt lat="48.55517" lon="2.06364">
        <ele>136</ele>
        <time>2022-03-06T09:32:48Z</time>
      </trkpt>
      <trkpt lat="48.55518" lon="2.0636">
        <ele>136</ele>
        <time>2022-03-06T09:32:50Z</time>
      </trkpt>
      <trkpt lat="48.55518" lon="2.06355">
        <ele>136</ele>
        <time>2022-03-06T09:32:52Z</time>
      </trkpt>
      <trkpt lat="48.55519" lon="2.06351">
        <ele>135</ele>
        <time>2022-03-06T09:32:54Z</time>
      </trkpt>
      <trkpt lat="48.5552" lon="2.06347">
        <ele>135</ele>
        <time>2022-03-06T09:32:56Z</time>
      </trkpt>
      <trkpt lat="48.5552" lon="2.06342">
        <ele>135</ele>
        <time>2022-03-06T09:32:58Z</time>
      </trkpt>
      <trkpt lat="48.55521" lon="2.06338">
        <ele>134</ele>
        <time>2022-03-06T09:33:00Z</time>
      </trkpt>
      <trkpt lat="48.55522" lon="2.06334">
        <ele>134</ele>
        <time>2022-03-06T09:33:02Z</time>
      </trkpt>
      <trkpt lat="48.55522" lon="2.06329">
        <ele>134</ele>
        <time>2022-03-06T09:33:04Z</time>
      </trkpt>
      <trkpt lat="48.55522" lon="2.06325">
        <ele>134</ele>
        <time>2022-03-06T09:33:06Z</time>
      </trkpt>
      <trkpt lat="48.55522" lon="2.0632">
        <ele>134</ele>
        <time>2022-03-06T09:33:08Z</time>
      </trkpt>
      <trkpt lat="48.55523" lon="2.06316">
        <ele>134</ele>
        <time>2022-03-06T09:33:10Z</time>
      </trkpt>
      <trkpt lat="48.55523" lon="2.06311">
        <ele>133</ele>
        <time>2022-03-06T09:33:12Z</time>
      </trkpt>
      <trkpt lat="48.55523" lon="2.06307">
        <ele>133</ele>
        <time>2022-03-06T09:33:14Z</time>
      </trkpt>
      <trkpt lat="48.55524" lon="2.06303">
        <ele>133</ele>
        <time>2022-03-06T09:33:16Z</time>
      </trkpt>
      <trkpt lat="48.55524" lon="2.06299">
        <ele>133</ele>
        <time>2022-03-06T09:33:18Z</time>
      </trkpt>
      <trkpt lat="48.55524" lon="2.06294">
        <ele>132</ele>
        <time>2022-03-06T09:33:20Z</time>
      </trkpt>
      <trkpt lat="48.55524" lon="2.0629">
        <ele>132</ele>
        <time>2022-03-06T09:33:22Z</time>
      </trkpt>
      <trkpt lat="48.55523" lon="2.06285">
        <ele>132</ele>
        <time>2022-03-06T09:33:24Z</time>
      </trkpt>
      <trkpt lat="48.55523" lon="2.06281">
        <ele>131</ele>
        <time>2022-03-06T09:33:26Z</time>
      </trkpt>
      <trkpt lat="48.55523" lon="2.06277">
        <ele>131</ele>
        <time>2022-03-06T09:33:28Z</time>
      </trkpt>
      <trkpt lat="48.55523" lon="2.06272">
        <ele>131</ele>
        <time>2022-03-06T09:33:30Z</time>
      </trkpt>
      <trkpt lat="48.55523" lon="2.06267">
        <ele>131</ele>
        <time>2022-03-06T09:33:33Z</time>
      </trkpt>
      <trkpt lat="48.55522" lon="2.06263">
        <ele>131</ele>
        <time>2022-03-06T09:33:35Z</time>
      </trkpt>
      <trkpt lat="48.55521" lon="2.06258">
        <ele>131</ele>
        <time>2022-03-06T09:33:37Z</time>
      </trkpt>
      <trkpt lat="48.55521" lon="2.06253">
        <ele>131</ele>
        <time>2022-03-06T09:33:40Z</time>
      </trkpt>
      <trkpt lat="48.5552" lon="2.06248">
        <ele>131</ele>
        <time>2022-03-06T09:33:42Z</time>
      </trkpt>
      <trkpt lat="48.55519" lon="2.06244">
        <ele>130</ele>
        <time>2022-03-06T09:33:44Z</time>
      </trkpt>
      <trkpt lat="48.55518" lon="2.0624">
        <ele>130</ele>
        <time>2022-03-06T09:33:46Z</time>
      </trkpt>
      <trkpt lat="48.55518" lon="2.06236">
        <ele>130</ele>
        <time>2022-03-06T09:33:48Z</time>
      </trkpt>
      <trkpt lat="48.55517" lon="2.06232">
        <ele>130</ele>
        <time>2022-03-06T09:33:50Z</time>
      </trkpt>
      <trkpt lat="48.55516" lon="2.06227">
        <ele>130</ele>
        <time>2022-03-06T09:33:52Z</time>
      </trkpt>
      <trkpt lat="48.55515" lon="2.06223">
        <ele>130</ele>
        <time>2022-03-06T09:33:54Z</time>
      </trkpt>
      <trkpt lat="48.55514" lon="2.06219">
        <ele>130</ele>
        <time>2022-03-06T09:33:56Z</time>
      </trkpt>
      <trkpt lat="48.55513" lon="2.06215">
        <ele>130</ele>
        <time>2022-03-06T09:33:58Z</time>
      </trkpt>
      <trkpt lat="48.55512" lon="2.06211">
        <ele>130</ele>
        <time>2022-03-06T09:34:00Z</time>
      </trkpt>
      <trkpt lat="48.55511" lon="2.06206">
        <ele>130</ele>
        <time>2022-03-06T09:34:02Z</time>
      </trkpt>
      <trkpt lat="48.5551" lon="2.06202">
        <ele>130</ele>
        <time>2022-03-06T09:34:04Z</time>
      </trkpt>
      <trkpt lat="48.55509" lon="2.06198">
        <ele>130</ele>
        <time>2022-03-06T09:34:06Z</time>
      </trkpt>
      <trkpt lat="48.55508" lon="2.06194">
        <ele>130</ele>
        <time>2022-03-06T09:34:08Z</time>
      </trkpt>
      <trkpt lat="48.55507" lon="2.0619">
        <ele>130</ele>
        <time>2022-03-06T09:34:10Z</time>
      </trkpt>
      <trkpt lat="48.55506" lon="2.06186">
        <ele>130</ele>
        <time>2022-03-06T09:34:12Z</time>
      </trkpt>
      <trkpt lat="48.55505" lon="2.06181">
        <ele>130</ele>
        <time>2022-03-06T09:34:14Z</time>
      </trkpt>
      <trkpt lat="48.55503" lon="2.06177">
        <ele>130</ele>
        <time>2022-03-06T09:34:16Z</time>
      </trkpt>
      <trkpt lat="48.55502" lon="2.06173">
        <ele>130</ele>
        <time>2022-03-06T09:34:18Z</time>
      </trkpt>
      <trkpt lat="48.55501" lon="2.06169">
        <ele>130</ele>
        <time>2022-03-06T09:34:20Z</time>
      </trkpt>
      <trkpt lat="48.555" lon="2.06165">
        <ele>130</ele>
        <time>2022-03-06T09:34:22Z</time>
      </trkpt>
      <trkpt lat="48.55499" lon="2.06161">
        <ele>130</ele>
        <time>2022-03-06T09:34:24Z</time>
      </trkpt>
      <trkpt lat="48.55498" lon="2.06157">
        <ele>130</ele>
        <time>2022-03-06T09:34:26Z</time>
      </trkpt>
      <trkpt lat="48.55497" lon="2.06153">
        <ele>130</ele>
        <time>2022-03-06T09:34:29Z</time>
      </trkpt>
      <trkpt lat="48.55496" lon="2.06148">
        <ele>130</ele>
        <time>2022-03-06T09:35:48Z</time>
      </trkpt>
      <trkpt lat="48.55495" lon="2.06144">
        <ele>130</ele>
        <time>2022-03-06T09:35:50Z</time>
      </trkpt>
      <trkpt lat="48.55495" lon="2.06139">
        <ele>130</ele>
        <time>2022-03-06T09:35:52Z</time>
      </trkpt>
      <trkpt lat="48.55494" lon="2.06135">
        <ele>130</ele>
        <time>2022-03-06T09:35:54Z</time>
      </trkpt>
      <trkpt lat="48.55494" lon="2.06131">
        <ele>130</ele>
        <time>2022-03-06T09:35:56Z</time>
      </trkpt>
      <trkpt lat="48.55494" lon="2.06127">
        <ele>130</ele>
        <time>2022-03-06T09:35:58Z</time>
      </trkpt>
      <trkpt lat="48.55495" lon="2.06122">
        <ele>130</ele>
        <time>2022-03-06T09:36:00Z</time>
      </trkpt>
      <trkpt lat="48.55496" lon="2.06118">
        <ele>130</ele>
        <time>2022-03-06T09:36:02Z</time>
      </trkpt>
      <trkpt lat="48.55498" lon="2.06114">
        <ele>130</ele>
        <time>2022-03-06T09:36:04Z</time>
      </trkpt>
      <trkpt lat="48.55499" lon="2.0611">
        <ele>130</ele>
        <time>2022-03-06T09:36:06Z</time>
      </trkpt>
      <trkpt lat="48.55501" lon="2.06106">
        <ele>130</ele>
        <time>2022-03-06T09:36:08Z</time>
      </trkpt>
      <trkpt lat="48.55503" lon="2.06103">
        <ele>130</ele>
        <time>2022-03-06T09:36:10Z</time>
      </trkpt>
      <trkpt lat="48.55505" lon="2.06099">
        <ele>130</ele>
        <time>2022-03-06T09:36:12Z</time>
      </trkpt>
      <trkpt lat="48.55507" lon="2.06095">
        <ele>129</ele>
        <time>2022-03-06T09:36:14Z</time>
      </trkpt>
      <trkpt lat="48.55509" lon="2.06092">
        <ele>129</ele>
        <time>2022-03-06T09:36:16Z</time>
      </trkpt>
      <trkpt lat="48.5551" lon="2.06088">
        <ele>129</ele>
        <time>2022-03-06T09:36:18Z</time>
      </trkpt>
      <trkpt lat="48.55512" lon="2.06084">
        <ele>129</ele>
        <time>2022-03-06T09:36:20Z</time>
      </trkpt>
      <trkpt lat="48.55514" lon="2.06081">
        <ele>129</ele>
        <time>2022-03-06T09:36:22Z</time>
      </trkpt>
      <trkpt lat="48.55516" lon="2.06077">
        <ele>129</ele>
        <time>2022-03-06T09:36:24Z</time>
      </trkpt>
      <trkpt lat="48.55517" lon="2.06073">
        <ele>128</ele>
        <time>2022-03-06T09:36:26Z</time>
      </trkpt>
      <trkpt lat="48.55519" lon="2.06069">
        <ele>128</ele>
        <time>2022-03-06T09:36:28Z</time>
      </trkpt>
      <trkpt lat="48.55521" lon="2.06065">
        <ele>128</ele>
        <time>2022-03-06T09:36:30Z</time>
      </trkpt>
      <trkpt lat="48.55522" lon="2.06062">
        <ele>127</ele>
        <time>2022-03-06T09:36:32Z</time>
      </trkpt>
      <trkpt lat="48.55524" lon="2.06058">
        <ele>127</ele>
        <time>2022-03-06T09:36:34Z</time>
      </trkpt>
      <trkpt lat="48.55526" lon="2.06054">
        <ele>127</ele>
        <time>2022-03-06T09:36:36Z</time>
      </trkpt>
      <trkpt lat="48.55528" lon="2.06049">
        <ele>126</ele>
        <time>2022-03-06T09:36:38Z</time>
      </trkpt>
      <trkpt lat="48.55529" lon="2.06045">
        <ele>126</ele>
        <time>2022-03-06T09:36:40Z</time>
      </trkpt>
      <trkpt lat="48.55531" lon="2.06041">
        <ele>126</ele>
        <time>2022-03-06T09:36:42Z</time>
      </trkpt>
      <trkpt lat="48.55532" lon="2.06037">
        <ele>126</ele>
        <time>2022-03-06T09:36:44Z</time>
      </trkpt>
      <trkpt lat="48.55534" lon="2.06032">
        <ele>126</ele>
        <time>2022-03-06T09:36:46Z</time>
      </trkpt>
      <trkpt lat="48.55536" lon="2.06029">
        <ele>125</ele>
        <time>2022-03-06T09:36:48Z</time>
      </trkpt>
      <trkpt lat="48.55537" lon="2.06024">
        <ele>125</ele>
        <time>2022-03-06T09:36:50Z</time>
      </trkpt>
      <trkpt lat="48.55539" lon="2.0602">
        <ele>125</ele>
        <time>2022-03-06T09:36:52Z</time>
      </trkpt>
      <trkpt lat="48.5554" lon="2.06016">
        <ele>125</ele>
        <time>2022-03-06T09:36:54Z</time>
      </trkpt>
      <trkpt lat="48.55542" lon="2.06012">
        <ele>125</ele>
        <time>2022-03-06T09:36:56Z</time>
      </trkpt>
      <trkpt lat="48.55543" lon="2.06007">
        <ele>124</ele>
        <time>2022-03-06T09:36:58Z</time>
      </trkpt>
      <trkpt lat="48.55545" lon="2.06003">
        <ele>124</ele>
        <time>2022-03-06T09:37:00Z</time>
      </trkpt>
      <trkpt lat="48.55547" lon="2.05998">
        <ele>124</ele>
        <time>2022-03-06T09:37:02Z</time>
      </trkpt>
      <trkpt lat="48.55549" lon="2.05994">
        <ele>124</ele>
        <time>2022-03-06T09:37:04Z</time>
      </trkpt>
      <trkpt lat="48.5555" lon="2.05989">
        <ele>124</ele>
        <time>2022-03-06T09:37:06Z</time>
      </trkpt>
      <trkpt lat="48.55552" lon="2.05986">
        <ele>123</ele>
        <time>2022-03-06T09:37:08Z</time>
      </trkpt>
      <trkpt lat="48.55553" lon="2.05981">
        <ele>123</ele>
        <time>2022-03-06T09:37:10Z</time>
      </trkpt>
      <trkpt lat="48.55555" lon="2.05976">
        <ele>123</ele>
        <time>2022-03-06T09:37:12Z</time>
      </trkpt>
      <trkpt lat="48.55556" lon="2.05971">
        <ele>123</ele>
        <time>2022-03-06T09:37:14Z</time>
      </trkpt>
      <trkpt lat="48.55558" lon="2.05967">
        <ele>123</ele>
        <time>2022-03-06T09:37:16Z</time>
      </trkpt>
      <trkpt lat="48.55559" lon="2.05962">
        <ele>123</ele>
        <time>2022-03-06T09:37:18Z</time>
      </trkpt>
      <trkpt lat="48.5556" lon="2.05957">
        <ele>122</ele>
        <time>2022-03-06T09:37:20Z</time>
      </trkpt>
      <trkpt lat="48.55561" lon="2.05953">
        <ele>122</ele>
        <time>2022-03-06T09:37:22Z</time>
      </trkpt>
      <trkpt lat="48.55563" lon="2.05948">
        <ele>122</ele>
        <time>2022-03-06T09:37:24Z</time>
      </trkpt>
      <trkpt lat="48.55564" lon="2.05944">
        <ele>122</ele>
        <time>2022-03-06T09:37:26Z</time>
      </trkpt>
      <trkpt lat="48.55566" lon="2.0594">
        <ele>122</ele>
        <time>2022-03-06T09:37:28Z</time>
      </trkpt>
      <trkpt lat="48.55567" lon="2.05934">
        <ele>122</ele>
        <time>2022-03-06T09:37:30Z</time>
      </trkpt>
      <trkpt lat="48.55568" lon="2.05929">
        <ele>121</ele>
        <time>2022-03-06T09:37:32Z</time>
      </trkpt>
      <trkpt lat="48.55569" lon="2.05925">
        <ele>121</ele>
        <time>2022-03-06T09:37:34Z</time>
      </trkpt>
      <trkpt lat="48.55571" lon="2.0592">
        <ele>121</ele>
        <time>2022-03-06T09:37:36Z</time>
      </trkpt>
      <trkpt lat="48.55572" lon="2.05916">
        <ele>121</ele>
        <time>2022-03-06T09:37:38Z</time>
      </trkpt>
      <trkpt lat="48.55573" lon="2.05911">
        <ele>121</ele>
        <time>2022-03-06T09:37:40Z</time>
      </trkpt>
      <trkpt lat="48.55574" lon="2.05906">
        <ele>121</ele>
        <time>2022-03-06T09:37:42Z</time>
      </trkpt>
      <trkpt lat="48.55575" lon="2.05902">
        <ele>121</ele>
        <time>2022-03-06T09:37:44Z</time>
      </trkpt>
      <trkpt lat="48.55577" lon="2.05897">
        <ele>121</ele>
        <time>2022-03-06T09:37:46Z</time>
      </trkpt>
      <trkpt lat="48.55579" lon="2.05892">
        <ele>120</ele>
        <time>2022-03-06T09:37:48Z</time>
      </trkpt>
      <trkpt lat="48.5558" lon="2.05887">
        <ele>120</ele>
        <time>2022-03-06T09:37:50Z</time>
      </trkpt>
      <trkpt lat="48.55581" lon="2.05882">
        <ele>120</ele>
        <time>2022-03-06T09:37:52Z</time>
      </trkpt>
      <trkpt lat="48.55582" lon="2.05878">
        <ele>120</ele>
        <time>2022-03-06T09:37:54Z</time>
      </trkpt>
      <trkpt lat="48.55583" lon="2.05873">
        <ele>120</ele>
        <time>2022-03-06T09:37:56Z</time>
      </trkpt>
      <trkpt lat="48.55583" lon="2.05868">
        <ele>120</ele>
        <time>2022-03-06T09:37:58Z</time>
      </trkpt>
      <trkpt lat="48.55584" lon="2.05863">
        <ele>120</ele>
        <time>2022-03-06T09:38:00Z</time>
      </trkpt>
      <trkpt lat="48.55585" lon="2.05858">
        <ele>120</ele>
        <time>2022-03-06T09:38:02Z</time>
      </trkpt>
      <trkpt lat="48.55585" lon="2.05854">
        <ele>120</ele>
        <time>2022-03-06T09:38:04Z</time>
      </trkpt>
      <trkpt lat="48.55586" lon="2.05849">
        <ele>120</ele>
        <time>2022-03-06T09:38:06Z</time>
      </trkpt>
      <trkpt lat="48.55587" lon="2.05845">
        <ele>120</ele>
        <time>2022-03-06T09:38:08Z</time>
      </trkpt>
      <trkpt lat="48.55588" lon="2.05841">
        <ele>120</ele>
        <time>2022-03-06T09:38:10Z</time>
      </trkpt>
      <trkpt lat="48.55589" lon="2.05836">
        <ele>120</ele>
        <time>2022-03-06T09:38:12Z</time>
      </trkpt>
      <trkpt lat="48.55591" lon="2.05832">
        <ele>120</ele>
        <time>2022-03-06T09:38:14Z</time>
      </trkpt>
      <trkpt lat="48.55593" lon="2.05828">
        <ele>119</ele>
        <time>2022-03-06T09:38:16Z</time>
      </trkpt>
      <trkpt lat="48.55595" lon="2.05824">
        <ele>119</ele>
        <time>2022-03-06T09:38:18Z</time>
      </trkpt>
      <trkpt lat="48.55597" lon="2.05821">
        <ele>119</ele>
        <time>2022-03-06T09:38:20Z</time>
      </trkpt>
      <trkpt lat="48.556" lon="2.05819">
        <ele>118</ele>
        <time>2022-03-06T09:38:22Z</time>
      </trkpt>
      <trkpt lat="48.55603" lon="2.05816">
        <ele>118</ele>
        <time>2022-03-06T09:38:24Z</time>
      </trkpt>
      <trkpt lat="48.55606" lon="2.05814">
        <ele>117</ele>
        <time>2022-03-06T09:38:26Z</time>
      </trkpt>
      <trkpt lat="48.55609" lon="2.05812">
        <ele>117</ele>
        <time>2022-03-06T09:38:28Z</time>
      </trkpt>
      <trkpt lat="48.55612" lon="2.05811">
        <ele>117</ele>
        <time>2022-03-06T09:38:30Z</time>
      </trkpt>
      <trkpt lat="48.55616" lon="2.05809">
        <ele>118</ele>
        <time>2022-03-06T09:38:32Z</time>
      </trkpt>
      <trkpt lat="48.55619" lon="2.05808">
        <ele>118</ele>
        <time>2022-03-06T09:38:34Z</time>
      </trkpt>
      <trkpt lat="48.55622" lon="2.05806">
        <ele>118</ele>
        <time>2022-03-06T09:38:36Z</time>
      </trkpt>
      <trkpt lat="48.55625" lon="2.05804">
        <ele>117</ele>
        <time>2022-03-06T09:38:38Z</time>
      </trkpt>
      <trkpt lat="48.55628" lon="2.05802">
        <ele>117</ele>
        <time>2022-03-06T09:38:40Z</time>
      </trkpt>
      <trkpt lat="48.55631" lon="2.058">
        <ele>117</ele>
        <time>2022-03-06T09:38:42Z</time>
      </trkpt>
      <trkpt lat="48.55634" lon="2.05798">
        <ele>117</ele>
        <time>2022-03-06T09:38:44Z</time>
      </trkpt>
      <trkpt lat="48.55636" lon="2.05795">
        <ele>116</ele>
        <time>2022-03-06T09:38:46Z</time>
      </trkpt>
      <trkpt lat="48.55639" lon="2.05793">
        <ele>116</ele>
        <time>2022-03-06T09:38:48Z</time>
      </trkpt>
      <trkpt lat="48.55642" lon="2.05791">
        <ele>116</ele>
        <time>2022-03-06T09:38:50Z</time>
      </trkpt>
      <trkpt lat="48.55644" lon="2.05788">
        <ele>116</ele>
        <time>2022-03-06T09:38:52Z</time>
      </trkpt>
      <trkpt lat="48.55647" lon="2.05786">
        <ele>116</ele>
        <time>2022-03-06T09:38:54Z</time>
      </trkpt>
      <trkpt lat="48.5565" lon="2.05783">
        <ele>116</ele>
        <time>2022-03-06T09:38:56Z</time>
      </trkpt>
      <trkpt lat="48.55652" lon="2.0578">
        <ele>116</ele>
        <time>2022-03-06T09:38:58Z</time>
      </trkpt>
      <trkpt lat="48.55654" lon="2.05777">
        <ele>115</ele>
        <time>2022-03-06T09:39:00Z</time>
      </trkpt>
      <trkpt lat="48.55656" lon="2.05774">
        <ele>115</ele>
        <time>2022-03-06T09:39:02Z</time>
      </trkpt>
      <trkpt lat="48.55659" lon="2.05771">
        <ele>115</ele>
        <time>2022-03-06T09:39:04Z</time>
      </trkpt>
      <trkpt lat="48.55661" lon="2.05767">
        <ele>115</ele>
        <time>2022-03-06T09:39:06Z</time>
      </trkpt>
      <trkpt lat="48.55664" lon="2.05764">
        <ele>115</ele>
        <time>2022-03-06T09:39:08Z</time>
      </trkpt>
      <trkpt lat="48.55666" lon="2.05761">
        <ele>115</ele>
        <time>2022-03-06T09:39:10Z</time>
      </trkpt>
      <trkpt lat="48.55668" lon="2.05758">
        <ele>115</ele>
        <time>2022-03-06T09:39:12Z</time>
      </trkpt>
      <trkpt lat="48.5567" lon="2.05755">
        <ele>115</ele>
        <time>2022-03-06T09:39:14Z</time>
      </trkpt>
      <trkpt lat="48.55672" lon="2.05752">
        <ele>115</ele>
        <time>2022-03-06T09:39:16Z</time>
      </trkpt>
      <trkpt lat="48.55674" lon="2.05748">
        <ele>115</ele>
        <time>2022-03-06T09:39:18Z</time>
      </trkpt>
      <trkpt lat="48.55676" lon="2.05745">
        <ele>115</ele>
        <time>2022-03-06T09:39:20Z</time>
      </trkpt>
      <trkpt lat="48.55678" lon="2.05741">
        <ele>115</ele>
        <time>2022-03-06T09:39:22Z</time>
      </trkpt>
      <trkpt lat="48.55679" lon="2.05738">
        <ele>115</ele>
        <time>2022-03-06T09:39:24Z</time>
      </trkpt>
      <trkpt lat="48.55682" lon="2.05734">
        <ele>115</ele>
        <time>2022-03-06T09:39:27Z</time>
      </trkpt>
      <trkpt lat="48.55684" lon="2.0573">
        <ele>115</ele>
        <time>2022-03-06T09:39:29Z</time>
      </trkpt>
      <trkpt lat="48.55686" lon="2.05726">
        <ele>114</ele>
        <time>2022-03-06T09:39:31Z</time>
      </trkpt>
      <trkpt lat="48.55689" lon="2.05722">
        <ele>114</ele>
        <time>2022-03-06T09:39:33Z</time>
      </trkpt>
      <trkpt lat="48.55691" lon="2.05718">
        <ele>114</ele>
        <time>2022-03-06T09:39:35Z</time>
      </trkpt>
      <trkpt lat="48.55693" lon="2.05714">
        <ele>114</ele>
        <time>2022-03-06T09:39:37Z</time>
      </trkpt>
      <trkpt lat="48.55695" lon="2.0571">
        <ele>114</ele>
        <time>2022-03-06T09:39:39Z</time>
      </trkpt>
      <trkpt lat="48.55697" lon="2.05706">
        <ele>115</ele>
        <time>2022-03-06T09:39:42Z</time>
      </trkpt>
      <trkpt lat="48.55699" lon="2.05702">
        <ele>115</ele>
        <time>2022-03-06T09:39:44Z</time>
      </trkpt>
      <trkpt lat="48.55702" lon="2.05699">
        <ele>115</ele>
        <time>2022-03-06T09:39:47Z</time>
      </trkpt>
      <trkpt lat="48.55704" lon="2.05695">
        <ele>115</ele>
        <time>2022-03-06T09:39:49Z</time>
      </trkpt>
      <trkpt lat="48.55707" lon="2.05692">
        <ele>115</ele>
        <time>2022-03-06T09:39:51Z</time>
      </trkpt>
      <trkpt lat="48.5571" lon="2.05688">
        <ele>115</ele>
        <time>2022-03-06T09:39:53Z</time>
      </trkpt>
      <trkpt lat="48.55712" lon="2.05685">
        <ele>115</ele>
        <time>2022-03-06T09:39:55Z</time>
      </trkpt>
      <trkpt lat="48.55715" lon="2.05682">
        <ele>115</ele>
        <time>2022-03-06T09:39:57Z</time>
      </trkpt>
      <trkpt lat="48.55717" lon="2.05678">
        <ele>115</ele>
        <time>2022-03-06T09:39:59Z</time>
      </trkpt>
      <trkpt lat="48.5572" lon="2.05675">
        <ele>115</ele>
        <time>2022-03-06T09:40:02Z</time>
      </trkpt>
      <trkpt lat="48.55723" lon="2.05672">
        <ele>115</ele>
        <time>2022-03-06T09:40:04Z</time>
      </trkpt>
      <trkpt lat="48.55726" lon="2.0567">
        <ele>116</ele>
        <time>2022-03-06T09:40:06Z</time>
      </trkpt>
      <trkpt lat="48.55728" lon="2.05667">
        <ele>116</ele>
        <time>2022-03-06T09:40:08Z</time>
      </trkpt>
      <trkpt lat="48.5573" lon="2.05664">
        <ele>116</ele>
        <time>2022-03-06T09:40:10Z</time>
      </trkpt>
      <trkpt lat="48.55733" lon="2.0566">
        <ele>116</ele>
        <time>2022-03-06T09:40:13Z</time>
      </trkpt>
      <trkpt lat="48.55735" lon="2.05657">
        <ele>116</ele>
        <time>2022-03-06T09:40:15Z</time>
      </trkpt>
      <trkpt lat="48.55737" lon="2.05654">
        <ele>116</ele>
        <time>2022-03-06T09:40:17Z</time>
      </trkpt>
      <trkpt lat="48.55739" lon="2.05651">
        <ele>116</ele>
        <time>2022-03-06T09:40:19Z</time>
      </trkpt>
      <trkpt lat="48.55742" lon="2.05647">
        <ele>117</ele>
        <time>2022-03-06T09:40:21Z</time>
      </trkpt>
      <trkpt lat="48.55745" lon="2.05643">
        <ele>117</ele>
        <time>2022-03-06T09:40:24Z</time>
      </trkpt>
      <trkpt lat="48.55747" lon="2.0564">
        <ele>117</ele>
        <time>2022-03-06T09:40:26Z</time>
      </trkpt>
      <trkpt lat="48.55749" lon="2.05636">
        <ele>117</ele>
        <time>2022-03-06T09:40:28Z</time>
      </trkpt>
      <trkpt lat="48.55752" lon="2.05632">
        <ele>117</ele>
        <time>2022-03-06T09:40:30Z</time>
      </trkpt>
      <trkpt lat="48.55754" lon="2.05629">
        <ele>117</ele>
        <time>2022-03-06T09:40:32Z</time>
      </trkpt>
      <trkpt lat="48.55757" lon="2.05626">
        <ele>116</ele>
        <time>2022-03-06T09:40:34Z</time>
      </trkpt>
      <trkpt lat="48.5576" lon="2.05622">
        <ele>116</ele>
        <time>2022-03-06T09:40:36Z</time>
      </trkpt>
      <trkpt lat="48.55762" lon="2.05619">
        <ele>116</ele>
        <time>2022-03-06T09:40:38Z</time>
      </trkpt>
      <trkpt lat="48.55765" lon="2.05616">
        <ele>115</ele>
        <time>2022-03-06T09:40:40Z</time>
      </trkpt>
      <trkpt lat="48.55768" lon="2.05613">
        <ele>115</ele>
        <time>2022-03-06T09:40:42Z</time>
      </trkpt>
      <trkpt lat="48.55771" lon="2.05612">
        <ele>115</ele>
        <time>2022-03-06T09:40:44Z</time>
      </trkpt>
      <trkpt lat="48.55774" lon="2.0561">
        <ele>114</ele>
        <time>2022-03-06T09:40:46Z</time>
      </trkpt>
      <trkpt lat="48.55778" lon="2.0561">
        <ele>114</ele>
        <time>2022-03-06T09:40:48Z</time>
      </trkpt>
      <trkpt lat="48.55781" lon="2.05609">
        <ele>114</ele>
        <time>2022-03-06T09:40:50Z</time>
      </trkpt>
      <trkpt lat="48.55784" lon="2.05609">
        <ele>114</ele>
        <time>2022-03-06T09:40:52Z</time>
      </trkpt>
      <trkpt lat="48.55787" lon="2.0561">
        <ele>113</ele>
        <time>2022-03-06T09:40:54Z</time>
      </trkpt>
      <trkpt lat="48.55791" lon="2.0561">
        <ele>113</ele>
        <time>2022-03-06T09:40:56Z</time>
      </trkpt>
      <trkpt lat="48.55794" lon="2.05609">
        <ele>112</ele>
        <time>2022-03-06T09:40:58Z</time>
      </trkpt>
      <trkpt lat="48.55797" lon="2.05609">
        <ele>112</ele>
        <time>2022-03-06T09:41:00Z</time>
      </trkpt>
      <trkpt lat="48.55801" lon="2.05609">
        <ele>112</ele>
        <time>2022-03-06T09:41:03Z</time>
      </trkpt>
      <trkpt lat="48.55804" lon="2.05609">
        <ele>111</ele>
        <time>2022-03-06T09:41:05Z</time>
      </trkpt>
      <trkpt lat="48.55807" lon="2.05609">
        <ele>111</ele>
        <time>2022-03-06T09:41:07Z</time>
      </trkpt>
      <trkpt lat="48.5581" lon="2.05609">
        <ele>110</ele>
        <time>2022-03-06T09:41:09Z</time>
      </trkpt>
      <trkpt lat="48.55813" lon="2.05609">
        <ele>110</ele>
        <time>2022-03-06T09:41:11Z</time>
      </trkpt>
      <trkpt lat="48.55817" lon="2.05608">
        <ele>109</ele>
        <time>2022-03-06T09:41:14Z</time>
      </trkpt>
      <trkpt lat="48.5582" lon="2.05607">
        <ele>109</ele>
        <time>2022-03-06T09:41:16Z</time>
      </trkpt>
      <trkpt lat="48.55823" lon="2.05607">
        <ele>109</ele>
        <time>2022-03-06T09:41:18Z</time>
      </trkpt>
      <trkpt lat="48.55827" lon="2.05606">
        <ele>108</ele>
        <time>2022-03-06T09:41:21Z</time>
      </trkpt>
      <trkpt lat="48.5583" lon="2.05605">
        <ele>108</ele>
        <time>2022-03-06T09:41:23Z</time>
      </trkpt>
      <trkpt lat="48.55833" lon="2.05605">
        <ele>107</ele>
        <time>2022-03-06T09:41:25Z</time>
      </trkpt>
      <trkpt lat="48.55837" lon="2.05604">
        <ele>107</ele>
        <time>2022-03-06T09:41:28Z</time>
      </trkpt>
      <trkpt lat="48.5584" lon="2.05603">
        <ele>107</ele>
        <time>2022-03-06T09:41:30Z</time>
      </trkpt>
      <trkpt lat="48.55843" lon="2.05603">
        <ele>107</ele>
        <time>2022-03-06T09:41:32Z</time>
      </trkpt>
      <trkpt lat="48.55846" lon="2.05603">
        <ele>106</ele>
        <time>2022-03-06T09:41:34Z</time>
      </trkpt>
      <trkpt lat="48.55849" lon="2.05602">
        <ele>106</ele>
        <time>2022-03-06T09:41:36Z</time>
      </trkpt>
      <trkpt lat="48.55852" lon="2.05602">
        <ele>106</ele>
        <time>2022-03-06T09:41:38Z</time>
      </trkpt>
      <trkpt lat="48.55855" lon="2.05601">
        <ele>105</ele>
        <time>2022-03-06T09:41:40Z</time>
      </trkpt>
      <trkpt lat="48.55858" lon="2.056">
        <ele>105</ele>
        <time>2022-03-06T09:41:42Z</time>
      </trkpt>
      <trkpt lat="48.55861" lon="2.056">
        <ele>105</ele>
        <time>2022-03-06T09:41:44Z</time>
      </trkpt>
      <trkpt lat="48.55865" lon="2.056">
        <ele>104</ele>
        <time>2022-03-06T09:41:46Z</time>
      </trkpt>
      <trkpt lat="48.55868" lon="2.05599">
        <ele>104</ele>
        <time>2022-03-06T09:41:48Z</time>
      </trkpt>
      <trkpt lat="48.55871" lon="2.05598">
        <ele>104</ele>
        <time>2022-03-06T09:41:50Z</time>
      </trkpt>
      <trkpt lat="48.55874" lon="2.05598">
        <ele>103</ele>
        <time>2022-03-06T09:41:52Z</time>
      </trkpt>
      <trkpt lat="48.55877" lon="2.05597">
        <ele>103</ele>
        <time>2022-03-06T09:41:54Z</time>
      </trkpt>
      <trkpt lat="48.5588" lon="2.05597">
        <ele>103</ele>
        <time>2022-03-06T09:41:56Z</time>
      </trkpt>
      <trkpt lat="48.55884" lon="2.05597">
        <ele>103</ele>
        <time>2022-03-06T09:41:58Z</time>
      </trkpt>
      <trkpt lat="48.55887" lon="2.05597">
        <ele>102</ele>
        <time>2022-03-06T09:42:00Z</time>
      </trkpt>
      <trkpt lat="48.5589" lon="2.05596">
        <ele>102</ele>
        <time>2022-03-06T09:42:02Z</time>
      </trkpt>
      <trkpt lat="48.55893" lon="2.05596">
        <ele>102</ele>
        <time>2022-03-06T09:42:04Z</time>
      </trkpt>
      <trkpt lat="48.55896" lon="2.05596">
        <ele>102</ele>
        <time>2022-03-06T09:42:06Z</time>
      </trkpt>
      <trkpt lat="48.55899" lon="2.05595">
        <ele>102</ele>
        <time>2022-03-06T09:42:08Z</time>
      </trkpt>
      <trkpt lat="48.55902" lon="2.05595">
        <ele>101</ele>
        <time>2022-03-06T09:42:10Z</time>
      </trkpt>
      <trkpt lat="48.55905" lon="2.05595">
        <ele>101</ele>
        <time>2022-03-06T09:42:12Z</time>
      </trkpt>
      <trkpt lat="48.55909" lon="2.05594">
        <ele>101</ele>
        <time>2022-03-06T09:42:14Z</time>
      </trkpt>
      <trkpt lat="48.55912" lon="2.05594">
        <ele>101</ele>
        <time>2022-03-06T09:42:16Z</time>
      </trkpt>
      <trkpt lat="48.55915" lon="2.05594">
        <ele>100</ele>
        <time>2022-03-06T09:42:18Z</time>
      </trkpt>
      <trkpt lat="48.55917" lon="2.05593">
        <ele>100</ele>
        <time>2022-03-06T09:42:20Z</time>
      </trkpt>
      <trkpt lat="48.5592" lon="2.05593">
        <ele>99</ele>
        <time>2022-03-06T09:42:22Z</time>
      </trkpt>
      <trkpt lat="48.55923" lon="2.05593">
        <ele>99</ele>
        <time>2022-03-06T09:42:24Z</time>
      </trkpt>
      <trkpt lat="48.55926" lon="2.05593">
        <ele>99</ele>
        <time>2022-03-06T09:42:27Z</time>
      </trkpt>
      <trkpt lat="48.5593" lon="2.05592">
        <ele>99</ele>
        <time>2022-03-06T09:42:30Z</time>
      </trkpt>
      <trkpt lat="48.55934" lon="2.05593">
        <ele>99</ele>
        <time>2022-03-06T09:42:33Z</time>
      </trkpt>
      <trkpt lat="48.55938" lon="2.05592">
        <ele>98</ele>
        <time>2022-03-06T09:42:36Z</time>
      </trkpt>
      <trkpt lat="48.55941" lon="2.05591">
        <ele>98</ele>
        <time>2022-03-06T09:42:39Z</time>
      </trkpt>
      <trkpt lat="48.55945" lon="2.05591">
        <ele>98</ele>
        <time>2022-03-06T09:42:42Z</time>
      </trkpt>
      <trkpt lat="48.55948" lon="2.0559">
        <ele>98</ele>
        <time>2022-03-06T09:43:55Z</time>
      </trkpt>
      <trkpt lat="48.55951" lon="2.05588">
        <ele>98</ele>
        <time>2022-03-06T09:47:30Z</time>
      </trkpt>
      <trkpt lat="48.55953" lon="2.05587">
        <ele>98</ele>
        <time>2022-03-06T09:47:32Z</time>
      </trkpt>
      <trkpt lat="48.55957" lon="2.05587">
        <ele>98</ele>
        <time>2022-03-06T09:47:35Z</time>
      </trkpt>
      <trkpt lat="48.5596" lon="2.05587">
        <ele>97</ele>
        <time>2022-03-06T09:47:38Z</time>
      </trkpt>
      <trkpt lat="48.55964" lon="2.05587">
        <ele>97</ele>
        <time>2022-03-06T09:47:42Z</time>
      </trkpt>
      <trkpt lat="48.55967" lon="2.05588">
        <ele>97</ele>
        <time>2022-03-06T09:47:44Z</time>
      </trkpt>
      <trkpt lat="48.55969" lon="2.05589">
        <ele>97</ele>
        <time>2022-03-06T09:47:46Z</time>
      </trkpt>
      <trkpt lat="48.55972" lon="2.05589">
        <ele>97</ele>
        <time>2022-03-06T09:47:48Z</time>
      </trkpt>
      <trkpt lat="48.55975" lon="2.0559">
        <ele>97</ele>
        <time>2022-03-06T09:47:50Z</time>
      </trkpt>
      <trkpt lat="48.55978" lon="2.0559">
        <ele>97</ele>
        <time>2022-03-06T09:47:52Z</time>
      </trkpt>
      <trkpt lat="48.55981" lon="2.0559">
        <ele>98</ele>
        <time>2022-03-06T09:47:54Z</time>
      </trkpt>
      <trkpt lat="48.55985" lon="2.0559">
        <ele>98</ele>
        <time>2022-03-06T09:47:57Z</time>
      </trkpt>
      <trkpt lat="48.55988" lon="2.05589">
        <ele>98</ele>
        <time>2022-03-06T09:47:59Z</time>
      </trkpt>
      <trkpt lat="48.55991" lon="2.05589">
        <ele>98</ele>
        <time>2022-03-06T09:48:01Z</time>
      </trkpt>
      <trkpt lat="48.55994" lon="2.05589">
        <ele>98</ele>
        <time>2022-03-06T09:48:03Z</time>
      </trkpt>
      <trkpt lat="48.55997" lon="2.05588">
        <ele>98</ele>
        <time>2022-03-06T09:48:06Z</time>
      </trkpt>
      <trkpt lat="48.56" lon="2.05588">
        <ele>99</ele>
        <time>2022-03-06T09:48:09Z</time>
      </trkpt>
      <trkpt lat="48.56004" lon="2.05588">
        <ele>99</ele>
        <time>2022-03-06T09:48:12Z</time>
      </trkpt>
      <trkpt lat="48.56007" lon="2.05588">
        <ele>99</ele>
        <time>2022-03-06T09:48:14Z</time>
      </trkpt>
      <trkpt lat="48.5601" lon="2.05588">
        <ele>99</ele>
        <time>2022-03-06T09:48:16Z</time>
      </trkpt>
      <trkpt lat="48.56013" lon="2.05587">
        <ele>99</ele>
        <time>2022-03-06T09:48:18Z</time>
      </trkpt>
      <trkpt lat="48.56016" lon="2.05587">
        <ele>100</ele>
        <time>2022-03-06T09:48:21Z</time>
      </trkpt>
      <trkpt lat="48.5602" lon="2.05587">
        <ele>100</ele>
        <time>2022-03-06T09:48:24Z</time>
      </trkpt>
      <trkpt lat="48.56023" lon="2.05587">
        <ele>100</ele>
        <time>2022-03-06T09:48:26Z</time>
      </trkpt>
      <trkpt lat="48.56026" lon="2.05587">
        <ele>100</ele>
        <time>2022-03-06T09:48:28Z</time>
      </trkpt>
      <trkpt lat="48.56029" lon="2.05586">
        <ele>101</ele>
        <time>2022-03-06T09:48:30Z</time>
      </trkpt>
      <trkpt lat="48.56031" lon="2.05586">
        <ele>101</ele>
        <time>2022-03-06T09:48:32Z</time>
      </trkpt>
      <trkpt lat="48.56034" lon="2.05586">
        <ele>101</ele>
        <time>2022-03-06T09:48:34Z</time>
      </trkpt>
      <trkpt lat="48.56037" lon="2.05586">
        <ele>101</ele>
        <time>2022-03-06T09:48:36Z</time>
      </trkpt>
      <trkpt lat="48.5604" lon="2.05585">
        <ele>101</ele>
        <time>2022-03-06T09:48:38Z</time>
      </trkpt>
      <trkpt lat="48.56043" lon="2.05585">
        <ele>101</ele>
        <time>2022-03-06T09:48:40Z</time>
      </trkpt>
      <trkpt lat="48.56046" lon="2.05585">
        <ele>101</ele>
        <time>2022-03-06T09:48:42Z</time>
      </trkpt>
      <trkpt lat="48.56049" lon="2.05585">
        <ele>101</ele>
        <time>2022-03-06T09:48:44Z</time>
      </trkpt>
      <trkpt lat="48.56051" lon="2.05585">
        <ele>101</ele>
        <time>2022-03-06T09:48:46Z</time>
      </trkpt>
      <trkpt lat="48.56054" lon="2.05585">
        <ele>101</ele>
        <time>2022-03-06T09:48:48Z</time>
      </trkpt>
      <trkpt lat="48.56057" lon="2.05585">
        <ele>101</ele>
        <time>2022-03-06T09:48:50Z</time>
      </trkpt>
      <trkpt lat="48.5606" lon="2.05584">
        <ele>101</ele>
        <time>2022-03-06T09:48:52Z</time>
      </trkpt>
      <trkpt lat="48.56063" lon="2.05584">
        <ele>101</ele>
        <time>2022-03-06T09:48:54Z</time>
      </trkpt>
      <trkpt lat="48.56066" lon="2.05584">
        <ele>101</ele>
        <time>2022-03-06T09:48:56Z</time>
      </trkpt>
      <trkpt lat="48.56069" lon="2.05584">
        <ele>101</ele>
        <time>2022-03-06T09:48:58Z</time>
      </trkpt>
      <trkpt lat="48.56072" lon="2.05584">
        <ele>101</ele>
        <time>2022-03-06T09:49:00Z</time>
      </trkpt>
      <trkpt lat="48.56075" lon="2.05584">
        <ele>101</ele>
        <time>2022-03-06T09:49:02Z</time>
      </trkpt>
      <trkpt lat="48.56077" lon="2.05583">
        <ele>101</ele>
        <time>2022-03-06T09:49:04Z</time>
      </trkpt>
      <trkpt lat="48.5608" lon="2.05583">
        <ele>101</ele>
        <time>2022-03-06T09:49:06Z</time>
      </trkpt>
      <trkpt lat="48.56083" lon="2.05583">
        <ele>101</ele>
        <time>2022-03-06T09:49:08Z</time>
      </trkpt>
      <trkpt lat="48.56086" lon="2.05583">
        <ele>101</ele>
        <time>2022-03-06T09:49:10Z</time>
      </trkpt>
      <trkpt lat="48.56089" lon="2.05583">
        <ele>100</ele>
        <time>2022-03-06T09:49:12Z</time>
      </trkpt>
      <trkpt lat="48.56092" lon="2.05583">
        <ele>100</ele>
        <time>2022-03-06T09:49:14Z</time>
      </trkpt>
      <trkpt lat="48.56095" lon="2.05583">
        <ele>100</ele>
        <time>2022-03-06T09:49:16Z</time>
      </trkpt>
      <trkpt lat="48.56098" lon="2.05582">
        <ele>99</ele>
        <time>2022-03-06T09:49:18Z</time>
      </trkpt>
      <trkpt lat="48.56102" lon="2.05582">
        <ele>99</ele>
        <time>2022-03-06T09:49:20Z</time>
      </trkpt>
      <trkpt lat="48.56105" lon="2.05582">
        <ele>99</ele>
        <time>2022-03-06T09:49:22Z</time>
      </trkpt>
      <trkpt lat="48.56108" lon="2.05582">
        <ele>99</ele>
        <time>2022-03-06T09:49:24Z</time>
      </trkpt>
      <trkpt lat="48.56111" lon="2.05582">
        <ele>98</ele>
        <time>2022-03-06T09:49:26Z</time>
      </trkpt>
      <trkpt lat="48.56114" lon="2.05582">
        <ele>98</ele>
        <time>2022-03-06T09:49:28Z</time>
      </trkpt>
      <trkpt lat="48.56117" lon="2.05582">
        <ele>98</ele>
        <time>2022-03-06T09:49:30Z</time>
      </trkpt>
      <trkpt lat="48.5612" lon="2.05582">
        <ele>98</ele>
        <time>2022-03-06T09:49:32Z</time>
      </trkpt>
      <trkpt lat="48.56123" lon="2.05582">
        <ele>98</ele>
        <time>2022-03-06T09:49:34Z</time>
      </trkpt>
      <trkpt lat="48.56126" lon="2.05583">
        <ele>98</ele>
        <time>2022-03-06T09:49:36Z</time>
      </trkpt>
      <trkpt lat="48.56129" lon="2.05583">
        <ele>98</ele>
        <time>2022-03-06T09:49:38Z</time>
      </trkpt>
      <trkpt lat="48.56132" lon="2.05583">
        <ele>97</ele>
        <time>2022-03-06T09:49:40Z</time>
      </trkpt>
      <trkpt lat="48.56135" lon="2.05583">
        <ele>97</ele>
        <time>2022-03-06T09:49:42Z</time>
      </trkpt>
      <trkpt lat="48.56138" lon="2.05583">
        <ele>97</ele>
        <time>2022-03-06T09:49:44Z</time>
      </trkpt>
      <trkpt lat="48.56141" lon="2.05583">
        <ele>97</ele>
        <time>2022-03-06T09:49:46Z</time>
      </trkpt>
      <trkpt lat="48.56145" lon="2.05582">
        <ele>97</ele>
        <time>2022-03-06T09:49:48Z</time>
      </trkpt>
      <trkpt lat="48.56148" lon="2.05582">
        <ele>96</ele>
        <time>2022-03-06T09:49:50Z</time>
      </trkpt>
      <trkpt lat="48.56151" lon="2.05582">
        <ele>96</ele>
        <time>2022-03-06T09:49:52Z</time>
      </trkpt>
      <trkpt lat="48.56154" lon="2.05582">
        <ele>96</ele>
        <time>2022-03-06T09:49:54Z</time>
      </trkpt>
      <trkpt lat="48.56157" lon="2.05582">
        <ele>96</ele>
        <time>2022-03-06T09:49:56Z</time>
      </trkpt>
      <trkpt lat="48.56161" lon="2.05581">
        <ele>96</ele>
        <time>2022-03-06T09:49:58Z</time>
      </trkpt>
      <trkpt lat="48.56164" lon="2.05581">
        <ele>95</ele>
        <time>2022-03-06T09:50:00Z</time>
      </trkpt>
      <trkpt lat="48.56167" lon="2.05581">
        <ele>95</ele>
        <time>2022-03-06T09:50:02Z</time>
      </trkpt>
      <trkpt lat="48.56171" lon="2.05581">
        <ele>95</ele>
        <time>2022-03-06T09:50:04Z</time>
      </trkpt>
      <trkpt lat="48.56174" lon="2.05581">
        <ele>95</ele>
        <time>2022-03-06T09:50:06Z</time>
      </trkpt>
      <trkpt lat="48.56178" lon="2.05581">
        <ele>95</ele>
        <time>2022-03-06T09:50:08Z</time>
      </trkpt>
      <trkpt lat="48.56181" lon="2.05581">
        <ele>94</ele>
        <time>2022-03-06T09:50:10Z</time>
      </trkpt>
      <trkpt lat="48.56184" lon="2.0558">
        <ele>94</ele>
        <time>2022-03-06T09:50:12Z</time>
      </trkpt>
      <trkpt lat="48.56187" lon="2.0558">
        <ele>94</ele>
        <time>2022-03-06T09:50:14Z</time>
      </trkpt>
      <trkpt lat="48.5619" lon="2.05581">
        <ele>94</ele>
        <time>2022-03-06T09:50:16Z</time>
      </trkpt>
      <trkpt lat="48.56193" lon="2.05581">
        <ele>94</ele>
        <time>2022-03-06T09:50:18Z</time>
      </trkpt>
      <trkpt lat="48.56196" lon="2.05581">
        <ele>93</ele>
        <time>2022-03-06T09:50:20Z</time>
      </trkpt>
      <trkpt lat="48.56199" lon="2.05581">
        <ele>93</ele>
        <time>2022-03-06T09:50:22Z</time>
      </trkpt>
      <trkpt lat="48.56203" lon="2.05581">
        <ele>93</ele>
        <time>2022-03-06T09:50:24Z</time>
      </trkpt>
      <trkpt lat="48.56206" lon="2.05581">
        <ele>93</ele>
        <time>2022-03-06T09:50:26Z</time>
      </trkpt>
      <trkpt lat="48.56209" lon="2.05581">
        <ele>93</ele>
        <time>2022-03-06T09:50:28Z</time>
      </trkpt>
      <trkpt lat="48.56212" lon="2.05582">
        <ele>92</ele>
        <time>2022-03-06T09:50:30Z</time>
      </trkpt>
      <trkpt lat="48.56215" lon="2.05581">
        <ele>92</ele>
        <time>2022-03-06T09:50:32Z</time>
      </trkpt>
      <trkpt lat="48.56218" lon="2.05581">
        <ele>92</ele>
        <time>2022-03-06T09:50:34Z</time>
      </trkpt>
      <trkpt lat="48.56221" lon="2.05582">
        <ele>92</ele>
        <time>2022-03-06T09:50:36Z</time>
      </trkpt>
      <trkpt lat="48.56224" lon="2.05581">
        <ele>92</ele>
        <time>2022-03-06T09:50:38Z</time>
      </trkpt>
      <trkpt lat="48.56227" lon="2.05581">
        <ele>92</ele>
        <time>2022-03-06T09:50:40Z</time>
      </trkpt>
      <trkpt lat="48.5623" lon="2.05581">
        <ele>92</ele>
        <time>2022-03-06T09:50:42Z</time>
      </trkpt>
      <trkpt lat="48.56233" lon="2.05579">
        <ele>92</ele>
        <time>2022-03-06T09:50:44Z</time>
      </trkpt>
      <trkpt lat="48.56236" lon="2.05579">
        <ele>91</ele>
        <time>2022-03-06T09:50:46Z</time>
      </trkpt>
      <trkpt lat="48.56239" lon="2.05579">
        <ele>91</ele>
        <time>2022-03-06T09:50:48Z</time>
      </trkpt>
      <trkpt lat="48.56242" lon="2.05578">
        <ele>91</ele>
        <time>2022-03-06T09:50:50Z</time>
      </trkpt>
      <trkpt lat="48.56244" lon="2.05579">
        <ele>91</ele>
        <time>2022-03-06T09:50:52Z</time>
      </trkpt>
      <trkpt lat="48.56247" lon="2.0558">
        <ele>91</ele>
        <time>2022-03-06T09:50:54Z</time>
      </trkpt>
      <trkpt lat="48.5625" lon="2.05581">
        <ele>91</ele>
        <time>2022-03-06T09:50:56Z</time>
      </trkpt>
      <trkpt lat="48.56252" lon="2.05583">
        <ele>91</ele>
        <time>2022-03-06T09:50:58Z</time>
      </trkpt>
      <trkpt lat="48.56255" lon="2.05588">
        <ele>91</ele>
        <time>2022-03-06T09:51:01Z</time>
      </trkpt>
      <trkpt lat="48.56256" lon="2.05593">
        <ele>91</ele>
        <time>2022-03-06T09:51:04Z</time>
      </trkpt>
      <trkpt lat="48.56258" lon="2.05598">
        <ele>91</ele>
        <time>2022-03-06T09:51:07Z</time>
      </trkpt>
      <trkpt lat="48.5626" lon="2.05602">
        <ele>91</ele>
        <time>2022-03-06T09:51:09Z</time>
      </trkpt>
      <trkpt lat="48.56262" lon="2.05607">
        <ele>91</ele>
        <time>2022-03-06T09:51:11Z</time>
      </trkpt>
      <trkpt lat="48.56263" lon="2.05612">
        <ele>91</ele>
        <time>2022-03-06T09:51:14Z</time>
      </trkpt>
      <trkpt lat="48.56264" lon="2.05617">
        <ele>91</ele>
        <time>2022-03-06T09:51:16Z</time>
      </trkpt>
      <trkpt lat="48.56265" lon="2.05622">
        <ele>91</ele>
        <time>2022-03-06T09:51:18Z</time>
      </trkpt>
      <trkpt lat="48.56266" lon="2.05627">
        <ele>91</ele>
        <time>2022-03-06T09:51:21Z</time>
      </trkpt>
      <trkpt lat="48.56267" lon="2.05633">
        <ele>91</ele>
        <time>2022-03-06T09:51:23Z</time>
      </trkpt>
      <trkpt lat="48.56268" lon="2.05638">
        <ele>91</ele>
        <time>2022-03-06T09:51:25Z</time>
      </trkpt>
      <trkpt lat="48.56269" lon="2.05643">
        <ele>91</ele>
        <time>2022-03-06T09:51:27Z</time>
      </trkpt>
      <trkpt lat="48.56269" lon="2.05648">
        <ele>91</ele>
        <time>2022-03-06T09:51:30Z</time>
      </trkpt>
      <trkpt lat="48.5627" lon="2.05653">
        <ele>91</ele>
        <time>2022-03-06T09:51:32Z</time>
      </trkpt>
      <trkpt lat="48.56271" lon="2.05658">
        <ele>91</ele>
        <time>2022-03-06T09:51:34Z</time>
      </trkpt>
      <trkpt lat="48.56272" lon="2.05662">
        <ele>91</ele>
        <time>2022-03-06T09:51:36Z</time>
      </trkpt>
      <trkpt lat="48.56272" lon="2.05667">
        <ele>91</ele>
        <time>2022-03-06T09:51:38Z</time>
      </trkpt>
      <trkpt lat="48.56273" lon="2.05671">
        <ele>91</ele>
        <time>2022-03-06T09:51:41Z</time>
      </trkpt>
      <trkpt lat="48.56274" lon="2.05675">
        <ele>91</ele>
        <time>2022-03-06T09:51:43Z</time>
      </trkpt>
      <trkpt lat="48.56275" lon="2.0568">
        <ele>91</ele>
        <time>2022-03-06T09:51:45Z</time>
      </trkpt>
      <trkpt lat="48.56275" lon="2.05685">
        <ele>91</ele>
        <time>2022-03-06T09:51:47Z</time>
      </trkpt>
      <trkpt lat="48.56275" lon="2.05689">
        <ele>91</ele>
        <time>2022-03-06T09:51:49Z</time>
      </trkpt>
      <trkpt lat="48.56276" lon="2.05694">
        <ele>91</ele>
        <time>2022-03-06T09:51:51Z</time>
      </trkpt>
      <trkpt lat="48.56276" lon="2.05698">
        <ele>91</ele>
        <time>2022-03-06T09:51:53Z</time>
      </trkpt>
      <trkpt lat="48.56278" lon="2.05704">
        <ele>91</ele>
        <time>2022-03-06T09:51:56Z</time>
      </trkpt>
      <trkpt lat="48.56278" lon="2.05709">
        <ele>91</ele>
        <time>2022-03-06T09:51:58Z</time>
      </trkpt>
      <trkpt lat="48.56279" lon="2.05713">
        <ele>91</ele>
        <time>2022-03-06T09:52:00Z</time>
      </trkpt>
      <trkpt lat="48.56281" lon="2.05717">
        <ele>91</ele>
        <time>2022-03-06T09:52:03Z</time>
      </trkpt>
      <trkpt lat="48.56282" lon="2.05722">
        <ele>91</ele>
        <time>2022-03-06T09:52:06Z</time>
      </trkpt>
      <trkpt lat="48.56283" lon="2.05727">
        <ele>91</ele>
        <time>2022-03-06T09:52:08Z</time>
      </trkpt>
      <trkpt lat="48.56283" lon="2.05731">
        <ele>91</ele>
        <time>2022-03-06T09:52:10Z</time>
      </trkpt>
      <trkpt lat="48.56284" lon="2.05736">
        <ele>91</ele>
        <time>2022-03-06T09:52:12Z</time>
      </trkpt>
      <trkpt lat="48.56285" lon="2.05741">
        <ele>91</ele>
        <time>2022-03-06T09:52:15Z</time>
      </trkpt>
      <trkpt lat="48.56286" lon="2.05746">
        <ele>91</ele>
        <time>2022-03-06T09:52:17Z</time>
      </trkpt>
      <trkpt lat="48.56287" lon="2.0575">
        <ele>91</ele>
        <time>2022-03-06T09:52:19Z</time>
      </trkpt>
      <trkpt lat="48.56287" lon="2.05755">
        <ele>91</ele>
        <time>2022-03-06T09:52:21Z</time>
      </trkpt>
      <trkpt lat="48.56287" lon="2.0576">
        <ele>91</ele>
        <time>2022-03-06T09:52:23Z</time>
      </trkpt>
      <trkpt lat="48.56288" lon="2.05764">
        <ele>91</ele>
        <time>2022-03-06T09:52:25Z</time>
      </trkpt>
      <trkpt lat="48.56288" lon="2.05769">
        <ele>91</ele>
        <time>2022-03-06T09:52:28Z</time>
      </trkpt>
      <trkpt lat="48.56289" lon="2.05774">
        <ele>91</ele>
        <time>2022-03-06T09:52:30Z</time>
      </trkpt>
      <trkpt lat="48.56289" lon="2.05779">
        <ele>91</ele>
        <time>2022-03-06T09:52:33Z</time>
      </trkpt>
      <trkpt lat="48.56289" lon="2.05785">
        <ele>91</ele>
        <time>2022-03-06T09:52:36Z</time>
      </trkpt>
      <trkpt lat="48.56289" lon="2.05789">
        <ele>91</ele>
        <time>2022-03-06T09:52:38Z</time>
      </trkpt>
      <trkpt lat="48.56289" lon="2.05794">
        <ele>91</ele>
        <time>2022-03-06T09:52:40Z</time>
      </trkpt>
      <trkpt lat="48.56288" lon="2.05799">
        <ele>92</ele>
        <time>2022-03-06T09:52:42Z</time>
      </trkpt>
      <trkpt lat="48.56287" lon="2.05806">
        <ele>92</ele>
        <time>2022-03-06T09:52:45Z</time>
      </trkpt>
      <trkpt lat="48.56286" lon="2.05811">
        <ele>92</ele>
        <time>2022-03-06T09:52:47Z</time>
      </trkpt>
      <trkpt lat="48.56285" lon="2.05817">
        <ele>92</ele>
        <time>2022-03-06T09:52:51Z</time>
      </trkpt>
      <trkpt lat="48.56284" lon="2.05823">
        <ele>92</ele>
        <time>2022-03-06T09:52:55Z</time>
      </trkpt>
      <trkpt lat="48.56283" lon="2.05828">
        <ele>92</ele>
        <time>2022-03-06T09:52:57Z</time>
      </trkpt>
      <trkpt lat="48.56281" lon="2.05833">
        <ele>92</ele>
        <time>2022-03-06T09:52:59Z</time>
      </trkpt>
      <trkpt lat="48.5628" lon="2.05837">
        <ele>93</ele>
        <time>2022-03-06T09:53:02Z</time>
      </trkpt>
      <trkpt lat="48.56278" lon="2.05841">
        <ele>93</ele>
        <time>2022-03-06T09:53:04Z</time>
      </trkpt>
      <trkpt lat="48.56277" lon="2.05847">
        <ele>93</ele>
        <time>2022-03-06T09:53:07Z</time>
      </trkpt>
      <trkpt lat="48.56276" lon="2.05851">
        <ele>93</ele>
        <time>2022-03-06T09:53:10Z</time>
      </trkpt>
      <trkpt lat="48.56274" lon="2.05856">
        <ele>93</ele>
        <time>2022-03-06T09:53:12Z</time>
      </trkpt>
      <trkpt lat="48.56273" lon="2.05862">
        <ele>93</ele>
        <time>2022-03-06T09:53:15Z</time>
      </trkpt>
      <trkpt lat="48.56271" lon="2.05867">
        <ele>94</ele>
        <time>2022-03-06T09:53:18Z</time>
      </trkpt>
      <trkpt lat="48.5627" lon="2.05872">
        <ele>94</ele>
        <time>2022-03-06T09:53:20Z</time>
      </trkpt>
      <trkpt lat="48.5627" lon="2.05877">
        <ele>94</ele>
        <time>2022-03-06T09:53:23Z</time>
      </trkpt>
      <trkpt lat="48.56269" lon="2.05882">
        <ele>94</ele>
        <time>2022-03-06T09:53:25Z</time>
      </trkpt>
      <trkpt lat="48.56269" lon="2.05887">
        <ele>94</ele>
        <time>2022-03-06T09:53:27Z</time>
      </trkpt>
      <trkpt lat="48.56268" lon="2.05891">
        <ele>94</ele>
        <time>2022-03-06T09:53:29Z</time>
      </trkpt>
      <trkpt lat="48.56268" lon="2.05896">
        <ele>94</ele>
        <time>2022-03-06T09:53:31Z</time>
      </trkpt>
      <trkpt lat="48.56268" lon="2.05902">
        <ele>94</ele>
        <time>2022-03-06T09:53:34Z</time>
      </trkpt>
      <trkpt lat="48.56268" lon="2.05906">
        <ele>94</ele>
        <time>2022-03-06T09:53:36Z</time>
      </trkpt>
      <trkpt lat="48.56268" lon="2.05912">
        <ele>94</ele>
        <time>2022-03-06T09:53:39Z</time>
      </trkpt>
      <trkpt lat="48.56268" lon="2.05917">
        <ele>94</ele>
        <time>2022-03-06T09:53:41Z</time>
      </trkpt>
      <trkpt lat="48.56268" lon="2.05922">
        <ele>94</ele>
        <time>2022-03-06T09:53:44Z</time>
      </trkpt>
      <trkpt lat="48.56268" lon="2.05927">
        <ele>94</ele>
        <time>2022-03-06T09:53:46Z</time>
      </trkpt>
      <trkpt lat="48.56269" lon="2.05932">
        <ele>93</ele>
        <time>2022-03-06T09:53:48Z</time>
      </trkpt>
      <trkpt lat="48.56269" lon="2.05936">
        <ele>93</ele>
        <time>2022-03-06T09:53:50Z</time>
      </trkpt>
      <trkpt lat="48.56269" lon="2.0594">
        <ele>93</ele>
        <time>2022-03-06T09:53:52Z</time>
      </trkpt>
      <trkpt lat="48.56269" lon="2.05945">
        <ele>93</ele>
        <time>2022-03-06T09:53:54Z</time>
      </trkpt>
      <trkpt lat="48.56269" lon="2.0595">
        <ele>93</ele>
        <time>2022-03-06T09:53:56Z</time>
      </trkpt>
      <trkpt lat="48.56269" lon="2.05954">
        <ele>93</ele>
        <time>2022-03-06T09:53:58Z</time>
      </trkpt>
      <trkpt lat="48.56269" lon="2.05958">
        <ele>93</ele>
        <time>2022-03-06T09:54:00Z</time>
      </trkpt>
      <trkpt lat="48.56269" lon="2.05964">
        <ele>93</ele>
        <time>2022-03-06T09:54:03Z</time>
      </trkpt>
      <trkpt lat="48.56269" lon="2.05969">
        <ele>93</ele>
        <time>2022-03-06T09:54:06Z</time>
      </trkpt>
      <trkpt lat="48.56269" lon="2.05974">
        <ele>92</ele>
        <time>2022-03-06T09:54:08Z</time>
      </trkpt>
      <trkpt lat="48.56269" lon="2.05979">
        <ele>92</ele>
        <time>2022-03-06T09:54:10Z</time>
      </trkpt>
      <trkpt lat="48.56268" lon="2.05984">
        <ele>92</ele>
        <time>2022-03-06T09:54:12Z</time>
      </trkpt>
      <trkpt lat="48.56268" lon="2.05989">
        <ele>92</ele>
        <time>2022-03-06T09:54:15Z</time>
      </trkpt>
      <trkpt lat="48.56268" lon="2.05994">
        <ele>92</ele>
        <time>2022-03-06T09:54:18Z</time>
      </trkpt>
      <trkpt lat="48.56268" lon="2.05999">
        <ele>92</ele>
        <time>2022-03-06T09:54:20Z</time>
      </trkpt>
      <trkpt lat="48.56267" lon="2.06003">
        <ele>92</ele>
        <time>2022-03-06T09:54:22Z</time>
      </trkpt>
      <trkpt lat="48.56267" lon="2.06008">
        <ele>92</ele>
        <time>2022-03-06T09:54:24Z</time>
      </trkpt>
      <trkpt lat="48.56267" lon="2.06013">
        <ele>92</ele>
        <time>2022-03-06T09:54:27Z</time>
      </trkpt>
      <trkpt lat="48.56267" lon="2.06018">
        <ele>92</ele>
        <time>2022-03-06T09:54:29Z</time>
      </trkpt>
      <trkpt lat="48.56267" lon="2.06022">
        <ele>92</ele>
        <time>2022-03-06T09:54:31Z</time>
      </trkpt>
      <trkpt lat="48.56267" lon="2.06027">
        <ele>92</ele>
        <time>2022-03-06T09:54:33Z</time>
      </trkpt>
      <trkpt lat="48.56267" lon="2.06031">
        <ele>92</ele>
        <time>2022-03-06T09:54:35Z</time>
      </trkpt>
      <trkpt lat="48.56267" lon="2.06036">
        <ele>92</ele>
        <time>2022-03-06T09:54:37Z</time>
      </trkpt>
      <trkpt lat="48.56267" lon="2.0604">
        <ele>92</ele>
        <time>2022-03-06T09:54:39Z</time>
      </trkpt>
      <trkpt lat="48.56267" lon="2.06044">
        <ele>92</ele>
        <time>2022-03-06T09:54:41Z</time>
      </trkpt>
      <trkpt lat="48.56267" lon="2.06048">
        <ele>92</ele>
        <time>2022-03-06T09:54:43Z</time>
      </trkpt>
      <trkpt lat="48.56268" lon="2.06052">
        <ele>92</ele>
        <time>2022-03-06T09:54:45Z</time>
      </trkpt>
      <trkpt lat="48.56268" lon="2.06057">
        <ele>92</ele>
        <time>2022-03-06T09:54:47Z</time>
      </trkpt>
      <trkpt lat="48.56269" lon="2.06061">
        <ele>92</ele>
        <time>2022-03-06T09:54:49Z</time>
      </trkpt>
      <trkpt lat="48.5627" lon="2.06065">
        <ele>92</ele>
        <time>2022-03-06T09:54:51Z</time>
      </trkpt>
      <trkpt lat="48.5627" lon="2.06069">
        <ele>92</ele>
        <time>2022-03-06T09:54:53Z</time>
      </trkpt>
      <trkpt lat="48.56271" lon="2.06074">
        <ele>92</ele>
        <time>2022-03-06T09:54:55Z</time>
      </trkpt>
      <trkpt lat="48.56272" lon="2.06078">
        <ele>92</ele>
        <time>2022-03-06T09:54:57Z</time>
      </trkpt>
      <trkpt lat="48.56273" lon="2.06082">
        <ele>92</ele>
        <time>2022-03-06T09:54:59Z</time>
      </trkpt>
      <trkpt lat="48.56274" lon="2.06086">
        <ele>92</ele>
        <time>2022-03-06T09:55:01Z</time>
      </trkpt>
      <trkpt lat="48.56275" lon="2.0609">
        <ele>92</ele>
        <time>2022-03-06T09:55:03Z</time>
      </trkpt>
      <trkpt lat="48.56276" lon="2.06095">
        <ele>92</ele>
        <time>2022-03-06T09:55:05Z</time>
      </trkpt>
      <trkpt lat="48.56278" lon="2.06099">
        <ele>92</ele>
        <time>2022-03-06T09:55:08Z</time>
      </trkpt>
      <trkpt lat="48.56279" lon="2.06104">
        <ele>92</ele>
        <time>2022-03-06T09:55:10Z</time>
      </trkpt>
      <trkpt lat="48.5628" lon="2.06108">
        <ele>92</ele>
        <time>2022-03-06T09:55:12Z</time>
      </trkpt>
      <trkpt lat="48.56282" lon="2.06112">
        <ele>92</ele>
        <time>2022-03-06T09:55:14Z</time>
      </trkpt>
      <trkpt lat="48.56282" lon="2.06117">
        <ele>92</ele>
        <time>2022-03-06T09:55:16Z</time>
      </trkpt>
      <trkpt lat="48.56283" lon="2.06122">
        <ele>91</ele>
        <time>2022-03-06T09:55:19Z</time>
      </trkpt>
      <trkpt lat="48.56284" lon="2.06126">
        <ele>91</ele>
        <time>2022-03-06T09:55:21Z</time>
      </trkpt>
      <trkpt lat="48.56285" lon="2.06131">
        <ele>91</ele>
        <time>2022-03-06T09:55:23Z</time>
      </trkpt>
      <trkpt lat="48.56286" lon="2.06135">
        <ele>91</ele>
        <time>2022-03-06T09:55:25Z</time>
      </trkpt>
      <trkpt lat="48.56286" lon="2.0614">
        <ele>91</ele>
        <time>2022-03-06T09:55:28Z</time>
      </trkpt>
      <trkpt lat="48.56286" lon="2.06144">
        <ele>91</ele>
        <time>2022-03-06T09:55:30Z</time>
      </trkpt>
      <trkpt lat="48.56284" lon="2.06147">
        <ele>91</ele>
        <time>2022-03-06T09:55:32Z</time>
      </trkpt>
      <trkpt lat="48.56281" lon="2.06149">
        <ele>91</ele>
        <time>2022-03-06T09:55:35Z</time>
      </trkpt>
      <trkpt lat="48.56277" lon="2.06149">
        <ele>92</ele>
        <time>2022-03-06T09:55:39Z</time>
      </trkpt>
      <trkpt lat="48.56273" lon="2.06149">
        <ele>93</ele>
        <time>2022-03-06T09:55:43Z</time>
      </trkpt>
      <trkpt lat="48.5627" lon="2.06149">
        <ele>93</ele>
        <time>2022-03-06T09:55:46Z</time>
      </trkpt>
      <trkpt lat="48.56266" lon="2.0615">
        <ele>94</ele>
        <time>2022-03-06T09:55:49Z</time>
      </trkpt>
      <trkpt lat="48.56263" lon="2.06151">
        <ele>94</ele>
        <time>2022-03-06T09:55:51Z</time>
      </trkpt>
      <trkpt lat="48.5626" lon="2.06151">
        <ele>94</ele>
        <time>2022-03-06T09:55:53Z</time>
      </trkpt>
      <trkpt lat="48.56257" lon="2.06151">
        <ele>95</ele>
        <time>2022-03-06T09:55:56Z</time>
      </trkpt>
      <trkpt lat="48.56254" lon="2.06152">
        <ele>95</ele>
        <time>2022-03-06T09:55:58Z</time>
      </trkpt>
      <trkpt lat="48.56251" lon="2.06154">
        <ele>95</ele>
        <time>2022-03-06T09:56:01Z</time>
      </trkpt>
      <trkpt lat="48.56248" lon="2.06155">
        <ele>96</ele>
        <time>2022-03-06T09:56:03Z</time>
      </trkpt>
      <trkpt lat="48.56244" lon="2.06156">
        <ele>96</ele>
        <time>2022-03-06T09:56:07Z</time>
      </trkpt>
      <trkpt lat="48.56241" lon="2.06158">
        <ele>97</ele>
        <time>2022-03-06T09:56:10Z</time>
      </trkpt>
      <trkpt lat="48.56238" lon="2.0616">
        <ele>97</ele>
        <time>2022-03-06T09:56:14Z</time>
      </trkpt>
      <trkpt lat="48.56236" lon="2.06163">
        <ele>98</ele>
        <time>2022-03-06T09:56:17Z</time>
      </trkpt>
      <trkpt lat="48.56233" lon="2.06165">
        <ele>98</ele>
        <time>2022-03-06T09:56:19Z</time>
      </trkpt>
      <trkpt lat="48.5623" lon="2.06166">
        <ele>98</ele>
        <time>2022-03-06T09:56:22Z</time>
      </trkpt>
      <trkpt lat="48.56227" lon="2.06168">
        <ele>99</ele>
        <time>2022-03-06T09:56:27Z</time>
      </trkpt>
      <trkpt lat="48.56224" lon="2.06169">
        <ele>100</ele>
        <time>2022-03-06T09:56:31Z</time>
      </trkpt>
      <trkpt lat="48.56221" lon="2.0617">
        <ele>100</ele>
        <time>2022-03-06T09:56:34Z</time>
      </trkpt>
      <trkpt lat="48.56217" lon="2.06171">
        <ele>101</ele>
        <time>2022-03-06T09:56:40Z</time>
      </trkpt>
      <trkpt lat="48.56214" lon="2.06173">
        <ele>102</ele>
        <time>2022-03-06T09:56:44Z</time>
      </trkpt>
      <trkpt lat="48.56211" lon="2.06174">
        <ele>102</ele>
        <time>2022-03-06T09:56:46Z</time>
      </trkpt>
      <trkpt lat="48.56208" lon="2.06176">
        <ele>103</ele>
        <time>2022-03-06T09:56:51Z</time>
      </trkpt>
      <trkpt lat="48.56206" lon="2.06177">
        <ele>103</ele>
        <time>2022-03-06T09:56:53Z</time>
      </trkpt>
      <trkpt lat="48.56203" lon="2.06179">
        <ele>104</ele>
        <time>2022-03-06T09:56:59Z</time>
      </trkpt>
      <trkpt lat="48.562" lon="2.06181">
        <ele>105</ele>
        <time>2022-03-06T09:57:02Z</time>
      </trkpt>
      <trkpt lat="48.56197" lon="2.06184">
        <ele>105</ele>
        <time>2022-03-06T09:57:04Z</time>
      </trkpt>
      <trkpt lat="48.56194" lon="2.06185">
        <ele>106</ele>
        <time>2022-03-06T09:57:07Z</time>
      </trkpt>
      <trkpt lat="48.56192" lon="2.06187">
        <ele>107</ele>
        <time>2022-03-06T09:57:10Z</time>
      </trkpt>
      <trkpt lat="48.5619" lon="2.06189">
        <ele>107</ele>
        <time>2022-03-06T09:57:12Z</time>
      </trkpt>
      <trkpt lat="48.56186" lon="2.06192">
        <ele>108</ele>
        <time>2022-03-06T09:57:19Z</time>
      </trkpt>
      <trkpt lat="48.56183" lon="2.06194">
        <ele>108</ele>
        <time>2022-03-06T09:57:22Z</time>
      </trkpt>
      <trkpt lat="48.5618" lon="2.06196">
        <ele>109</ele>
        <time>2022-03-06T09:57:27Z</time>
      </trkpt>
      <trkpt lat="48.56177" lon="2.06199">
        <ele>110</ele>
        <time>2022-03-06T09:57:30Z</time>
      </trkpt>
      <trkpt lat="48.56174" lon="2.06201">
        <ele>111</ele>
        <time>2022-03-06T09:57:34Z</time>
      </trkpt>
      <trkpt lat="48.5617" lon="2.06203">
        <ele>111</ele>
        <time>2022-03-06T09:57:39Z</time>
      </trkpt>
      <trkpt lat="48.56167" lon="2.06205">
        <ele>112</ele>
        <time>2022-03-06T09:57:42Z</time>
      </trkpt>
      <trkpt lat="48.56164" lon="2.06207">
        <ele>113</ele>
        <time>2022-03-06T09:57:46Z</time>
      </trkpt>
      <trkpt lat="48.56161" lon="2.06209">
        <ele>113</ele>
        <time>2022-03-06T09:57:49Z</time>
      </trkpt>
      <trkpt lat="48.56158" lon="2.06211">
        <ele>114</ele>
        <time>2022-03-06T09:57:53Z</time>
      </trkpt>
      <trkpt lat="48.56155" lon="2.06213">
        <ele>115</ele>
        <time>2022-03-06T09:57:58Z</time>
      </trkpt>
      <trkpt lat="48.56151" lon="2.06214">
        <ele>115</ele>
        <time>2022-03-06T09:58:02Z</time>
      </trkpt>
      <trkpt lat="48.56149" lon="2.06216">
        <ele>116</ele>
        <time>2022-03-06T09:58:06Z</time>
      </trkpt>
      <trkpt lat="48.56146" lon="2.06218">
        <ele>116</ele>
        <time>2022-03-06T09:58:08Z</time>
      </trkpt>
      <trkpt lat="48.56143" lon="2.0622">
        <ele>117</ele>
        <time>2022-03-06T09:58:10Z</time>
      </trkpt>
      <trkpt lat="48.56141" lon="2.06222">
        <ele>117</ele>
        <time>2022-03-06T09:58:12Z</time>
      </trkpt>
      <trkpt lat="48.56138" lon="2.06223">
        <ele>117</ele>
        <time>2022-03-06T09:58:14Z</time>
      </trkpt>
      <trkpt lat="48.56135" lon="2.06225">
        <ele>118</ele>
        <time>2022-03-06T09:58:17Z</time>
      </trkpt>
      <trkpt lat="48.56131" lon="2.06226">
        <ele>118</ele>
        <time>2022-03-06T09:58:20Z</time>
      </trkpt>
      <trkpt lat="48.56128" lon="2.06227">
        <ele>118</ele>
        <time>2022-03-06T09:58:23Z</time>
      </trkpt>
      <trkpt lat="48.56125" lon="2.06228">
        <ele>119</ele>
        <time>2022-03-06T09:58:26Z</time>
      </trkpt>
      <trkpt lat="48.56122" lon="2.06228">
        <ele>119</ele>
        <time>2022-03-06T09:58:28Z</time>
      </trkpt>
      <trkpt lat="48.56118" lon="2.06229">
        <ele>119</ele>
        <time>2022-03-06T09:58:31Z</time>
      </trkpt>
      <trkpt lat="48.56115" lon="2.06231">
        <ele>119</ele>
        <time>2022-03-06T09:58:34Z</time>
      </trkpt>
      <trkpt lat="48.56112" lon="2.06232">
        <ele>120</ele>
        <time>2022-03-06T09:58:38Z</time>
      </trkpt>
      <trkpt lat="48.56109" lon="2.06233">
        <ele>120</ele>
        <time>2022-03-06T09:58:40Z</time>
      </trkpt>
      <trkpt lat="48.56106" lon="2.06235">
        <ele>121</ele>
        <time>2022-03-06T09:58:43Z</time>
      </trkpt>
      <trkpt lat="48.56104" lon="2.06238">
        <ele>121</ele>
        <time>2022-03-06T09:58:45Z</time>
      </trkpt>
      <trkpt lat="48.56101" lon="2.06241">
        <ele>121</ele>
        <time>2022-03-06T09:58:48Z</time>
      </trkpt>
      <trkpt lat="48.56098" lon="2.06244">
        <ele>121</ele>
        <time>2022-03-06T09:58:50Z</time>
      </trkpt>
      <trkpt lat="48.56096" lon="2.06248">
        <ele>122</ele>
        <time>2022-03-06T09:58:53Z</time>
      </trkpt>
      <trkpt lat="48.56093" lon="2.06251">
        <ele>122</ele>
        <time>2022-03-06T09:58:55Z</time>
      </trkpt>
      <trkpt lat="48.56091" lon="2.06255">
        <ele>122</ele>
        <time>2022-03-06T09:58:59Z</time>
      </trkpt>
      <trkpt lat="48.56088" lon="2.06259">
        <ele>123</ele>
        <time>2022-03-06T09:59:03Z</time>
      </trkpt>
      <trkpt lat="48.56086" lon="2.06263">
        <ele>123</ele>
        <time>2022-03-06T09:59:06Z</time>
      </trkpt>
      <trkpt lat="48.56084" lon="2.06266">
        <ele>124</ele>
        <time>2022-03-06T09:59:10Z</time>
      </trkpt>
      <trkpt lat="48.56081" lon="2.0627">
        <ele>124</ele>
        <time>2022-03-06T09:59:14Z</time>
      </trkpt>
      <trkpt lat="48.56079" lon="2.06274">
        <ele>125</ele>
        <time>2022-03-06T09:59:17Z</time>
      </trkpt>
      <trkpt lat="48.56077" lon="2.06278">
        <ele>125</ele>
        <time>2022-03-06T09:59:21Z</time>
      </trkpt>
      <trkpt lat="48.56076" lon="2.06282">
        <ele>126</ele>
        <time>2022-03-06T09:59:23Z</time>
      </trkpt>
      <trkpt lat="48.56075" lon="2.06286">
        <ele>126</ele>
        <time>2022-03-06T09:59:27Z</time>
      </trkpt>
      <trkpt lat="48.56076" lon="2.06288">
        <ele>126</ele>
        <time>2022-03-06T09:59:31Z</time>
      </trkpt>
      <trkpt lat="48.56078" lon="2.0629">
        <ele>126</ele>
        <time>2022-03-06T09:59:35Z</time>
      </trkpt>
      <trkpt lat="48.5608" lon="2.06293">
        <ele>126</ele>
        <time>2022-03-06T09:59:38Z</time>
      </trkpt>
      <trkpt lat="48.56081" lon="2.06298">
        <ele>126</ele>
        <time>2022-03-06T09:59:41Z</time>
      </trkpt>
      <trkpt lat="48.56082" lon="2.06304">
        <ele>126</ele>
        <time>2022-03-06T09:59:44Z</time>
      </trkpt>
      <trkpt lat="48.56081" lon="2.06309">
        <ele>126</ele>
        <time>2022-03-06T09:59:47Z</time>
      </trkpt>
      <trkpt lat="48.5608" lon="2.06314">
        <ele>126</ele>
        <time>2022-03-06T09:59:49Z</time>
      </trkpt>
      <trkpt lat="48.56079" lon="2.06318">
        <ele>127</ele>
        <time>2022-03-06T09:59:52Z</time>
      </trkpt>
      <trkpt lat="48.56077" lon="2.06322">
        <ele>128</ele>
        <time>2022-03-06T09:59:55Z</time>
      </trkpt>
      <trkpt lat="48.56076" lon="2.06326">
        <ele>129</ele>
        <time>2022-03-06T09:59:58Z</time>
      </trkpt>
      <trkpt lat="48.56074" lon="2.0633">
        <ele>130</ele>
        <time>2022-03-06T10:00:02Z</time>
      </trkpt>
      <trkpt lat="48.56073" lon="2.06335">
        <ele>132</ele>
        <time>2022-03-06T10:00:06Z</time>
      </trkpt>
      <trkpt lat="48.56073" lon="2.06339">
        <ele>132</ele>
        <time>2022-03-06T10:00:09Z</time>
      </trkpt>
      <trkpt lat="48.56072" lon="2.06344">
        <ele>134</ele>
        <time>2022-03-06T10:00:15Z</time>
      </trkpt>
      <trkpt lat="48.56071" lon="2.06348">
        <ele>134</ele>
        <time>2022-03-06T10:00:18Z</time>
      </trkpt>
      <trkpt lat="48.5607" lon="2.06353">
        <ele>135</ele>
        <time>2022-03-06T10:00:21Z</time>
      </trkpt>
      <trkpt lat="48.56069" lon="2.06358">
        <ele>135</ele>
        <time>2022-03-06T10:00:24Z</time>
      </trkpt>
      <trkpt lat="48.56068" lon="2.06363">
        <ele>136</ele>
        <time>2022-03-06T10:00:27Z</time>
      </trkpt>
      <trkpt lat="48.56066" lon="2.06367">
        <ele>136</ele>
        <time>2022-03-06T10:00:29Z</time>
      </trkpt>
      <trkpt lat="48.56065" lon="2.06371">
        <ele>137</ele>
        <time>2022-03-06T10:00:33Z</time>
      </trkpt>
      <trkpt lat="48.56062" lon="2.06373">
        <ele>138</ele>
        <time>2022-03-06T10:00:36Z</time>
      </trkpt>
      <trkpt lat="48.56059" lon="2.06376">
        <ele>138</ele>
        <time>2022-03-06T10:00:38Z</time>
      </trkpt>
      <trkpt lat="48.56057" lon="2.06379">
        <ele>139</ele>
        <time>2022-03-06T10:00:41Z</time>
      </trkpt>
      <trkpt lat="48.56056" lon="2.06383">
        <ele>140</ele>
        <time>2022-03-06T10:00:45Z</time>
      </trkpt>
      <trkpt lat="48.56054" lon="2.06387">
        <ele>140</ele>
        <time>2022-03-06T10:00:47Z</time>
      </trkpt>
      <trkpt lat="48.56053" lon="2.06391">
        <ele>141</ele>
        <time>2022-03-06T10:00:50Z</time>
      </trkpt>
      <trkpt lat="48.56051" lon="2.06395">
        <ele>141</ele>
        <time>2022-03-06T10:00:53Z</time>
      </trkpt>
      <trkpt lat="48.56049" lon="2.06399">
        <ele>142</ele>
        <time>2022-03-06T10:00:55Z</time>
      </trkpt>
      <trkpt lat="48.56047" lon="2.06402">
        <ele>142</ele>
        <time>2022-03-06T10:00:58Z</time>
      </trkpt>
      <trkpt lat="48.56045" lon="2.06405">
        <ele>142</ele>
        <time>2022-03-06T10:01:10Z</time>
      </trkpt>
      <trkpt lat="48.56042" lon="2.06408">
        <ele>143</ele>
        <time>2022-03-06T10:01:14Z</time>
      </trkpt>
      <trkpt lat="48.56039" lon="2.0641">
        <ele>143</ele>
        <time>2022-03-06T10:01:16Z</time>
      </trkpt>
      <trkpt lat="48.56035" lon="2.06412">
        <ele>143</ele>
        <time>2022-03-06T10:01:19Z</time>
      </trkpt>
      <trkpt lat="48.56032" lon="2.06414">
        <ele>144</ele>
        <time>2022-03-06T10:01:22Z</time>
      </trkpt>
      <trkpt lat="48.56029" lon="2.06416">
        <ele>144</ele>
        <time>2022-03-06T10:01:25Z</time>
      </trkpt>
      <trkpt lat="48.56027" lon="2.06417">
        <ele>145</ele>
        <time>2022-03-06T10:01:29Z</time>
      </trkpt>
      <trkpt lat="48.56024" lon="2.06419">
        <ele>145</ele>
        <time>2022-03-06T10:01:32Z</time>
      </trkpt>
      <trkpt lat="48.56021" lon="2.0642">
        <ele>146</ele>
        <time>2022-03-06T10:01:35Z</time>
      </trkpt>
      <trkpt lat="48.56018" lon="2.06421">
        <ele>146</ele>
        <time>2022-03-06T10:01:38Z</time>
      </trkpt>
      <trkpt lat="48.56015" lon="2.06422">
        <ele>147</ele>
        <time>2022-03-06T10:01:41Z</time>
      </trkpt>
      <trkpt lat="48.56012" lon="2.06423">
        <ele>147</ele>
        <time>2022-03-06T10:01:44Z</time>
      </trkpt>
      <trkpt lat="48.56009" lon="2.06424">
        <ele>148</ele>
        <time>2022-03-06T10:01:47Z</time>
      </trkpt>
      <trkpt lat="48.56007" lon="2.06426">
        <ele>148</ele>
        <time>2022-03-06T10:01:50Z</time>
      </trkpt>
      <trkpt lat="48.56004" lon="2.06429">
        <ele>148</ele>
        <time>2022-03-06T10:01:52Z</time>
      </trkpt>
      <trkpt lat="48.56002" lon="2.06432">
        <ele>148</ele>
        <time>2022-03-06T10:01:55Z</time>
      </trkpt>
      <trkpt lat="48.56" lon="2.06434">
        <ele>149</ele>
        <time>2022-03-06T10:01:58Z</time>
      </trkpt>
      <trkpt lat="48.55996" lon="2.06437">
        <ele>149</ele>
        <time>2022-03-06T10:02:01Z</time>
      </trkpt>
      <trkpt lat="48.55994" lon="2.0644">
        <ele>149</ele>
        <time>2022-03-06T10:02:04Z</time>
      </trkpt>
      <trkpt lat="48.55991" lon="2.06443">
        <ele>149</ele>
        <time>2022-03-06T10:02:07Z</time>
      </trkpt>
      <trkpt lat="48.55988" lon="2.06445">
        <ele>149</ele>
        <time>2022-03-06T10:02:10Z</time>
      </trkpt>
      <trkpt lat="48.55985" lon="2.06447">
        <ele>149</ele>
        <time>2022-03-06T10:02:13Z</time>
      </trkpt>
      <trkpt lat="48.55983" lon="2.0645">
        <ele>149</ele>
        <time>2022-03-06T10:02:14Z</time>
      </trkpt>
      <trkpt lat="48.5598" lon="2.06452">
        <ele>149</ele>
        <time>2022-03-06T10:02:17Z</time>
      </trkpt>
      <trkpt lat="48.55978" lon="2.06455">
        <ele>149</ele>
        <time>2022-03-06T10:02:19Z</time>
      </trkpt>
      <trkpt lat="48.55976" lon="2.06459">
        <ele>148</ele>
        <time>2022-03-06T10:02:22Z</time>
      </trkpt>
      <trkpt lat="48.55973" lon="2.06461">
        <ele>148</ele>
        <time>2022-03-06T10:02:24Z</time>
      </trkpt>
      <trkpt lat="48.5597" lon="2.06461">
        <ele>148</ele>
        <time>2022-03-06T10:02:27Z</time>
      </trkpt>
      <trkpt lat="48.55967" lon="2.06464">
        <ele>148</ele>
        <time>2022-03-06T10:02:29Z</time>
      </trkpt>
      <trkpt lat="48.55963" lon="2.06467">
        <ele>148</ele>
        <time>2022-03-06T10:02:33Z</time>
      </trkpt>
      <trkpt lat="48.5596" lon="2.06468">
        <ele>148</ele>
        <time>2022-03-06T10:02:35Z</time>
      </trkpt>
      <trkpt lat="48.55957" lon="2.06471">
        <ele>148</ele>
        <time>2022-03-06T10:02:37Z</time>
      </trkpt>
      <trkpt lat="48.55954" lon="2.06475">
        <ele>148</ele>
        <time>2022-03-06T10:02:39Z</time>
      </trkpt>
      <trkpt lat="48.55952" lon="2.06478">
        <ele>148</ele>
        <time>2022-03-06T10:02:42Z</time>
      </trkpt>
      <trkpt lat="48.55948" lon="2.0648">
        <ele>148</ele>
        <time>2022-03-06T10:02:47Z</time>
      </trkpt>
      <trkpt lat="48.55945" lon="2.06481">
        <ele>148</ele>
        <time>2022-03-06T10:02:50Z</time>
      </trkpt>
      <trkpt lat="48.55942" lon="2.06482">
        <ele>149</ele>
        <time>2022-03-06T10:02:54Z</time>
      </trkpt>
      <trkpt lat="48.55938" lon="2.06482">
        <ele>150</ele>
        <time>2022-03-06T10:02:57Z</time>
      </trkpt>
      <trkpt lat="48.55935" lon="2.06483">
        <ele>150</ele>
        <time>2022-03-06T10:03:00Z</time>
      </trkpt>
      <trkpt lat="48.55932" lon="2.06484">
        <ele>150</ele>
        <time>2022-03-06T10:03:02Z</time>
      </trkpt>
      <trkpt lat="48.55929" lon="2.06485">
        <ele>151</ele>
        <time>2022-03-06T10:03:04Z</time>
      </trkpt>
      <trkpt lat="48.55926" lon="2.06487">
        <ele>151</ele>
        <time>2022-03-06T10:03:08Z</time>
      </trkpt>
      <trkpt lat="48.55923" lon="2.06488">
        <ele>151</ele>
        <time>2022-03-06T10:03:11Z</time>
      </trkpt>
      <trkpt lat="48.55919" lon="2.06489">
        <ele>152</ele>
        <time>2022-03-06T10:03:14Z</time>
      </trkpt>
      <trkpt lat="48.55917" lon="2.0649">
        <ele>152</ele>
        <time>2022-03-06T10:03:17Z</time>
      </trkpt>
      <trkpt lat="48.55914" lon="2.06494">
        <ele>152</ele>
        <time>2022-03-06T10:03:20Z</time>
      </trkpt>
      <trkpt lat="48.5591" lon="2.06497">
        <ele>152</ele>
        <time>2022-03-06T10:03:23Z</time>
      </trkpt>
      <trkpt lat="48.55908" lon="2.065">
        <ele>152</ele>
        <time>2022-03-06T10:03:26Z</time>
      </trkpt>
      <trkpt lat="48.55905" lon="2.06503">
        <ele>152</ele>
        <time>2022-03-06T10:03:29Z</time>
      </trkpt>
      <trkpt lat="48.55902" lon="2.06506">
        <ele>153</ele>
        <time>2022-03-06T10:03:32Z</time>
      </trkpt>
      <trkpt lat="48.55899" lon="2.0651">
        <ele>153</ele>
        <time>2022-03-06T10:03:35Z</time>
      </trkpt>
      <trkpt lat="48.55896" lon="2.06513">
        <ele>153</ele>
        <time>2022-03-06T10:03:38Z</time>
      </trkpt>
      <trkpt lat="48.55893" lon="2.06516">
        <ele>153</ele>
        <time>2022-03-06T10:03:42Z</time>
      </trkpt>
      <trkpt lat="48.55891" lon="2.06519">
        <ele>153</ele>
        <time>2022-03-06T10:03:44Z</time>
      </trkpt>
      <trkpt lat="48.55888" lon="2.06523">
        <ele>153</ele>
        <time>2022-03-06T10:03:47Z</time>
      </trkpt>
      <trkpt lat="48.55884" lon="2.06526">
        <ele>153</ele>
        <time>2022-03-06T10:03:50Z</time>
      </trkpt>
      <trkpt lat="48.55881" lon="2.06527">
        <ele>153</ele>
        <time>2022-03-06T10:03:53Z</time>
      </trkpt>
      <trkpt lat="48.55877" lon="2.06528">
        <ele>154</ele>
        <time>2022-03-06T10:03:56Z</time>
      </trkpt>
      <trkpt lat="48.55874" lon="2.0653">
        <ele>154</ele>
        <time>2022-03-06T10:03:58Z</time>
      </trkpt>
      <trkpt lat="48.55872" lon="2.06531">
        <ele>154</ele>
        <time>2022-03-06T10:04:00Z</time>
      </trkpt>
      <trkpt lat="48.55869" lon="2.06534">
        <ele>154</ele>
        <time>2022-03-06T10:04:02Z</time>
      </trkpt>
      <trkpt lat="48.55866" lon="2.06535">
        <ele>154</ele>
        <time>2022-03-06T10:04:04Z</time>
      </trkpt>
      <trkpt lat="48.55863" lon="2.06537">
        <ele>154</ele>
        <time>2022-03-06T10:04:06Z</time>
      </trkpt>
      <trkpt lat="48.5586" lon="2.06539">
        <ele>154</ele>
        <time>2022-03-06T10:04:09Z</time>
      </trkpt>
      <trkpt lat="48.55858" lon="2.06541">
        <ele>154</ele>
        <time>2022-03-06T10:04:12Z</time>
      </trkpt>
      <trkpt lat="48.55855" lon="2.06542">
        <ele>154</ele>
        <time>2022-03-06T10:04:15Z</time>
      </trkpt>
      <trkpt lat="48.55852" lon="2.06543">
        <ele>154</ele>
        <time>2022-03-06T10:04:17Z</time>
      </trkpt>
      <trkpt lat="48.55849" lon="2.06545">
        <ele>154</ele>
        <time>2022-03-06T10:04:20Z</time>
      </trkpt>
      <trkpt lat="48.55845" lon="2.06548">
        <ele>154</ele>
        <time>2022-03-06T10:04:22Z</time>
      </trkpt>
      <trkpt lat="48.55843" lon="2.06551">
        <ele>154</ele>
        <time>2022-03-06T10:04:24Z</time>
      </trkpt>
      <trkpt lat="48.5584" lon="2.06554">
        <ele>154</ele>
        <time>2022-03-06T10:04:26Z</time>
      </trkpt>
      <trkpt lat="48.55837" lon="2.06557">
        <ele>154</ele>
        <time>2022-03-06T10:04:28Z</time>
      </trkpt>
      <trkpt lat="48.55834" lon="2.06559">
        <ele>154</ele>
        <time>2022-03-06T10:04:31Z</time>
      </trkpt>
      <trkpt lat="48.55831" lon="2.06562">
        <ele>154</ele>
        <time>2022-03-06T10:04:34Z</time>
      </trkpt>
      <trkpt lat="48.55829" lon="2.06565">
        <ele>154</ele>
        <time>2022-03-06T10:04:36Z</time>
      </trkpt>
      <trkpt lat="48.55826" lon="2.06567">
        <ele>154</ele>
        <time>2022-03-06T10:04:38Z</time>
      </trkpt>
      <trkpt lat="48.55823" lon="2.0657">
        <ele>154</ele>
        <time>2022-03-06T10:04:41Z</time>
      </trkpt>
      <trkpt lat="48.5582" lon="2.06572">
        <ele>154</ele>
        <time>2022-03-06T10:04:43Z</time>
      </trkpt>
      <trkpt lat="48.55817" lon="2.06574">
        <ele>154</ele>
        <time>2022-03-06T10:04:46Z</time>
      </trkpt>
      <trkpt lat="48.55814" lon="2.06577">
        <ele>154</ele>
        <time>2022-03-06T10:04:48Z</time>
      </trkpt>
      <trkpt lat="48.55811" lon="2.0658">
        <ele>154</ele>
        <time>2022-03-06T10:04:51Z</time>
      </trkpt>
      <trkpt lat="48.55808" lon="2.06584">
        <ele>154</ele>
        <time>2022-03-06T10:04:53Z</time>
      </trkpt>
      <trkpt lat="48.55806" lon="2.06588">
        <ele>154</ele>
        <time>2022-03-06T10:04:56Z</time>
      </trkpt>
      <trkpt lat="48.55804" lon="2.06591">
        <ele>154</ele>
        <time>2022-03-06T10:04:58Z</time>
      </trkpt>
      <trkpt lat="48.558" lon="2.06595">
        <ele>154</ele>
        <time>2022-03-06T10:05:01Z</time>
      </trkpt>
      <trkpt lat="48.55798" lon="2.06599">
        <ele>154</ele>
        <time>2022-03-06T10:05:03Z</time>
      </trkpt>
      <trkpt lat="48.55795" lon="2.06604">
        <ele>154</ele>
        <time>2022-03-06T10:05:06Z</time>
      </trkpt>
      <trkpt lat="48.55793" lon="2.06608">
        <ele>154</ele>
        <time>2022-03-06T10:05:08Z</time>
      </trkpt>
      <trkpt lat="48.5579" lon="2.06612">
        <ele>154</ele>
        <time>2022-03-06T10:05:11Z</time>
      </trkpt>
      <trkpt lat="48.55788" lon="2.06615">
        <ele>154</ele>
        <time>2022-03-06T10:05:14Z</time>
      </trkpt>
      <trkpt lat="48.55785" lon="2.0662">
        <ele>154</ele>
        <time>2022-03-06T10:05:17Z</time>
      </trkpt>
      <trkpt lat="48.55782" lon="2.06623">
        <ele>154</ele>
        <time>2022-03-06T10:05:20Z</time>
      </trkpt>
      <trkpt lat="48.5578" lon="2.06626">
        <ele>154</ele>
        <time>2022-03-06T10:05:22Z</time>
      </trkpt>
      <trkpt lat="48.55778" lon="2.0663">
        <ele>154</ele>
        <time>2022-03-06T10:05:24Z</time>
      </trkpt>
      <trkpt lat="48.55775" lon="2.06633">
        <ele>154</ele>
        <time>2022-03-06T10:05:26Z</time>
      </trkpt>
      <trkpt lat="48.55773" lon="2.06636">
        <ele>154</ele>
        <time>2022-03-06T10:05:28Z</time>
      </trkpt>
      <trkpt lat="48.55771" lon="2.06639">
        <ele>154</ele>
        <time>2022-03-06T10:05:30Z</time>
      </trkpt>
      <trkpt lat="48.55768" lon="2.06643">
        <ele>154</ele>
        <time>2022-03-06T10:05:34Z</time>
      </trkpt>
      <trkpt lat="48.55766" lon="2.06646">
        <ele>154</ele>
        <time>2022-03-06T10:05:37Z</time>
      </trkpt>
      <trkpt lat="48.55763" lon="2.06651">
        <ele>154</ele>
        <time>2022-03-06T10:05:39Z</time>
      </trkpt>
      <trkpt lat="48.55761" lon="2.06654">
        <ele>154</ele>
        <time>2022-03-06T10:05:41Z</time>
      </trkpt>
      <trkpt lat="48.55759" lon="2.06658">
        <ele>154</ele>
        <time>2022-03-06T10:05:44Z</time>
      </trkpt>
      <trkpt lat="48.55756" lon="2.06662">
        <ele>154</ele>
        <time>2022-03-06T10:05:47Z</time>
      </trkpt>
      <trkpt lat="48.55753" lon="2.06666">
        <ele>154</ele>
        <time>2022-03-06T10:05:49Z</time>
      </trkpt>
      <trkpt lat="48.5575" lon="2.0667">
        <ele>154</ele>
        <time>2022-03-06T10:05:52Z</time>
      </trkpt>
      <trkpt lat="48.55747" lon="2.06675">
        <ele>154</ele>
        <time>2022-03-06T10:05:54Z</time>
      </trkpt>
      <trkpt lat="48.55745" lon="2.06678">
        <ele>154</ele>
        <time>2022-03-06T10:05:56Z</time>
      </trkpt>
      <trkpt lat="48.55743" lon="2.06681">
        <ele>154</ele>
        <time>2022-03-06T10:05:58Z</time>
      </trkpt>
      <trkpt lat="48.5574" lon="2.06685">
        <ele>154</ele>
        <time>2022-03-06T10:06:00Z</time>
      </trkpt>
      <trkpt lat="48.55737" lon="2.06688">
        <ele>154</ele>
        <time>2022-03-06T10:06:02Z</time>
      </trkpt>
      <trkpt lat="48.55735" lon="2.06691">
        <ele>155</ele>
        <time>2022-03-06T10:06:05Z</time>
      </trkpt>
      <trkpt lat="48.55732" lon="2.06694">
        <ele>155</ele>
        <time>2022-03-06T10:06:07Z</time>
      </trkpt>
      <trkpt lat="48.5573" lon="2.06697">
        <ele>155</ele>
        <time>2022-03-06T10:06:09Z</time>
      </trkpt>
      <trkpt lat="48.55727" lon="2.067">
        <ele>155</ele>
        <time>2022-03-06T10:06:11Z</time>
      </trkpt>
      <trkpt lat="48.55725" lon="2.06703">
        <ele>154</ele>
        <time>2022-03-06T10:06:13Z</time>
      </trkpt>
      <trkpt lat="48.55722" lon="2.06707">
        <ele>154</ele>
        <time>2022-03-06T10:06:16Z</time>
      </trkpt>
      <trkpt lat="48.55719" lon="2.0671">
        <ele>154</ele>
        <time>2022-03-06T10:06:19Z</time>
      </trkpt>
      <trkpt lat="48.55715" lon="2.06713">
        <ele>154</ele>
        <time>2022-03-06T10:06:21Z</time>
      </trkpt>
      <trkpt lat="48.55713" lon="2.06716">
        <ele>154</ele>
        <time>2022-03-06T10:06:23Z</time>
      </trkpt>
      <trkpt lat="48.5571" lon="2.06719">
        <ele>154</ele>
        <time>2022-03-06T10:06:25Z</time>
      </trkpt>
      <trkpt lat="48.55708" lon="2.06721">
        <ele>154</ele>
        <time>2022-03-06T10:06:27Z</time>
      </trkpt>
      <trkpt lat="48.55704" lon="2.06725">
        <ele>154</ele>
        <time>2022-03-06T10:06:30Z</time>
      </trkpt>
      <trkpt lat="48.55701" lon="2.06729">
        <ele>154</ele>
        <time>2022-03-06T10:06:32Z</time>
      </trkpt>
      <trkpt lat="48.55698" lon="2.06732">
        <ele>154</ele>
        <time>2022-03-06T10:06:34Z</time>
      </trkpt>
      <trkpt lat="48.55696" lon="2.06734">
        <ele>154</ele>
        <time>2022-03-06T10:06:36Z</time>
      </trkpt>
      <trkpt lat="48.55693" lon="2.06737">
        <ele>154</ele>
        <time>2022-03-06T10:06:38Z</time>
      </trkpt>
      <trkpt lat="48.55691" lon="2.0674">
        <ele>154</ele>
        <time>2022-03-06T10:06:40Z</time>
      </trkpt>
      <trkpt lat="48.55688" lon="2.06742">
        <ele>154</ele>
        <time>2022-03-06T10:06:42Z</time>
      </trkpt>
      <trkpt lat="48.55686" lon="2.06745">
        <ele>154</ele>
        <time>2022-03-06T10:06:44Z</time>
      </trkpt>
      <trkpt lat="48.55684" lon="2.06747">
        <ele>154</ele>
        <time>2022-03-06T10:06:46Z</time>
      </trkpt>
      <trkpt lat="48.55681" lon="2.0675">
        <ele>154</ele>
        <time>2022-03-06T10:06:48Z</time>
      </trkpt>
      <trkpt lat="48.55679" lon="2.06753">
        <ele>154</ele>
        <time>2022-03-06T10:06:50Z</time>
      </trkpt>
      <trkpt lat="48.55677" lon="2.06756">
        <ele>154</ele>
        <time>2022-03-06T10:06:52Z</time>
      </trkpt>
      <trkpt lat="48.55675" lon="2.0676">
        <ele>154</ele>
        <time>2022-03-06T10:06:55Z</time>
      </trkpt>
      <trkpt lat="48.55672" lon="2.06763">
        <ele>154</ele>
        <time>2022-03-06T10:06:57Z</time>
      </trkpt>
      <trkpt lat="48.5567" lon="2.06766">
        <ele>154</ele>
        <time>2022-03-06T10:06:59Z</time>
      </trkpt>
      <trkpt lat="48.55668" lon="2.0677">
        <ele>154</ele>
        <time>2022-03-06T10:07:01Z</time>
      </trkpt>
      <trkpt lat="48.55666" lon="2.06773">
        <ele>154</ele>
        <time>2022-03-06T10:07:04Z</time>
      </trkpt>
      <trkpt lat="48.55664" lon="2.06778">
        <ele>153</ele>
        <time>2022-03-06T10:07:07Z</time>
      </trkpt>
      <trkpt lat="48.55661" lon="2.06782">
        <ele>153</ele>
        <time>2022-03-06T10:07:10Z</time>
      </trkpt>
      <trkpt lat="48.5566" lon="2.06786">
        <ele>153</ele>
        <time>2022-03-06T10:07:12Z</time>
      </trkpt>
      <trkpt lat="48.55659" lon="2.0679">
        <ele>153</ele>
        <time>2022-03-06T10:07:14Z</time>
      </trkpt>
      <trkpt lat="48.55657" lon="2.06795">
        <ele>153</ele>
        <time>2022-03-06T10:07:17Z</time>
      </trkpt>
      <trkpt lat="48.55656" lon="2.06799">
        <ele>153</ele>
        <time>2022-03-06T10:07:19Z</time>
      </trkpt>
      <trkpt lat="48.55655" lon="2.06803">
        <ele>153</ele>
        <time>2022-03-06T10:07:21Z</time>
      </trkpt>
      <trkpt lat="48.55653" lon="2.06807">
        <ele>153</ele>
        <time>2022-03-06T10:07:23Z</time>
      </trkpt>
      <trkpt lat="48.5565" lon="2.06811">
        <ele>153</ele>
        <time>2022-03-06T10:07:26Z</time>
      </trkpt>
      <trkpt lat="48.55648" lon="2.06815">
        <ele>153</ele>
        <time>2022-03-06T10:07:29Z</time>
      </trkpt>
      <trkpt lat="48.55645" lon="2.06818">
        <ele>153</ele>
        <time>2022-03-06T10:07:31Z</time>
      </trkpt>
      <trkpt lat="48.55642" lon="2.06822">
        <ele>153</ele>
        <time>2022-03-06T10:07:33Z</time>
      </trkpt>
      <trkpt lat="48.5564" lon="2.06826">
        <ele>153</ele>
        <time>2022-03-06T10:07:35Z</time>
      </trkpt>
      <trkpt lat="48.55637" lon="2.06829">
        <ele>153</ele>
        <time>2022-03-06T10:07:38Z</time>
      </trkpt>
      <trkpt lat="48.55635" lon="2.06834">
        <ele>153</ele>
        <time>2022-03-06T10:07:40Z</time>
      </trkpt>
      <trkpt lat="48.55633" lon="2.06838">
        <ele>153</ele>
        <time>2022-03-06T10:07:43Z</time>
      </trkpt>
      <trkpt lat="48.5563" lon="2.06843">
        <ele>153</ele>
        <time>2022-03-06T10:07:46Z</time>
      </trkpt>
      <trkpt lat="48.55628" lon="2.06846">
        <ele>153</ele>
        <time>2022-03-06T10:07:49Z</time>
      </trkpt>
      <trkpt lat="48.55626" lon="2.06849">
        <ele>153</ele>
        <time>2022-03-06T10:07:51Z</time>
      </trkpt>
      <trkpt lat="48.55623" lon="2.06853">
        <ele>153</ele>
        <time>2022-03-06T10:07:54Z</time>
      </trkpt>
      <trkpt lat="48.5562" lon="2.06856">
        <ele>153</ele>
        <time>2022-03-06T10:07:57Z</time>
      </trkpt>
      <trkpt lat="48.55618" lon="2.06859">
        <ele>153</ele>
        <time>2022-03-06T10:07:58Z</time>
      </trkpt>
      <trkpt lat="48.55615" lon="2.06863">
        <ele>153</ele>
        <time>2022-03-06T10:08:00Z</time>
      </trkpt>
      <trkpt lat="48.55613" lon="2.06866">
        <ele>153</ele>
        <time>2022-03-06T10:08:02Z</time>
      </trkpt>
      <trkpt lat="48.5561" lon="2.06869">
        <ele>153</ele>
        <time>2022-03-06T10:08:04Z</time>
      </trkpt>
      <trkpt lat="48.55608" lon="2.06872">
        <ele>153</ele>
        <time>2022-03-06T10:08:06Z</time>
      </trkpt>
      <trkpt lat="48.55606" lon="2.06876">
        <ele>153</ele>
        <time>2022-03-06T10:08:08Z</time>
      </trkpt>
      <trkpt lat="48.55603" lon="2.0688">
        <ele>153</ele>
        <time>2022-03-06T10:08:10Z</time>
      </trkpt>
      <trkpt lat="48.55601" lon="2.06882">
        <ele>153</ele>
        <time>2022-03-06T10:08:12Z</time>
      </trkpt>
      <trkpt lat="48.55598" lon="2.06883">
        <ele>153</ele>
        <time>2022-03-06T10:08:14Z</time>
      </trkpt>
      <trkpt lat="48.55596" lon="2.06887">
        <ele>153</ele>
        <time>2022-03-06T10:08:17Z</time>
      </trkpt>
      <trkpt lat="48.55594" lon="2.06891">
        <ele>153</ele>
        <time>2022-03-06T10:08:19Z</time>
      </trkpt>
      <trkpt lat="48.55591" lon="2.06895">
        <ele>153</ele>
        <time>2022-03-06T10:08:22Z</time>
      </trkpt>
      <trkpt lat="48.55589" lon="2.06899">
        <ele>153</ele>
        <time>2022-03-06T10:08:24Z</time>
      </trkpt>
      <trkpt lat="48.55587" lon="2.06901">
        <ele>153</ele>
        <time>2022-03-06T10:08:26Z</time>
      </trkpt>
      <trkpt lat="48.55584" lon="2.06904">
        <ele>153</ele>
        <time>2022-03-06T10:08:29Z</time>
      </trkpt>
      <trkpt lat="48.55581" lon="2.06905">
        <ele>153</ele>
        <time>2022-03-06T10:08:32Z</time>
      </trkpt>
      <trkpt lat="48.55579" lon="2.06905">
        <ele>152</ele>
        <time>2022-03-06T10:08:35Z</time>
      </trkpt>
      <trkpt lat="48.55576" lon="2.06906">
        <ele>152</ele>
        <time>2022-03-06T10:08:38Z</time>
      </trkpt>
      <trkpt lat="48.55572" lon="2.06907">
        <ele>152</ele>
        <time>2022-03-06T10:08:41Z</time>
      </trkpt>
      <trkpt lat="48.5557" lon="2.06906">
        <ele>152</ele>
        <time>2022-03-06T10:08:44Z</time>
      </trkpt>
      <trkpt lat="48.55566" lon="2.06905">
        <ele>152</ele>
        <time>2022-03-06T10:08:47Z</time>
      </trkpt>
      <trkpt lat="48.55562" lon="2.06905">
        <ele>152</ele>
        <time>2022-03-06T10:08:49Z</time>
      </trkpt>
      <trkpt lat="48.55559" lon="2.06904">
        <ele>152</ele>
        <time>2022-03-06T10:08:51Z</time>
      </trkpt>
      <trkpt lat="48.55556" lon="2.06903">
        <ele>152</ele>
        <time>2022-03-06T10:08:54Z</time>
      </trkpt>
      <trkpt lat="48.55552" lon="2.06902">
        <ele>152</ele>
        <time>2022-03-06T10:08:57Z</time>
      </trkpt>
      <trkpt lat="48.55549" lon="2.069">
        <ele>152</ele>
        <time>2022-03-06T10:09:00Z</time>
      </trkpt>
      <trkpt lat="48.55545" lon="2.06898">
        <ele>152</ele>
        <time>2022-03-06T10:09:03Z</time>
      </trkpt>
      <trkpt lat="48.55542" lon="2.06897">
        <ele>152</ele>
        <time>2022-03-06T10:09:05Z</time>
      </trkpt>
      <trkpt lat="48.55539" lon="2.06896">
        <ele>151</ele>
        <time>2022-03-06T10:09:07Z</time>
      </trkpt>
      <trkpt lat="48.55537" lon="2.06895">
        <ele>151</ele>
        <time>2022-03-06T10:09:09Z</time>
      </trkpt>
      <trkpt lat="48.55533" lon="2.06894">
        <ele>151</ele>
        <time>2022-03-06T10:09:12Z</time>
      </trkpt>
      <trkpt lat="48.55529" lon="2.06893">
        <ele>151</ele>
        <time>2022-03-06T10:09:15Z</time>
      </trkpt>
      <trkpt lat="48.55526" lon="2.06893">
        <ele>151</ele>
        <time>2022-03-06T10:09:18Z</time>
      </trkpt>
      <trkpt lat="48.55522" lon="2.06894">
        <ele>151</ele>
        <time>2022-03-06T10:09:20Z</time>
      </trkpt>
      <trkpt lat="48.55519" lon="2.06894">
        <ele>151</ele>
        <time>2022-03-06T10:09:22Z</time>
      </trkpt>
      <trkpt lat="48.55516" lon="2.06894">
        <ele>151</ele>
        <time>2022-03-06T10:09:24Z</time>
      </trkpt>
      <trkpt lat="48.55513" lon="2.06894">
        <ele>151</ele>
        <time>2022-03-06T10:09:26Z</time>
      </trkpt>
      <trkpt lat="48.5551" lon="2.06894">
        <ele>151</ele>
        <time>2022-03-06T10:09:29Z</time>
      </trkpt>
      <trkpt lat="48.55507" lon="2.06894">
        <ele>151</ele>
        <time>2022-03-06T10:09:31Z</time>
      </trkpt>
      <trkpt lat="48.55503" lon="2.06894">
        <ele>151</ele>
        <time>2022-03-06T10:09:34Z</time>
      </trkpt>
      <trkpt lat="48.555" lon="2.06895">
        <ele>151</ele>
        <time>2022-03-06T10:09:36Z</time>
      </trkpt>
      <trkpt lat="48.55497" lon="2.06895">
        <ele>151</ele>
        <time>2022-03-06T10:09:39Z</time>
      </trkpt>
      <trkpt lat="48.55493" lon="2.06896">
        <ele>151</ele>
        <time>2022-03-06T10:09:41Z</time>
      </trkpt>
      <trkpt lat="48.55491" lon="2.06898">
        <ele>151</ele>
        <time>2022-03-06T10:09:43Z</time>
      </trkpt>
      <trkpt lat="48.55488" lon="2.069">
        <ele>151</ele>
        <time>2022-03-06T10:09:45Z</time>
      </trkpt>
      <trkpt lat="48.55486" lon="2.06904">
        <ele>151</ele>
        <time>2022-03-06T10:09:47Z</time>
      </trkpt>
      <trkpt lat="48.55485" lon="2.06908">
        <ele>151</ele>
        <time>2022-03-06T10:09:49Z</time>
      </trkpt>
      <trkpt lat="48.55484" lon="2.06912">
        <ele>151</ele>
        <time>2022-03-06T10:09:51Z</time>
      </trkpt>
      <trkpt lat="48.55483" lon="2.06917">
        <ele>151</ele>
        <time>2022-03-06T10:09:53Z</time>
      </trkpt>
      <trkpt lat="48.55482" lon="2.06921">
        <ele>151</ele>
        <time>2022-03-06T10:09:55Z</time>
      </trkpt>
      <trkpt lat="48.55482" lon="2.06925">
        <ele>151</ele>
        <time>2022-03-06T10:09:57Z</time>
      </trkpt>
      <trkpt lat="48.55481" lon="2.0693">
        <ele>151</ele>
        <time>2022-03-06T10:09:59Z</time>
      </trkpt>
      <trkpt lat="48.5548" lon="2.06934">
        <ele>151</ele>
        <time>2022-03-06T10:10:01Z</time>
      </trkpt>
      <trkpt lat="48.55479" lon="2.06938">
        <ele>151</ele>
        <time>2022-03-06T10:10:03Z</time>
      </trkpt>
      <trkpt lat="48.55478" lon="2.06942">
        <ele>151</ele>
        <time>2022-03-06T10:10:05Z</time>
      </trkpt>
      <trkpt lat="48.55478" lon="2.06946">
        <ele>151</ele>
        <time>2022-03-06T10:10:07Z</time>
      </trkpt>
      <trkpt lat="48.55477" lon="2.06951">
        <ele>151</ele>
        <time>2022-03-06T10:10:09Z</time>
      </trkpt>
      <trkpt lat="48.55476" lon="2.06955">
        <ele>151</ele>
        <time>2022-03-06T10:10:11Z</time>
      </trkpt>
      <trkpt lat="48.55475" lon="2.06959">
        <ele>151</ele>
        <time>2022-03-06T10:10:13Z</time>
      </trkpt>
      <trkpt lat="48.55474" lon="2.06964">
        <ele>151</ele>
        <time>2022-03-06T10:10:16Z</time>
      </trkpt>
      <trkpt lat="48.55473" lon="2.06969">
        <ele>151</ele>
        <time>2022-03-06T10:10:19Z</time>
      </trkpt>
      <trkpt lat="48.55472" lon="2.06975">
        <ele>151</ele>
        <time>2022-03-06T10:10:22Z</time>
      </trkpt>
      <trkpt lat="48.55471" lon="2.0698">
        <ele>151</ele>
        <time>2022-03-06T10:10:24Z</time>
      </trkpt>
      <trkpt lat="48.55471" lon="2.06984">
        <ele>151</ele>
        <time>2022-03-06T10:10:26Z</time>
      </trkpt>
      <trkpt lat="48.55471" lon="2.06989">
        <ele>150</ele>
        <time>2022-03-06T10:10:28Z</time>
      </trkpt>
      <trkpt lat="48.55471" lon="2.06993">
        <ele>150</ele>
        <time>2022-03-06T10:10:30Z</time>
      </trkpt>
      <trkpt lat="48.55471" lon="2.06998">
        <ele>150</ele>
        <time>2022-03-06T10:10:32Z</time>
      </trkpt>
      <trkpt lat="48.55472" lon="2.07002">
        <ele>150</ele>
        <time>2022-03-06T10:10:34Z</time>
      </trkpt>
      <trkpt lat="48.55473" lon="2.07006">
        <ele>150</ele>
        <time>2022-03-06T10:10:36Z</time>
      </trkpt>
      <trkpt lat="48.55474" lon="2.07011">
        <ele>150</ele>
        <time>2022-03-06T10:10:38Z</time>
      </trkpt>
      <trkpt lat="48.55475" lon="2.07015">
        <ele>150</ele>
        <time>2022-03-06T10:10:40Z</time>
      </trkpt>
      <trkpt lat="48.55476" lon="2.07019">
        <ele>150</ele>
        <time>2022-03-06T10:10:42Z</time>
      </trkpt>
      <trkpt lat="48.55477" lon="2.07023">
        <ele>150</ele>
        <time>2022-03-06T10:10:45Z</time>
      </trkpt>
      <trkpt lat="48.55479" lon="2.07027">
        <ele>150</ele>
        <time>2022-03-06T10:10:47Z</time>
      </trkpt>
      <trkpt lat="48.55481" lon="2.07031">
        <ele>151</ele>
        <time>2022-03-06T10:10:49Z</time>
      </trkpt>
      <trkpt lat="48.55483" lon="2.07034">
        <ele>151</ele>
        <time>2022-03-06T10:10:51Z</time>
      </trkpt>
      <trkpt lat="48.55484" lon="2.07038">
        <ele>151</ele>
        <time>2022-03-06T10:10:53Z</time>
      </trkpt>
      <trkpt lat="48.55486" lon="2.07041">
        <ele>151</ele>
        <time>2022-03-06T10:10:55Z</time>
      </trkpt>
      <trkpt lat="48.55488" lon="2.07044">
        <ele>151</ele>
        <time>2022-03-06T10:10:57Z</time>
      </trkpt>
      <trkpt lat="48.55489" lon="2.07048">
        <ele>151</ele>
        <time>2022-03-06T10:10:59Z</time>
      </trkpt>
      <trkpt lat="48.55491" lon="2.07052">
        <ele>151</ele>
        <time>2022-03-06T10:11:01Z</time>
      </trkpt>
      <trkpt lat="48.55492" lon="2.07055">
        <ele>151</ele>
        <time>2022-03-06T10:11:03Z</time>
      </trkpt>
      <trkpt lat="48.55493" lon="2.07059">
        <ele>151</ele>
        <time>2022-03-06T10:11:05Z</time>
      </trkpt>
      <trkpt lat="48.55494" lon="2.07063">
        <ele>151</ele>
        <time>2022-03-06T10:11:07Z</time>
      </trkpt>
      <trkpt lat="48.55495" lon="2.07067">
        <ele>151</ele>
        <time>2022-03-06T10:11:09Z</time>
      </trkpt>
      <trkpt lat="48.55496" lon="2.07072">
        <ele>151</ele>
        <time>2022-03-06T10:11:11Z</time>
      </trkpt>
      <trkpt lat="48.55497" lon="2.07076">
        <ele>151</ele>
        <time>2022-03-06T10:11:13Z</time>
      </trkpt>
      <trkpt lat="48.55497" lon="2.07081">
        <ele>151</ele>
        <time>2022-03-06T10:11:15Z</time>
      </trkpt>
      <trkpt lat="48.55498" lon="2.07085">
        <ele>151</ele>
        <time>2022-03-06T10:11:17Z</time>
      </trkpt>
      <trkpt lat="48.55498" lon="2.0709">
        <ele>151</ele>
        <time>2022-03-06T10:11:19Z</time>
      </trkpt>
      <trkpt lat="48.55498" lon="2.07095">
        <ele>151</ele>
        <time>2022-03-06T10:11:21Z</time>
      </trkpt>
      <trkpt lat="48.55498" lon="2.071">
        <ele>152</ele>
        <time>2022-03-06T10:11:23Z</time>
      </trkpt>
      <trkpt lat="48.55498" lon="2.07105">
        <ele>152</ele>
        <time>2022-03-06T10:11:25Z</time>
      </trkpt>
      <trkpt lat="48.55497" lon="2.07109">
        <ele>152</ele>
        <time>2022-03-06T10:11:27Z</time>
      </trkpt>
      <trkpt lat="48.55497" lon="2.07114">
        <ele>152</ele>
        <time>2022-03-06T10:11:30Z</time>
      </trkpt>
      <trkpt lat="48.55497" lon="2.07119">
        <ele>152</ele>
        <time>2022-03-06T10:11:32Z</time>
      </trkpt>
      <trkpt lat="48.55496" lon="2.07124">
        <ele>152</ele>
        <time>2022-03-06T10:11:34Z</time>
      </trkpt>
      <trkpt lat="48.55495" lon="2.07128">
        <ele>152</ele>
        <time>2022-03-06T10:11:36Z</time>
      </trkpt>
      <trkpt lat="48.55493" lon="2.07133">
        <ele>152</ele>
        <time>2022-03-06T10:11:38Z</time>
      </trkpt>
      <trkpt lat="48.55492" lon="2.07137">
        <ele>152</ele>
        <time>2022-03-06T10:11:40Z</time>
      </trkpt>
      <trkpt lat="48.55491" lon="2.07141">
        <ele>152</ele>
        <time>2022-03-06T10:11:42Z</time>
      </trkpt>
      <trkpt lat="48.55489" lon="2.07145">
        <ele>152</ele>
        <time>2022-03-06T10:11:44Z</time>
      </trkpt>
      <trkpt lat="48.55488" lon="2.07149">
        <ele>152</ele>
        <time>2022-03-06T10:11:46Z</time>
      </trkpt>
      <trkpt lat="48.55486" lon="2.07153">
        <ele>152</ele>
        <time>2022-03-06T10:11:48Z</time>
      </trkpt>
      <trkpt lat="48.55485" lon="2.07158">
        <ele>152</ele>
        <time>2022-03-06T10:11:50Z</time>
      </trkpt>
      <trkpt lat="48.55483" lon="2.07162">
        <ele>152</ele>
        <time>2022-03-06T10:11:52Z</time>
      </trkpt>
      <trkpt lat="48.55481" lon="2.07166">
        <ele>152</ele>
        <time>2022-03-06T10:11:54Z</time>
      </trkpt>
      <trkpt lat="48.5548" lon="2.0717">
        <ele>151</ele>
        <time>2022-03-06T10:11:56Z</time>
      </trkpt>
      <trkpt lat="48.55478" lon="2.07175">
        <ele>151</ele>
        <time>2022-03-06T10:11:59Z</time>
      </trkpt>
      <trkpt lat="48.55476" lon="2.07179">
        <ele>151</ele>
        <time>2022-03-06T10:12:01Z</time>
      </trkpt>
      <trkpt lat="48.55474" lon="2.07183">
        <ele>151</ele>
        <time>2022-03-06T10:12:03Z</time>
      </trkpt>
      <trkpt lat="48.55473" lon="2.07187">
        <ele>151</ele>
        <time>2022-03-06T10:12:05Z</time>
      </trkpt>
      <trkpt lat="48.55471" lon="2.07191">
        <ele>151</ele>
        <time>2022-03-06T10:12:07Z</time>
      </trkpt>
      <trkpt lat="48.5547" lon="2.07195">
        <ele>151</ele>
        <time>2022-03-06T10:12:09Z</time>
      </trkpt>
      <trkpt lat="48.55468" lon="2.072">
        <ele>151</ele>
        <time>2022-03-06T10:12:12Z</time>
      </trkpt>
      <trkpt lat="48.55466" lon="2.07204">
        <ele>151</ele>
        <time>2022-03-06T10:12:14Z</time>
      </trkpt>
      <trkpt lat="48.55465" lon="2.07209">
        <ele>151</ele>
        <time>2022-03-06T10:12:16Z</time>
      </trkpt>
      <trkpt lat="48.55463" lon="2.07212">
        <ele>151</ele>
        <time>2022-03-06T10:12:18Z</time>
      </trkpt>
      <trkpt lat="48.55461" lon="2.07217">
        <ele>151</ele>
        <time>2022-03-06T10:12:20Z</time>
      </trkpt>
      <trkpt lat="48.5546" lon="2.07221">
        <ele>151</ele>
        <time>2022-03-06T10:12:22Z</time>
      </trkpt>
      <trkpt lat="48.55458" lon="2.07225">
        <ele>151</ele>
        <time>2022-03-06T10:12:24Z</time>
      </trkpt>
      <trkpt lat="48.55456" lon="2.07229">
        <ele>151</ele>
        <time>2022-03-06T10:12:26Z</time>
      </trkpt>
      <trkpt lat="48.55455" lon="2.07233">
        <ele>151</ele>
        <time>2022-03-06T10:12:28Z</time>
      </trkpt>
      <trkpt lat="48.55453" lon="2.07237">
        <ele>151</ele>
        <time>2022-03-06T10:12:30Z</time>
      </trkpt>
      <trkpt lat="48.55451" lon="2.07241">
        <ele>151</ele>
        <time>2022-03-06T10:12:32Z</time>
      </trkpt>
      <trkpt lat="48.5545" lon="2.07245">
        <ele>151</ele>
        <time>2022-03-06T10:12:34Z</time>
      </trkpt>
      <trkpt lat="48.55449" lon="2.07249">
        <ele>151</ele>
        <time>2022-03-06T10:12:36Z</time>
      </trkpt>
      <trkpt lat="48.55447" lon="2.07254">
        <ele>151</ele>
        <time>2022-03-06T10:12:38Z</time>
      </trkpt>
      <trkpt lat="48.55445" lon="2.07258">
        <ele>151</ele>
        <time>2022-03-06T10:12:40Z</time>
      </trkpt>
      <trkpt lat="48.55443" lon="2.07262">
        <ele>150</ele>
        <time>2022-03-06T10:12:42Z</time>
      </trkpt>
      <trkpt lat="48.55442" lon="2.07265">
        <ele>150</ele>
        <time>2022-03-06T10:12:44Z</time>
      </trkpt>
      <trkpt lat="48.5544" lon="2.07269">
        <ele>150</ele>
        <time>2022-03-06T10:12:46Z</time>
      </trkpt>
      <trkpt lat="48.55438" lon="2.07273">
        <ele>150</ele>
        <time>2022-03-06T10:12:48Z</time>
      </trkpt>
      <trkpt lat="48.55436" lon="2.07278">
        <ele>151</ele>
        <time>2022-03-06T10:12:50Z</time>
      </trkpt>
      <trkpt lat="48.55434" lon="2.07281">
        <ele>151</ele>
        <time>2022-03-06T10:12:52Z</time>
      </trkpt>
      <trkpt lat="48.55433" lon="2.07285">
        <ele>151</ele>
        <time>2022-03-06T10:12:54Z</time>
      </trkpt>
      <trkpt lat="48.55431" lon="2.07288">
        <ele>150</ele>
        <time>2022-03-06T10:12:56Z</time>
      </trkpt>
      <trkpt lat="48.55429" lon="2.07292">
        <ele>150</ele>
        <time>2022-03-06T10:12:58Z</time>
      </trkpt>
      <trkpt lat="48.55428" lon="2.07296">
        <ele>150</ele>
        <time>2022-03-06T10:13:00Z</time>
      </trkpt>
      <trkpt lat="48.55426" lon="2.073">
        <ele>150</ele>
        <time>2022-03-06T10:13:02Z</time>
      </trkpt>
      <trkpt lat="48.55425" lon="2.07304">
        <ele>151</ele>
        <time>2022-03-06T10:13:04Z</time>
      </trkpt>
      <trkpt lat="48.55423" lon="2.07308">
        <ele>151</ele>
        <time>2022-03-06T10:13:06Z</time>
      </trkpt>
      <trkpt lat="48.55422" lon="2.07311">
        <ele>151</ele>
        <time>2022-03-06T10:13:08Z</time>
      </trkpt>
      <trkpt lat="48.5542" lon="2.07315">
        <ele>150</ele>
        <time>2022-03-06T10:13:10Z</time>
      </trkpt>
      <trkpt lat="48.55418" lon="2.07319">
        <ele>150</ele>
        <time>2022-03-06T10:13:12Z</time>
      </trkpt>
      <trkpt lat="48.55418" lon="2.07324">
        <ele>150</ele>
        <time>2022-03-06T10:13:14Z</time>
      </trkpt>
      <trkpt lat="48.55416" lon="2.07328">
        <ele>150</ele>
        <time>2022-03-06T10:13:16Z</time>
      </trkpt>
      <trkpt lat="48.55414" lon="2.07331">
        <ele>150</ele>
        <time>2022-03-06T10:13:18Z</time>
      </trkpt>
      <trkpt lat="48.55413" lon="2.07335">
        <ele>150</ele>
        <time>2022-03-06T10:13:20Z</time>
      </trkpt>
      <trkpt lat="48.55411" lon="2.07339">
        <ele>150</ele>
        <time>2022-03-06T10:13:22Z</time>
      </trkpt>
      <trkpt lat="48.55409" lon="2.07343">
        <ele>150</ele>
        <time>2022-03-06T10:13:24Z</time>
      </trkpt>
      <trkpt lat="48.55408" lon="2.07347">
        <ele>150</ele>
        <time>2022-03-06T10:13:26Z</time>
      </trkpt>
      <trkpt lat="48.55407" lon="2.07351">
        <ele>150</ele>
        <time>2022-03-06T10:13:28Z</time>
      </trkpt>
      <trkpt lat="48.55405" lon="2.07355">
        <ele>150</ele>
        <time>2022-03-06T10:13:30Z</time>
      </trkpt>
      <trkpt lat="48.55404" lon="2.07359">
        <ele>150</ele>
        <time>2022-03-06T10:13:32Z</time>
      </trkpt>
      <trkpt lat="48.55403" lon="2.07364">
        <ele>150</ele>
        <time>2022-03-06T10:13:35Z</time>
      </trkpt>
      <trkpt lat="48.55401" lon="2.07368">
        <ele>150</ele>
        <time>2022-03-06T10:13:37Z</time>
      </trkpt>
      <trkpt lat="48.55399" lon="2.07373">
        <ele>150</ele>
        <time>2022-03-06T10:13:40Z</time>
      </trkpt>
      <trkpt lat="48.55398" lon="2.07377">
        <ele>150</ele>
        <time>2022-03-06T10:13:42Z</time>
      </trkpt>
      <trkpt lat="48.55397" lon="2.07381">
        <ele>150</ele>
        <time>2022-03-06T10:13:44Z</time>
      </trkpt>
      <trkpt lat="48.55396" lon="2.07385">
        <ele>150</ele>
        <time>2022-03-06T10:13:46Z</time>
      </trkpt>
      <trkpt lat="48.55394" lon="2.07389">
        <ele>150</ele>
        <time>2022-03-06T10:13:48Z</time>
      </trkpt>
      <trkpt lat="48.55393" lon="2.07393">
        <ele>150</ele>
        <time>2022-03-06T10:13:50Z</time>
      </trkpt>
      <trkpt lat="48.55391" lon="2.07398">
        <ele>150</ele>
        <time>2022-03-06T10:13:53Z</time>
      </trkpt>
      <trkpt lat="48.5539" lon="2.07403">
        <ele>150</ele>
        <time>2022-03-06T10:13:55Z</time>
      </trkpt>
      <trkpt lat="48.55388" lon="2.07407">
        <ele>150</ele>
        <time>2022-03-06T10:13:57Z</time>
      </trkpt>
      <trkpt lat="48.55387" lon="2.07411">
        <ele>150</ele>
        <time>2022-03-06T10:13:59Z</time>
      </trkpt>
      <trkpt lat="48.55386" lon="2.07416">
        <ele>150</ele>
        <time>2022-03-06T10:14:01Z</time>
      </trkpt>
      <trkpt lat="48.55384" lon="2.0742">
        <ele>150</ele>
        <time>2022-03-06T10:14:03Z</time>
      </trkpt>
      <trkpt lat="48.55383" lon="2.07424">
        <ele>150</ele>
        <time>2022-03-06T10:14:05Z</time>
      </trkpt>
      <trkpt lat="48.55382" lon="2.07428">
        <ele>150</ele>
        <time>2022-03-06T10:14:07Z</time>
      </trkpt>
      <trkpt lat="48.55381" lon="2.07432">
        <ele>150</ele>
        <time>2022-03-06T10:14:09Z</time>
      </trkpt>
      <trkpt lat="48.5538" lon="2.07438">
        <ele>150</ele>
        <time>2022-03-06T10:14:12Z</time>
      </trkpt>
      <trkpt lat="48.55378" lon="2.07442">
        <ele>150</ele>
        <time>2022-03-06T10:14:14Z</time>
      </trkpt>
      <trkpt lat="48.55378" lon="2.07447">
        <ele>150</ele>
        <time>2022-03-06T10:14:16Z</time>
      </trkpt>
      <trkpt lat="48.55376" lon="2.07451">
        <ele>150</ele>
        <time>2022-03-06T10:14:18Z</time>
      </trkpt>
      <trkpt lat="48.55375" lon="2.07456">
        <ele>150</ele>
        <time>2022-03-06T10:14:20Z</time>
      </trkpt>
      <trkpt lat="48.55374" lon="2.07461">
        <ele>150</ele>
        <time>2022-03-06T10:14:23Z</time>
      </trkpt>
      <trkpt lat="48.55372" lon="2.07465">
        <ele>150</ele>
        <time>2022-03-06T10:14:25Z</time>
      </trkpt>
      <trkpt lat="48.55371" lon="2.0747">
        <ele>150</ele>
        <time>2022-03-06T10:14:27Z</time>
      </trkpt>
      <trkpt lat="48.5537" lon="2.07474">
        <ele>150</ele>
        <time>2022-03-06T10:14:29Z</time>
      </trkpt>
      <trkpt lat="48.55369" lon="2.07478">
        <ele>150</ele>
        <time>2022-03-06T10:14:31Z</time>
      </trkpt>
      <trkpt lat="48.55368" lon="2.07482">
        <ele>150</ele>
        <time>2022-03-06T10:14:33Z</time>
      </trkpt>
      <trkpt lat="48.55366" lon="2.07486">
        <ele>150</ele>
        <time>2022-03-06T10:14:35Z</time>
      </trkpt>
      <trkpt lat="48.55365" lon="2.0749">
        <ele>150</ele>
        <time>2022-03-06T10:14:37Z</time>
      </trkpt>
      <trkpt lat="48.55364" lon="2.07494">
        <ele>150</ele>
        <time>2022-03-06T10:14:39Z</time>
      </trkpt>
      <trkpt lat="48.55363" lon="2.07499">
        <ele>150</ele>
        <time>2022-03-06T10:14:42Z</time>
      </trkpt>
      <trkpt lat="48.55362" lon="2.07504">
        <ele>150</ele>
        <time>2022-03-06T10:14:44Z</time>
      </trkpt>
      <trkpt lat="48.5536" lon="2.07509">
        <ele>150</ele>
        <time>2022-03-06T10:14:47Z</time>
      </trkpt>
      <trkpt lat="48.55359" lon="2.07513">
        <ele>150</ele>
        <time>2022-03-06T10:14:49Z</time>
      </trkpt>
      <trkpt lat="48.55357" lon="2.07519">
        <ele>150</ele>
        <time>2022-03-06T10:14:52Z</time>
      </trkpt>
      <trkpt lat="48.55356" lon="2.07524">
        <ele>150</ele>
        <time>2022-03-06T10:14:54Z</time>
      </trkpt>
      <trkpt lat="48.55355" lon="2.07528">
        <ele>150</ele>
        <time>2022-03-06T10:14:56Z</time>
      </trkpt>
      <trkpt lat="48.55354" lon="2.07533">
        <ele>150</ele>
        <time>2022-03-06T10:14:58Z</time>
      </trkpt>
      <trkpt lat="48.55352" lon="2.07538">
        <ele>150</ele>
        <time>2022-03-06T10:15:02Z</time>
      </trkpt>
      <trkpt lat="48.55351" lon="2.07542">
        <ele>150</ele>
        <time>2022-03-06T10:15:04Z</time>
      </trkpt>
      <trkpt lat="48.5535" lon="2.07547">
        <ele>150</ele>
        <time>2022-03-06T10:15:07Z</time>
      </trkpt>
      <trkpt lat="48.55349" lon="2.07553">
        <ele>150</ele>
        <time>2022-03-06T10:15:10Z</time>
      </trkpt>
      <trkpt lat="48.55348" lon="2.07557">
        <ele>150</ele>
        <time>2022-03-06T10:15:12Z</time>
      </trkpt>
      <trkpt lat="48.55346" lon="2.07562">
        <ele>150</ele>
        <time>2022-03-06T10:15:14Z</time>
      </trkpt>
      <trkpt lat="48.55345" lon="2.07567">
        <ele>150</ele>
        <time>2022-03-06T10:15:17Z</time>
      </trkpt>
      <trkpt lat="48.55344" lon="2.07571">
        <ele>150</ele>
        <time>2022-03-06T10:15:19Z</time>
      </trkpt>
      <trkpt lat="48.55343" lon="2.07576">
        <ele>150</ele>
        <time>2022-03-06T10:15:21Z</time>
      </trkpt>
      <trkpt lat="48.55341" lon="2.0758">
        <ele>150</ele>
        <time>2022-03-06T10:15:23Z</time>
      </trkpt>
      <trkpt lat="48.5534" lon="2.07584">
        <ele>150</ele>
        <time>2022-03-06T10:15:25Z</time>
      </trkpt>
      <trkpt lat="48.55339" lon="2.07589">
        <ele>150</ele>
        <time>2022-03-06T10:15:28Z</time>
      </trkpt>
      <trkpt lat="48.55338" lon="2.07595">
        <ele>150</ele>
        <time>2022-03-06T10:15:31Z</time>
      </trkpt>
      <trkpt lat="48.55337" lon="2.07599">
        <ele>150</ele>
        <time>2022-03-06T10:15:33Z</time>
      </trkpt>
      <trkpt lat="48.55336" lon="2.07603">
        <ele>150</ele>
        <time>2022-03-06T10:15:35Z</time>
      </trkpt>
      <trkpt lat="48.55335" lon="2.07608">
        <ele>150</ele>
        <time>2022-03-06T10:15:38Z</time>
      </trkpt>
      <trkpt lat="48.55333" lon="2.07612">
        <ele>150</ele>
        <time>2022-03-06T10:15:40Z</time>
      </trkpt>
      <trkpt lat="48.55331" lon="2.07616">
        <ele>149</ele>
        <time>2022-03-06T10:15:42Z</time>
      </trkpt>
      <trkpt lat="48.5533" lon="2.07621">
        <ele>149</ele>
        <time>2022-03-06T10:15:44Z</time>
      </trkpt>
      <trkpt lat="48.55329" lon="2.07625">
        <ele>149</ele>
        <time>2022-03-06T10:15:46Z</time>
      </trkpt>
      <trkpt lat="48.55327" lon="2.07629">
        <ele>149</ele>
        <time>2022-03-06T10:15:48Z</time>
      </trkpt>
      <trkpt lat="48.55325" lon="2.07634">
        <ele>149</ele>
        <time>2022-03-06T10:15:51Z</time>
      </trkpt>
      <trkpt lat="48.55324" lon="2.07638">
        <ele>149</ele>
        <time>2022-03-06T10:15:53Z</time>
      </trkpt>
      <trkpt lat="48.55322" lon="2.07642">
        <ele>149</ele>
        <time>2022-03-06T10:15:55Z</time>
      </trkpt>
      <trkpt lat="48.55321" lon="2.07645">
        <ele>149</ele>
        <time>2022-03-06T10:15:57Z</time>
      </trkpt>
      <trkpt lat="48.55319" lon="2.07649">
        <ele>149</ele>
        <time>2022-03-06T10:15:59Z</time>
      </trkpt>
      <trkpt lat="48.55317" lon="2.07654">
        <ele>149</ele>
        <time>2022-03-06T10:16:02Z</time>
      </trkpt>
      <trkpt lat="48.55316" lon="2.07658">
        <ele>149</ele>
        <time>2022-03-06T10:16:04Z</time>
      </trkpt>
      <trkpt lat="48.55314" lon="2.07662">
        <ele>149</ele>
        <time>2022-03-06T10:16:06Z</time>
      </trkpt>
      <trkpt lat="48.55312" lon="2.07666">
        <ele>149</ele>
        <time>2022-03-06T10:16:08Z</time>
      </trkpt>
      <trkpt lat="48.55311" lon="2.07669">
        <ele>149</ele>
        <time>2022-03-06T10:16:10Z</time>
      </trkpt>
      <trkpt lat="48.55309" lon="2.07674">
        <ele>149</ele>
        <time>2022-03-06T10:16:13Z</time>
      </trkpt>
      <trkpt lat="48.55307" lon="2.07678">
        <ele>149</ele>
        <time>2022-03-06T10:16:15Z</time>
      </trkpt>
      <trkpt lat="48.55305" lon="2.07682">
        <ele>149</ele>
        <time>2022-03-06T10:16:17Z</time>
      </trkpt>
      <trkpt lat="48.55303" lon="2.07685">
        <ele>149</ele>
        <time>2022-03-06T10:16:19Z</time>
      </trkpt>
      <trkpt lat="48.55302" lon="2.07689">
        <ele>148</ele>
        <time>2022-03-06T10:16:21Z</time>
      </trkpt>
      <trkpt lat="48.553" lon="2.07693">
        <ele>148</ele>
        <time>2022-03-06T10:16:23Z</time>
      </trkpt>
      <trkpt lat="48.55299" lon="2.07696">
        <ele>148</ele>
        <time>2022-03-06T10:16:25Z</time>
      </trkpt>
      <trkpt lat="48.55297" lon="2.077">
        <ele>148</ele>
        <time>2022-03-06T10:16:27Z</time>
      </trkpt>
      <trkpt lat="48.55295" lon="2.07703">
        <ele>148</ele>
        <time>2022-03-06T10:16:29Z</time>
      </trkpt>
      <trkpt lat="48.55294" lon="2.07707">
        <ele>148</ele>
        <time>2022-03-06T10:16:31Z</time>
      </trkpt>
      <trkpt lat="48.55292" lon="2.07711">
        <ele>148</ele>
        <time>2022-03-06T10:16:33Z</time>
      </trkpt>
      <trkpt lat="48.55291" lon="2.07714">
        <ele>148</ele>
        <time>2022-03-06T10:16:35Z</time>
      </trkpt>
      <trkpt lat="48.55289" lon="2.07718">
        <ele>148</ele>
        <time>2022-03-06T10:16:37Z</time>
      </trkpt>
      <trkpt lat="48.55287" lon="2.07723">
        <ele>148</ele>
        <time>2022-03-06T10:16:40Z</time>
      </trkpt>
      <trkpt lat="48.55285" lon="2.07726">
        <ele>148</ele>
        <time>2022-03-06T10:16:42Z</time>
      </trkpt>
      <trkpt lat="48.55283" lon="2.0773">
        <ele>148</ele>
        <time>2022-03-06T10:16:44Z</time>
      </trkpt>
      <trkpt lat="48.55281" lon="2.07734">
        <ele>148</ele>
        <time>2022-03-06T10:16:46Z</time>
      </trkpt>
      <trkpt lat="48.5528" lon="2.07739">
        <ele>148</ele>
        <time>2022-03-06T10:16:48Z</time>
      </trkpt>
      <trkpt lat="48.55278" lon="2.07743">
        <ele>148</ele>
        <time>2022-03-06T10:16:50Z</time>
      </trkpt>
      <trkpt lat="48.55276" lon="2.07746">
        <ele>148</ele>
        <time>2022-03-06T10:16:52Z</time>
      </trkpt>
      <trkpt lat="48.55274" lon="2.0775">
        <ele>148</ele>
        <time>2022-03-06T10:16:54Z</time>
      </trkpt>
      <trkpt lat="48.55272" lon="2.07754">
        <ele>148</ele>
        <time>2022-03-06T10:16:56Z</time>
      </trkpt>
      <trkpt lat="48.55271" lon="2.07757">
        <ele>148</ele>
        <time>2022-03-06T10:16:58Z</time>
      </trkpt>
      <trkpt lat="48.55269" lon="2.07761">
        <ele>148</ele>
        <time>2022-03-06T10:17:00Z</time>
      </trkpt>
      <trkpt lat="48.55268" lon="2.07764">
        <ele>148</ele>
        <time>2022-03-06T10:17:02Z</time>
      </trkpt>
      <trkpt lat="48.55266" lon="2.07768">
        <ele>148</ele>
        <time>2022-03-06T10:17:04Z</time>
      </trkpt>
      <trkpt lat="48.55264" lon="2.07772">
        <ele>148</ele>
        <time>2022-03-06T10:17:06Z</time>
      </trkpt>
      <trkpt lat="48.55262" lon="2.07776">
        <ele>148</ele>
        <time>2022-03-06T10:17:08Z</time>
      </trkpt>
      <trkpt lat="48.55261" lon="2.0778">
        <ele>148</ele>
        <time>2022-03-06T10:17:10Z</time>
      </trkpt>
      <trkpt lat="48.55259" lon="2.07783">
        <ele>148</ele>
        <time>2022-03-06T10:17:12Z</time>
      </trkpt>
      <trkpt lat="48.55257" lon="2.07787">
        <ele>148</ele>
        <time>2022-03-06T10:17:14Z</time>
      </trkpt>
      <trkpt lat="48.55255" lon="2.07792">
        <ele>148</ele>
        <time>2022-03-06T10:17:17Z</time>
      </trkpt>
      <trkpt lat="48.55254" lon="2.07796">
        <ele>148</ele>
        <time>2022-03-06T10:17:19Z</time>
      </trkpt>
      <trkpt lat="48.55252" lon="2.07801">
        <ele>148</ele>
        <time>2022-03-06T10:17:22Z</time>
      </trkpt>
      <trkpt lat="48.5525" lon="2.07805">
        <ele>148</ele>
        <time>2022-03-06T10:17:24Z</time>
      </trkpt>
      <trkpt lat="48.55249" lon="2.07809">
        <ele>148</ele>
        <time>2022-03-06T10:17:26Z</time>
      </trkpt>
      <trkpt lat="48.55247" lon="2.07813">
        <ele>148</ele>
        <time>2022-03-06T10:17:28Z</time>
      </trkpt>
      <trkpt lat="48.55246" lon="2.07818">
        <ele>148</ele>
        <time>2022-03-06T10:17:30Z</time>
      </trkpt>
      <trkpt lat="48.55245" lon="2.07822">
        <ele>148</ele>
        <time>2022-03-06T10:17:32Z</time>
      </trkpt>
      <trkpt lat="48.55244" lon="2.07826">
        <ele>148</ele>
        <time>2022-03-06T10:17:34Z</time>
      </trkpt>
      <trkpt lat="48.55242" lon="2.0783">
        <ele>148</ele>
        <time>2022-03-06T10:17:36Z</time>
      </trkpt>
      <trkpt lat="48.55241" lon="2.07834">
        <ele>148</ele>
        <time>2022-03-06T10:17:38Z</time>
      </trkpt>
      <trkpt lat="48.5524" lon="2.07838">
        <ele>148</ele>
        <time>2022-03-06T10:17:40Z</time>
      </trkpt>
      <trkpt lat="48.55239" lon="2.07843">
        <ele>148</ele>
        <time>2022-03-06T10:17:42Z</time>
      </trkpt>
      <trkpt lat="48.55237" lon="2.07847">
        <ele>148</ele>
        <time>2022-03-06T10:17:44Z</time>
      </trkpt>
      <trkpt lat="48.55236" lon="2.07852">
        <ele>148</ele>
        <time>2022-03-06T10:17:46Z</time>
      </trkpt>
      <trkpt lat="48.55235" lon="2.07856">
        <ele>148</ele>
        <time>2022-03-06T10:17:48Z</time>
      </trkpt>
      <trkpt lat="48.55235" lon="2.07861">
        <ele>148</ele>
        <time>2022-03-06T10:17:50Z</time>
      </trkpt>
      <trkpt lat="48.55234" lon="2.07866">
        <ele>148</ele>
        <time>2022-03-06T10:17:52Z</time>
      </trkpt>
      <trkpt lat="48.55233" lon="2.0787">
        <ele>148</ele>
        <time>2022-03-06T10:17:54Z</time>
      </trkpt>
      <trkpt lat="48.55232" lon="2.07875">
        <ele>148</ele>
        <time>2022-03-06T10:17:56Z</time>
      </trkpt>
      <trkpt lat="48.55231" lon="2.07879">
        <ele>148</ele>
        <time>2022-03-06T10:17:58Z</time>
      </trkpt>
      <trkpt lat="48.5523" lon="2.07883">
        <ele>148</ele>
        <time>2022-03-06T10:18:00Z</time>
      </trkpt>
      <trkpt lat="48.55229" lon="2.07887">
        <ele>147</ele>
        <time>2022-03-06T10:18:02Z</time>
      </trkpt>
      <trkpt lat="48.55228" lon="2.07892">
        <ele>147</ele>
        <time>2022-03-06T10:18:04Z</time>
      </trkpt>
      <trkpt lat="48.55227" lon="2.07897">
        <ele>147</ele>
        <time>2022-03-06T10:18:06Z</time>
      </trkpt>
      <trkpt lat="48.55227" lon="2.07901">
        <ele>147</ele>
        <time>2022-03-06T10:18:08Z</time>
      </trkpt>
      <trkpt lat="48.55226" lon="2.07906">
        <ele>147</ele>
        <time>2022-03-06T10:18:10Z</time>
      </trkpt>
      <trkpt lat="48.55225" lon="2.0791">
        <ele>147</ele>
        <time>2022-03-06T10:18:12Z</time>
      </trkpt>
      <trkpt lat="48.55224" lon="2.07915">
        <ele>147</ele>
        <time>2022-03-06T10:18:14Z</time>
      </trkpt>
      <trkpt lat="48.55224" lon="2.07919">
        <ele>148</ele>
        <time>2022-03-06T10:18:16Z</time>
      </trkpt>
      <trkpt lat="48.55223" lon="2.07923">
        <ele>148</ele>
        <time>2022-03-06T10:18:18Z</time>
      </trkpt>
      <trkpt lat="48.55222" lon="2.07928">
        <ele>148</ele>
        <time>2022-03-06T10:18:20Z</time>
      </trkpt>
      <trkpt lat="48.55221" lon="2.07932">
        <ele>148</ele>
        <time>2022-03-06T10:18:22Z</time>
      </trkpt>
      <trkpt lat="48.5522" lon="2.07936">
        <ele>148</ele>
        <time>2022-03-06T10:18:24Z</time>
      </trkpt>
      <trkpt lat="48.55219" lon="2.07941">
        <ele>147</ele>
        <time>2022-03-06T10:18:26Z</time>
      </trkpt>
      <trkpt lat="48.55218" lon="2.07945">
        <ele>147</ele>
        <time>2022-03-06T10:18:28Z</time>
      </trkpt>
      <trkpt lat="48.55217" lon="2.07949">
        <ele>147</ele>
        <time>2022-03-06T10:18:30Z</time>
      </trkpt>
      <trkpt lat="48.55216" lon="2.07954">
        <ele>147</ele>
        <time>2022-03-06T10:18:32Z</time>
      </trkpt>
      <trkpt lat="48.55215" lon="2.07958">
        <ele>147</ele>
        <time>2022-03-06T10:18:34Z</time>
      </trkpt>
      <trkpt lat="48.55214" lon="2.07963">
        <ele>147</ele>
        <time>2022-03-06T10:18:36Z</time>
      </trkpt>
      <trkpt lat="48.55213" lon="2.07967">
        <ele>147</ele>
        <time>2022-03-06T10:18:38Z</time>
      </trkpt>
      <trkpt lat="48.55212" lon="2.07972">
        <ele>147</ele>
        <time>2022-03-06T10:18:40Z</time>
      </trkpt>
      <trkpt lat="48.55211" lon="2.07976">
        <ele>147</ele>
        <time>2022-03-06T10:18:42Z</time>
      </trkpt>
      <trkpt lat="48.5521" lon="2.07981">
        <ele>147</ele>
        <time>2022-03-06T10:18:44Z</time>
      </trkpt>
      <trkpt lat="48.55209" lon="2.07985">
        <ele>147</ele>
        <time>2022-03-06T10:18:46Z</time>
      </trkpt>
      <trkpt lat="48.55209" lon="2.07989">
        <ele>147</ele>
        <time>2022-03-06T10:18:48Z</time>
      </trkpt>
      <trkpt lat="48.55208" lon="2.07994">
        <ele>147</ele>
        <time>2022-03-06T10:18:50Z</time>
      </trkpt>
      <trkpt lat="48.55207" lon="2.07998">
        <ele>147</ele>
        <time>2022-03-06T10:18:52Z</time>
      </trkpt>
      <trkpt lat="48.55206" lon="2.08002">
        <ele>147</ele>
        <time>2022-03-06T10:18:54Z</time>
      </trkpt>
      <trkpt lat="48.55206" lon="2.08006">
        <ele>147</ele>
        <time>2022-03-06T10:18:56Z</time>
      </trkpt>
      <trkpt lat="48.55205" lon="2.0801">
        <ele>147</ele>
        <time>2022-03-06T10:18:58Z</time>
      </trkpt>
      <trkpt lat="48.55204" lon="2.08015">
        <ele>147</ele>
        <time>2022-03-06T10:19:00Z</time>
      </trkpt>
      <trkpt lat="48.55204" lon="2.08019">
        <ele>147</ele>
        <time>2022-03-06T10:19:02Z</time>
      </trkpt>
      <trkpt lat="48.55203" lon="2.08024">
        <ele>147</ele>
        <time>2022-03-06T10:19:04Z</time>
      </trkpt>
      <trkpt lat="48.55202" lon="2.08028">
        <ele>147</ele>
        <time>2022-03-06T10:19:06Z</time>
      </trkpt>
      <trkpt lat="48.55202" lon="2.08032">
        <ele>147</ele>
        <time>2022-03-06T10:19:08Z</time>
      </trkpt>
      <trkpt lat="48.55201" lon="2.08037">
        <ele>147</ele>
        <time>2022-03-06T10:19:11Z</time>
      </trkpt>
      <trkpt lat="48.552" lon="2.08042">
        <ele>147</ele>
        <time>2022-03-06T10:19:13Z</time>
      </trkpt>
      <trkpt lat="48.55199" lon="2.08046">
        <ele>147</ele>
        <time>2022-03-06T10:19:15Z</time>
      </trkpt>
      <trkpt lat="48.55199" lon="2.0805">
        <ele>147</ele>
        <time>2022-03-06T10:19:17Z</time>
      </trkpt>
      <trkpt lat="48.55198" lon="2.08055">
        <ele>147</ele>
        <time>2022-03-06T10:19:19Z</time>
      </trkpt>
      <trkpt lat="48.55197" lon="2.08059">
        <ele>147</ele>
        <time>2022-03-06T10:19:21Z</time>
      </trkpt>
      <trkpt lat="48.55196" lon="2.08062">
        <ele>147</ele>
        <time>2022-03-06T10:19:23Z</time>
      </trkpt>
      <trkpt lat="48.55195" lon="2.08066">
        <ele>147</ele>
        <time>2022-03-06T10:19:25Z</time>
      </trkpt>
      <trkpt lat="48.55194" lon="2.08071">
        <ele>147</ele>
        <time>2022-03-06T10:19:28Z</time>
      </trkpt>
      <trkpt lat="48.55193" lon="2.08076">
        <ele>147</ele>
        <time>2022-03-06T10:19:30Z</time>
      </trkpt>
      <trkpt lat="48.55193" lon="2.08081">
        <ele>147</ele>
        <time>2022-03-06T10:19:33Z</time>
      </trkpt>
      <trkpt lat="48.55192" lon="2.08086">
        <ele>147</ele>
        <time>2022-03-06T10:19:35Z</time>
      </trkpt>
      <trkpt lat="48.55192" lon="2.08091">
        <ele>147</ele>
        <time>2022-03-06T10:19:38Z</time>
      </trkpt>
      <trkpt lat="48.55192" lon="2.08096">
        <ele>147</ele>
        <time>2022-03-06T10:19:40Z</time>
      </trkpt>
      <trkpt lat="48.55191" lon="2.08101">
        <ele>147</ele>
        <time>2022-03-06T10:19:43Z</time>
      </trkpt>
      <trkpt lat="48.5519" lon="2.08106">
        <ele>147</ele>
        <time>2022-03-06T10:19:45Z</time>
      </trkpt>
      <trkpt lat="48.5519" lon="2.08111">
        <ele>147</ele>
        <time>2022-03-06T10:19:48Z</time>
      </trkpt>
      <trkpt lat="48.55188" lon="2.08116">
        <ele>147</ele>
        <time>2022-03-06T10:19:51Z</time>
      </trkpt>
      <trkpt lat="48.55185" lon="2.08118">
        <ele>147</ele>
        <time>2022-03-06T10:19:54Z</time>
      </trkpt>
      <trkpt lat="48.55181" lon="2.08119">
        <ele>147</ele>
        <time>2022-03-06T10:19:57Z</time>
      </trkpt>
      <trkpt lat="48.55178" lon="2.08119">
        <ele>147</ele>
        <time>2022-03-06T10:20:00Z</time>
      </trkpt>
      <trkpt lat="48.55174" lon="2.0812">
        <ele>146</ele>
        <time>2022-03-06T10:20:03Z</time>
      </trkpt>
      <trkpt lat="48.55171" lon="2.0812">
        <ele>146</ele>
        <time>2022-03-06T10:20:06Z</time>
      </trkpt>
      <trkpt lat="48.55167" lon="2.0812">
        <ele>146</ele>
        <time>2022-03-06T10:20:09Z</time>
      </trkpt>
      <trkpt lat="48.55163" lon="2.0812">
        <ele>146</ele>
        <time>2022-03-06T10:20:12Z</time>
      </trkpt>
      <trkpt lat="48.55159" lon="2.0812">
        <ele>146</ele>
        <time>2022-03-06T10:20:15Z</time>
      </trkpt>
      <trkpt lat="48.55156" lon="2.0812">
        <ele>146</ele>
        <time>2022-03-06T10:20:17Z</time>
      </trkpt>
      <trkpt lat="48.55153" lon="2.0812">
        <ele>146</ele>
        <time>2022-03-06T10:20:19Z</time>
      </trkpt>
      <trkpt lat="48.5515" lon="2.0812">
        <ele>146</ele>
        <time>2022-03-06T10:20:21Z</time>
      </trkpt>
      <trkpt lat="48.55146" lon="2.0812">
        <ele>146</ele>
        <time>2022-03-06T10:20:24Z</time>
      </trkpt>
      <trkpt lat="48.55143" lon="2.0812">
        <ele>145</ele>
        <time>2022-03-06T10:20:27Z</time>
      </trkpt>
      <trkpt lat="48.5514" lon="2.0812">
        <ele>145</ele>
        <time>2022-03-06T10:20:29Z</time>
      </trkpt>
      <trkpt lat="48.55136" lon="2.0812">
        <ele>145</ele>
        <time>2022-03-06T10:20:32Z</time>
      </trkpt>
      <trkpt lat="48.55132" lon="2.08121">
        <ele>145</ele>
        <time>2022-03-06T10:20:35Z</time>
      </trkpt>
      <trkpt lat="48.55129" lon="2.08121">
        <ele>144</ele>
        <time>2022-03-06T10:20:37Z</time>
      </trkpt>
      <trkpt lat="48.55126" lon="2.08121">
        <ele>144</ele>
        <time>2022-03-06T10:20:39Z</time>
      </trkpt>
      <trkpt lat="48.55123" lon="2.08121">
        <ele>144</ele>
        <time>2022-03-06T10:20:41Z</time>
      </trkpt>
      <trkpt lat="48.5512" lon="2.08121">
        <ele>144</ele>
        <time>2022-03-06T10:20:43Z</time>
      </trkpt>
      <trkpt lat="48.55117" lon="2.08122">
        <ele>144</ele>
        <time>2022-03-06T10:20:45Z</time>
      </trkpt>
      <trkpt lat="48.55114" lon="2.08122">
        <ele>144</ele>
        <time>2022-03-06T10:20:47Z</time>
      </trkpt>
      <trkpt lat="48.55111" lon="2.08123">
        <ele>144</ele>
        <time>2022-03-06T10:20:49Z</time>
      </trkpt>
      <trkpt lat="48.55108" lon="2.08122">
        <ele>144</ele>
        <time>2022-03-06T10:20:51Z</time>
      </trkpt>
      <trkpt lat="48.55105" lon="2.08123">
        <ele>144</ele>
        <time>2022-03-06T10:20:53Z</time>
      </trkpt>
      <trkpt lat="48.55102" lon="2.08123">
        <ele>143</ele>
        <time>2022-03-06T10:20:55Z</time>
      </trkpt>
      <trkpt lat="48.55098" lon="2.08123">
        <ele>143</ele>
        <time>2022-03-06T10:20:57Z</time>
      </trkpt>
      <trkpt lat="48.55095" lon="2.08123">
        <ele>143</ele>
        <time>2022-03-06T10:20:59Z</time>
      </trkpt>
      <trkpt lat="48.55091" lon="2.08124">
        <ele>143</ele>
        <time>2022-03-06T10:21:02Z</time>
      </trkpt>
      <trkpt lat="48.55088" lon="2.08124">
        <ele>143</ele>
        <time>2022-03-06T10:21:04Z</time>
      </trkpt>
      <trkpt lat="48.55085" lon="2.08124">
        <ele>143</ele>
        <time>2022-03-06T10:21:06Z</time>
      </trkpt>
      <trkpt lat="48.55082" lon="2.08124">
        <ele>143</ele>
        <time>2022-03-06T10:21:08Z</time>
      </trkpt>
      <trkpt lat="48.55079" lon="2.08124">
        <ele>143</ele>
        <time>2022-03-06T10:21:10Z</time>
      </trkpt>
      <trkpt lat="48.55076" lon="2.08124">
        <ele>143</ele>
        <time>2022-03-06T10:21:12Z</time>
      </trkpt>
      <trkpt lat="48.55073" lon="2.08124">
        <ele>143</ele>
        <time>2022-03-06T10:21:14Z</time>
      </trkpt>
      <trkpt lat="48.55069" lon="2.08125">
        <ele>143</ele>
        <time>2022-03-06T10:21:16Z</time>
      </trkpt>
      <trkpt lat="48.55066" lon="2.08124">
        <ele>143</ele>
        <time>2022-03-06T10:21:18Z</time>
      </trkpt>
      <trkpt lat="48.55062" lon="2.08124">
        <ele>143</ele>
        <time>2022-03-06T10:21:20Z</time>
      </trkpt>
      <trkpt lat="48.55059" lon="2.08124">
        <ele>143</ele>
        <time>2022-03-06T10:21:22Z</time>
      </trkpt>
      <trkpt lat="48.55056" lon="2.08125">
        <ele>143</ele>
        <time>2022-03-06T10:21:24Z</time>
      </trkpt>
      <trkpt lat="48.55053" lon="2.08126">
        <ele>143</ele>
        <time>2022-03-06T10:21:26Z</time>
      </trkpt>
      <trkpt lat="48.55049" lon="2.08126">
        <ele>143</ele>
        <time>2022-03-06T10:21:28Z</time>
      </trkpt>
      <trkpt lat="48.55046" lon="2.08126">
        <ele>143</ele>
        <time>2022-03-06T10:21:30Z</time>
      </trkpt>
      <trkpt lat="48.55043" lon="2.08127">
        <ele>143</ele>
        <time>2022-03-06T10:21:32Z</time>
      </trkpt>
      <trkpt lat="48.5504" lon="2.08127">
        <ele>143</ele>
        <time>2022-03-06T10:21:34Z</time>
      </trkpt>
      <trkpt lat="48.55037" lon="2.08127">
        <ele>143</ele>
        <time>2022-03-06T10:21:36Z</time>
      </trkpt>
      <trkpt lat="48.55033" lon="2.08127">
        <ele>143</ele>
        <time>2022-03-06T10:21:38Z</time>
      </trkpt>
      <trkpt lat="48.5503" lon="2.08127">
        <ele>143</ele>
        <time>2022-03-06T10:21:40Z</time>
      </trkpt>
      <trkpt lat="48.55027" lon="2.08127">
        <ele>144</ele>
        <time>2022-03-06T10:21:42Z</time>
      </trkpt>
      <trkpt lat="48.55024" lon="2.08126">
        <ele>144</ele>
        <time>2022-03-06T10:21:44Z</time>
      </trkpt>
      <trkpt lat="48.55021" lon="2.08127">
        <ele>144</ele>
        <time>2022-03-06T10:21:46Z</time>
      </trkpt>
      <trkpt lat="48.55018" lon="2.08127">
        <ele>144</ele>
        <time>2022-03-06T10:21:48Z</time>
      </trkpt>
      <trkpt lat="48.55015" lon="2.08127">
        <ele>144</ele>
        <time>2022-03-06T10:21:50Z</time>
      </trkpt>
      <trkpt lat="48.55012" lon="2.08127">
        <ele>144</ele>
        <time>2022-03-06T10:21:52Z</time>
      </trkpt>
      <trkpt lat="48.55009" lon="2.08127">
        <ele>144</ele>
        <time>2022-03-06T10:21:54Z</time>
      </trkpt>
      <trkpt lat="48.55005" lon="2.08128">
        <ele>144</ele>
        <time>2022-03-06T10:21:56Z</time>
      </trkpt>
      <trkpt lat="48.55002" lon="2.08128">
        <ele>144</ele>
        <time>2022-03-06T10:21:58Z</time>
      </trkpt>
      <trkpt lat="48.54999" lon="2.08128">
        <ele>144</ele>
        <time>2022-03-06T10:22:00Z</time>
      </trkpt>
      <trkpt lat="48.54996" lon="2.08128">
        <ele>144</ele>
        <time>2022-03-06T10:22:02Z</time>
      </trkpt>
      <trkpt lat="48.54993" lon="2.08128">
        <ele>144</ele>
        <time>2022-03-06T10:22:04Z</time>
      </trkpt>
      <trkpt lat="48.5499" lon="2.08128">
        <ele>144</ele>
        <time>2022-03-06T10:22:06Z</time>
      </trkpt>
      <trkpt lat="48.54987" lon="2.08128">
        <ele>144</ele>
        <time>2022-03-06T10:22:08Z</time>
      </trkpt>
      <trkpt lat="48.54984" lon="2.08128">
        <ele>144</ele>
        <time>2022-03-06T10:22:10Z</time>
      </trkpt>
      <trkpt lat="48.5498" lon="2.08129">
        <ele>144</ele>
        <time>2022-03-06T10:22:12Z</time>
      </trkpt>
      <trkpt lat="48.54977" lon="2.08129">
        <ele>144</ele>
        <time>2022-03-06T10:22:14Z</time>
      </trkpt>
      <trkpt lat="48.54974" lon="2.0813">
        <ele>144</ele>
        <time>2022-03-06T10:22:16Z</time>
      </trkpt>
      <trkpt lat="48.54971" lon="2.0813">
        <ele>144</ele>
        <time>2022-03-06T10:22:18Z</time>
      </trkpt>
      <trkpt lat="48.54968" lon="2.0813">
        <ele>144</ele>
        <time>2022-03-06T10:22:20Z</time>
      </trkpt>
      <trkpt lat="48.54965" lon="2.0813">
        <ele>144</ele>
        <time>2022-03-06T10:22:22Z</time>
      </trkpt>
      <trkpt lat="48.54961" lon="2.0813">
        <ele>144</ele>
        <time>2022-03-06T10:22:24Z</time>
      </trkpt>
      <trkpt lat="48.54958" lon="2.0813">
        <ele>144</ele>
        <time>2022-03-06T10:22:26Z</time>
      </trkpt>
      <trkpt lat="48.54955" lon="2.08131">
        <ele>144</ele>
        <time>2022-03-06T10:22:28Z</time>
      </trkpt>
      <trkpt lat="48.54952" lon="2.0813">
        <ele>144</ele>
        <time>2022-03-06T10:22:30Z</time>
      </trkpt>
      <trkpt lat="48.54949" lon="2.0813">
        <ele>144</ele>
        <time>2022-03-06T10:22:32Z</time>
      </trkpt>
      <trkpt lat="48.54946" lon="2.0813">
        <ele>145</ele>
        <time>2022-03-06T10:22:34Z</time>
      </trkpt>
      <trkpt lat="48.54943" lon="2.0813">
        <ele>145</ele>
        <time>2022-03-06T10:22:36Z</time>
      </trkpt>
      <trkpt lat="48.5494" lon="2.0813">
        <ele>145</ele>
        <time>2022-03-06T10:22:38Z</time>
      </trkpt>
      <trkpt lat="48.54937" lon="2.08131">
        <ele>145</ele>
        <time>2022-03-06T10:22:40Z</time>
      </trkpt>
      <trkpt lat="48.54935" lon="2.0813">
        <ele>145</ele>
        <time>2022-03-06T10:22:42Z</time>
      </trkpt>
      <trkpt lat="48.54932" lon="2.08131">
        <ele>145</ele>
        <time>2022-03-06T10:22:44Z</time>
      </trkpt>
      <trkpt lat="48.54929" lon="2.08131">
        <ele>145</ele>
        <time>2022-03-06T10:22:46Z</time>
      </trkpt>
      <trkpt lat="48.54926" lon="2.08131">
        <ele>145</ele>
        <time>2022-03-06T10:22:48Z</time>
      </trkpt>
      <trkpt lat="48.54923" lon="2.08131">
        <ele>145</ele>
        <time>2022-03-06T10:22:50Z</time>
      </trkpt>
      <trkpt lat="48.5492" lon="2.08131">
        <ele>145</ele>
        <time>2022-03-06T10:22:52Z</time>
      </trkpt>
      <trkpt lat="48.54917" lon="2.08131">
        <ele>145</ele>
        <time>2022-03-06T10:22:54Z</time>
      </trkpt>
      <trkpt lat="48.54913" lon="2.08131">
        <ele>145</ele>
        <time>2022-03-06T10:22:56Z</time>
      </trkpt>
      <trkpt lat="48.54911" lon="2.08131">
        <ele>145</ele>
        <time>2022-03-06T10:22:58Z</time>
      </trkpt>
      <trkpt lat="48.54907" lon="2.08131">
        <ele>145</ele>
        <time>2022-03-06T10:23:00Z</time>
      </trkpt>
      <trkpt lat="48.54904" lon="2.08131">
        <ele>145</ele>
        <time>2022-03-06T10:23:02Z</time>
      </trkpt>
      <trkpt lat="48.54901" lon="2.08131">
        <ele>145</ele>
        <time>2022-03-06T10:23:04Z</time>
      </trkpt>
      <trkpt lat="48.54898" lon="2.08132">
        <ele>145</ele>
        <time>2022-03-06T10:23:06Z</time>
      </trkpt>
      <trkpt lat="48.54895" lon="2.08132">
        <ele>145</ele>
        <time>2022-03-06T10:23:08Z</time>
      </trkpt>
      <trkpt lat="48.54893" lon="2.08132">
        <ele>145</ele>
        <time>2022-03-06T10:23:10Z</time>
      </trkpt>
      <trkpt lat="48.5489" lon="2.08132">
        <ele>145</ele>
        <time>2022-03-06T10:23:12Z</time>
      </trkpt>
      <trkpt lat="48.54887" lon="2.08133">
        <ele>145</ele>
        <time>2022-03-06T10:23:14Z</time>
      </trkpt>
      <trkpt lat="48.54884" lon="2.08133">
        <ele>145</ele>
        <time>2022-03-06T10:23:16Z</time>
      </trkpt>
      <trkpt lat="48.54881" lon="2.08133">
        <ele>145</ele>
        <time>2022-03-06T10:23:18Z</time>
      </trkpt>
      <trkpt lat="48.54878" lon="2.08133">
        <ele>145</ele>
        <time>2022-03-06T10:23:20Z</time>
      </trkpt>
      <trkpt lat="48.54875" lon="2.08133">
        <ele>145</ele>
        <time>2022-03-06T10:23:22Z</time>
      </trkpt>
      <trkpt lat="48.54872" lon="2.08133">
        <ele>145</ele>
        <time>2022-03-06T10:23:24Z</time>
      </trkpt>
      <trkpt lat="48.54869" lon="2.08133">
        <ele>145</ele>
        <time>2022-03-06T10:23:26Z</time>
      </trkpt>
      <trkpt lat="48.54866" lon="2.08133">
        <ele>145</ele>
        <time>2022-03-06T10:23:28Z</time>
      </trkpt>
      <trkpt lat="48.54863" lon="2.08134">
        <ele>145</ele>
        <time>2022-03-06T10:23:30Z</time>
      </trkpt>
      <trkpt lat="48.5486" lon="2.08134">
        <ele>145</ele>
        <time>2022-03-06T10:23:32Z</time>
      </trkpt>
      <trkpt lat="48.54857" lon="2.08134">
        <ele>146</ele>
        <time>2022-03-06T10:23:34Z</time>
      </trkpt>
      <trkpt lat="48.54855" lon="2.08134">
        <ele>146</ele>
        <time>2022-03-06T10:23:36Z</time>
      </trkpt>
      <trkpt lat="48.54852" lon="2.08135">
        <ele>146</ele>
        <time>2022-03-06T10:23:38Z</time>
      </trkpt>
      <trkpt lat="48.54849" lon="2.08135">
        <ele>146</ele>
        <time>2022-03-06T10:23:40Z</time>
      </trkpt>
      <trkpt lat="48.54846" lon="2.08135">
        <ele>146</ele>
        <time>2022-03-06T10:23:42Z</time>
      </trkpt>
      <trkpt lat="48.54843" lon="2.08135">
        <ele>146</ele>
        <time>2022-03-06T10:23:44Z</time>
      </trkpt>
      <trkpt lat="48.5484" lon="2.08135">
        <ele>146</ele>
        <time>2022-03-06T10:23:46Z</time>
      </trkpt>
      <trkpt lat="48.54837" lon="2.08136">
        <ele>146</ele>
        <time>2022-03-06T10:23:48Z</time>
      </trkpt>
      <trkpt lat="48.54834" lon="2.08136">
        <ele>146</ele>
        <time>2022-03-06T10:23:50Z</time>
      </trkpt>
      <trkpt lat="48.54832" lon="2.08136">
        <ele>146</ele>
        <time>2022-03-06T10:23:52Z</time>
      </trkpt>
      <trkpt lat="48.54829" lon="2.08136">
        <ele>146</ele>
        <time>2022-03-06T10:23:54Z</time>
      </trkpt>
      <trkpt lat="48.54826" lon="2.08136">
        <ele>146</ele>
        <time>2022-03-06T10:23:56Z</time>
      </trkpt>
      <trkpt lat="48.54823" lon="2.08136">
        <ele>146</ele>
        <time>2022-03-06T10:23:58Z</time>
      </trkpt>
      <trkpt lat="48.5482" lon="2.08136">
        <ele>146</ele>
        <time>2022-03-06T10:24:00Z</time>
      </trkpt>
      <trkpt lat="48.54817" lon="2.08136">
        <ele>146</ele>
        <time>2022-03-06T10:24:02Z</time>
      </trkpt>
      <trkpt lat="48.54814" lon="2.08136">
        <ele>146</ele>
        <time>2022-03-06T10:24:04Z</time>
      </trkpt>
      <trkpt lat="48.54812" lon="2.08137">
        <ele>146</ele>
        <time>2022-03-06T10:24:06Z</time>
      </trkpt>
      <trkpt lat="48.54809" lon="2.08137">
        <ele>146</ele>
        <time>2022-03-06T10:24:08Z</time>
      </trkpt>
      <trkpt lat="48.54806" lon="2.08137">
        <ele>146</ele>
        <time>2022-03-06T10:24:10Z</time>
      </trkpt>
      <trkpt lat="48.54802" lon="2.08137">
        <ele>146</ele>
        <time>2022-03-06T10:24:13Z</time>
      </trkpt>
      <trkpt lat="48.54799" lon="2.08137">
        <ele>146</ele>
        <time>2022-03-06T10:24:15Z</time>
      </trkpt>
      <trkpt lat="48.54796" lon="2.08137">
        <ele>146</ele>
        <time>2022-03-06T10:24:17Z</time>
      </trkpt>
      <trkpt lat="48.54793" lon="2.08137">
        <ele>146</ele>
        <time>2022-03-06T10:24:19Z</time>
      </trkpt>
      <trkpt lat="48.5479" lon="2.08137">
        <ele>146</ele>
        <time>2022-03-06T10:24:21Z</time>
      </trkpt>
      <trkpt lat="48.54787" lon="2.08137">
        <ele>146</ele>
        <time>2022-03-06T10:24:23Z</time>
      </trkpt>
      <trkpt lat="48.54784" lon="2.08138">
        <ele>146</ele>
        <time>2022-03-06T10:24:25Z</time>
      </trkpt>
      <trkpt lat="48.54781" lon="2.08138">
        <ele>146</ele>
        <time>2022-03-06T10:24:27Z</time>
      </trkpt>
      <trkpt lat="48.54778" lon="2.08138">
        <ele>146</ele>
        <time>2022-03-06T10:24:29Z</time>
      </trkpt>
      <trkpt lat="48.54774" lon="2.08138">
        <ele>146</ele>
        <time>2022-03-06T10:24:32Z</time>
      </trkpt>
      <trkpt lat="48.54771" lon="2.08138">
        <ele>146</ele>
        <time>2022-03-06T10:24:34Z</time>
      </trkpt>
      <trkpt lat="48.54768" lon="2.08139">
        <ele>146</ele>
        <time>2022-03-06T10:24:36Z</time>
      </trkpt>
      <trkpt lat="48.54765" lon="2.08139">
        <ele>146</ele>
        <time>2022-03-06T10:24:38Z</time>
      </trkpt>
      <trkpt lat="48.54762" lon="2.08139">
        <ele>147</ele>
        <time>2022-03-06T10:24:40Z</time>
      </trkpt>
      <trkpt lat="48.5476" lon="2.08139">
        <ele>147</ele>
        <time>2022-03-06T10:24:42Z</time>
      </trkpt>
      <trkpt lat="48.54757" lon="2.08139">
        <ele>147</ele>
        <time>2022-03-06T10:24:44Z</time>
      </trkpt>
      <trkpt lat="48.54754" lon="2.08139">
        <ele>147</ele>
        <time>2022-03-06T10:24:46Z</time>
      </trkpt>
      <trkpt lat="48.54751" lon="2.08139">
        <ele>147</ele>
        <time>2022-03-06T10:24:48Z</time>
      </trkpt>
      <trkpt lat="48.54748" lon="2.08139">
        <ele>147</ele>
        <time>2022-03-06T10:24:50Z</time>
      </trkpt>
      <trkpt lat="48.54745" lon="2.08139">
        <ele>147</ele>
        <time>2022-03-06T10:24:52Z</time>
      </trkpt>
      <trkpt lat="48.54742" lon="2.08139">
        <ele>147</ele>
        <time>2022-03-06T10:24:54Z</time>
      </trkpt>
      <trkpt lat="48.54739" lon="2.08139">
        <ele>147</ele>
        <time>2022-03-06T10:24:56Z</time>
      </trkpt>
      <trkpt lat="48.54736" lon="2.0814">
        <ele>147</ele>
        <time>2022-03-06T10:24:58Z</time>
      </trkpt>
      <trkpt lat="48.54733" lon="2.08139">
        <ele>147</ele>
        <time>2022-03-06T10:25:00Z</time>
      </trkpt>
      <trkpt lat="48.5473" lon="2.08139">
        <ele>147</ele>
        <time>2022-03-06T10:25:02Z</time>
      </trkpt>
      <trkpt lat="48.54728" lon="2.0814">
        <ele>148</ele>
        <time>2022-03-06T10:25:04Z</time>
      </trkpt>
      <trkpt lat="48.54725" lon="2.0814">
        <ele>148</ele>
        <time>2022-03-06T10:25:06Z</time>
      </trkpt>
      <trkpt lat="48.54722" lon="2.0814">
        <ele>148</ele>
        <time>2022-03-06T10:25:08Z</time>
      </trkpt>
      <trkpt lat="48.54719" lon="2.0814">
        <ele>148</ele>
        <time>2022-03-06T10:25:10Z</time>
      </trkpt>
      <trkpt lat="48.54716" lon="2.0814">
        <ele>148</ele>
        <time>2022-03-06T10:25:12Z</time>
      </trkpt>
      <trkpt lat="48.54712" lon="2.0814">
        <ele>148</ele>
        <time>2022-03-06T10:25:15Z</time>
      </trkpt>
      <trkpt lat="48.54709" lon="2.0814">
        <ele>148</ele>
        <time>2022-03-06T10:25:17Z</time>
      </trkpt>
      <trkpt lat="48.54706" lon="2.0814">
        <ele>148</ele>
        <time>2022-03-06T10:25:19Z</time>
      </trkpt>
      <trkpt lat="48.54703" lon="2.0814">
        <ele>148</ele>
        <time>2022-03-06T10:25:21Z</time>
      </trkpt>
      <trkpt lat="48.547" lon="2.0814">
        <ele>148</ele>
        <time>2022-03-06T10:25:23Z</time>
      </trkpt>
      <trkpt lat="48.54698" lon="2.0814">
        <ele>148</ele>
        <time>2022-03-06T10:25:25Z</time>
      </trkpt>
      <trkpt lat="48.54695" lon="2.08141">
        <ele>148</ele>
        <time>2022-03-06T10:25:27Z</time>
      </trkpt>
      <trkpt lat="48.54692" lon="2.08141">
        <ele>148</ele>
        <time>2022-03-06T10:25:29Z</time>
      </trkpt>
      <trkpt lat="48.54689" lon="2.08141">
        <ele>148</ele>
        <time>2022-03-06T10:25:31Z</time>
      </trkpt>
      <trkpt lat="48.54686" lon="2.08141">
        <ele>148</ele>
        <time>2022-03-06T10:25:33Z</time>
      </trkpt>
      <trkpt lat="48.54683" lon="2.08141">
        <ele>149</ele>
        <time>2022-03-06T10:25:35Z</time>
      </trkpt>
      <trkpt lat="48.5468" lon="2.08141">
        <ele>149</ele>
        <time>2022-03-06T10:25:37Z</time>
      </trkpt>
      <trkpt lat="48.54677" lon="2.08142">
        <ele>149</ele>
        <time>2022-03-06T10:25:39Z</time>
      </trkpt>
      <trkpt lat="48.54674" lon="2.08142">
        <ele>149</ele>
        <time>2022-03-06T10:25:41Z</time>
      </trkpt>
      <trkpt lat="48.54672" lon="2.08142">
        <ele>149</ele>
        <time>2022-03-06T10:25:43Z</time>
      </trkpt>
      <trkpt lat="48.54669" lon="2.08142">
        <ele>149</ele>
        <time>2022-03-06T10:25:45Z</time>
      </trkpt>
      <trkpt lat="48.54666" lon="2.08142">
        <ele>149</ele>
        <time>2022-03-06T10:25:47Z</time>
      </trkpt>
      <trkpt lat="48.54663" lon="2.08142">
        <ele>149</ele>
        <time>2022-03-06T10:25:49Z</time>
      </trkpt>
      <trkpt lat="48.54659" lon="2.08142">
        <ele>149</ele>
        <time>2022-03-06T10:25:52Z</time>
      </trkpt>
      <trkpt lat="48.54656" lon="2.08142">
        <ele>149</ele>
        <time>2022-03-06T10:25:54Z</time>
      </trkpt>
      <trkpt lat="48.54654" lon="2.08142">
        <ele>149</ele>
        <time>2022-03-06T10:25:56Z</time>
      </trkpt>
      <trkpt lat="48.54651" lon="2.08142">
        <ele>150</ele>
        <time>2022-03-06T10:25:58Z</time>
      </trkpt>
      <trkpt lat="48.54648" lon="2.08142">
        <ele>150</ele>
        <time>2022-03-06T10:26:00Z</time>
      </trkpt>
      <trkpt lat="48.54644" lon="2.08143">
        <ele>150</ele>
        <time>2022-03-06T10:26:02Z</time>
      </trkpt>
      <trkpt lat="48.54641" lon="2.08143">
        <ele>150</ele>
        <time>2022-03-06T10:26:04Z</time>
      </trkpt>
      <trkpt lat="48.54638" lon="2.08143">
        <ele>150</ele>
        <time>2022-03-06T10:26:06Z</time>
      </trkpt>
      <trkpt lat="48.54635" lon="2.08143">
        <ele>150</ele>
        <time>2022-03-06T10:26:08Z</time>
      </trkpt>
      <trkpt lat="48.54632" lon="2.08144">
        <ele>150</ele>
        <time>2022-03-06T10:26:10Z</time>
      </trkpt>
      <trkpt lat="48.54629" lon="2.08144">
        <ele>150</ele>
        <time>2022-03-06T10:26:12Z</time>
      </trkpt>
      <trkpt lat="48.54626" lon="2.08144">
        <ele>150</ele>
        <time>2022-03-06T10:26:14Z</time>
      </trkpt>
      <trkpt lat="48.54623" lon="2.08144">
        <ele>150</ele>
        <time>2022-03-06T10:26:16Z</time>
      </trkpt>
      <trkpt lat="48.54621" lon="2.08144">
        <ele>150</ele>
        <time>2022-03-06T10:26:18Z</time>
      </trkpt>
      <trkpt lat="48.54617" lon="2.08144">
        <ele>150</ele>
        <time>2022-03-06T10:26:21Z</time>
      </trkpt>
      <trkpt lat="48.54614" lon="2.08144">
        <ele>150</ele>
        <time>2022-03-06T10:26:23Z</time>
      </trkpt>
      <trkpt lat="48.5461" lon="2.08144">
        <ele>150</ele>
        <time>2022-03-06T10:26:26Z</time>
      </trkpt>
      <trkpt lat="48.54607" lon="2.08144">
        <ele>150</ele>
        <time>2022-03-06T10:26:28Z</time>
      </trkpt>
      <trkpt lat="48.54604" lon="2.08144">
        <ele>150</ele>
        <time>2022-03-06T10:26:30Z</time>
      </trkpt>
      <trkpt lat="48.54601" lon="2.08144">
        <ele>150</ele>
        <time>2022-03-06T10:26:32Z</time>
      </trkpt>
      <trkpt lat="48.54597" lon="2.08144">
        <ele>150</ele>
        <time>2022-03-06T10:26:34Z</time>
      </trkpt>
      <trkpt lat="48.54594" lon="2.08145">
        <ele>150</ele>
        <time>2022-03-06T10:26:36Z</time>
      </trkpt>
      <trkpt lat="48.54591" lon="2.08145">
        <ele>150</ele>
        <time>2022-03-06T10:26:38Z</time>
      </trkpt>
      <trkpt lat="48.54588" lon="2.08145">
        <ele>150</ele>
        <time>2022-03-06T10:26:40Z</time>
      </trkpt>
      <trkpt lat="48.54585" lon="2.08145">
        <ele>150</ele>
        <time>2022-03-06T10:26:42Z</time>
      </trkpt>
      <trkpt lat="48.54582" lon="2.08145">
        <ele>150</ele>
        <time>2022-03-06T10:26:44Z</time>
      </trkpt>
      <trkpt lat="48.54579" lon="2.08145">
        <ele>150</ele>
        <time>2022-03-06T10:26:46Z</time>
      </trkpt>
      <trkpt lat="48.54576" lon="2.08145">
        <ele>150</ele>
        <time>2022-03-06T10:26:48Z</time>
      </trkpt>
      <trkpt lat="48.54574" lon="2.08145">
        <ele>150</ele>
        <time>2022-03-06T10:26:50Z</time>
      </trkpt>
      <trkpt lat="48.54571" lon="2.08145">
        <ele>150</ele>
        <time>2022-03-06T10:26:52Z</time>
      </trkpt>
      <trkpt lat="48.54568" lon="2.08145">
        <ele>150</ele>
        <time>2022-03-06T10:26:54Z</time>
      </trkpt>
      <trkpt lat="48.54564" lon="2.08146">
        <ele>150</ele>
        <time>2022-03-06T10:26:57Z</time>
      </trkpt>
      <trkpt lat="48.54561" lon="2.08146">
        <ele>150</ele>
        <time>2022-03-06T10:26:59Z</time>
      </trkpt>
      <trkpt lat="48.54558" lon="2.08146">
        <ele>150</ele>
        <time>2022-03-06T10:27:01Z</time>
      </trkpt>
      <trkpt lat="48.54555" lon="2.08146">
        <ele>150</ele>
        <time>2022-03-06T10:27:03Z</time>
      </trkpt>
      <trkpt lat="48.54551" lon="2.08146">
        <ele>150</ele>
        <time>2022-03-06T10:27:05Z</time>
      </trkpt>
      <trkpt lat="48.54548" lon="2.08146">
        <ele>150</ele>
        <time>2022-03-06T10:27:07Z</time>
      </trkpt>
      <trkpt lat="48.54546" lon="2.08146">
        <ele>150</ele>
        <time>2022-03-06T10:27:09Z</time>
      </trkpt>
      <trkpt lat="48.54543" lon="2.08146">
        <ele>151</ele>
        <time>2022-03-06T10:27:11Z</time>
      </trkpt>
      <trkpt lat="48.54539" lon="2.08146">
        <ele>151</ele>
        <time>2022-03-06T10:27:14Z</time>
      </trkpt>
      <trkpt lat="48.54536" lon="2.08146">
        <ele>151</ele>
        <time>2022-03-06T10:27:17Z</time>
      </trkpt>
      <trkpt lat="48.54532" lon="2.08146">
        <ele>151</ele>
        <time>2022-03-06T10:27:20Z</time>
      </trkpt>
      <trkpt lat="48.54528" lon="2.08146">
        <ele>151</ele>
        <time>2022-03-06T10:27:23Z</time>
      </trkpt>
      <trkpt lat="48.54525" lon="2.08146">
        <ele>151</ele>
        <time>2022-03-06T10:27:25Z</time>
      </trkpt>
      <trkpt lat="48.54522" lon="2.08146">
        <ele>151</ele>
        <time>2022-03-06T10:27:27Z</time>
      </trkpt>
      <trkpt lat="48.54518" lon="2.08146">
        <ele>151</ele>
        <time>2022-03-06T10:27:30Z</time>
      </trkpt>
      <trkpt lat="48.54515" lon="2.08147">
        <ele>151</ele>
        <time>2022-03-06T10:27:33Z</time>
      </trkpt>
      <trkpt lat="48.54511" lon="2.08147">
        <ele>151</ele>
        <time>2022-03-06T10:27:36Z</time>
      </trkpt>
      <trkpt lat="48.54507" lon="2.08147">
        <ele>151</ele>
        <time>2022-03-06T10:27:39Z</time>
      </trkpt>
      <trkpt lat="48.54503" lon="2.08146">
        <ele>151</ele>
        <time>2022-03-06T10:27:42Z</time>
      </trkpt>
      <trkpt lat="48.545" lon="2.08146">
        <ele>151</ele>
        <time>2022-03-06T10:27:45Z</time>
      </trkpt>
      <trkpt lat="48.54496" lon="2.08146">
        <ele>152</ele>
        <time>2022-03-06T10:27:49Z</time>
      </trkpt>
      <trkpt lat="48.54493" lon="2.08148">
        <ele>152</ele>
        <time>2022-03-06T10:27:51Z</time>
      </trkpt>
      <trkpt lat="48.54491" lon="2.08152">
        <ele>151</ele>
        <time>2022-03-06T10:27:54Z</time>
      </trkpt>
      <trkpt lat="48.54492" lon="2.08156">
        <ele>151</ele>
        <time>2022-03-06T10:27:56Z</time>
      </trkpt>
      <trkpt lat="48.54492" lon="2.08161">
        <ele>151</ele>
        <time>2022-03-06T10:27:59Z</time>
      </trkpt>
      <trkpt lat="48.54493" lon="2.08166">
        <ele>151</ele>
        <time>2022-03-06T10:28:01Z</time>
      </trkpt>
      <trkpt lat="48.54494" lon="2.0817">
        <ele>151</ele>
        <time>2022-03-06T10:28:03Z</time>
      </trkpt>
      <trkpt lat="48.54495" lon="2.08175">
        <ele>150</ele>
        <time>2022-03-06T10:28:05Z</time>
      </trkpt>
      <trkpt lat="48.54496" lon="2.08179">
        <ele>150</ele>
        <time>2022-03-06T10:28:07Z</time>
      </trkpt>
      <trkpt lat="48.54497" lon="2.08183">
        <ele>150</ele>
        <time>2022-03-06T10:28:09Z</time>
      </trkpt>
      <trkpt lat="48.54498" lon="2.08187">
        <ele>150</ele>
        <time>2022-03-06T10:28:11Z</time>
      </trkpt>
      <trkpt lat="48.54499" lon="2.08191">
        <ele>150</ele>
        <time>2022-03-06T10:28:13Z</time>
      </trkpt>
      <trkpt lat="48.545" lon="2.08196">
        <ele>150</ele>
        <time>2022-03-06T10:28:15Z</time>
      </trkpt>
      <trkpt lat="48.54501" lon="2.082">
        <ele>150</ele>
        <time>2022-03-06T10:28:17Z</time>
      </trkpt>
      <trkpt lat="48.54502" lon="2.08205">
        <ele>150</ele>
        <time>2022-03-06T10:28:19Z</time>
      </trkpt>
      <trkpt lat="48.54502" lon="2.08209">
        <ele>150</ele>
        <time>2022-03-06T10:28:21Z</time>
      </trkpt>
      <trkpt lat="48.54503" lon="2.08213">
        <ele>150</ele>
        <time>2022-03-06T10:28:23Z</time>
      </trkpt>
      <trkpt lat="48.54503" lon="2.08219">
        <ele>150</ele>
        <time>2022-03-06T10:28:26Z</time>
      </trkpt>
      <trkpt lat="48.54504" lon="2.08224">
        <ele>150</ele>
        <time>2022-03-06T10:28:28Z</time>
      </trkpt>
      <trkpt lat="48.54505" lon="2.08229">
        <ele>150</ele>
        <time>2022-03-06T10:28:30Z</time>
      </trkpt>
      <trkpt lat="48.54506" lon="2.08234">
        <ele>150</ele>
        <time>2022-03-06T10:28:32Z</time>
      </trkpt>
      <trkpt lat="48.54507" lon="2.08238">
        <ele>150</ele>
        <time>2022-03-06T10:28:34Z</time>
      </trkpt>
      <trkpt lat="48.54508" lon="2.08243">
        <ele>150</ele>
        <time>2022-03-06T10:28:36Z</time>
      </trkpt>
      <trkpt lat="48.5451" lon="2.08247">
        <ele>150</ele>
        <time>2022-03-06T10:28:38Z</time>
      </trkpt>
      <trkpt lat="48.54511" lon="2.08252">
        <ele>150</ele>
        <time>2022-03-06T10:28:40Z</time>
      </trkpt>
      <trkpt lat="48.54511" lon="2.08256">
        <ele>150</ele>
        <time>2022-03-06T10:28:42Z</time>
      </trkpt>
      <trkpt lat="48.54512" lon="2.08261">
        <ele>150</ele>
        <time>2022-03-06T10:28:45Z</time>
      </trkpt>
      <trkpt lat="48.54513" lon="2.08265">
        <ele>150</ele>
        <time>2022-03-06T10:28:47Z</time>
      </trkpt>
      <trkpt lat="48.54514" lon="2.08269">
        <ele>150</ele>
        <time>2022-03-06T10:28:49Z</time>
      </trkpt>
      <trkpt lat="48.54515" lon="2.08273">
        <ele>150</ele>
        <time>2022-03-06T10:28:51Z</time>
      </trkpt>
      <trkpt lat="48.54516" lon="2.08278">
        <ele>149</ele>
        <time>2022-03-06T10:28:53Z</time>
      </trkpt>
      <trkpt lat="48.54517" lon="2.08282">
        <ele>149</ele>
        <time>2022-03-06T10:28:55Z</time>
      </trkpt>
      <trkpt lat="48.54518" lon="2.08286">
        <ele>149</ele>
        <time>2022-03-06T10:28:57Z</time>
      </trkpt>
      <trkpt lat="48.54519" lon="2.0829">
        <ele>149</ele>
        <time>2022-03-06T10:28:59Z</time>
      </trkpt>
      <trkpt lat="48.5452" lon="2.08295">
        <ele>149</ele>
        <time>2022-03-06T10:29:01Z</time>
      </trkpt>
      <trkpt lat="48.54521" lon="2.08299">
        <ele>149</ele>
        <time>2022-03-06T10:29:03Z</time>
      </trkpt>
      <trkpt lat="48.54522" lon="2.08303">
        <ele>149</ele>
        <time>2022-03-06T10:29:05Z</time>
      </trkpt>
      <trkpt lat="48.54523" lon="2.08308">
        <ele>149</ele>
        <time>2022-03-06T10:29:07Z</time>
      </trkpt>
      <trkpt lat="48.54524" lon="2.08312">
        <ele>148</ele>
        <time>2022-03-06T10:29:09Z</time>
      </trkpt>
      <trkpt lat="48.54525" lon="2.08316">
        <ele>148</ele>
        <time>2022-03-06T10:29:11Z</time>
      </trkpt>
      <trkpt lat="48.54526" lon="2.0832">
        <ele>148</ele>
        <time>2022-03-06T10:29:13Z</time>
      </trkpt>
      <trkpt lat="48.54528" lon="2.08324">
        <ele>148</ele>
        <time>2022-03-06T10:29:15Z</time>
      </trkpt>
      <trkpt lat="48.54529" lon="2.08328">
        <ele>148</ele>
        <time>2022-03-06T10:29:17Z</time>
      </trkpt>
      <trkpt lat="48.5453" lon="2.08333">
        <ele>148</ele>
        <time>2022-03-06T10:29:20Z</time>
      </trkpt>
      <trkpt lat="48.54531" lon="2.08338">
        <ele>149</ele>
        <time>2022-03-06T10:29:22Z</time>
      </trkpt>
      <trkpt lat="48.54532" lon="2.08343">
        <ele>149</ele>
        <time>2022-03-06T10:29:24Z</time>
      </trkpt>
      <trkpt lat="48.54533" lon="2.08347">
        <ele>149</ele>
        <time>2022-03-06T10:29:26Z</time>
      </trkpt>
      <trkpt lat="48.54535" lon="2.08351">
        <ele>149</ele>
        <time>2022-03-06T10:29:28Z</time>
      </trkpt>
      <trkpt lat="48.54536" lon="2.08355">
        <ele>149</ele>
        <time>2022-03-06T10:29:30Z</time>
      </trkpt>
      <trkpt lat="48.54538" lon="2.08359">
        <ele>149</ele>
        <time>2022-03-06T10:29:32Z</time>
      </trkpt>
      <trkpt lat="48.54539" lon="2.08363">
        <ele>149</ele>
        <time>2022-03-06T10:29:34Z</time>
      </trkpt>
      <trkpt lat="48.5454" lon="2.08366">
        <ele>149</ele>
        <time>2022-03-06T10:29:36Z</time>
      </trkpt>
      <trkpt lat="48.54541" lon="2.0837">
        <ele>149</ele>
        <time>2022-03-06T10:29:38Z</time>
      </trkpt>
      <trkpt lat="48.54543" lon="2.08374">
        <ele>149</ele>
        <time>2022-03-06T10:29:40Z</time>
      </trkpt>
      <trkpt lat="48.54545" lon="2.08379">
        <ele>149</ele>
        <time>2022-03-06T10:29:42Z</time>
      </trkpt>
      <trkpt lat="48.54546" lon="2.08382">
        <ele>149</ele>
        <time>2022-03-06T10:29:44Z</time>
      </trkpt>
      <trkpt lat="48.54548" lon="2.08386">
        <ele>149</ele>
        <time>2022-03-06T10:29:46Z</time>
      </trkpt>
      <trkpt lat="48.5455" lon="2.08389">
        <ele>148</ele>
        <time>2022-03-06T10:29:48Z</time>
      </trkpt>
      <trkpt lat="48.54552" lon="2.08393">
        <ele>148</ele>
        <time>2022-03-06T10:29:50Z</time>
      </trkpt>
      <trkpt lat="48.54553" lon="2.08396">
        <ele>148</ele>
        <time>2022-03-06T10:29:52Z</time>
      </trkpt>
      <trkpt lat="48.54555" lon="2.084">
        <ele>148</ele>
        <time>2022-03-06T10:29:54Z</time>
      </trkpt>
      <trkpt lat="48.54557" lon="2.08403">
        <ele>148</ele>
        <time>2022-03-06T10:29:56Z</time>
      </trkpt>
      <trkpt lat="48.54559" lon="2.08407">
        <ele>148</ele>
        <time>2022-03-06T10:29:58Z</time>
      </trkpt>
      <trkpt lat="48.54561" lon="2.08411">
        <ele>148</ele>
        <time>2022-03-06T10:30:00Z</time>
      </trkpt>
      <trkpt lat="48.54563" lon="2.08415">
        <ele>148</ele>
        <time>2022-03-06T10:30:03Z</time>
      </trkpt>
      <trkpt lat="48.54565" lon="2.08419">
        <ele>148</ele>
        <time>2022-03-06T10:30:05Z</time>
      </trkpt>
      <trkpt lat="48.54567" lon="2.08423">
        <ele>148</ele>
        <time>2022-03-06T10:30:07Z</time>
      </trkpt>
      <trkpt lat="48.54569" lon="2.08427">
        <ele>148</ele>
        <time>2022-03-06T10:30:09Z</time>
      </trkpt>
      <trkpt lat="48.54571" lon="2.0843">
        <ele>148</ele>
        <time>2022-03-06T10:30:11Z</time>
      </trkpt>
      <trkpt lat="48.54573" lon="2.08433">
        <ele>148</ele>
        <time>2022-03-06T10:30:13Z</time>
      </trkpt>
      <trkpt lat="48.54574" lon="2.08437">
        <ele>148</ele>
        <time>2022-03-06T10:30:15Z</time>
      </trkpt>
      <trkpt lat="48.54576" lon="2.0844">
        <ele>148</ele>
        <time>2022-03-06T10:30:17Z</time>
      </trkpt>
      <trkpt lat="48.54578" lon="2.08444">
        <ele>148</ele>
        <time>2022-03-06T10:30:19Z</time>
      </trkpt>
      <trkpt lat="48.5458" lon="2.08447">
        <ele>148</ele>
        <time>2022-03-06T10:30:21Z</time>
      </trkpt>
      <trkpt lat="48.54582" lon="2.08451">
        <ele>148</ele>
        <time>2022-03-06T10:30:23Z</time>
      </trkpt>
      <trkpt lat="48.54583" lon="2.08455">
        <ele>148</ele>
        <time>2022-03-06T10:30:25Z</time>
      </trkpt>
      <trkpt lat="48.54585" lon="2.08459">
        <ele>148</ele>
        <time>2022-03-06T10:30:27Z</time>
      </trkpt>
      <trkpt lat="48.54587" lon="2.08462">
        <ele>148</ele>
        <time>2022-03-06T10:30:29Z</time>
      </trkpt>
      <trkpt lat="48.54588" lon="2.08466">
        <ele>148</ele>
        <time>2022-03-06T10:30:31Z</time>
      </trkpt>
      <trkpt lat="48.5459" lon="2.08469">
        <ele>148</ele>
        <time>2022-03-06T10:30:33Z</time>
      </trkpt>
      <trkpt lat="48.54591" lon="2.08473">
        <ele>148</ele>
        <time>2022-03-06T10:30:35Z</time>
      </trkpt>
      <trkpt lat="48.54593" lon="2.08477">
        <ele>148</ele>
        <time>2022-03-06T10:30:37Z</time>
      </trkpt>
      <trkpt lat="48.54595" lon="2.08481">
        <ele>148</ele>
        <time>2022-03-06T10:30:39Z</time>
      </trkpt>
      <trkpt lat="48.54597" lon="2.08484">
        <ele>148</ele>
        <time>2022-03-06T10:30:41Z</time>
      </trkpt>
      <trkpt lat="48.54599" lon="2.08488">
        <ele>148</ele>
        <time>2022-03-06T10:30:43Z</time>
      </trkpt>
      <trkpt lat="48.546" lon="2.08492">
        <ele>148</ele>
        <time>2022-03-06T10:30:45Z</time>
      </trkpt>
      <trkpt lat="48.54602" lon="2.08496">
        <ele>148</ele>
        <time>2022-03-06T10:30:47Z</time>
      </trkpt>
      <trkpt lat="48.54603" lon="2.085">
        <ele>148</ele>
        <time>2022-03-06T10:30:49Z</time>
      </trkpt>
      <trkpt lat="48.54605" lon="2.08504">
        <ele>148</ele>
        <time>2022-03-06T10:30:51Z</time>
      </trkpt>
      <trkpt lat="48.54606" lon="2.08508">
        <ele>148</ele>
        <time>2022-03-06T10:30:53Z</time>
      </trkpt>
      <trkpt lat="48.54606" lon="2.08512">
        <ele>147</ele>
        <time>2022-03-06T10:30:55Z</time>
      </trkpt>
      <trkpt lat="48.54608" lon="2.08517">
        <ele>147</ele>
        <time>2022-03-06T10:30:57Z</time>
      </trkpt>
      <trkpt lat="48.54609" lon="2.08521">
        <ele>147</ele>
        <time>2022-03-06T10:30:59Z</time>
      </trkpt>
      <trkpt lat="48.54611" lon="2.08525">
        <ele>147</ele>
        <time>2022-03-06T10:31:01Z</time>
      </trkpt>
      <trkpt lat="48.54611" lon="2.0853">
        <ele>147</ele>
        <time>2022-03-06T10:31:03Z</time>
      </trkpt>
      <trkpt lat="48.54612" lon="2.08534">
        <ele>147</ele>
        <time>2022-03-06T10:31:05Z</time>
      </trkpt>
      <trkpt lat="48.54613" lon="2.08538">
        <ele>147</ele>
        <time>2022-03-06T10:31:07Z</time>
      </trkpt>
      <trkpt lat="48.54614" lon="2.08542">
        <ele>147</ele>
        <time>2022-03-06T10:31:09Z</time>
      </trkpt>
      <trkpt lat="48.54615" lon="2.08546">
        <ele>147</ele>
        <time>2022-03-06T10:31:11Z</time>
      </trkpt>
      <trkpt lat="48.54616" lon="2.0855">
        <ele>147</ele>
        <time>2022-03-06T10:31:13Z</time>
      </trkpt>
      <trkpt lat="48.54617" lon="2.08555">
        <ele>147</ele>
        <time>2022-03-06T10:31:15Z</time>
      </trkpt>
      <trkpt lat="48.54619" lon="2.08559">
        <ele>147</ele>
        <time>2022-03-06T10:31:17Z</time>
      </trkpt>
      <trkpt lat="48.5462" lon="2.08563">
        <ele>147</ele>
        <time>2022-03-06T10:31:19Z</time>
      </trkpt>
      <trkpt lat="48.54622" lon="2.08568">
        <ele>147</ele>
        <time>2022-03-06T10:31:22Z</time>
      </trkpt>
      <trkpt lat="48.54623" lon="2.08573">
        <ele>147</ele>
        <time>2022-03-06T10:31:24Z</time>
      </trkpt>
      <trkpt lat="48.54625" lon="2.08578">
        <ele>147</ele>
        <time>2022-03-06T10:31:27Z</time>
      </trkpt>
      <trkpt lat="48.54626" lon="2.08583">
        <ele>147</ele>
        <time>2022-03-06T10:31:29Z</time>
      </trkpt>
      <trkpt lat="48.54627" lon="2.08588">
        <ele>147</ele>
        <time>2022-03-06T10:31:31Z</time>
      </trkpt>
      <trkpt lat="48.54628" lon="2.08592">
        <ele>147</ele>
        <time>2022-03-06T10:31:33Z</time>
      </trkpt>
      <trkpt lat="48.54629" lon="2.08597">
        <ele>147</ele>
        <time>2022-03-06T10:31:35Z</time>
      </trkpt>
      <trkpt lat="48.54631" lon="2.08601">
        <ele>147</ele>
        <time>2022-03-06T10:31:37Z</time>
      </trkpt>
      <trkpt lat="48.54632" lon="2.08606">
        <ele>147</ele>
        <time>2022-03-06T10:31:40Z</time>
      </trkpt>
      <trkpt lat="48.54634" lon="2.0861">
        <ele>147</ele>
        <time>2022-03-06T10:31:42Z</time>
      </trkpt>
      <trkpt lat="48.54635" lon="2.08614">
        <ele>147</ele>
        <time>2022-03-06T10:31:44Z</time>
      </trkpt>
      <trkpt lat="48.54637" lon="2.08619">
        <ele>147</ele>
        <time>2022-03-06T10:31:47Z</time>
      </trkpt>
      <trkpt lat="48.54638" lon="2.08624">
        <ele>147</ele>
        <time>2022-03-06T10:31:49Z</time>
      </trkpt>
      <trkpt lat="48.54639" lon="2.0863">
        <ele>147</ele>
        <time>2022-03-06T10:31:52Z</time>
      </trkpt>
      <trkpt lat="48.54641" lon="2.08634">
        <ele>147</ele>
        <time>2022-03-06T10:31:54Z</time>
      </trkpt>
      <trkpt lat="48.54641" lon="2.08639">
        <ele>146</ele>
        <time>2022-03-06T10:31:57Z</time>
      </trkpt>
      <trkpt lat="48.54642" lon="2.08644">
        <ele>146</ele>
        <time>2022-03-06T10:31:59Z</time>
      </trkpt>
      <trkpt lat="48.54642" lon="2.08649">
        <ele>146</ele>
        <time>2022-03-06T10:32:01Z</time>
      </trkpt>
      <trkpt lat="48.54643" lon="2.08654">
        <ele>146</ele>
        <time>2022-03-06T10:32:03Z</time>
      </trkpt>
      <trkpt lat="48.54643" lon="2.08659">
        <ele>146</ele>
        <time>2022-03-06T10:32:05Z</time>
      </trkpt>
      <trkpt lat="48.54644" lon="2.08664">
        <ele>146</ele>
        <time>2022-03-06T10:32:08Z</time>
      </trkpt>
      <trkpt lat="48.54645" lon="2.08669">
        <ele>146</ele>
        <time>2022-03-06T10:32:10Z</time>
      </trkpt>
      <trkpt lat="48.54646" lon="2.08674">
        <ele>146</ele>
        <time>2022-03-06T10:32:13Z</time>
      </trkpt>
      <trkpt lat="48.54647" lon="2.0868">
        <ele>146</ele>
        <time>2022-03-06T10:32:15Z</time>
      </trkpt>
      <trkpt lat="48.54648" lon="2.08684">
        <ele>146</ele>
        <time>2022-03-06T10:32:17Z</time>
      </trkpt>
      <trkpt lat="48.54648" lon="2.0869">
        <ele>146</ele>
        <time>2022-03-06T10:32:20Z</time>
      </trkpt>
      <trkpt lat="48.54648" lon="2.08695">
        <ele>146</ele>
        <time>2022-03-06T10:32:22Z</time>
      </trkpt>
      <trkpt lat="48.54648" lon="2.08701">
        <ele>146</ele>
        <time>2022-03-06T10:32:25Z</time>
      </trkpt>
      <trkpt lat="48.54649" lon="2.08707">
        <ele>146</ele>
        <time>2022-03-06T10:32:27Z</time>
      </trkpt>
      <trkpt lat="48.5465" lon="2.08713">
        <ele>146</ele>
        <time>2022-03-06T10:32:30Z</time>
      </trkpt>
      <trkpt lat="48.5465" lon="2.08719">
        <ele>146</ele>
        <time>2022-03-06T10:32:32Z</time>
      </trkpt>
      <trkpt lat="48.54651" lon="2.08725">
        <ele>146</ele>
        <time>2022-03-06T10:32:35Z</time>
      </trkpt>
      <trkpt lat="48.54651" lon="2.0873">
        <ele>146</ele>
        <time>2022-03-06T10:32:37Z</time>
      </trkpt>
      <trkpt lat="48.54651" lon="2.08734">
        <ele>146</ele>
        <time>2022-03-06T10:32:39Z</time>
      </trkpt>
      <trkpt lat="48.54651" lon="2.08739">
        <ele>146</ele>
        <time>2022-03-06T10:32:41Z</time>
      </trkpt>
      <trkpt lat="48.54651" lon="2.08743">
        <ele>146</ele>
        <time>2022-03-06T10:32:43Z</time>
      </trkpt>
      <trkpt lat="48.5465" lon="2.08748">
        <ele>146</ele>
        <time>2022-03-06T10:32:46Z</time>
      </trkpt>
      <trkpt lat="48.54651" lon="2.08755">
        <ele>145</ele>
        <time>2022-03-06T10:32:48Z</time>
      </trkpt>
      <trkpt lat="48.54651" lon="2.0876">
        <ele>146</ele>
        <time>2022-03-06T10:32:51Z</time>
      </trkpt>
      <trkpt lat="48.54651" lon="2.08765">
        <ele>146</ele>
        <time>2022-03-06T10:32:53Z</time>
      </trkpt>
      <trkpt lat="48.5465" lon="2.0877">
        <ele>145</ele>
        <time>2022-03-06T10:32:56Z</time>
      </trkpt>
      <trkpt lat="48.5465" lon="2.08775">
        <ele>145</ele>
        <time>2022-03-06T10:32:58Z</time>
      </trkpt>
      <trkpt lat="48.54649" lon="2.0878">
        <ele>145</ele>
        <time>2022-03-06T10:33:01Z</time>
      </trkpt>
      <trkpt lat="48.54648" lon="2.08785">
        <ele>145</ele>
        <time>2022-03-06T10:33:05Z</time>
      </trkpt>
      <trkpt lat="48.54647" lon="2.08791">
        <ele>145</ele>
        <time>2022-03-06T10:33:08Z</time>
      </trkpt>
      <trkpt lat="48.54646" lon="2.08797">
        <ele>145</ele>
        <time>2022-03-06T10:33:10Z</time>
      </trkpt>
      <trkpt lat="48.54645" lon="2.08802">
        <ele>145</ele>
        <time>2022-03-06T10:33:13Z</time>
      </trkpt>
      <trkpt lat="48.54644" lon="2.08807">
        <ele>145</ele>
        <time>2022-03-06T10:33:15Z</time>
      </trkpt>
      <trkpt lat="48.54643" lon="2.08812">
        <ele>145</ele>
        <time>2022-03-06T10:33:17Z</time>
      </trkpt>
      <trkpt lat="48.54642" lon="2.08817">
        <ele>145</ele>
        <time>2022-03-06T10:33:19Z</time>
      </trkpt>
      <trkpt lat="48.5464" lon="2.08822">
        <ele>145</ele>
        <time>2022-03-06T10:33:21Z</time>
      </trkpt>
      <trkpt lat="48.54638" lon="2.08828">
        <ele>145</ele>
        <time>2022-03-06T10:33:24Z</time>
      </trkpt>
      <trkpt lat="48.54637" lon="2.08834">
        <ele>145</ele>
        <time>2022-03-06T10:33:26Z</time>
      </trkpt>
      <trkpt lat="48.54636" lon="2.0884">
        <ele>145</ele>
        <time>2022-03-06T10:33:29Z</time>
      </trkpt>
      <trkpt lat="48.54636" lon="2.08845">
        <ele>144</ele>
        <time>2022-03-06T10:33:32Z</time>
      </trkpt>
      <trkpt lat="48.54635" lon="2.08849">
        <ele>144</ele>
        <time>2022-03-06T10:33:34Z</time>
      </trkpt>
      <trkpt lat="48.54633" lon="2.08854">
        <ele>144</ele>
        <time>2022-03-06T10:33:36Z</time>
      </trkpt>
      <trkpt lat="48.54632" lon="2.08859">
        <ele>144</ele>
        <time>2022-03-06T10:33:38Z</time>
      </trkpt>
      <trkpt lat="48.54631" lon="2.08864">
        <ele>144</ele>
        <time>2022-03-06T10:33:40Z</time>
      </trkpt>
      <trkpt lat="48.5463" lon="2.08868">
        <ele>144</ele>
        <time>2022-03-06T10:33:42Z</time>
      </trkpt>
      <trkpt lat="48.54629" lon="2.08873">
        <ele>144</ele>
        <time>2022-03-06T10:33:44Z</time>
      </trkpt>
      <trkpt lat="48.54628" lon="2.08877">
        <ele>144</ele>
        <time>2022-03-06T10:33:47Z</time>
      </trkpt>
      <trkpt lat="48.54626" lon="2.08882">
        <ele>144</ele>
        <time>2022-03-06T10:33:49Z</time>
      </trkpt>
      <trkpt lat="48.54625" lon="2.08886">
        <ele>144</ele>
        <time>2022-03-06T10:33:51Z</time>
      </trkpt>
      <trkpt lat="48.54623" lon="2.0889">
        <ele>144</ele>
        <time>2022-03-06T10:33:53Z</time>
      </trkpt>
      <trkpt lat="48.54621" lon="2.08895">
        <ele>143</ele>
        <time>2022-03-06T10:33:56Z</time>
      </trkpt>
      <trkpt lat="48.54619" lon="2.089">
        <ele>143</ele>
        <time>2022-03-06T10:33:59Z</time>
      </trkpt>
      <trkpt lat="48.54618" lon="2.08905">
        <ele>143</ele>
        <time>2022-03-06T10:34:01Z</time>
      </trkpt>
      <trkpt lat="48.54616" lon="2.08909">
        <ele>143</ele>
        <time>2022-03-06T10:34:03Z</time>
      </trkpt>
      <trkpt lat="48.54615" lon="2.08913">
        <ele>143</ele>
        <time>2022-03-06T10:34:05Z</time>
      </trkpt>
      <trkpt lat="48.54613" lon="2.08919">
        <ele>144</ele>
        <time>2022-03-06T10:34:08Z</time>
      </trkpt>
      <trkpt lat="48.54611" lon="2.08923">
        <ele>144</ele>
        <time>2022-03-06T10:34:10Z</time>
      </trkpt>
      <trkpt lat="48.54609" lon="2.08927">
        <ele>144</ele>
        <time>2022-03-06T10:34:12Z</time>
      </trkpt>
      <trkpt lat="48.54608" lon="2.0893">
        <ele>143</ele>
        <time>2022-03-06T10:34:14Z</time>
      </trkpt>
      <trkpt lat="48.54607" lon="2.08934">
        <ele>143</ele>
        <time>2022-03-06T10:34:16Z</time>
      </trkpt>
      <trkpt lat="48.54605" lon="2.08939">
        <ele>143</ele>
        <time>2022-03-06T10:34:18Z</time>
      </trkpt>
      <trkpt lat="48.54604" lon="2.08943">
        <ele>143</ele>
        <time>2022-03-06T10:34:21Z</time>
      </trkpt>
      <trkpt lat="48.54603" lon="2.08949">
        <ele>143</ele>
        <time>2022-03-06T10:34:23Z</time>
      </trkpt>
      <trkpt lat="48.54601" lon="2.08953">
        <ele>143</ele>
        <time>2022-03-06T10:34:25Z</time>
      </trkpt>
      <trkpt lat="48.54599" lon="2.08957">
        <ele>143</ele>
        <time>2022-03-06T10:34:27Z</time>
      </trkpt>
      <trkpt lat="48.54598" lon="2.08962">
        <ele>143</ele>
        <time>2022-03-06T10:34:30Z</time>
      </trkpt>
      <trkpt lat="48.54596" lon="2.08968">
        <ele>143</ele>
        <time>2022-03-06T10:34:32Z</time>
      </trkpt>
      <trkpt lat="48.54594" lon="2.08973">
        <ele>143</ele>
        <time>2022-03-06T10:34:34Z</time>
      </trkpt>
      <trkpt lat="48.54593" lon="2.08979">
        <ele>143</ele>
        <time>2022-03-06T10:34:36Z</time>
      </trkpt>
      <trkpt lat="48.54592" lon="2.08983">
        <ele>143</ele>
        <time>2022-03-06T10:34:39Z</time>
      </trkpt>
      <trkpt lat="48.5459" lon="2.08989">
        <ele>143</ele>
        <time>2022-03-06T10:34:41Z</time>
      </trkpt>
      <trkpt lat="48.54589" lon="2.08994">
        <ele>143</ele>
        <time>2022-03-06T10:34:43Z</time>
      </trkpt>
      <trkpt lat="48.54588" lon="2.09">
        <ele>143</ele>
        <time>2022-03-06T10:34:46Z</time>
      </trkpt>
      <trkpt lat="48.54586" lon="2.09005">
        <ele>143</ele>
        <time>2022-03-06T10:34:49Z</time>
      </trkpt>
      <trkpt lat="48.54585" lon="2.09011">
        <ele>143</ele>
        <time>2022-03-06T10:34:51Z</time>
      </trkpt>
      <trkpt lat="48.54584" lon="2.09017">
        <ele>143</ele>
        <time>2022-03-06T10:34:54Z</time>
      </trkpt>
      <trkpt lat="48.54582" lon="2.09024">
        <ele>142</ele>
        <time>2022-03-06T10:34:57Z</time>
      </trkpt>
      <trkpt lat="48.5458" lon="2.09029">
        <ele>142</ele>
        <time>2022-03-06T10:34:59Z</time>
      </trkpt>
      <trkpt lat="48.54579" lon="2.09034">
        <ele>142</ele>
        <time>2022-03-06T10:35:02Z</time>
      </trkpt>
      <trkpt lat="48.54576" lon="2.0904">
        <ele>142</ele>
        <time>2022-03-06T10:35:04Z</time>
      </trkpt>
      <trkpt lat="48.54575" lon="2.09045">
        <ele>142</ele>
        <time>2022-03-06T10:35:06Z</time>
      </trkpt>
      <trkpt lat="48.54573" lon="2.09051">
        <ele>142</ele>
        <time>2022-03-06T10:35:08Z</time>
      </trkpt>
      <trkpt lat="48.54572" lon="2.09055">
        <ele>142</ele>
        <time>2022-03-06T10:35:10Z</time>
      </trkpt>
      <trkpt lat="48.5457" lon="2.09061">
        <ele>142</ele>
        <time>2022-03-06T10:35:12Z</time>
      </trkpt>
      <trkpt lat="48.54568" lon="2.09065">
        <ele>142</ele>
        <time>2022-03-06T10:35:15Z</time>
      </trkpt>
      <trkpt lat="48.54566" lon="2.09071">
        <ele>141</ele>
        <time>2022-03-06T10:35:18Z</time>
      </trkpt>
      <trkpt lat="48.54564" lon="2.09077">
        <ele>141</ele>
        <time>2022-03-06T10:35:21Z</time>
      </trkpt>
      <trkpt lat="48.54563" lon="2.09082">
        <ele>141</ele>
        <time>2022-03-06T10:35:23Z</time>
      </trkpt>
      <trkpt lat="48.54562" lon="2.09086">
        <ele>141</ele>
        <time>2022-03-06T10:35:25Z</time>
      </trkpt>
      <trkpt lat="48.5456" lon="2.09091">
        <ele>141</ele>
        <time>2022-03-06T10:35:28Z</time>
      </trkpt>
      <trkpt lat="48.54559" lon="2.09096">
        <ele>141</ele>
        <time>2022-03-06T10:35:30Z</time>
      </trkpt>
      <trkpt lat="48.54557" lon="2.09101">
        <ele>141</ele>
        <time>2022-03-06T10:35:33Z</time>
      </trkpt>
      <trkpt lat="48.54555" lon="2.09106">
        <ele>141</ele>
        <time>2022-03-06T10:35:36Z</time>
      </trkpt>
      <trkpt lat="48.54554" lon="2.09112">
        <ele>141</ele>
        <time>2022-03-06T10:35:38Z</time>
      </trkpt>
      <trkpt lat="48.54552" lon="2.09117">
        <ele>140</ele>
        <time>2022-03-06T10:35:40Z</time>
      </trkpt>
      <trkpt lat="48.54551" lon="2.09121">
        <ele>140</ele>
        <time>2022-03-06T10:35:42Z</time>
      </trkpt>
      <trkpt lat="48.5455" lon="2.09126">
        <ele>140</ele>
        <time>2022-03-06T10:35:45Z</time>
      </trkpt>
      <trkpt lat="48.54549" lon="2.09131">
        <ele>140</ele>
        <time>2022-03-06T10:35:47Z</time>
      </trkpt>
      <trkpt lat="48.54548" lon="2.09136">
        <ele>140</ele>
        <time>2022-03-06T10:35:49Z</time>
      </trkpt>
      <trkpt lat="48.54546" lon="2.0914">
        <ele>140</ele>
        <time>2022-03-06T10:35:51Z</time>
      </trkpt>
      <trkpt lat="48.54545" lon="2.09145">
        <ele>140</ele>
        <time>2022-03-06T10:35:53Z</time>
      </trkpt>
      <trkpt lat="48.54544" lon="2.0915">
        <ele>140</ele>
        <time>2022-03-06T10:35:55Z</time>
      </trkpt>
      <trkpt lat="48.54543" lon="2.09155">
        <ele>140</ele>
        <time>2022-03-06T10:35:57Z</time>
      </trkpt>
      <trkpt lat="48.54542" lon="2.0916">
        <ele>140</ele>
        <time>2022-03-06T10:35:58Z</time>
      </trkpt>
      <trkpt lat="48.5454" lon="2.09163">
        <ele>140</ele>
        <time>2022-03-06T10:36:00Z</time>
      </trkpt>
      <trkpt lat="48.54538" lon="2.09167">
        <ele>140</ele>
        <time>2022-03-06T10:36:02Z</time>
      </trkpt>
      <trkpt lat="48.54536" lon="2.09171">
        <ele>140</ele>
        <time>2022-03-06T10:36:04Z</time>
      </trkpt>
      <trkpt lat="48.54534" lon="2.09174">
        <ele>140</ele>
        <time>2022-03-06T10:36:06Z</time>
      </trkpt>
      <trkpt lat="48.54531" lon="2.09178">
        <ele>140</ele>
        <time>2022-03-06T10:36:08Z</time>
      </trkpt>
      <trkpt lat="48.54529" lon="2.09181">
        <ele>140</ele>
        <time>2022-03-06T10:36:11Z</time>
      </trkpt>
      <trkpt lat="48.54527" lon="2.09185">
        <ele>140</ele>
        <time>2022-03-06T10:36:14Z</time>
      </trkpt>
      <trkpt lat="48.54525" lon="2.09188">
        <ele>140</ele>
        <time>2022-03-06T10:36:16Z</time>
      </trkpt>
      <trkpt lat="48.54523" lon="2.09192">
        <ele>140</ele>
        <time>2022-03-06T10:36:18Z</time>
      </trkpt>
      <trkpt lat="48.5452" lon="2.09195">
        <ele>140</ele>
        <time>2022-03-06T10:36:20Z</time>
      </trkpt>
      <trkpt lat="48.54518" lon="2.09199">
        <ele>140</ele>
        <time>2022-03-06T10:36:21Z</time>
      </trkpt>
      <trkpt lat="48.54515" lon="2.09203">
        <ele>140</ele>
        <time>2022-03-06T10:36:24Z</time>
      </trkpt>
      <trkpt lat="48.54513" lon="2.09207">
        <ele>141</ele>
        <time>2022-03-06T10:36:27Z</time>
      </trkpt>
      <trkpt lat="48.54511" lon="2.09211">
        <ele>141</ele>
        <time>2022-03-06T10:36:29Z</time>
      </trkpt>
      <trkpt lat="48.54508" lon="2.09215">
        <ele>141</ele>
        <time>2022-03-06T10:36:31Z</time>
      </trkpt>
      <trkpt lat="48.54506" lon="2.09219">
        <ele>141</ele>
        <time>2022-03-06T10:36:34Z</time>
      </trkpt>
      <trkpt lat="48.54504" lon="2.09222">
        <ele>141</ele>
        <time>2022-03-06T10:36:36Z</time>
      </trkpt>
      <trkpt lat="48.54502" lon="2.09226">
        <ele>141</ele>
        <time>2022-03-06T10:36:38Z</time>
      </trkpt>
      <trkpt lat="48.545" lon="2.09229">
        <ele>141</ele>
        <time>2022-03-06T10:36:40Z</time>
      </trkpt>
      <trkpt lat="48.54498" lon="2.09234">
        <ele>141</ele>
        <time>2022-03-06T10:36:43Z</time>
      </trkpt>
      <trkpt lat="48.54497" lon="2.09238">
        <ele>141</ele>
        <time>2022-03-06T10:36:46Z</time>
      </trkpt>
      <trkpt lat="48.54496" lon="2.09242">
        <ele>141</ele>
        <time>2022-03-06T10:36:48Z</time>
      </trkpt>
      <trkpt lat="48.54495" lon="2.09247">
        <ele>141</ele>
        <time>2022-03-06T10:36:49Z</time>
      </trkpt>
      <trkpt lat="48.54495" lon="2.09252">
        <ele>141</ele>
        <time>2022-03-06T10:36:51Z</time>
      </trkpt>
      <trkpt lat="48.54494" lon="2.09257">
        <ele>141</ele>
        <time>2022-03-06T10:36:54Z</time>
      </trkpt>
      <trkpt lat="48.54494" lon="2.09262">
        <ele>140</ele>
        <time>2022-03-06T10:36:56Z</time>
      </trkpt>
      <trkpt lat="48.54492" lon="2.09267">
        <ele>140</ele>
        <time>2022-03-06T10:37:00Z</time>
      </trkpt>
      <trkpt lat="48.5449" lon="2.09272">
        <ele>140</ele>
        <time>2022-03-06T10:37:02Z</time>
      </trkpt>
      <trkpt lat="48.54489" lon="2.09278">
        <ele>140</ele>
        <time>2022-03-06T10:37:04Z</time>
      </trkpt>
      <trkpt lat="48.54487" lon="2.09283">
        <ele>140</ele>
        <time>2022-03-06T10:37:05Z</time>
      </trkpt>
      <trkpt lat="48.54487" lon="2.09288">
        <ele>140</ele>
        <time>2022-03-06T10:37:07Z</time>
      </trkpt>
      <trkpt lat="48.54485" lon="2.09293">
        <ele>140</ele>
        <time>2022-03-06T10:37:09Z</time>
      </trkpt>
      <trkpt lat="48.54485" lon="2.09297">
        <ele>140</ele>
        <time>2022-03-06T10:37:11Z</time>
      </trkpt>
      <trkpt lat="48.54483" lon="2.09302">
        <ele>140</ele>
        <time>2022-03-06T10:37:13Z</time>
      </trkpt>
      <trkpt lat="48.54483" lon="2.09307">
        <ele>140</ele>
        <time>2022-03-06T10:37:15Z</time>
      </trkpt>
      <trkpt lat="48.54482" lon="2.09312">
        <ele>140</ele>
        <time>2022-03-06T10:37:18Z</time>
      </trkpt>
      <trkpt lat="48.54481" lon="2.09318">
        <ele>139</ele>
        <time>2022-03-06T10:37:21Z</time>
      </trkpt>
      <trkpt lat="48.54481" lon="2.09323">
        <ele>139</ele>
        <time>2022-03-06T10:37:23Z</time>
      </trkpt>
      <trkpt lat="48.54481" lon="2.09328">
        <ele>139</ele>
        <time>2022-03-06T10:37:26Z</time>
      </trkpt>
      <trkpt lat="48.54481" lon="2.09333">
        <ele>139</ele>
        <time>2022-03-06T10:37:28Z</time>
      </trkpt>
      <trkpt lat="48.54481" lon="2.09339">
        <ele>138</ele>
        <time>2022-03-06T10:37:30Z</time>
      </trkpt>
      <trkpt lat="48.54481" lon="2.09344">
        <ele>138</ele>
        <time>2022-03-06T10:37:33Z</time>
      </trkpt>
      <trkpt lat="48.54481" lon="2.09349">
        <ele>138</ele>
        <time>2022-03-06T10:37:35Z</time>
      </trkpt>
      <trkpt lat="48.54481" lon="2.09353">
        <ele>138</ele>
        <time>2022-03-06T10:37:37Z</time>
      </trkpt>
      <trkpt lat="48.54482" lon="2.09359">
        <ele>137</ele>
        <time>2022-03-06T10:37:40Z</time>
      </trkpt>
      <trkpt lat="48.54483" lon="2.09364">
        <ele>137</ele>
        <time>2022-03-06T10:37:42Z</time>
      </trkpt>
      <trkpt lat="48.54483" lon="2.0937">
        <ele>136</ele>
        <time>2022-03-06T10:37:45Z</time>
      </trkpt>
      <trkpt lat="48.54484" lon="2.09376">
        <ele>136</ele>
        <time>2022-03-06T10:37:48Z</time>
      </trkpt>
      <trkpt lat="48.54484" lon="2.09381">
        <ele>136</ele>
        <time>2022-03-06T10:37:50Z</time>
      </trkpt>
      <trkpt lat="48.54484" lon="2.09387">
        <ele>135</ele>
        <time>2022-03-06T10:37:53Z</time>
      </trkpt>
      <trkpt lat="48.54485" lon="2.09392">
        <ele>135</ele>
        <time>2022-03-06T10:37:55Z</time>
      </trkpt>
      <trkpt lat="48.54484" lon="2.09398">
        <ele>135</ele>
        <time>2022-03-06T10:37:58Z</time>
      </trkpt>
      <trkpt lat="48.54483" lon="2.09405">
        <ele>134</ele>
        <time>2022-03-06T10:38:02Z</time>
      </trkpt>
      <trkpt lat="48.54482" lon="2.09411">
        <ele>134</ele>
        <time>2022-03-06T10:38:05Z</time>
      </trkpt>
      <trkpt lat="48.54482" lon="2.09417">
        <ele>133</ele>
        <time>2022-03-06T10:38:08Z</time>
      </trkpt>
      <trkpt lat="48.54481" lon="2.09423">
        <ele>133</ele>
        <time>2022-03-06T10:38:11Z</time>
      </trkpt>
      <trkpt lat="48.5448" lon="2.09427">
        <ele>132</ele>
        <time>2022-03-06T10:38:12Z</time>
      </trkpt>
      <trkpt lat="48.54479" lon="2.09432">
        <ele>132</ele>
        <time>2022-03-06T10:38:14Z</time>
      </trkpt>
      <trkpt lat="48.54477" lon="2.09436">
        <ele>131</ele>
        <time>2022-03-06T10:38:16Z</time>
      </trkpt>
      <trkpt lat="48.54476" lon="2.09441">
        <ele>131</ele>
        <time>2022-03-06T10:38:18Z</time>
      </trkpt>
      <trkpt lat="48.54475" lon="2.09445">
        <ele>130</ele>
        <time>2022-03-06T10:38:21Z</time>
      </trkpt>
      <trkpt lat="48.54473" lon="2.0945">
        <ele>130</ele>
        <time>2022-03-06T10:38:24Z</time>
      </trkpt>
      <trkpt lat="48.54472" lon="2.09455">
        <ele>130</ele>
        <time>2022-03-06T10:38:26Z</time>
      </trkpt>
      <trkpt lat="48.54471" lon="2.09461">
        <ele>129</ele>
        <time>2022-03-06T10:38:29Z</time>
      </trkpt>
      <trkpt lat="48.54469" lon="2.09468">
        <ele>129</ele>
        <time>2022-03-06T10:38:32Z</time>
      </trkpt>
      <trkpt lat="48.54469" lon="2.09473">
        <ele>128</ele>
        <time>2022-03-06T10:38:35Z</time>
      </trkpt>
      <trkpt lat="48.5447" lon="2.09478">
        <ele>127</ele>
        <time>2022-03-06T10:38:38Z</time>
      </trkpt>
      <trkpt lat="48.5447" lon="2.09483">
        <ele>127</ele>
        <time>2022-03-06T10:38:40Z</time>
      </trkpt>
      <trkpt lat="48.54471" lon="2.09487">
        <ele>127</ele>
        <time>2022-03-06T10:38:42Z</time>
      </trkpt>
      <trkpt lat="48.54473" lon="2.09491">
        <ele>126</ele>
        <time>2022-03-06T10:38:45Z</time>
      </trkpt>
      <trkpt lat="48.54474" lon="2.09495">
        <ele>126</ele>
        <time>2022-03-06T10:38:46Z</time>
      </trkpt>
      <trkpt lat="48.54476" lon="2.09499">
        <ele>126</ele>
        <time>2022-03-06T10:38:48Z</time>
      </trkpt>
      <trkpt lat="48.54477" lon="2.09503">
        <ele>125</ele>
        <time>2022-03-06T10:38:51Z</time>
      </trkpt>
      <trkpt lat="48.54479" lon="2.09507">
        <ele>125</ele>
        <time>2022-03-06T10:38:53Z</time>
      </trkpt>
      <trkpt lat="48.5448" lon="2.09511">
        <ele>125</ele>
        <time>2022-03-06T10:38:55Z</time>
      </trkpt>
      <trkpt lat="48.54482" lon="2.09515">
        <ele>125</ele>
        <time>2022-03-06T10:38:57Z</time>
      </trkpt>
      <trkpt lat="48.54484" lon="2.09518">
        <ele>125</ele>
        <time>2022-03-06T10:38:59Z</time>
      </trkpt>
      <trkpt lat="48.54487" lon="2.09522">
        <ele>124</ele>
        <time>2022-03-06T10:39:02Z</time>
      </trkpt>
      <trkpt lat="48.54489" lon="2.09525">
        <ele>124</ele>
        <time>2022-03-06T10:39:04Z</time>
      </trkpt>
      <trkpt lat="48.54491" lon="2.0953">
        <ele>124</ele>
        <time>2022-03-06T10:39:07Z</time>
      </trkpt>
      <trkpt lat="48.54493" lon="2.09534">
        <ele>123</ele>
        <time>2022-03-06T10:39:09Z</time>
      </trkpt>
      <trkpt lat="48.54495" lon="2.09538">
        <ele>123</ele>
        <time>2022-03-06T10:39:11Z</time>
      </trkpt>
      <trkpt lat="48.54497" lon="2.09541">
        <ele>123</ele>
        <time>2022-03-06T10:39:14Z</time>
      </trkpt>
      <trkpt lat="48.54498" lon="2.09545">
        <ele>123</ele>
        <time>2022-03-06T10:39:16Z</time>
      </trkpt>
      <trkpt lat="48.545" lon="2.0955">
        <ele>122</ele>
        <time>2022-03-06T10:39:19Z</time>
      </trkpt>
      <trkpt lat="48.54502" lon="2.09555">
        <ele>122</ele>
        <time>2022-03-06T10:39:22Z</time>
      </trkpt>
      <trkpt lat="48.54504" lon="2.09559">
        <ele>122</ele>
        <time>2022-03-06T10:39:24Z</time>
      </trkpt>
      <trkpt lat="48.54505" lon="2.09564">
        <ele>122</ele>
        <time>2022-03-06T10:39:26Z</time>
      </trkpt>
      <trkpt lat="48.54503" lon="2.09567">
        <ele>122</ele>
        <time>2022-03-06T10:39:30Z</time>
      </trkpt>
      <trkpt lat="48.54501" lon="2.09567">
        <ele>121</ele>
        <time>2022-03-06T10:39:32Z</time>
      </trkpt>
      <trkpt lat="48.54498" lon="2.09566">
        <ele>121</ele>
        <time>2022-03-06T10:39:35Z</time>
      </trkpt>
      <trkpt lat="48.54496" lon="2.09563">
        <ele>121</ele>
        <time>2022-03-06T10:39:37Z</time>
      </trkpt>
      <trkpt lat="48.54493" lon="2.0956">
        <ele>120</ele>
        <time>2022-03-06T10:39:39Z</time>
      </trkpt>
      <trkpt lat="48.54491" lon="2.09557">
        <ele>119</ele>
        <time>2022-03-06T10:39:42Z</time>
      </trkpt>
      <trkpt lat="48.54489" lon="2.09555">
        <ele>119</ele>
        <time>2022-03-06T10:39:44Z</time>
      </trkpt>
      <trkpt lat="48.54486" lon="2.09552">
        <ele>119</ele>
        <time>2022-03-06T10:39:46Z</time>
      </trkpt>
      <trkpt lat="48.54482" lon="2.09551">
        <ele>118</ele>
        <time>2022-03-06T10:39:48Z</time>
      </trkpt>
      <trkpt lat="48.54479" lon="2.09549">
        <ele>118</ele>
        <time>2022-03-06T10:39:50Z</time>
      </trkpt>
      <trkpt lat="48.54477" lon="2.09547">
        <ele>117</ele>
        <time>2022-03-06T10:39:52Z</time>
      </trkpt>
      <trkpt lat="48.54474" lon="2.09542">
        <ele>117</ele>
        <time>2022-03-06T10:39:55Z</time>
      </trkpt>
      <trkpt lat="48.54471" lon="2.09539">
        <ele>116</ele>
        <time>2022-03-06T10:39:58Z</time>
      </trkpt>
      <trkpt lat="48.54468" lon="2.09534">
        <ele>115</ele>
        <time>2022-03-06T10:40:01Z</time>
      </trkpt>
      <trkpt lat="48.54466" lon="2.0953">
        <ele>115</ele>
        <time>2022-03-06T10:40:04Z</time>
      </trkpt>
      <trkpt lat="48.54463" lon="2.09526">
        <ele>114</ele>
        <time>2022-03-06T10:40:07Z</time>
      </trkpt>
      <trkpt lat="48.5446" lon="2.09523">
        <ele>114</ele>
        <time>2022-03-06T10:40:09Z</time>
      </trkpt>
      <trkpt lat="48.54457" lon="2.09522">
        <ele>114</ele>
        <time>2022-03-06T10:40:11Z</time>
      </trkpt>
      <trkpt lat="48.54453" lon="2.09521">
        <ele>113</ele>
        <time>2022-03-06T10:40:14Z</time>
      </trkpt>
      <trkpt lat="48.5445" lon="2.09519">
        <ele>113</ele>
        <time>2022-03-06T10:40:16Z</time>
      </trkpt>
      <trkpt lat="48.54448" lon="2.09517">
        <ele>112</ele>
        <time>2022-03-06T10:40:19Z</time>
      </trkpt>
      <trkpt lat="48.54444" lon="2.09515">
        <ele>112</ele>
        <time>2022-03-06T10:40:23Z</time>
      </trkpt>
      <trkpt lat="48.54441" lon="2.09515">
        <ele>111</ele>
        <time>2022-03-06T10:40:26Z</time>
      </trkpt>
      <trkpt lat="48.54438" lon="2.09515">
        <ele>111</ele>
        <time>2022-03-06T10:40:28Z</time>
      </trkpt>
      <trkpt lat="48.54434" lon="2.09516">
        <ele>111</ele>
        <time>2022-03-06T10:40:29Z</time>
      </trkpt>
      <trkpt lat="48.54432" lon="2.0952">
        <ele>110</ele>
        <time>2022-03-06T10:40:33Z</time>
      </trkpt>
      <trkpt lat="48.54429" lon="2.09523">
        <ele>109</ele>
        <time>2022-03-06T10:40:37Z</time>
      </trkpt>
      <trkpt lat="48.54426" lon="2.09525">
        <ele>108</ele>
        <time>2022-03-06T10:40:39Z</time>
      </trkpt>
      <trkpt lat="48.54423" lon="2.09527">
        <ele>107</ele>
        <time>2022-03-06T10:40:43Z</time>
      </trkpt>
      <trkpt lat="48.54421" lon="2.09531">
        <ele>107</ele>
        <time>2022-03-06T10:40:46Z</time>
      </trkpt>
      <trkpt lat="48.54418" lon="2.09535">
        <ele>106</ele>
        <time>2022-03-06T10:40:49Z</time>
      </trkpt>
      <trkpt lat="48.54416" lon="2.09538">
        <ele>106</ele>
        <time>2022-03-06T10:40:51Z</time>
      </trkpt>
      <trkpt lat="48.54414" lon="2.09541">
        <ele>105</ele>
        <time>2022-03-06T10:40:53Z</time>
      </trkpt>
      <trkpt lat="48.54412" lon="2.09544">
        <ele>105</ele>
        <time>2022-03-06T10:40:56Z</time>
      </trkpt>
      <trkpt lat="48.5441" lon="2.09548">
        <ele>104</ele>
        <time>2022-03-06T10:40:59Z</time>
      </trkpt>
      <trkpt lat="48.54408" lon="2.09551">
        <ele>104</ele>
        <time>2022-03-06T10:41:02Z</time>
      </trkpt>
      <trkpt lat="48.54405" lon="2.09555">
        <ele>104</ele>
        <time>2022-03-06T10:41:04Z</time>
      </trkpt>
      <trkpt lat="48.54403" lon="2.09559">
        <ele>104</ele>
        <time>2022-03-06T10:41:07Z</time>
      </trkpt>
      <trkpt lat="48.544" lon="2.09561">
        <ele>103</ele>
        <time>2022-03-06T10:41:09Z</time>
      </trkpt>
      <trkpt lat="48.54397" lon="2.09563">
        <ele>103</ele>
        <time>2022-03-06T10:41:12Z</time>
      </trkpt>
      <trkpt lat="48.54394" lon="2.09565">
        <ele>103</ele>
        <time>2022-03-06T10:41:15Z</time>
      </trkpt>
      <trkpt lat="48.54391" lon="2.09567">
        <ele>102</ele>
        <time>2022-03-06T10:41:18Z</time>
      </trkpt>
      <trkpt lat="48.54388" lon="2.09569">
        <ele>102</ele>
        <time>2022-03-06T10:41:20Z</time>
      </trkpt>
      <trkpt lat="48.54385" lon="2.0957">
        <ele>102</ele>
        <time>2022-03-06T10:41:23Z</time>
      </trkpt>
      <trkpt lat="48.54382" lon="2.09572">
        <ele>102</ele>
        <time>2022-03-06T10:41:25Z</time>
      </trkpt>
      <trkpt lat="48.54378" lon="2.09573">
        <ele>101</ele>
        <time>2022-03-06T10:41:29Z</time>
      </trkpt>
      <trkpt lat="48.54375" lon="2.09574">
        <ele>101</ele>
        <time>2022-03-06T10:41:32Z</time>
      </trkpt>
      <trkpt lat="48.54372" lon="2.09574">
        <ele>101</ele>
        <time>2022-03-06T10:41:34Z</time>
      </trkpt>
      <trkpt lat="48.54368" lon="2.09573">
        <ele>100</ele>
        <time>2022-03-06T10:41:37Z</time>
      </trkpt>
      <trkpt lat="48.54365" lon="2.09571">
        <ele>100</ele>
        <time>2022-03-06T10:41:39Z</time>
      </trkpt>
      <trkpt lat="48.54361" lon="2.09568">
        <ele>100</ele>
        <time>2022-03-06T10:41:42Z</time>
      </trkpt>
      <trkpt lat="48.54358" lon="2.09564">
        <ele>99</ele>
        <time>2022-03-06T10:41:45Z</time>
      </trkpt>
      <trkpt lat="48.54356" lon="2.09561">
        <ele>99</ele>
        <time>2022-03-06T10:41:47Z</time>
      </trkpt>
      <trkpt lat="48.54354" lon="2.09557">
        <ele>99</ele>
        <time>2022-03-06T10:41:49Z</time>
      </trkpt>
      <trkpt lat="48.54351" lon="2.09553">
        <ele>99</ele>
        <time>2022-03-06T10:41:51Z</time>
      </trkpt>
      <trkpt lat="48.54349" lon="2.09548">
        <ele>98</ele>
        <time>2022-03-06T10:41:53Z</time>
      </trkpt>
      <trkpt lat="48.54347" lon="2.09543">
        <ele>98</ele>
        <time>2022-03-06T10:41:56Z</time>
      </trkpt>
      <trkpt lat="48.54347" lon="2.09537">
        <ele>98</ele>
        <time>2022-03-06T10:41:58Z</time>
      </trkpt>
      <trkpt lat="48.54346" lon="2.09532">
        <ele>98</ele>
        <time>2022-03-06T10:42:00Z</time>
      </trkpt>
      <trkpt lat="48.54345" lon="2.09527">
        <ele>97</ele>
        <time>2022-03-06T10:42:02Z</time>
      </trkpt>
      <trkpt lat="48.54344" lon="2.09522">
        <ele>97</ele>
        <time>2022-03-06T10:42:04Z</time>
      </trkpt>
      <trkpt lat="48.54343" lon="2.09516">
        <ele>97</ele>
        <time>2022-03-06T10:42:06Z</time>
      </trkpt>
      <trkpt lat="48.54341" lon="2.09511">
        <ele>96</ele>
        <time>2022-03-06T10:42:08Z</time>
      </trkpt>
      <trkpt lat="48.54339" lon="2.09506">
        <ele>96</ele>
        <time>2022-03-06T10:42:11Z</time>
      </trkpt>
      <trkpt lat="48.54336" lon="2.09501">
        <ele>95</ele>
        <time>2022-03-06T10:42:14Z</time>
      </trkpt>
      <trkpt lat="48.54334" lon="2.09497">
        <ele>95</ele>
        <time>2022-03-06T10:42:17Z</time>
      </trkpt>
      <trkpt lat="48.54331" lon="2.09495">
        <ele>94</ele>
        <time>2022-03-06T10:42:19Z</time>
      </trkpt>
      <trkpt lat="48.54328" lon="2.09493">
        <ele>94</ele>
        <time>2022-03-06T10:42:21Z</time>
      </trkpt>
      <trkpt lat="48.54325" lon="2.09491">
        <ele>93</ele>
        <time>2022-03-06T10:42:24Z</time>
      </trkpt>
      <trkpt lat="48.54322" lon="2.0949">
        <ele>93</ele>
        <time>2022-03-06T10:42:26Z</time>
      </trkpt>
      <trkpt lat="48.54318" lon="2.09489">
        <ele>93</ele>
        <time>2022-03-06T10:42:28Z</time>
      </trkpt>
      <trkpt lat="48.54315" lon="2.09488">
        <ele>92</ele>
        <time>2022-03-06T10:42:31Z</time>
      </trkpt>
      <trkpt lat="48.54311" lon="2.09486">
        <ele>92</ele>
        <time>2022-03-06T10:42:34Z</time>
      </trkpt>
      <trkpt lat="48.54308" lon="2.09485">
        <ele>91</ele>
        <time>2022-03-06T10:42:36Z</time>
      </trkpt>
      <trkpt lat="48.54306" lon="2.09483">
        <ele>91</ele>
        <time>2022-03-06T10:42:38Z</time>
      </trkpt>
      <trkpt lat="48.54303" lon="2.09481">
        <ele>91</ele>
        <time>2022-03-06T10:42:40Z</time>
      </trkpt>
      <trkpt lat="48.543" lon="2.09478">
        <ele>91</ele>
        <time>2022-03-06T10:42:42Z</time>
      </trkpt>
      <trkpt lat="48.54298" lon="2.09475">
        <ele>90</ele>
        <time>2022-03-06T10:42:45Z</time>
      </trkpt>
      <trkpt lat="48.54296" lon="2.09471">
        <ele>90</ele>
        <time>2022-03-06T10:42:48Z</time>
      </trkpt>
      <trkpt lat="48.54294" lon="2.09468">
        <ele>90</ele>
        <time>2022-03-06T10:42:51Z</time>
      </trkpt>
      <trkpt lat="48.54292" lon="2.09464">
        <ele>90</ele>
        <time>2022-03-06T10:42:54Z</time>
      </trkpt>
      <trkpt lat="48.54289" lon="2.09461">
        <ele>90</ele>
        <time>2022-03-06T10:42:56Z</time>
      </trkpt>
      <trkpt lat="48.54287" lon="2.09458">
        <ele>90</ele>
        <time>2022-03-06T10:42:58Z</time>
      </trkpt>
      <trkpt lat="48.54284" lon="2.09454">
        <ele>89</ele>
        <time>2022-03-06T10:43:01Z</time>
      </trkpt>
      <trkpt lat="48.54282" lon="2.09451">
        <ele>89</ele>
        <time>2022-03-06T10:43:03Z</time>
      </trkpt>
      <trkpt lat="48.5428" lon="2.09446">
        <ele>89</ele>
        <time>2022-03-06T10:43:06Z</time>
      </trkpt>
      <trkpt lat="48.54277" lon="2.09443">
        <ele>89</ele>
        <time>2022-03-06T10:43:08Z</time>
      </trkpt>
      <trkpt lat="48.54275" lon="2.09439">
        <ele>89</ele>
        <time>2022-03-06T10:43:11Z</time>
      </trkpt>
      <trkpt lat="48.54272" lon="2.09435">
        <ele>88</ele>
        <time>2022-03-06T10:43:14Z</time>
      </trkpt>
      <trkpt lat="48.54269" lon="2.09432">
        <ele>88</ele>
        <time>2022-03-06T10:43:16Z</time>
      </trkpt>
      <trkpt lat="48.54267" lon="2.09429">
        <ele>88</ele>
        <time>2022-03-06T10:43:18Z</time>
      </trkpt>
      <trkpt lat="48.54264" lon="2.09426">
        <ele>88</ele>
        <time>2022-03-06T10:43:20Z</time>
      </trkpt>
      <trkpt lat="48.54262" lon="2.09423">
        <ele>88</ele>
        <time>2022-03-06T10:43:22Z</time>
      </trkpt>
      <trkpt lat="48.54259" lon="2.0942">
        <ele>87</ele>
        <time>2022-03-06T10:43:24Z</time>
      </trkpt>
      <trkpt lat="48.54256" lon="2.09417">
        <ele>87</ele>
        <time>2022-03-06T10:43:26Z</time>
      </trkpt>
      <trkpt lat="48.54253" lon="2.09414">
        <ele>87</ele>
        <time>2022-03-06T10:43:28Z</time>
      </trkpt>
      <trkpt lat="48.54251" lon="2.09411">
        <ele>87</ele>
        <time>2022-03-06T10:43:32Z</time>
      </trkpt>
      <trkpt lat="48.54248" lon="2.09407">
        <ele>87</ele>
        <time>2022-03-06T10:43:34Z</time>
      </trkpt>
      <trkpt lat="48.54246" lon="2.09404">
        <ele>86</ele>
        <time>2022-03-06T10:43:36Z</time>
      </trkpt>
      <trkpt lat="48.54244" lon="2.09402">
        <ele>86</ele>
        <time>2022-03-06T10:43:38Z</time>
      </trkpt>
      <trkpt lat="48.54241" lon="2.09398">
        <ele>86</ele>
        <time>2022-03-06T10:43:41Z</time>
      </trkpt>
      <trkpt lat="48.54239" lon="2.09395">
        <ele>86</ele>
        <time>2022-03-06T10:43:43Z</time>
      </trkpt>
      <trkpt lat="48.54236" lon="2.09391">
        <ele>86</ele>
        <time>2022-03-06T10:43:45Z</time>
      </trkpt>
      <trkpt lat="48.54234" lon="2.09389">
        <ele>86</ele>
        <time>2022-03-06T10:43:48Z</time>
      </trkpt>
      <trkpt lat="48.54231" lon="2.09385">
        <ele>85</ele>
        <time>2022-03-06T10:43:50Z</time>
      </trkpt>
      <trkpt lat="48.54229" lon="2.09382">
        <ele>85</ele>
        <time>2022-03-06T10:43:52Z</time>
      </trkpt>
      <trkpt lat="48.54227" lon="2.09379">
        <ele>85</ele>
        <time>2022-03-06T10:43:55Z</time>
      </trkpt>
      <trkpt lat="48.54225" lon="2.09376">
        <ele>85</ele>
        <time>2022-03-06T10:43:57Z</time>
      </trkpt>
      <trkpt lat="48.54222" lon="2.09372">
        <ele>85</ele>
        <time>2022-03-06T10:43:59Z</time>
      </trkpt>
      <trkpt lat="48.54221" lon="2.09369">
        <ele>84</ele>
        <time>2022-03-06T10:44:01Z</time>
      </trkpt>
      <trkpt lat="48.54219" lon="2.09366">
        <ele>84</ele>
        <time>2022-03-06T10:44:03Z</time>
      </trkpt>
      <trkpt lat="48.54217" lon="2.09363">
        <ele>84</ele>
        <time>2022-03-06T10:44:05Z</time>
      </trkpt>
      <trkpt lat="48.54215" lon="2.09359">
        <ele>84</ele>
        <time>2022-03-06T10:44:07Z</time>
      </trkpt>
      <trkpt lat="48.54213" lon="2.09355">
        <ele>84</ele>
        <time>2022-03-06T10:44:09Z</time>
      </trkpt>
      <trkpt lat="48.54212" lon="2.0935">
        <ele>84</ele>
        <time>2022-03-06T10:44:12Z</time>
      </trkpt>
      <trkpt lat="48.54211" lon="2.09345">
        <ele>84</ele>
        <time>2022-03-06T10:44:14Z</time>
      </trkpt>
      <trkpt lat="48.54211" lon="2.0934">
        <ele>84</ele>
        <time>2022-03-06T10:44:16Z</time>
      </trkpt>
      <trkpt lat="48.54211" lon="2.09335">
        <ele>84</ele>
        <time>2022-03-06T10:44:19Z</time>
      </trkpt>
      <trkpt lat="48.5421" lon="2.0933">
        <ele>84</ele>
        <time>2022-03-06T10:44:21Z</time>
      </trkpt>
      <trkpt lat="48.54209" lon="2.09325">
        <ele>84</ele>
        <time>2022-03-06T10:44:23Z</time>
      </trkpt>
      <trkpt lat="48.54209" lon="2.09321">
        <ele>84</ele>
        <time>2022-03-06T10:44:25Z</time>
      </trkpt>
      <trkpt lat="48.54208" lon="2.09316">
        <ele>84</ele>
        <time>2022-03-06T10:44:27Z</time>
      </trkpt>
      <trkpt lat="48.54207" lon="2.09312">
        <ele>84</ele>
        <time>2022-03-06T10:44:29Z</time>
      </trkpt>
      <trkpt lat="48.54207" lon="2.09307">
        <ele>85</ele>
        <time>2022-03-06T10:44:31Z</time>
      </trkpt>
      <trkpt lat="48.54207" lon="2.09302">
        <ele>85</ele>
        <time>2022-03-06T10:44:34Z</time>
      </trkpt>
      <trkpt lat="48.54207" lon="2.09296">
        <ele>85</ele>
        <time>2022-03-06T10:44:37Z</time>
      </trkpt>
      <trkpt lat="48.54207" lon="2.09291">
        <ele>85</ele>
        <time>2022-03-06T10:44:39Z</time>
      </trkpt>
      <trkpt lat="48.54205" lon="2.09286">
        <ele>85</ele>
        <time>2022-03-06T10:44:41Z</time>
      </trkpt>
      <trkpt lat="48.54205" lon="2.0928">
        <ele>85</ele>
        <time>2022-03-06T10:44:43Z</time>
      </trkpt>
      <trkpt lat="48.54204" lon="2.09275">
        <ele>85</ele>
        <time>2022-03-06T10:44:45Z</time>
      </trkpt>
      <trkpt lat="48.54204" lon="2.09271">
        <ele>86</ele>
        <time>2022-03-06T10:44:47Z</time>
      </trkpt>
      <trkpt lat="48.54204" lon="2.09266">
        <ele>86</ele>
        <time>2022-03-06T10:44:49Z</time>
      </trkpt>
      <trkpt lat="48.54203" lon="2.09261">
        <ele>86</ele>
        <time>2022-03-06T10:44:51Z</time>
      </trkpt>
      <trkpt lat="48.54202" lon="2.09256">
        <ele>86</ele>
        <time>2022-03-06T10:44:53Z</time>
      </trkpt>
      <trkpt lat="48.54202" lon="2.09251">
        <ele>86</ele>
        <time>2022-03-06T10:44:55Z</time>
      </trkpt>
      <trkpt lat="48.54202" lon="2.09246">
        <ele>86</ele>
        <time>2022-03-06T10:44:57Z</time>
      </trkpt>
      <trkpt lat="48.54201" lon="2.09241">
        <ele>86</ele>
        <time>2022-03-06T10:44:59Z</time>
      </trkpt>
      <trkpt lat="48.542" lon="2.09236">
        <ele>86</ele>
        <time>2022-03-06T10:45:01Z</time>
      </trkpt>
      <trkpt lat="48.542" lon="2.0923">
        <ele>86</ele>
        <time>2022-03-06T10:45:03Z</time>
      </trkpt>
      <trkpt lat="48.54199" lon="2.09226">
        <ele>86</ele>
        <time>2022-03-06T10:45:05Z</time>
      </trkpt>
      <trkpt lat="48.54198" lon="2.09221">
        <ele>86</ele>
        <time>2022-03-06T10:45:07Z</time>
      </trkpt>
      <trkpt lat="48.54197" lon="2.09216">
        <ele>86</ele>
        <time>2022-03-06T10:45:09Z</time>
      </trkpt>
      <trkpt lat="48.54196" lon="2.09212">
        <ele>86</ele>
        <time>2022-03-06T10:45:11Z</time>
      </trkpt>
      <trkpt lat="48.54196" lon="2.09206">
        <ele>86</ele>
        <time>2022-03-06T10:45:13Z</time>
      </trkpt>
      <trkpt lat="48.54195" lon="2.09201">
        <ele>86</ele>
        <time>2022-03-06T10:45:15Z</time>
      </trkpt>
      <trkpt lat="48.54195" lon="2.09196">
        <ele>86</ele>
        <time>2022-03-06T10:45:17Z</time>
      </trkpt>
      <trkpt lat="48.54195" lon="2.09191">
        <ele>86</ele>
        <time>2022-03-06T10:45:19Z</time>
      </trkpt>
      <trkpt lat="48.54195" lon="2.09186">
        <ele>86</ele>
        <time>2022-03-06T10:45:21Z</time>
      </trkpt>
      <trkpt lat="48.54194" lon="2.09182">
        <ele>86</ele>
        <time>2022-03-06T10:45:23Z</time>
      </trkpt>
      <trkpt lat="48.54195" lon="2.09177">
        <ele>86</ele>
        <time>2022-03-06T10:45:25Z</time>
      </trkpt>
      <trkpt lat="48.54196" lon="2.09172">
        <ele>85</ele>
        <time>2022-03-06T10:45:27Z</time>
      </trkpt>
      <trkpt lat="48.54196" lon="2.09167">
        <ele>85</ele>
        <time>2022-03-06T10:45:29Z</time>
      </trkpt>
      <trkpt lat="48.54195" lon="2.09162">
        <ele>84</ele>
        <time>2022-03-06T10:45:31Z</time>
      </trkpt>
      <trkpt lat="48.54194" lon="2.09157">
        <ele>84</ele>
        <time>2022-03-06T10:45:33Z</time>
      </trkpt>
      <trkpt lat="48.54193" lon="2.09152">
        <ele>84</ele>
        <time>2022-03-06T10:45:35Z</time>
      </trkpt>
      <trkpt lat="48.54192" lon="2.09147">
        <ele>84</ele>
        <time>2022-03-06T10:45:37Z</time>
      </trkpt>
      <trkpt lat="48.54191" lon="2.09142">
        <ele>84</ele>
        <time>2022-03-06T10:45:39Z</time>
      </trkpt>
      <trkpt lat="48.5419" lon="2.09136">
        <ele>84</ele>
        <time>2022-03-06T10:45:41Z</time>
      </trkpt>
      <trkpt lat="48.54189" lon="2.0913">
        <ele>84</ele>
        <time>2022-03-06T10:45:43Z</time>
      </trkpt>
      <trkpt lat="48.54189" lon="2.09126">
        <ele>84</ele>
        <time>2022-03-06T10:45:45Z</time>
      </trkpt>
      <trkpt lat="48.54189" lon="2.09121">
        <ele>84</ele>
        <time>2022-03-06T10:45:47Z</time>
      </trkpt>
      <trkpt lat="48.54188" lon="2.09116">
        <ele>84</ele>
        <time>2022-03-06T10:45:49Z</time>
      </trkpt>
      <trkpt lat="48.54187" lon="2.09112">
        <ele>84</ele>
        <time>2022-03-06T10:45:51Z</time>
      </trkpt>
      <trkpt lat="48.54186" lon="2.09108">
        <ele>84</ele>
        <time>2022-03-06T10:45:53Z</time>
      </trkpt>
      <trkpt lat="48.54185" lon="2.09103">
        <ele>85</ele>
        <time>2022-03-06T10:45:56Z</time>
      </trkpt>
      <trkpt lat="48.54184" lon="2.09098">
        <ele>85</ele>
        <time>2022-03-06T10:45:58Z</time>
      </trkpt>
      <trkpt lat="48.54183" lon="2.09094">
        <ele>85</ele>
        <time>2022-03-06T10:46:00Z</time>
      </trkpt>
      <trkpt lat="48.54181" lon="2.0909">
        <ele>86</ele>
        <time>2022-03-06T10:46:02Z</time>
      </trkpt>
      <trkpt lat="48.5418" lon="2.09085">
        <ele>86</ele>
        <time>2022-03-06T10:46:04Z</time>
      </trkpt>
      <trkpt lat="48.54179" lon="2.09081">
        <ele>86</ele>
        <time>2022-03-06T10:46:06Z</time>
      </trkpt>
      <trkpt lat="48.54177" lon="2.09077">
        <ele>86</ele>
        <time>2022-03-06T10:46:08Z</time>
      </trkpt>
      <trkpt lat="48.54177" lon="2.09073">
        <ele>86</ele>
        <time>2022-03-06T10:46:10Z</time>
      </trkpt>
      <trkpt lat="48.54176" lon="2.09068">
        <ele>86</ele>
        <time>2022-03-06T10:46:12Z</time>
      </trkpt>
      <trkpt lat="48.54175" lon="2.09064">
        <ele>86</ele>
        <time>2022-03-06T10:46:14Z</time>
      </trkpt>
      <trkpt lat="48.54174" lon="2.09059">
        <ele>86</ele>
        <time>2022-03-06T10:46:16Z</time>
      </trkpt>
      <trkpt lat="48.54173" lon="2.09054">
        <ele>86</ele>
        <time>2022-03-06T10:46:18Z</time>
      </trkpt>
      <trkpt lat="48.54172" lon="2.0905">
        <ele>86</ele>
        <time>2022-03-06T10:46:20Z</time>
      </trkpt>
      <trkpt lat="48.54171" lon="2.09045">
        <ele>86</ele>
        <time>2022-03-06T10:46:22Z</time>
      </trkpt>
      <trkpt lat="48.5417" lon="2.09041">
        <ele>86</ele>
        <time>2022-03-06T10:46:24Z</time>
      </trkpt>
      <trkpt lat="48.54169" lon="2.09036">
        <ele>85</ele>
        <time>2022-03-06T10:46:26Z</time>
      </trkpt>
      <trkpt lat="48.54168" lon="2.09032">
        <ele>85</ele>
        <time>2022-03-06T10:46:28Z</time>
      </trkpt>
      <trkpt lat="48.54167" lon="2.09027">
        <ele>85</ele>
        <time>2022-03-06T10:46:30Z</time>
      </trkpt>
      <trkpt lat="48.54166" lon="2.09023">
        <ele>85</ele>
        <time>2022-03-06T10:46:32Z</time>
      </trkpt>
      <trkpt lat="48.54164" lon="2.09018">
        <ele>85</ele>
        <time>2022-03-06T10:46:34Z</time>
      </trkpt>
      <trkpt lat="48.54164" lon="2.09013">
        <ele>85</ele>
        <time>2022-03-06T10:46:36Z</time>
      </trkpt>
      <trkpt lat="48.54163" lon="2.09008">
        <ele>84</ele>
        <time>2022-03-06T10:46:38Z</time>
      </trkpt>
      <trkpt lat="48.54162" lon="2.09003">
        <ele>84</ele>
        <time>2022-03-06T10:46:40Z</time>
      </trkpt>
      <trkpt lat="48.54161" lon="2.08998">
        <ele>84</ele>
        <time>2022-03-06T10:46:42Z</time>
      </trkpt>
      <trkpt lat="48.5416" lon="2.08993">
        <ele>84</ele>
        <time>2022-03-06T10:46:44Z</time>
      </trkpt>
      <trkpt lat="48.5416" lon="2.08987">
        <ele>84</ele>
        <time>2022-03-06T10:46:46Z</time>
      </trkpt>
      <trkpt lat="48.54159" lon="2.08983">
        <ele>84</ele>
        <time>2022-03-06T10:46:48Z</time>
      </trkpt>
      <trkpt lat="48.54158" lon="2.08978">
        <ele>84</ele>
        <time>2022-03-06T10:46:50Z</time>
      </trkpt>
      <trkpt lat="48.54157" lon="2.08973">
        <ele>84</ele>
        <time>2022-03-06T10:46:52Z</time>
      </trkpt>
      <trkpt lat="48.54156" lon="2.08968">
        <ele>84</ele>
        <time>2022-03-06T10:46:54Z</time>
      </trkpt>
      <trkpt lat="48.54155" lon="2.08964">
        <ele>84</ele>
        <time>2022-03-06T10:46:56Z</time>
      </trkpt>
      <trkpt lat="48.54155" lon="2.08959">
        <ele>84</ele>
        <time>2022-03-06T10:46:58Z</time>
      </trkpt>
      <trkpt lat="48.54154" lon="2.08954">
        <ele>84</ele>
        <time>2022-03-06T10:47:00Z</time>
      </trkpt>
      <trkpt lat="48.54153" lon="2.08949">
        <ele>84</ele>
        <time>2022-03-06T10:47:02Z</time>
      </trkpt>
      <trkpt lat="48.54153" lon="2.08944">
        <ele>84</ele>
        <time>2022-03-06T10:47:04Z</time>
      </trkpt>
      <trkpt lat="48.54153" lon="2.0894">
        <ele>84</ele>
        <time>2022-03-06T10:47:06Z</time>
      </trkpt>
      <trkpt lat="48.54152" lon="2.08935">
        <ele>84</ele>
        <time>2022-03-06T10:47:08Z</time>
      </trkpt>
      <trkpt lat="48.54152" lon="2.0893">
        <ele>84</ele>
        <time>2022-03-06T10:47:10Z</time>
      </trkpt>
      <trkpt lat="48.54151" lon="2.08925">
        <ele>84</ele>
        <time>2022-03-06T10:47:12Z</time>
      </trkpt>
      <trkpt lat="48.5415" lon="2.0892">
        <ele>84</ele>
        <time>2022-03-06T10:47:14Z</time>
      </trkpt>
      <trkpt lat="48.54149" lon="2.08915">
        <ele>85</ele>
        <time>2022-03-06T10:47:16Z</time>
      </trkpt>
      <trkpt lat="48.54149" lon="2.0891">
        <ele>85</ele>
        <time>2022-03-06T10:47:18Z</time>
      </trkpt>
      <trkpt lat="48.54148" lon="2.08905">
        <ele>85</ele>
        <time>2022-03-06T10:47:20Z</time>
      </trkpt>
      <trkpt lat="48.54148" lon="2.089">
        <ele>85</ele>
        <time>2022-03-06T10:47:22Z</time>
      </trkpt>
      <trkpt lat="48.54147" lon="2.08895">
        <ele>85</ele>
        <time>2022-03-06T10:47:24Z</time>
      </trkpt>
      <trkpt lat="48.54146" lon="2.0889">
        <ele>85</ele>
        <time>2022-03-06T10:47:26Z</time>
      </trkpt>
      <trkpt lat="48.54145" lon="2.08885">
        <ele>85</ele>
        <time>2022-03-06T10:47:28Z</time>
      </trkpt>
      <trkpt lat="48.54144" lon="2.0888">
        <ele>85</ele>
        <time>2022-03-06T10:47:30Z</time>
      </trkpt>
      <trkpt lat="48.54144" lon="2.08875">
        <ele>86</ele>
        <time>2022-03-06T10:47:32Z</time>
      </trkpt>
      <trkpt lat="48.54143" lon="2.08871">
        <ele>86</ele>
        <time>2022-03-06T10:47:34Z</time>
      </trkpt>
      <trkpt lat="48.54143" lon="2.08867">
        <ele>86</ele>
        <time>2022-03-06T10:47:36Z</time>
      </trkpt>
      <trkpt lat="48.54143" lon="2.08862">
        <ele>86</ele>
        <time>2022-03-06T10:47:38Z</time>
      </trkpt>
      <trkpt lat="48.54142" lon="2.08858">
        <ele>86</ele>
        <time>2022-03-06T10:47:40Z</time>
      </trkpt>
      <trkpt lat="48.54142" lon="2.08853">
        <ele>86</ele>
        <time>2022-03-06T10:47:42Z</time>
      </trkpt>
      <trkpt lat="48.54141" lon="2.08849">
        <ele>86</ele>
        <time>2022-03-06T10:47:44Z</time>
      </trkpt>
      <trkpt lat="48.54141" lon="2.08844">
        <ele>86</ele>
        <time>2022-03-06T10:47:46Z</time>
      </trkpt>
      <trkpt lat="48.5414" lon="2.08839">
        <ele>86</ele>
        <time>2022-03-06T10:47:48Z</time>
      </trkpt>
      <trkpt lat="48.54139" lon="2.08834">
        <ele>86</ele>
        <time>2022-03-06T10:47:50Z</time>
      </trkpt>
      <trkpt lat="48.54138" lon="2.08829">
        <ele>86</ele>
        <time>2022-03-06T10:47:52Z</time>
      </trkpt>
      <trkpt lat="48.54138" lon="2.08824">
        <ele>86</ele>
        <time>2022-03-06T10:47:54Z</time>
      </trkpt>
      <trkpt lat="48.54137" lon="2.08819">
        <ele>86</ele>
        <time>2022-03-06T10:47:56Z</time>
      </trkpt>
      <trkpt lat="48.54136" lon="2.08814">
        <ele>86</ele>
        <time>2022-03-06T10:47:58Z</time>
      </trkpt>
      <trkpt lat="48.54135" lon="2.08809">
        <ele>86</ele>
        <time>2022-03-06T10:48:00Z</time>
      </trkpt>
      <trkpt lat="48.54134" lon="2.08804">
        <ele>86</ele>
        <time>2022-03-06T10:48:02Z</time>
      </trkpt>
      <trkpt lat="48.54134" lon="2.08799">
        <ele>86</ele>
        <time>2022-03-06T10:48:04Z</time>
      </trkpt>
      <trkpt lat="48.54133" lon="2.08794">
        <ele>86</ele>
        <time>2022-03-06T10:48:06Z</time>
      </trkpt>
      <trkpt lat="48.54132" lon="2.08789">
        <ele>86</ele>
        <time>2022-03-06T10:48:08Z</time>
      </trkpt>
      <trkpt lat="48.54132" lon="2.08784">
        <ele>86</ele>
        <time>2022-03-06T10:48:10Z</time>
      </trkpt>
      <trkpt lat="48.54132" lon="2.08779">
        <ele>86</ele>
        <time>2022-03-06T10:48:12Z</time>
      </trkpt>
      <trkpt lat="48.54132" lon="2.08774">
        <ele>86</ele>
        <time>2022-03-06T10:48:14Z</time>
      </trkpt>
      <trkpt lat="48.54132" lon="2.0877">
        <ele>86</ele>
        <time>2022-03-06T10:48:16Z</time>
      </trkpt>
      <trkpt lat="48.54131" lon="2.08765">
        <ele>86</ele>
        <time>2022-03-06T10:48:18Z</time>
      </trkpt>
      <trkpt lat="48.54131" lon="2.08761">
        <ele>86</ele>
        <time>2022-03-06T10:48:20Z</time>
      </trkpt>
      <trkpt lat="48.5413" lon="2.08756">
        <ele>86</ele>
        <time>2022-03-06T10:48:23Z</time>
      </trkpt>
      <trkpt lat="48.54129" lon="2.08751">
        <ele>86</ele>
        <time>2022-03-06T10:48:25Z</time>
      </trkpt>
      <trkpt lat="48.54128" lon="2.08746">
        <ele>86</ele>
        <time>2022-03-06T10:48:28Z</time>
      </trkpt>
      <trkpt lat="48.54127" lon="2.0874">
        <ele>86</ele>
        <time>2022-03-06T10:48:30Z</time>
      </trkpt>
      <trkpt lat="48.54126" lon="2.08735">
        <ele>86</ele>
        <time>2022-03-06T10:48:32Z</time>
      </trkpt>
      <trkpt lat="48.54124" lon="2.0873">
        <ele>86</ele>
        <time>2022-03-06T10:48:34Z</time>
      </trkpt>
      <trkpt lat="48.54123" lon="2.08724">
        <ele>86</ele>
        <time>2022-03-06T10:48:36Z</time>
      </trkpt>
      <trkpt lat="48.54122" lon="2.08719">
        <ele>86</ele>
        <time>2022-03-06T10:48:38Z</time>
      </trkpt>
      <trkpt lat="48.54121" lon="2.08714">
        <ele>86</ele>
        <time>2022-03-06T10:48:40Z</time>
      </trkpt>
      <trkpt lat="48.5412" lon="2.08709">
        <ele>86</ele>
        <time>2022-03-06T10:48:42Z</time>
      </trkpt>
      <trkpt lat="48.54119" lon="2.08705">
        <ele>86</ele>
        <time>2022-03-06T10:48:44Z</time>
      </trkpt>
      <trkpt lat="48.54119" lon="2.08701">
        <ele>87</ele>
        <time>2022-03-06T10:48:46Z</time>
      </trkpt>
      <trkpt lat="48.54118" lon="2.08697">
        <ele>87</ele>
        <time>2022-03-06T10:48:48Z</time>
      </trkpt>
      <trkpt lat="48.54118" lon="2.08691">
        <ele>87</ele>
        <time>2022-03-06T10:48:51Z</time>
      </trkpt>
      <trkpt lat="48.54117" lon="2.08686">
        <ele>87</ele>
        <time>2022-03-06T10:48:53Z</time>
      </trkpt>
      <trkpt lat="48.54117" lon="2.08681">
        <ele>87</ele>
        <time>2022-03-06T10:48:55Z</time>
      </trkpt>
      <trkpt lat="48.54117" lon="2.08676">
        <ele>87</ele>
        <time>2022-03-06T10:48:57Z</time>
      </trkpt>
      <trkpt lat="48.54117" lon="2.08672">
        <ele>87</ele>
        <time>2022-03-06T10:48:59Z</time>
      </trkpt>
      <trkpt lat="48.54116" lon="2.08667">
        <ele>87</ele>
        <time>2022-03-06T10:49:02Z</time>
      </trkpt>
      <trkpt lat="48.54115" lon="2.08661">
        <ele>87</ele>
        <time>2022-03-06T10:49:05Z</time>
      </trkpt>
      <trkpt lat="48.54116" lon="2.08656">
        <ele>87</ele>
        <time>2022-03-06T10:49:07Z</time>
      </trkpt>
      <trkpt lat="48.54115" lon="2.08651">
        <ele>87</ele>
        <time>2022-03-06T10:49:09Z</time>
      </trkpt>
      <trkpt lat="48.54115" lon="2.08646">
        <ele>87</ele>
        <time>2022-03-06T10:49:11Z</time>
      </trkpt>
      <trkpt lat="48.54115" lon="2.08641">
        <ele>87</ele>
        <time>2022-03-06T10:49:13Z</time>
      </trkpt>
      <trkpt lat="48.54114" lon="2.08636">
        <ele>87</ele>
        <time>2022-03-06T10:49:15Z</time>
      </trkpt>
      <trkpt lat="48.54113" lon="2.08632">
        <ele>87</ele>
        <time>2022-03-06T10:49:17Z</time>
      </trkpt>
      <trkpt lat="48.54112" lon="2.08627">
        <ele>87</ele>
        <time>2022-03-06T10:49:19Z</time>
      </trkpt>
      <trkpt lat="48.54111" lon="2.08622">
        <ele>87</ele>
        <time>2022-03-06T10:49:21Z</time>
      </trkpt>
      <trkpt lat="48.5411" lon="2.08617">
        <ele>87</ele>
        <time>2022-03-06T10:49:23Z</time>
      </trkpt>
      <trkpt lat="48.54109" lon="2.08613">
        <ele>87</ele>
        <time>2022-03-06T10:49:25Z</time>
      </trkpt>
      <trkpt lat="48.54108" lon="2.08607">
        <ele>87</ele>
        <time>2022-03-06T10:49:27Z</time>
      </trkpt>
      <trkpt lat="48.54107" lon="2.08603">
        <ele>87</ele>
        <time>2022-03-06T10:49:29Z</time>
      </trkpt>
      <trkpt lat="48.54106" lon="2.08598">
        <ele>87</ele>
        <time>2022-03-06T10:49:31Z</time>
      </trkpt>
      <trkpt lat="48.54106" lon="2.08593">
        <ele>87</ele>
        <time>2022-03-06T10:49:33Z</time>
      </trkpt>
      <trkpt lat="48.54105" lon="2.08587">
        <ele>87</ele>
        <time>2022-03-06T10:49:35Z</time>
      </trkpt>
      <trkpt lat="48.54104" lon="2.08581">
        <ele>87</ele>
        <time>2022-03-06T10:49:38Z</time>
      </trkpt>
      <trkpt lat="48.54103" lon="2.08575">
        <ele>87</ele>
        <time>2022-03-06T10:49:40Z</time>
      </trkpt>
      <trkpt lat="48.54103" lon="2.0857">
        <ele>87</ele>
        <time>2022-03-06T10:49:42Z</time>
      </trkpt>
      <trkpt lat="48.54102" lon="2.08566">
        <ele>87</ele>
        <time>2022-03-06T10:49:44Z</time>
      </trkpt>
      <trkpt lat="48.54101" lon="2.0856">
        <ele>87</ele>
        <time>2022-03-06T10:49:46Z</time>
      </trkpt>
      <trkpt lat="48.54101" lon="2.08556">
        <ele>87</ele>
        <time>2022-03-06T10:49:48Z</time>
      </trkpt>
      <trkpt lat="48.54099" lon="2.08551">
        <ele>87</ele>
        <time>2022-03-06T10:49:50Z</time>
      </trkpt>
      <trkpt lat="48.54099" lon="2.08546">
        <ele>87</ele>
        <time>2022-03-06T10:49:52Z</time>
      </trkpt>
      <trkpt lat="48.54098" lon="2.08541">
        <ele>87</ele>
        <time>2022-03-06T10:49:54Z</time>
      </trkpt>
      <trkpt lat="48.54098" lon="2.08537">
        <ele>87</ele>
        <time>2022-03-06T10:49:56Z</time>
      </trkpt>
      <trkpt lat="48.54097" lon="2.08532">
        <ele>87</ele>
        <time>2022-03-06T10:49:58Z</time>
      </trkpt>
      <trkpt lat="48.54096" lon="2.08527">
        <ele>87</ele>
        <time>2022-03-06T10:50:00Z</time>
      </trkpt>
      <trkpt lat="48.54095" lon="2.08523">
        <ele>87</ele>
        <time>2022-03-06T10:50:02Z</time>
      </trkpt>
      <trkpt lat="48.54094" lon="2.08518">
        <ele>86</ele>
        <time>2022-03-06T10:50:04Z</time>
      </trkpt>
      <trkpt lat="48.54094" lon="2.08513">
        <ele>86</ele>
        <time>2022-03-06T10:50:06Z</time>
      </trkpt>
      <trkpt lat="48.54094" lon="2.08508">
        <ele>86</ele>
        <time>2022-03-06T10:50:08Z</time>
      </trkpt>
      <trkpt lat="48.54093" lon="2.08503">
        <ele>86</ele>
        <time>2022-03-06T10:50:10Z</time>
      </trkpt>
      <trkpt lat="48.54093" lon="2.08498">
        <ele>86</ele>
        <time>2022-03-06T10:50:12Z</time>
      </trkpt>
      <trkpt lat="48.54092" lon="2.08494">
        <ele>86</ele>
        <time>2022-03-06T10:50:14Z</time>
      </trkpt>
      <trkpt lat="48.54092" lon="2.08489">
        <ele>86</ele>
        <time>2022-03-06T10:50:16Z</time>
      </trkpt>
      <trkpt lat="48.54091" lon="2.08484">
        <ele>86</ele>
        <time>2022-03-06T10:50:18Z</time>
      </trkpt>
      <trkpt lat="48.5409" lon="2.08479">
        <ele>86</ele>
        <time>2022-03-06T10:50:20Z</time>
      </trkpt>
      <trkpt lat="48.54089" lon="2.08474">
        <ele>86</ele>
        <time>2022-03-06T10:50:22Z</time>
      </trkpt>
      <trkpt lat="48.54088" lon="2.08469">
        <ele>86</ele>
        <time>2022-03-06T10:50:24Z</time>
      </trkpt>
      <trkpt lat="48.54087" lon="2.08465">
        <ele>85</ele>
        <time>2022-03-06T10:50:26Z</time>
      </trkpt>
      <trkpt lat="48.54086" lon="2.0846">
        <ele>85</ele>
        <time>2022-03-06T10:50:28Z</time>
      </trkpt>
      <trkpt lat="48.54085" lon="2.08456">
        <ele>85</ele>
        <time>2022-03-06T10:50:30Z</time>
      </trkpt>
      <trkpt lat="48.54084" lon="2.08451">
        <ele>85</ele>
        <time>2022-03-06T10:50:32Z</time>
      </trkpt>
      <trkpt lat="48.54083" lon="2.08447">
        <ele>85</ele>
        <time>2022-03-06T10:50:34Z</time>
      </trkpt>
      <trkpt lat="48.54082" lon="2.08442">
        <ele>86</ele>
        <time>2022-03-06T10:50:36Z</time>
      </trkpt>
      <trkpt lat="48.54082" lon="2.08438">
        <ele>86</ele>
        <time>2022-03-06T10:50:38Z</time>
      </trkpt>
      <trkpt lat="48.54082" lon="2.08433">
        <ele>86</ele>
        <time>2022-03-06T10:50:40Z</time>
      </trkpt>
      <trkpt lat="48.54082" lon="2.08428">
        <ele>86</ele>
        <time>2022-03-06T10:50:42Z</time>
      </trkpt>
      <trkpt lat="48.54081" lon="2.08423">
        <ele>86</ele>
        <time>2022-03-06T10:50:44Z</time>
      </trkpt>
      <trkpt lat="48.54081" lon="2.08418">
        <ele>87</ele>
        <time>2022-03-06T10:50:46Z</time>
      </trkpt>
      <trkpt lat="48.5408" lon="2.08413">
        <ele>87</ele>
        <time>2022-03-06T10:50:48Z</time>
      </trkpt>
      <trkpt lat="48.5408" lon="2.08408">
        <ele>87</ele>
        <time>2022-03-06T10:50:50Z</time>
      </trkpt>
      <trkpt lat="48.54079" lon="2.08403">
        <ele>87</ele>
        <time>2022-03-06T10:50:52Z</time>
      </trkpt>
      <trkpt lat="48.54078" lon="2.08398">
        <ele>88</ele>
        <time>2022-03-06T10:50:54Z</time>
      </trkpt>
      <trkpt lat="48.54078" lon="2.08392">
        <ele>88</ele>
        <time>2022-03-06T10:50:56Z</time>
      </trkpt>
      <trkpt lat="48.54077" lon="2.08387">
        <ele>88</ele>
        <time>2022-03-06T10:50:58Z</time>
      </trkpt>
      <trkpt lat="48.54077" lon="2.08382">
        <ele>89</ele>
        <time>2022-03-06T10:51:00Z</time>
      </trkpt>
      <trkpt lat="48.54076" lon="2.08377">
        <ele>89</ele>
        <time>2022-03-06T10:51:02Z</time>
      </trkpt>
      <trkpt lat="48.54076" lon="2.08373">
        <ele>89</ele>
        <time>2022-03-06T10:51:04Z</time>
      </trkpt>
      <trkpt lat="48.54075" lon="2.08367">
        <ele>90</ele>
        <time>2022-03-06T10:51:07Z</time>
      </trkpt>
      <trkpt lat="48.54074" lon="2.08362">
        <ele>90</ele>
        <time>2022-03-06T10:51:09Z</time>
      </trkpt>
      <trkpt lat="48.54073" lon="2.08357">
        <ele>90</ele>
        <time>2022-03-06T10:51:11Z</time>
      </trkpt>
      <trkpt lat="48.54073" lon="2.08353">
        <ele>90</ele>
        <time>2022-03-06T10:51:13Z</time>
      </trkpt>
      <trkpt lat="48.54072" lon="2.08348">
        <ele>90</ele>
        <time>2022-03-06T10:51:15Z</time>
      </trkpt>
      <trkpt lat="48.54072" lon="2.08343">
        <ele>90</ele>
        <time>2022-03-06T10:51:17Z</time>
      </trkpt>
      <trkpt lat="48.54071" lon="2.08339">
        <ele>90</ele>
        <time>2022-03-06T10:51:19Z</time>
      </trkpt>
      <trkpt lat="48.54071" lon="2.08334">
        <ele>90</ele>
        <time>2022-03-06T10:51:21Z</time>
      </trkpt>
      <trkpt lat="48.54071" lon="2.0833">
        <ele>90</ele>
        <time>2022-03-06T10:51:23Z</time>
      </trkpt>
      <trkpt lat="48.5407" lon="2.08325">
        <ele>89</ele>
        <time>2022-03-06T10:51:25Z</time>
      </trkpt>
      <trkpt lat="48.54069" lon="2.0832">
        <ele>89</ele>
        <time>2022-03-06T10:51:27Z</time>
      </trkpt>
      <trkpt lat="48.54068" lon="2.08316">
        <ele>89</ele>
        <time>2022-03-06T10:51:29Z</time>
      </trkpt>
      <trkpt lat="48.54068" lon="2.08312">
        <ele>89</ele>
        <time>2022-03-06T10:51:31Z</time>
      </trkpt>
      <trkpt lat="48.54068" lon="2.08307">
        <ele>88</ele>
        <time>2022-03-06T10:51:33Z</time>
      </trkpt>
      <trkpt lat="48.54068" lon="2.08303">
        <ele>88</ele>
        <time>2022-03-06T10:51:35Z</time>
      </trkpt>
      <trkpt lat="48.54067" lon="2.08298">
        <ele>88</ele>
        <time>2022-03-06T10:51:37Z</time>
      </trkpt>
      <trkpt lat="48.54067" lon="2.08294">
        <ele>88</ele>
        <time>2022-03-06T10:51:39Z</time>
      </trkpt>
      <trkpt lat="48.54066" lon="2.08289">
        <ele>87</ele>
        <time>2022-03-06T10:51:41Z</time>
      </trkpt>
      <trkpt lat="48.54065" lon="2.08284">
        <ele>87</ele>
        <time>2022-03-06T10:51:43Z</time>
      </trkpt>
      <trkpt lat="48.54065" lon="2.08279">
        <ele>87</ele>
        <time>2022-03-06T10:51:45Z</time>
      </trkpt>
      <trkpt lat="48.54065" lon="2.08275">
        <ele>87</ele>
        <time>2022-03-06T10:51:47Z</time>
      </trkpt>
      <trkpt lat="48.54064" lon="2.0827">
        <ele>86</ele>
        <time>2022-03-06T10:51:49Z</time>
      </trkpt>
      <trkpt lat="48.54063" lon="2.08265">
        <ele>86</ele>
        <time>2022-03-06T10:51:51Z</time>
      </trkpt>
      <trkpt lat="48.54062" lon="2.0826">
        <ele>86</ele>
        <time>2022-03-06T10:51:53Z</time>
      </trkpt>
      <trkpt lat="48.54061" lon="2.08255">
        <ele>86</ele>
        <time>2022-03-06T10:51:55Z</time>
      </trkpt>
      <trkpt lat="48.54061" lon="2.0825">
        <ele>86</ele>
        <time>2022-03-06T10:51:57Z</time>
      </trkpt>
      <trkpt lat="48.5406" lon="2.08245">
        <ele>86</ele>
        <time>2022-03-06T10:51:59Z</time>
      </trkpt>
      <trkpt lat="48.54058" lon="2.0824">
        <ele>86</ele>
        <time>2022-03-06T10:52:01Z</time>
      </trkpt>
      <trkpt lat="48.54057" lon="2.08235">
        <ele>86</ele>
        <time>2022-03-06T10:52:03Z</time>
      </trkpt>
      <trkpt lat="48.54056" lon="2.0823">
        <ele>86</ele>
        <time>2022-03-06T10:52:05Z</time>
      </trkpt>
      <trkpt lat="48.54055" lon="2.08225">
        <ele>86</ele>
        <time>2022-03-06T10:52:07Z</time>
      </trkpt>
      <trkpt lat="48.54054" lon="2.08219">
        <ele>86</ele>
        <time>2022-03-06T10:52:09Z</time>
      </trkpt>
      <trkpt lat="48.54053" lon="2.08214">
        <ele>86</ele>
        <time>2022-03-06T10:52:11Z</time>
      </trkpt>
      <trkpt lat="48.54053" lon="2.08209">
        <ele>86</ele>
        <time>2022-03-06T10:52:13Z</time>
      </trkpt>
      <trkpt lat="48.54052" lon="2.08203">
        <ele>86</ele>
        <time>2022-03-06T10:52:15Z</time>
      </trkpt>
      <trkpt lat="48.54052" lon="2.08198">
        <ele>86</ele>
        <time>2022-03-06T10:52:17Z</time>
      </trkpt>
      <trkpt lat="48.54051" lon="2.08194">
        <ele>86</ele>
        <time>2022-03-06T10:52:19Z</time>
      </trkpt>
      <trkpt lat="48.54051" lon="2.08188">
        <ele>86</ele>
        <time>2022-03-06T10:52:22Z</time>
      </trkpt>
      <trkpt lat="48.5405" lon="2.08183">
        <ele>85</ele>
        <time>2022-03-06T10:52:24Z</time>
      </trkpt>
      <trkpt lat="48.5405" lon="2.08178">
        <ele>85</ele>
        <time>2022-03-06T10:52:26Z</time>
      </trkpt>
      <trkpt lat="48.54049" lon="2.08173">
        <ele>85</ele>
        <time>2022-03-06T10:52:28Z</time>
      </trkpt>
      <trkpt lat="48.54048" lon="2.08168">
        <ele>85</ele>
        <time>2022-03-06T10:52:30Z</time>
      </trkpt>
      <trkpt lat="48.54048" lon="2.08162">
        <ele>85</ele>
        <time>2022-03-06T10:52:32Z</time>
      </trkpt>
      <trkpt lat="48.54047" lon="2.08157">
        <ele>85</ele>
        <time>2022-03-06T10:52:34Z</time>
      </trkpt>
      <trkpt lat="48.54047" lon="2.08152">
        <ele>85</ele>
        <time>2022-03-06T10:52:36Z</time>
      </trkpt>
      <trkpt lat="48.54045" lon="2.08147">
        <ele>85</ele>
        <time>2022-03-06T10:52:38Z</time>
      </trkpt>
      <trkpt lat="48.54044" lon="2.08143">
        <ele>85</ele>
        <time>2022-03-06T10:52:40Z</time>
      </trkpt>
      <trkpt lat="48.54043" lon="2.08138">
        <ele>85</ele>
        <time>2022-03-06T10:52:42Z</time>
      </trkpt>
      <trkpt lat="48.54042" lon="2.08132">
        <ele>85</ele>
        <time>2022-03-06T10:52:44Z</time>
      </trkpt>
      <trkpt lat="48.54042" lon="2.08127">
        <ele>85</ele>
        <time>2022-03-06T10:52:46Z</time>
      </trkpt>
      <trkpt lat="48.54041" lon="2.08122">
        <ele>85</ele>
        <time>2022-03-06T10:52:48Z</time>
      </trkpt>
      <trkpt lat="48.54041" lon="2.08117">
        <ele>85</ele>
        <time>2022-03-06T10:52:50Z</time>
      </trkpt>
      <trkpt lat="48.54041" lon="2.08112">
        <ele>85</ele>
        <time>2022-03-06T10:52:52Z</time>
      </trkpt>
      <trkpt lat="48.5404" lon="2.08108">
        <ele>86</ele>
        <time>2022-03-06T10:52:54Z</time>
      </trkpt>
      <trkpt lat="48.5404" lon="2.08103">
        <ele>86</ele>
        <time>2022-03-06T10:52:56Z</time>
      </trkpt>
      <trkpt lat="48.54039" lon="2.08098">
        <ele>86</ele>
        <time>2022-03-06T10:52:58Z</time>
      </trkpt>
      <trkpt lat="48.54038" lon="2.08093">
        <ele>86</ele>
        <time>2022-03-06T10:53:00Z</time>
      </trkpt>
      <trkpt lat="48.54037" lon="2.08088">
        <ele>86</ele>
        <time>2022-03-06T10:53:02Z</time>
      </trkpt>
      <trkpt lat="48.54036" lon="2.08084">
        <ele>86</ele>
        <time>2022-03-06T10:53:04Z</time>
      </trkpt>
      <trkpt lat="48.54035" lon="2.08079">
        <ele>86</ele>
        <time>2022-03-06T10:53:06Z</time>
      </trkpt>
      <trkpt lat="48.54034" lon="2.08075">
        <ele>85</ele>
        <time>2022-03-06T10:53:08Z</time>
      </trkpt>
      <trkpt lat="48.54033" lon="2.0807">
        <ele>85</ele>
        <time>2022-03-06T10:53:10Z</time>
      </trkpt>
      <trkpt lat="48.54032" lon="2.08065">
        <ele>85</ele>
        <time>2022-03-06T10:53:12Z</time>
      </trkpt>
      <trkpt lat="48.54031" lon="2.0806">
        <ele>85</ele>
        <time>2022-03-06T10:53:14Z</time>
      </trkpt>
      <trkpt lat="48.5403" lon="2.08056">
        <ele>84</ele>
        <time>2022-03-06T10:53:16Z</time>
      </trkpt>
      <trkpt lat="48.5403" lon="2.08051">
        <ele>84</ele>
        <time>2022-03-06T10:53:18Z</time>
      </trkpt>
      <trkpt lat="48.5403" lon="2.08047">
        <ele>84</ele>
        <time>2022-03-06T10:53:20Z</time>
      </trkpt>
      <trkpt lat="48.54029" lon="2.08042">
        <ele>84</ele>
        <time>2022-03-06T10:53:22Z</time>
      </trkpt>
      <trkpt lat="48.54028" lon="2.08038">
        <ele>84</ele>
        <time>2022-03-06T10:53:24Z</time>
      </trkpt>
      <trkpt lat="48.54027" lon="2.08033">
        <ele>84</ele>
        <time>2022-03-06T10:53:26Z</time>
      </trkpt>
      <trkpt lat="48.54027" lon="2.08028">
        <ele>84</ele>
        <time>2022-03-06T10:53:28Z</time>
      </trkpt>
      <trkpt lat="48.54027" lon="2.08024">
        <ele>84</ele>
        <time>2022-03-06T10:53:30Z</time>
      </trkpt>
      <trkpt lat="48.54026" lon="2.08019">
        <ele>84</ele>
        <time>2022-03-06T10:53:32Z</time>
      </trkpt>
      <trkpt lat="48.54025" lon="2.08015">
        <ele>84</ele>
        <time>2022-03-06T10:53:34Z</time>
      </trkpt>
      <trkpt lat="48.54025" lon="2.0801">
        <ele>84</ele>
        <time>2022-03-06T10:53:36Z</time>
      </trkpt>
      <trkpt lat="48.54024" lon="2.08005">
        <ele>84</ele>
        <time>2022-03-06T10:53:38Z</time>
      </trkpt>
      <trkpt lat="48.54023" lon="2.08001">
        <ele>84</ele>
        <time>2022-03-06T10:53:40Z</time>
      </trkpt>
      <trkpt lat="48.54022" lon="2.07996">
        <ele>84</ele>
        <time>2022-03-06T10:53:42Z</time>
      </trkpt>
      <trkpt lat="48.54021" lon="2.07992">
        <ele>85</ele>
        <time>2022-03-06T10:53:44Z</time>
      </trkpt>
      <trkpt lat="48.5402" lon="2.07987">
        <ele>85</ele>
        <time>2022-03-06T10:53:46Z</time>
      </trkpt>
      <trkpt lat="48.54019" lon="2.07982">
        <ele>85</ele>
        <time>2022-03-06T10:53:48Z</time>
      </trkpt>
      <trkpt lat="48.54018" lon="2.07978">
        <ele>85</ele>
        <time>2022-03-06T10:53:50Z</time>
      </trkpt>
      <trkpt lat="48.54017" lon="2.07973">
        <ele>85</ele>
        <time>2022-03-06T10:53:52Z</time>
      </trkpt>
      <trkpt lat="48.54016" lon="2.07968">
        <ele>85</ele>
        <time>2022-03-06T10:53:54Z</time>
      </trkpt>
      <trkpt lat="48.54015" lon="2.07964">
        <ele>85</ele>
        <time>2022-03-06T10:53:56Z</time>
      </trkpt>
      <trkpt lat="48.54014" lon="2.07959">
        <ele>85</ele>
        <time>2022-03-06T10:53:58Z</time>
      </trkpt>
      <trkpt lat="48.54013" lon="2.07954">
        <ele>85</ele>
        <time>2022-03-06T10:54:00Z</time>
      </trkpt>
      <trkpt lat="48.54012" lon="2.07949">
        <ele>85</ele>
        <time>2022-03-06T10:54:02Z</time>
      </trkpt>
      <trkpt lat="48.54011" lon="2.07944">
        <ele>85</ele>
        <time>2022-03-06T10:54:04Z</time>
      </trkpt>
      <trkpt lat="48.5401" lon="2.0794">
        <ele>85</ele>
        <time>2022-03-06T10:54:06Z</time>
      </trkpt>
      <trkpt lat="48.54009" lon="2.07934">
        <ele>85</ele>
        <time>2022-03-06T10:54:09Z</time>
      </trkpt>
      <trkpt lat="48.54009" lon="2.07929">
        <ele>85</ele>
        <time>2022-03-06T10:54:11Z</time>
      </trkpt>
      <trkpt lat="48.54008" lon="2.07925">
        <ele>85</ele>
        <time>2022-03-06T10:54:13Z</time>
      </trkpt>
      <trkpt lat="48.54008" lon="2.07919">
        <ele>86</ele>
        <time>2022-03-06T10:54:16Z</time>
      </trkpt>
      <trkpt lat="48.54006" lon="2.07914">
        <ele>86</ele>
        <time>2022-03-06T10:54:20Z</time>
      </trkpt>
      <trkpt lat="48.54004" lon="2.07911">
        <ele>86</ele>
        <time>2022-03-06T10:55:02Z</time>
      </trkpt>
      <trkpt lat="48.54001" lon="2.07907">
        <ele>86</ele>
        <time>2022-03-06T10:55:07Z</time>
      </trkpt>
      <trkpt lat="48.54" lon="2.07903">
        <ele>86</ele>
        <time>2022-03-06T10:55:10Z</time>
      </trkpt>
      <trkpt lat="48.54" lon="2.07898">
        <ele>86</ele>
        <time>2022-03-06T10:55:13Z</time>
      </trkpt>
      <trkpt lat="48.53999" lon="2.07893">
        <ele>85</ele>
        <time>2022-03-06T10:55:16Z</time>
      </trkpt>
      <trkpt lat="48.53997" lon="2.07889">
        <ele>85</ele>
        <time>2022-03-06T10:55:19Z</time>
      </trkpt>
      <trkpt lat="48.53995" lon="2.07888">
        <ele>83</ele>
        <time>2022-03-06T10:55:24Z</time>
      </trkpt>
      <trkpt lat="48.53993" lon="2.0789">
        <ele>82</ele>
        <time>2022-03-06T10:55:30Z</time>
      </trkpt>
      <trkpt lat="48.53987" lon="2.07893">
        <ele>82</ele>
        <time>2022-03-06T10:55:32Z</time>
      </trkpt>
      <trkpt lat="48.53984" lon="2.07895">
        <ele>82</ele>
        <time>2022-03-06T10:55:33Z</time>
      </trkpt>
      <trkpt lat="48.53981" lon="2.07898">
        <ele>81</ele>
        <time>2022-03-06T10:55:37Z</time>
      </trkpt>
      <trkpt lat="48.53979" lon="2.07901">
        <ele>81</ele>
        <time>2022-03-06T10:55:40Z</time>
      </trkpt>
      <trkpt lat="48.53977" lon="2.07904">
        <ele>80</ele>
        <time>2022-03-06T10:55:43Z</time>
      </trkpt>
      <trkpt lat="48.53974" lon="2.07907">
        <ele>80</ele>
        <time>2022-03-06T10:55:45Z</time>
      </trkpt>
      <trkpt lat="48.53971" lon="2.0791">
        <ele>79</ele>
        <time>2022-03-06T10:55:47Z</time>
      </trkpt>
      <trkpt lat="48.53968" lon="2.07913">
        <ele>79</ele>
        <time>2022-03-06T10:55:49Z</time>
      </trkpt>
      <trkpt lat="48.53966" lon="2.07916">
        <ele>79</ele>
        <time>2022-03-06T10:55:51Z</time>
      </trkpt>
      <trkpt lat="48.53963" lon="2.07918">
        <ele>78</ele>
        <time>2022-03-06T10:55:53Z</time>
      </trkpt>
      <trkpt lat="48.5396" lon="2.07922">
        <ele>78</ele>
        <time>2022-03-06T10:55:56Z</time>
      </trkpt>
      <trkpt lat="48.53958" lon="2.07925">
        <ele>78</ele>
        <time>2022-03-06T10:55:58Z</time>
      </trkpt>
      <trkpt lat="48.53955" lon="2.07927">
        <ele>77</ele>
        <time>2022-03-06T10:56:00Z</time>
      </trkpt>
      <trkpt lat="48.53953" lon="2.07929">
        <ele>77</ele>
        <time>2022-03-06T10:56:02Z</time>
      </trkpt>
      <trkpt lat="48.5395" lon="2.07932">
        <ele>76</ele>
        <time>2022-03-06T10:56:04Z</time>
      </trkpt>
      <trkpt lat="48.53948" lon="2.07935">
        <ele>76</ele>
        <time>2022-03-06T10:56:06Z</time>
      </trkpt>
      <trkpt lat="48.53945" lon="2.07938">
        <ele>76</ele>
        <time>2022-03-06T10:56:08Z</time>
      </trkpt>
      <trkpt lat="48.53942" lon="2.07941">
        <ele>75</ele>
        <time>2022-03-06T10:56:11Z</time>
      </trkpt>
      <trkpt lat="48.53939" lon="2.07943">
        <ele>75</ele>
        <time>2022-03-06T10:56:14Z</time>
      </trkpt>
      <trkpt lat="48.53939" lon="2.07947">
        <ele>75</ele>
        <time>2022-03-06T10:56:17Z</time>
      </trkpt>
      <trkpt lat="48.5394" lon="2.07951">
        <ele>74</ele>
        <time>2022-03-06T10:56:19Z</time>
      </trkpt>
      <trkpt lat="48.53939" lon="2.07955">
        <ele>74</ele>
        <time>2022-03-06T10:56:21Z</time>
      </trkpt>
      <trkpt lat="48.53938" lon="2.07959">
        <ele>74</ele>
        <time>2022-03-06T10:56:25Z</time>
      </trkpt>
      <trkpt lat="48.53936" lon="2.07961">
        <ele>74</ele>
        <time>2022-03-06T10:56:27Z</time>
      </trkpt>
      <trkpt lat="48.53933" lon="2.07963">
        <ele>74</ele>
        <time>2022-03-06T10:56:30Z</time>
      </trkpt>
      <trkpt lat="48.5393" lon="2.07963">
        <ele>74</ele>
        <time>2022-03-06T10:56:32Z</time>
      </trkpt>
      <trkpt lat="48.53927" lon="2.07964">
        <ele>74</ele>
        <time>2022-03-06T10:56:34Z</time>
      </trkpt>
      <trkpt lat="48.53924" lon="2.07964">
        <ele>74</ele>
        <time>2022-03-06T10:56:36Z</time>
      </trkpt>
      <trkpt lat="48.53921" lon="2.07965">
        <ele>74</ele>
        <time>2022-03-06T10:56:40Z</time>
      </trkpt>
      <trkpt lat="48.53918" lon="2.07966">
        <ele>74</ele>
        <time>2022-03-06T10:56:43Z</time>
      </trkpt>
      <trkpt lat="48.53915" lon="2.07967">
        <ele>74</ele>
        <time>2022-03-06T10:56:45Z</time>
      </trkpt>
      <trkpt lat="48.53912" lon="2.07969">
        <ele>74</ele>
        <time>2022-03-06T10:56:48Z</time>
      </trkpt>
      <trkpt lat="48.53909" lon="2.07971">
        <ele>74</ele>
        <time>2022-03-06T10:56:50Z</time>
      </trkpt>
      <trkpt lat="48.53905" lon="2.07974">
        <ele>74</ele>
        <time>2022-03-06T10:56:53Z</time>
      </trkpt>
      <trkpt lat="48.53902" lon="2.07976">
        <ele>75</ele>
        <time>2022-03-06T10:56:55Z</time>
      </trkpt>
      <trkpt lat="48.53899" lon="2.07978">
        <ele>75</ele>
        <time>2022-03-06T10:56:58Z</time>
      </trkpt>
      <trkpt lat="48.53896" lon="2.07981">
        <ele>75</ele>
        <time>2022-03-06T10:57:00Z</time>
      </trkpt>
      <trkpt lat="48.53893" lon="2.07983">
        <ele>75</ele>
        <time>2022-03-06T10:57:02Z</time>
      </trkpt>
      <trkpt lat="48.5389" lon="2.07985">
        <ele>75</ele>
        <time>2022-03-06T10:57:05Z</time>
      </trkpt>
      <trkpt lat="48.53886" lon="2.07987">
        <ele>75</ele>
        <time>2022-03-06T10:57:08Z</time>
      </trkpt>
      <trkpt lat="48.53883" lon="2.07986">
        <ele>75</ele>
        <time>2022-03-06T10:57:10Z</time>
      </trkpt>
      <trkpt lat="48.5388" lon="2.07984">
        <ele>75</ele>
        <time>2022-03-06T10:57:12Z</time>
      </trkpt>
      <trkpt lat="48.53878" lon="2.07982">
        <ele>75</ele>
        <time>2022-03-06T10:57:15Z</time>
      </trkpt>
      <trkpt lat="48.53874" lon="2.07983">
        <ele>75</ele>
        <time>2022-03-06T10:57:18Z</time>
      </trkpt>
    </trkseg>
  </trk>
</gpx>